<?xml version="1.0" encoding="UTF-8" standalone="no" ?>
<gpx xmlns="http://www.topografix.com/GPX/1/1" xmlns:xsi="http://www.w3.org/2001/XMLSchema-instance" xsi:schemaLocation="http://www.topografix.com/GPX/1/1 http://www.topografix.com/GPX/1/1/gpx.xsd" version="1.1" creator="VisuGPX - https://www.visugpx.com">
  <metadata>
    <name>Rando Pourpre 24 2022</name>
  </metadata>
  <trk>
    <name><![CDATA[Rando Pourpre 24 2022_1]]></name>
    <trkseg>
      <trkpt lat="44.82638" lon="0.40436">
        <ele>38.3</ele>
        <time>2022-09-25T06:24:22Z</time>
      </trkpt>
      <trkpt lat="44.82647" lon="0.40413">
        <ele>38.5</ele>
        <time>2022-09-25T06:24:29Z</time>
      </trkpt>
      <trkpt lat="44.82648" lon="0.40389">
        <ele>38.7</ele>
        <time>2022-09-25T06:24:34Z</time>
      </trkpt>
      <trkpt lat="44.82649" lon="0.40377">
        <ele>38.7</ele>
        <time>2022-09-25T06:24:36Z</time>
      </trkpt>
      <trkpt lat="44.8265" lon="0.40358">
        <ele>38.8</ele>
        <time>2022-09-25T06:24:39Z</time>
      </trkpt>
      <trkpt lat="44.82651" lon="0.40332">
        <ele>38.8</ele>
        <time>2022-09-25T06:24:43Z</time>
      </trkpt>
      <trkpt lat="44.82652" lon="0.40312">
        <ele>38.8</ele>
        <time>2022-09-25T06:24:46Z</time>
      </trkpt>
      <trkpt lat="44.82653" lon="0.40275">
        <ele>38.9</ele>
        <time>2022-09-25T06:24:51Z</time>
      </trkpt>
      <trkpt lat="44.82655" lon="0.40234">
        <ele>39</ele>
        <time>2022-09-25T06:24:57Z</time>
      </trkpt>
      <trkpt lat="44.82656" lon="0.40222">
        <ele>39.1</ele>
        <time>2022-09-25T06:24:59Z</time>
      </trkpt>
      <trkpt lat="44.82657" lon="0.40208">
        <ele>39.2</ele>
        <time>2022-09-25T06:25:01Z</time>
      </trkpt>
      <trkpt lat="44.82657" lon="0.40201">
        <ele>39.2</ele>
        <time>2022-09-25T06:25:02Z</time>
      </trkpt>
      <trkpt lat="44.82657" lon="0.40189">
        <ele>39.2</ele>
        <time>2022-09-25T06:25:04Z</time>
      </trkpt>
      <trkpt lat="44.82652" lon="0.40173">
        <ele>39.6</ele>
        <time>2022-09-25T06:25:07Z</time>
      </trkpt>
      <trkpt lat="44.82649" lon="0.40171">
        <ele>39.8</ele>
        <time>2022-09-25T06:25:08Z</time>
      </trkpt>
      <trkpt lat="44.82636" lon="0.40166">
        <ele>40.4</ele>
        <time>2022-09-25T06:25:12Z</time>
      </trkpt>
      <trkpt lat="44.82615" lon="0.40159">
        <ele>40.6</ele>
        <time>2022-09-25T06:25:19Z</time>
      </trkpt>
      <trkpt lat="44.82597" lon="0.40153">
        <ele>40.7</ele>
        <time>2022-09-25T06:25:24Z</time>
      </trkpt>
      <trkpt lat="44.82572" lon="0.40144">
        <ele>40.8</ele>
        <time>2022-09-25T06:25:30Z</time>
      </trkpt>
      <trkpt lat="44.8255" lon="0.40137">
        <ele>40.6</ele>
        <time>2022-09-25T06:25:36Z</time>
      </trkpt>
      <trkpt lat="44.82525" lon="0.40128">
        <ele>40.5</ele>
        <time>2022-09-25T06:25:41Z</time>
      </trkpt>
      <trkpt lat="44.82501" lon="0.4012">
        <ele>40.4</ele>
        <time>2022-09-25T06:25:46Z</time>
      </trkpt>
      <trkpt lat="44.82478" lon="0.40112">
        <ele>40.3</ele>
        <time>2022-09-25T06:25:51Z</time>
      </trkpt>
      <trkpt lat="44.82473" lon="0.40111">
        <ele>40.3</ele>
        <time>2022-09-25T06:25:52Z</time>
      </trkpt>
      <trkpt lat="44.8245" lon="0.40101">
        <ele>40.1</ele>
        <time>2022-09-25T06:25:58Z</time>
      </trkpt>
      <trkpt lat="44.82412" lon="0.40085">
        <ele>39.7</ele>
        <time>2022-09-25T06:26:07Z</time>
      </trkpt>
      <trkpt lat="44.82376" lon="0.40069">
        <ele>39.3</ele>
        <time>2022-09-25T06:26:15Z</time>
      </trkpt>
      <trkpt lat="44.82341" lon="0.40056">
        <ele>39</ele>
        <time>2022-09-25T06:26:23Z</time>
      </trkpt>
      <trkpt lat="44.82304" lon="0.40041">
        <ele>38.7</ele>
        <time>2022-09-25T06:26:32Z</time>
      </trkpt>
      <trkpt lat="44.82282" lon="0.4002">
        <ele>39</ele>
        <time>2022-09-25T06:26:38Z</time>
      </trkpt>
      <trkpt lat="44.82267" lon="0.40003">
        <ele>39.3</ele>
        <time>2022-09-25T06:26:43Z</time>
      </trkpt>
      <trkpt lat="44.82247" lon="0.39981">
        <ele>39.6</ele>
        <time>2022-09-25T06:26:49Z</time>
      </trkpt>
      <trkpt lat="44.82222" lon="0.39953">
        <ele>40</ele>
        <time>2022-09-25T06:26:56Z</time>
      </trkpt>
      <trkpt lat="44.82195" lon="0.39924">
        <ele>40.5</ele>
        <time>2022-09-25T06:27:04Z</time>
      </trkpt>
      <trkpt lat="44.82175" lon="0.39903">
        <ele>40.8</ele>
        <time>2022-09-25T06:27:10Z</time>
      </trkpt>
      <trkpt lat="44.82159" lon="0.39885">
        <ele>41.1</ele>
        <time>2022-09-25T06:27:15Z</time>
      </trkpt>
      <trkpt lat="44.82147" lon="0.39871">
        <ele>41.3</ele>
        <time>2022-09-25T06:27:19Z</time>
      </trkpt>
      <trkpt lat="44.82124" lon="0.39845">
        <ele>41.7</ele>
        <time>2022-09-25T06:27:26Z</time>
      </trkpt>
      <trkpt lat="44.82104" lon="0.39823">
        <ele>42</ele>
        <time>2022-09-25T06:27:32Z</time>
      </trkpt>
      <trkpt lat="44.82084" lon="0.39801">
        <ele>42.3</ele>
        <time>2022-09-25T06:27:37Z</time>
      </trkpt>
      <trkpt lat="44.8208" lon="0.39796">
        <ele>42.4</ele>
        <time>2022-09-25T06:27:38Z</time>
      </trkpt>
      <trkpt lat="44.82062" lon="0.39776">
        <ele>42.7</ele>
        <time>2022-09-25T06:27:43Z</time>
      </trkpt>
      <trkpt lat="44.82041" lon="0.39752">
        <ele>43.1</ele>
        <time>2022-09-25T06:27:48Z</time>
      </trkpt>
      <trkpt lat="44.82018" lon="0.39727">
        <ele>43.5</ele>
        <time>2022-09-25T06:27:54Z</time>
      </trkpt>
      <trkpt lat="44.81998" lon="0.39705">
        <ele>43.8</ele>
        <time>2022-09-25T06:27:59Z</time>
      </trkpt>
      <trkpt lat="44.81979" lon="0.39685">
        <ele>44.1</ele>
        <time>2022-09-25T06:28:04Z</time>
      </trkpt>
      <trkpt lat="44.81962" lon="0.39667">
        <ele>44.4</ele>
        <time>2022-09-25T06:28:09Z</time>
      </trkpt>
      <trkpt lat="44.81959" lon="0.39663">
        <ele>44.4</ele>
        <time>2022-09-25T06:28:10Z</time>
      </trkpt>
      <trkpt lat="44.81952" lon="0.39642">
        <ele>44.7</ele>
        <time>2022-09-25T06:28:14Z</time>
      </trkpt>
      <trkpt lat="44.81951" lon="0.39637">
        <ele>44.7</ele>
        <time>2022-09-25T06:28:15Z</time>
      </trkpt>
      <trkpt lat="44.81948" lon="0.39622">
        <ele>44.9</ele>
        <time>2022-09-25T06:28:18Z</time>
      </trkpt>
      <trkpt lat="44.81914" lon="0.39612">
        <ele>44.7</ele>
        <time>2022-09-25T06:28:21Z</time>
      </trkpt>
      <trkpt lat="44.81895" lon="0.39592">
        <ele>44.9</ele>
        <time>2022-09-25T06:28:27Z</time>
      </trkpt>
      <trkpt lat="44.81887" lon="0.39586">
        <ele>44.9</ele>
        <time>2022-09-25T06:28:29Z</time>
      </trkpt>
      <trkpt lat="44.8188" lon="0.39589">
        <ele>44.9</ele>
        <time>2022-09-25T06:28:31Z</time>
      </trkpt>
      <trkpt lat="44.81876" lon="0.39599">
        <ele>44.9</ele>
        <time>2022-09-25T06:28:33Z</time>
      </trkpt>
      <trkpt lat="44.81874" lon="0.39604">
        <ele>44.5</ele>
        <time>2022-09-25T06:28:34Z</time>
      </trkpt>
      <trkpt lat="44.81859" lon="0.39641">
        <ele>43.8</ele>
        <time>2022-09-25T06:28:41Z</time>
      </trkpt>
      <trkpt lat="44.81849" lon="0.39668">
        <ele>43.6</ele>
        <time>2022-09-25T06:28:47Z</time>
      </trkpt>
      <trkpt lat="44.81844" lon="0.39677">
        <ele>43.3</ele>
        <time>2022-09-25T06:28:49Z</time>
      </trkpt>
      <trkpt lat="44.81837" lon="0.39685">
        <ele>43.5</ele>
        <time>2022-09-25T06:28:51Z</time>
      </trkpt>
      <trkpt lat="44.81832" lon="0.39703">
        <ele>43.4</ele>
        <time>2022-09-25T06:28:55Z</time>
      </trkpt>
      <trkpt lat="44.81819" lon="0.39736">
        <ele>43.6</ele>
        <time>2022-09-25T06:29:02Z</time>
      </trkpt>
      <trkpt lat="44.81813" lon="0.3976">
        <ele>43.9</ele>
        <time>2022-09-25T06:29:07Z</time>
      </trkpt>
      <trkpt lat="44.81804" lon="0.39781">
        <ele>44</ele>
        <time>2022-09-25T06:29:12Z</time>
      </trkpt>
      <trkpt lat="44.81796" lon="0.39801">
        <ele>44.4</ele>
        <time>2022-09-25T06:29:16Z</time>
      </trkpt>
      <trkpt lat="44.81793" lon="0.39807">
        <ele>44.4</ele>
        <time>2022-09-25T06:29:17Z</time>
      </trkpt>
      <trkpt lat="44.81787" lon="0.39823">
        <ele>44.7</ele>
        <time>2022-09-25T06:29:20Z</time>
      </trkpt>
      <trkpt lat="44.81782" lon="0.39834">
        <ele>44.9</ele>
        <time>2022-09-25T06:29:22Z</time>
      </trkpt>
      <trkpt lat="44.81778" lon="0.39845">
        <ele>44.9</ele>
        <time>2022-09-25T06:29:24Z</time>
      </trkpt>
      <trkpt lat="44.81772" lon="0.39862">
        <ele>45.2</ele>
        <time>2022-09-25T06:29:27Z</time>
      </trkpt>
      <trkpt lat="44.8177" lon="0.39869">
        <ele>45.1</ele>
        <time>2022-09-25T06:29:28Z</time>
      </trkpt>
      <trkpt lat="44.8177" lon="0.39876">
        <ele>45.1</ele>
        <time>2022-09-25T06:29:29Z</time>
      </trkpt>
      <trkpt lat="44.81765" lon="0.39897">
        <ele>45.1</ele>
        <time>2022-09-25T06:29:32Z</time>
      </trkpt>
      <trkpt lat="44.81764" lon="0.39902">
        <ele>45.2</ele>
        <time>2022-09-25T06:29:33Z</time>
      </trkpt>
      <trkpt lat="44.81763" lon="0.39923">
        <ele>45.1</ele>
        <time>2022-09-25T06:29:37Z</time>
      </trkpt>
      <trkpt lat="44.81771" lon="0.3993">
        <ele>44.9</ele>
        <time>2022-09-25T06:29:39Z</time>
      </trkpt>
      <trkpt lat="44.81775" lon="0.39932">
        <ele>44.9</ele>
        <time>2022-09-25T06:29:40Z</time>
      </trkpt>
      <trkpt lat="44.8178" lon="0.39933">
        <ele>44.7</ele>
        <time>2022-09-25T06:29:41Z</time>
      </trkpt>
      <trkpt lat="44.81811" lon="0.39941">
        <ele>44.5</ele>
        <time>2022-09-25T06:29:48Z</time>
      </trkpt>
      <trkpt lat="44.81824" lon="0.39946">
        <ele>44.3</ele>
        <time>2022-09-25T06:29:51Z</time>
      </trkpt>
      <trkpt lat="44.81837" lon="0.39949">
        <ele>44.2</ele>
        <time>2022-09-25T06:29:54Z</time>
      </trkpt>
      <trkpt lat="44.81869" lon="0.39958">
        <ele>43.7</ele>
        <time>2022-09-25T06:30:02Z</time>
      </trkpt>
      <trkpt lat="44.81886" lon="0.39958">
        <ele>43.6</ele>
        <time>2022-09-25T06:30:06Z</time>
      </trkpt>
      <trkpt lat="44.81892" lon="0.39956">
        <ele>43.6</ele>
        <time>2022-09-25T06:30:07Z</time>
      </trkpt>
      <trkpt lat="44.81896" lon="0.39957">
        <ele>43.6</ele>
        <time>2022-09-25T06:30:09Z</time>
      </trkpt>
      <trkpt lat="44.81904" lon="0.3996">
        <ele>43.6</ele>
        <time>2022-09-25T06:30:11Z</time>
      </trkpt>
      <trkpt lat="44.81936" lon="0.39967">
        <ele>42.8</ele>
        <time>2022-09-25T06:30:17Z</time>
      </trkpt>
      <trkpt lat="44.8198" lon="0.39975">
        <ele>41.8</ele>
        <time>2022-09-25T06:30:25Z</time>
      </trkpt>
      <trkpt lat="44.82032" lon="0.39981">
        <ele>41</ele>
        <time>2022-09-25T06:30:34Z</time>
      </trkpt>
      <trkpt lat="44.8209" lon="0.39986">
        <ele>40.2</ele>
        <time>2022-09-25T06:30:44Z</time>
      </trkpt>
      <trkpt lat="44.82095" lon="0.39986">
        <ele>40.1</ele>
        <time>2022-09-25T06:30:45Z</time>
      </trkpt>
      <trkpt lat="44.82144" lon="0.39991">
        <ele>39.6</ele>
        <time>2022-09-25T06:30:54Z</time>
      </trkpt>
      <trkpt lat="44.82188" lon="0.39998">
        <ele>39.3</ele>
        <time>2022-09-25T06:31:02Z</time>
      </trkpt>
      <trkpt lat="44.82233" lon="0.40009">
        <ele>39.2</ele>
        <time>2022-09-25T06:31:10Z</time>
      </trkpt>
      <trkpt lat="44.8227" lon="0.40025">
        <ele>39.1</ele>
        <time>2022-09-25T06:31:17Z</time>
      </trkpt>
      <trkpt lat="44.82282" lon="0.40031">
        <ele>39.1</ele>
        <time>2022-09-25T06:31:20Z</time>
      </trkpt>
      <trkpt lat="44.82284" lon="0.40032">
        <ele>39</ele>
        <time>2022-09-25T06:31:21Z</time>
      </trkpt>
      <trkpt lat="44.82285" lon="0.40023">
        <ele>39</ele>
        <time>2022-09-25T06:31:23Z</time>
      </trkpt>
      <trkpt lat="44.82283" lon="0.4002">
        <ele>39</ele>
        <time>2022-09-25T06:31:24Z</time>
      </trkpt>
      <trkpt lat="44.82272" lon="0.40009">
        <ele>39.2</ele>
        <time>2022-09-25T06:31:29Z</time>
      </trkpt>
      <trkpt lat="44.82261" lon="0.39997">
        <ele>39.4</ele>
        <time>2022-09-25T06:31:34Z</time>
      </trkpt>
      <trkpt lat="44.8225" lon="0.39984">
        <ele>39.6</ele>
        <time>2022-09-25T06:31:36Z</time>
      </trkpt>
      <trkpt lat="44.82239" lon="0.39972">
        <ele>39.7</ele>
        <time>2022-09-25T06:31:39Z</time>
      </trkpt>
      <trkpt lat="44.82222" lon="0.39953">
        <ele>40</ele>
        <time>2022-09-25T06:31:43Z</time>
      </trkpt>
      <trkpt lat="44.82193" lon="0.39922">
        <ele>40.5</ele>
        <time>2022-09-25T06:31:50Z</time>
      </trkpt>
      <trkpt lat="44.8216" lon="0.39886">
        <ele>41.1</ele>
        <time>2022-09-25T06:31:58Z</time>
      </trkpt>
      <trkpt lat="44.82132" lon="0.39854">
        <ele>41.5</ele>
        <time>2022-09-25T06:32:05Z</time>
      </trkpt>
      <trkpt lat="44.82108" lon="0.39827">
        <ele>41.9</ele>
        <time>2022-09-25T06:32:11Z</time>
      </trkpt>
      <trkpt lat="44.82104" lon="0.39823">
        <ele>42</ele>
        <time>2022-09-25T06:32:12Z</time>
      </trkpt>
      <trkpt lat="44.82087" lon="0.39804">
        <ele>42.3</ele>
        <time>2022-09-25T06:32:16Z</time>
      </trkpt>
      <trkpt lat="44.82073" lon="0.39788">
        <ele>42.5</ele>
        <time>2022-09-25T06:32:20Z</time>
      </trkpt>
      <trkpt lat="44.82053" lon="0.39765">
        <ele>42.9</ele>
        <time>2022-09-25T06:32:25Z</time>
      </trkpt>
      <trkpt lat="44.82022" lon="0.39731">
        <ele>43.4</ele>
        <time>2022-09-25T06:32:32Z</time>
      </trkpt>
      <trkpt lat="44.81998" lon="0.39705">
        <ele>43.8</ele>
        <time>2022-09-25T06:32:38Z</time>
      </trkpt>
      <trkpt lat="44.81974" lon="0.3968">
        <ele>44.2</ele>
        <time>2022-09-25T06:32:44Z</time>
      </trkpt>
      <trkpt lat="44.81971" lon="0.39676">
        <ele>44.2</ele>
        <time>2022-09-25T06:32:45Z</time>
      </trkpt>
      <trkpt lat="44.81956" lon="0.3966">
        <ele>44.5</ele>
        <time>2022-09-25T06:32:49Z</time>
      </trkpt>
      <trkpt lat="44.81951" lon="0.39636">
        <ele>44.7</ele>
        <time>2022-09-25T06:32:53Z</time>
      </trkpt>
      <trkpt lat="44.81948" lon="0.39625">
        <ele>44.8</ele>
        <time>2022-09-25T06:32:55Z</time>
      </trkpt>
      <trkpt lat="44.81947" lon="0.39616">
        <ele>44.9</ele>
        <time>2022-09-25T06:32:57Z</time>
      </trkpt>
      <trkpt lat="44.81903" lon="0.39601">
        <ele>44.9</ele>
        <time>2022-09-25T06:33:02Z</time>
      </trkpt>
      <trkpt lat="44.81885" lon="0.39585">
        <ele>45.2</ele>
        <time>2022-09-25T06:33:07Z</time>
      </trkpt>
      <trkpt lat="44.8188" lon="0.39586">
        <ele>44.9</ele>
        <time>2022-09-25T06:33:08Z</time>
      </trkpt>
      <trkpt lat="44.81877" lon="0.39589">
        <ele>44.9</ele>
        <time>2022-09-25T06:33:09Z</time>
      </trkpt>
      <trkpt lat="44.81874" lon="0.39599">
        <ele>44.9</ele>
        <time>2022-09-25T06:33:11Z</time>
      </trkpt>
      <trkpt lat="44.81862" lon="0.39613">
        <ele>44.6</ele>
        <time>2022-09-25T06:33:15Z</time>
      </trkpt>
      <trkpt lat="44.81853" lon="0.39616">
        <ele>44.6</ele>
        <time>2022-09-25T06:33:17Z</time>
      </trkpt>
      <trkpt lat="44.81847" lon="0.39626">
        <ele>44.3</ele>
        <time>2022-09-25T06:33:19Z</time>
      </trkpt>
      <trkpt lat="44.81837" lon="0.39654">
        <ele>44.1</ele>
        <time>2022-09-25T06:33:24Z</time>
      </trkpt>
      <trkpt lat="44.81828" lon="0.39674">
        <ele>43.6</ele>
        <time>2022-09-25T06:33:28Z</time>
      </trkpt>
      <trkpt lat="44.81824" lon="0.39674">
        <ele>43.8</ele>
        <time>2022-09-25T06:33:29Z</time>
      </trkpt>
      <trkpt lat="44.81815" lon="0.39669">
        <ele>43.9</ele>
        <time>2022-09-25T06:33:31Z</time>
      </trkpt>
      <trkpt lat="44.81811" lon="0.39666">
        <ele>44</ele>
        <time>2022-09-25T06:33:32Z</time>
      </trkpt>
      <trkpt lat="44.81791" lon="0.39651">
        <ele>44</ele>
        <time>2022-09-25T06:33:37Z</time>
      </trkpt>
      <trkpt lat="44.8176" lon="0.39627">
        <ele>43.6</ele>
        <time>2022-09-25T06:33:44Z</time>
      </trkpt>
      <trkpt lat="44.81736" lon="0.39609">
        <ele>43.3</ele>
        <time>2022-09-25T06:33:50Z</time>
      </trkpt>
      <trkpt lat="44.81708" lon="0.39587">
        <ele>43.2</ele>
        <time>2022-09-25T06:33:57Z</time>
      </trkpt>
      <trkpt lat="44.81674" lon="0.3956">
        <ele>43.4</ele>
        <time>2022-09-25T06:34:05Z</time>
      </trkpt>
      <trkpt lat="44.81656" lon="0.39544">
        <ele>43.3</ele>
        <time>2022-09-25T06:34:10Z</time>
      </trkpt>
      <trkpt lat="44.81624" lon="0.39517">
        <ele>43.9</ele>
        <time>2022-09-25T06:34:18Z</time>
      </trkpt>
      <trkpt lat="44.81597" lon="0.39497">
        <ele>45</ele>
        <time>2022-09-25T06:34:25Z</time>
      </trkpt>
      <trkpt lat="44.81578" lon="0.39475">
        <ele>46</ele>
        <time>2022-09-25T06:34:32Z</time>
      </trkpt>
      <trkpt lat="44.81578" lon="0.39454">
        <ele>46.1</ele>
        <time>2022-09-25T06:34:36Z</time>
      </trkpt>
      <trkpt lat="44.8158" lon="0.39443">
        <ele>46.4</ele>
        <time>2022-09-25T06:34:39Z</time>
      </trkpt>
      <trkpt lat="44.81585" lon="0.39426">
        <ele>46</ele>
        <time>2022-09-25T06:34:42Z</time>
      </trkpt>
      <trkpt lat="44.81587" lon="0.39419">
        <ele>46</ele>
        <time>2022-09-25T06:34:43Z</time>
      </trkpt>
      <trkpt lat="44.81593" lon="0.3941">
        <ele>46.3</ele>
        <time>2022-09-25T06:34:45Z</time>
      </trkpt>
      <trkpt lat="44.81596" lon="0.39406">
        <ele>45.8</ele>
        <time>2022-09-25T06:34:46Z</time>
      </trkpt>
      <trkpt lat="44.81603" lon="0.39395">
        <ele>46.3</ele>
        <time>2022-09-25T06:34:48Z</time>
      </trkpt>
      <trkpt lat="44.81606" lon="0.3939">
        <ele>46.3</ele>
        <time>2022-09-25T06:34:49Z</time>
      </trkpt>
      <trkpt lat="44.81608" lon="0.39383">
        <ele>45.9</ele>
        <time>2022-09-25T06:34:50Z</time>
      </trkpt>
      <trkpt lat="44.81612" lon="0.39371">
        <ele>46.6</ele>
        <time>2022-09-25T06:34:52Z</time>
      </trkpt>
      <trkpt lat="44.81625" lon="0.39337">
        <ele>48.1</ele>
        <time>2022-09-25T06:34:58Z</time>
      </trkpt>
      <trkpt lat="44.81633" lon="0.39319">
        <ele>48.7</ele>
        <time>2022-09-25T06:35:02Z</time>
      </trkpt>
      <trkpt lat="44.81634" lon="0.39303">
        <ele>49.6</ele>
        <time>2022-09-25T06:35:06Z</time>
      </trkpt>
      <trkpt lat="44.81628" lon="0.39298">
        <ele>50</ele>
        <time>2022-09-25T06:35:08Z</time>
      </trkpt>
      <trkpt lat="44.81618" lon="0.39285">
        <ele>50.7</ele>
        <time>2022-09-25T06:35:12Z</time>
      </trkpt>
      <trkpt lat="44.81608" lon="0.39276">
        <ele>50.7</ele>
        <time>2022-09-25T06:35:15Z</time>
      </trkpt>
      <trkpt lat="44.81592" lon="0.39262">
        <ele>51.9</ele>
        <time>2022-09-25T06:35:21Z</time>
      </trkpt>
      <trkpt lat="44.81571" lon="0.39245">
        <ele>52.3</ele>
        <time>2022-09-25T06:35:27Z</time>
      </trkpt>
      <trkpt lat="44.81558" lon="0.39241">
        <ele>52.3</ele>
        <time>2022-09-25T06:35:30Z</time>
      </trkpt>
      <trkpt lat="44.81554" lon="0.39242">
        <ele>53</ele>
        <time>2022-09-25T06:35:31Z</time>
      </trkpt>
      <trkpt lat="44.8155" lon="0.39243">
        <ele>53</ele>
        <time>2022-09-25T06:35:32Z</time>
      </trkpt>
      <trkpt lat="44.81539" lon="0.39253">
        <ele>53.1</ele>
        <time>2022-09-25T06:35:35Z</time>
      </trkpt>
      <trkpt lat="44.8153" lon="0.39267">
        <ele>53.5</ele>
        <time>2022-09-25T06:35:38Z</time>
      </trkpt>
      <trkpt lat="44.81523" lon="0.39275">
        <ele>53.5</ele>
        <time>2022-09-25T06:35:40Z</time>
      </trkpt>
      <trkpt lat="44.81513" lon="0.39291">
        <ele>53.5</ele>
        <time>2022-09-25T06:35:44Z</time>
      </trkpt>
      <trkpt lat="44.8151" lon="0.39294">
        <ele>53.2</ele>
        <time>2022-09-25T06:35:45Z</time>
      </trkpt>
      <trkpt lat="44.81507" lon="0.39308">
        <ele>53.3</ele>
        <time>2022-09-25T06:35:48Z</time>
      </trkpt>
      <trkpt lat="44.81508" lon="0.39332">
        <ele>52.8</ele>
        <time>2022-09-25T06:35:52Z</time>
      </trkpt>
      <trkpt lat="44.81506" lon="0.39339">
        <ele>52.8</ele>
        <time>2022-09-25T06:35:53Z</time>
      </trkpt>
      <trkpt lat="44.81504" lon="0.39352">
        <ele>52.5</ele>
        <time>2022-09-25T06:35:55Z</time>
      </trkpt>
      <trkpt lat="44.81507" lon="0.39376">
        <ele>52.1</ele>
        <time>2022-09-25T06:35:59Z</time>
      </trkpt>
      <trkpt lat="44.81511" lon="0.39392">
        <ele>51.3</ele>
        <time>2022-09-25T06:36:03Z</time>
      </trkpt>
      <trkpt lat="44.8151" lon="0.39407">
        <ele>50.8</ele>
        <time>2022-09-25T06:36:08Z</time>
      </trkpt>
      <trkpt lat="44.81508" lon="0.39406">
        <ele>51.5</ele>
        <time>2022-09-25T06:36:10Z</time>
      </trkpt>
      <trkpt lat="44.81503" lon="0.39404">
        <ele>51.5</ele>
        <time>2022-09-25T06:36:12Z</time>
      </trkpt>
      <trkpt lat="44.81499" lon="0.39401">
        <ele>51.5</ele>
        <time>2022-09-25T06:36:15Z</time>
      </trkpt>
      <trkpt lat="44.8149" lon="0.39396">
        <ele>52.3</ele>
        <time>2022-09-25T06:36:21Z</time>
      </trkpt>
      <trkpt lat="44.81476" lon="0.39395">
        <ele>52.7</ele>
        <time>2022-09-25T06:36:25Z</time>
      </trkpt>
      <trkpt lat="44.81469" lon="0.39393">
        <ele>53</ele>
        <time>2022-09-25T06:36:29Z</time>
      </trkpt>
      <trkpt lat="44.81464" lon="0.39393">
        <ele>53</ele>
        <time>2022-09-25T06:36:33Z</time>
      </trkpt>
      <trkpt lat="44.81463" lon="0.39393">
        <ele>53</ele>
        <time>2022-09-25T06:36:34Z</time>
      </trkpt>
      <trkpt lat="44.81457" lon="0.39398">
        <ele>53.1</ele>
        <time>2022-09-25T06:36:38Z</time>
      </trkpt>
      <trkpt lat="44.81455" lon="0.39398">
        <ele>53.1</ele>
        <time>2022-09-25T06:36:40Z</time>
      </trkpt>
      <trkpt lat="44.81451" lon="0.39399">
        <ele>53.1</ele>
        <time>2022-09-25T06:36:44Z</time>
      </trkpt>
      <trkpt lat="44.81442" lon="0.39397">
        <ele>53.2</ele>
        <time>2022-09-25T06:36:47Z</time>
      </trkpt>
      <trkpt lat="44.81439" lon="0.39397">
        <ele>53.2</ele>
        <time>2022-09-25T06:36:48Z</time>
      </trkpt>
      <trkpt lat="44.81437" lon="0.39398">
        <ele>53.2</ele>
        <time>2022-09-25T06:36:49Z</time>
      </trkpt>
      <trkpt lat="44.81432" lon="0.39405">
        <ele>53.2</ele>
        <time>2022-09-25T06:36:52Z</time>
      </trkpt>
      <trkpt lat="44.81432" lon="0.39418">
        <ele>53</ele>
        <time>2022-09-25T06:36:56Z</time>
      </trkpt>
      <trkpt lat="44.81433" lon="0.39422">
        <ele>53</ele>
        <time>2022-09-25T06:36:57Z</time>
      </trkpt>
      <trkpt lat="44.81433" lon="0.39436">
        <ele>52.8</ele>
        <time>2022-09-25T06:37:00Z</time>
      </trkpt>
      <trkpt lat="44.81433" lon="0.39453">
        <ele>52.7</ele>
        <time>2022-09-25T06:37:04Z</time>
      </trkpt>
      <trkpt lat="44.81428" lon="0.3947">
        <ele>52.6</ele>
        <time>2022-09-25T06:37:09Z</time>
      </trkpt>
      <trkpt lat="44.81423" lon="0.39492">
        <ele>52.5</ele>
        <time>2022-09-25T06:37:14Z</time>
      </trkpt>
      <trkpt lat="44.8142" lon="0.39514">
        <ele>52.5</ele>
        <time>2022-09-25T06:37:20Z</time>
      </trkpt>
      <trkpt lat="44.81418" lon="0.39533">
        <ele>52.5</ele>
        <time>2022-09-25T06:37:25Z</time>
      </trkpt>
      <trkpt lat="44.81412" lon="0.39552">
        <ele>52.6</ele>
        <time>2022-09-25T06:37:29Z</time>
      </trkpt>
      <trkpt lat="44.81411" lon="0.39573">
        <ele>52.7</ele>
        <time>2022-09-25T06:37:34Z</time>
      </trkpt>
      <trkpt lat="44.8141" lon="0.39579">
        <ele>52.7</ele>
        <time>2022-09-25T06:37:36Z</time>
      </trkpt>
      <trkpt lat="44.81409" lon="0.3958">
        <ele>52.7</ele>
        <time>2022-09-25T06:37:38Z</time>
      </trkpt>
      <trkpt lat="44.81402" lon="0.39589">
        <ele>52.8</ele>
        <time>2022-09-25T06:37:43Z</time>
      </trkpt>
      <trkpt lat="44.81396" lon="0.39596">
        <ele>52.7</ele>
        <time>2022-09-25T06:37:47Z</time>
      </trkpt>
      <trkpt lat="44.81393" lon="0.39594">
        <ele>52.7</ele>
        <time>2022-09-25T06:37:48Z</time>
      </trkpt>
      <trkpt lat="44.81388" lon="0.39584">
        <ele>52.5</ele>
        <time>2022-09-25T06:37:50Z</time>
      </trkpt>
      <trkpt lat="44.81375" lon="0.39555">
        <ele>51.9</ele>
        <time>2022-09-25T06:37:55Z</time>
      </trkpt>
      <trkpt lat="44.8137" lon="0.39544">
        <ele>51.2</ele>
        <time>2022-09-25T06:37:57Z</time>
      </trkpt>
      <trkpt lat="44.81369" lon="0.39538">
        <ele>51.2</ele>
        <time>2022-09-25T06:37:58Z</time>
      </trkpt>
      <trkpt lat="44.81369" lon="0.39536">
        <ele>51.2</ele>
        <time>2022-09-25T06:37:59Z</time>
      </trkpt>
      <trkpt lat="44.81368" lon="0.39531">
        <ele>51.3</ele>
        <time>2022-09-25T06:38:01Z</time>
      </trkpt>
      <trkpt lat="44.81369" lon="0.39519">
        <ele>51.3</ele>
        <time>2022-09-25T06:38:05Z</time>
      </trkpt>
      <trkpt lat="44.81367" lon="0.39515">
        <ele>51.5</ele>
        <time>2022-09-25T06:38:06Z</time>
      </trkpt>
      <trkpt lat="44.8136" lon="0.39508">
        <ele>50.9</ele>
        <time>2022-09-25T06:38:08Z</time>
      </trkpt>
      <trkpt lat="44.81349" lon="0.395">
        <ele>50.1</ele>
        <time>2022-09-25T06:38:11Z</time>
      </trkpt>
      <trkpt lat="44.81348" lon="0.39497">
        <ele>50.5</ele>
        <time>2022-09-25T06:38:12Z</time>
      </trkpt>
      <trkpt lat="44.81348" lon="0.39494">
        <ele>50.5</ele>
        <time>2022-09-25T06:38:13Z</time>
      </trkpt>
      <trkpt lat="44.81347" lon="0.39487">
        <ele>50.5</ele>
        <time>2022-09-25T06:38:15Z</time>
      </trkpt>
      <trkpt lat="44.81351" lon="0.39472">
        <ele>51.5</ele>
        <time>2022-09-25T06:38:19Z</time>
      </trkpt>
      <trkpt lat="44.81351" lon="0.39466">
        <ele>51.5</ele>
        <time>2022-09-25T06:38:20Z</time>
      </trkpt>
      <trkpt lat="44.81353" lon="0.39449">
        <ele>51.8</ele>
        <time>2022-09-25T06:38:23Z</time>
      </trkpt>
      <trkpt lat="44.81354" lon="0.3944">
        <ele>52</ele>
        <time>2022-09-25T06:38:25Z</time>
      </trkpt>
      <trkpt lat="44.81354" lon="0.39435">
        <ele>52</ele>
        <time>2022-09-25T06:38:26Z</time>
      </trkpt>
      <trkpt lat="44.81354" lon="0.39431">
        <ele>52.1</ele>
        <time>2022-09-25T06:38:27Z</time>
      </trkpt>
      <trkpt lat="44.81356" lon="0.3942">
        <ele>52.1</ele>
        <time>2022-09-25T06:38:29Z</time>
      </trkpt>
      <trkpt lat="44.8136" lon="0.39403">
        <ele>52.2</ele>
        <time>2022-09-25T06:38:33Z</time>
      </trkpt>
      <trkpt lat="44.81362" lon="0.39391">
        <ele>52.2</ele>
        <time>2022-09-25T06:38:36Z</time>
      </trkpt>
      <trkpt lat="44.81361" lon="0.39385">
        <ele>52.2</ele>
        <time>2022-09-25T06:38:37Z</time>
      </trkpt>
      <trkpt lat="44.81359" lon="0.39372">
        <ele>52.1</ele>
        <time>2022-09-25T06:38:39Z</time>
      </trkpt>
      <trkpt lat="44.81358" lon="0.39339">
        <ele>52</ele>
        <time>2022-09-25T06:38:44Z</time>
      </trkpt>
      <trkpt lat="44.81362" lon="0.3932">
        <ele>51.9</ele>
        <time>2022-09-25T06:38:48Z</time>
      </trkpt>
      <trkpt lat="44.8136" lon="0.39296">
        <ele>51.8</ele>
        <time>2022-09-25T06:38:54Z</time>
      </trkpt>
      <trkpt lat="44.81362" lon="0.39277">
        <ele>51.6</ele>
        <time>2022-09-25T06:38:58Z</time>
      </trkpt>
      <trkpt lat="44.81361" lon="0.39271">
        <ele>51.3</ele>
        <time>2022-09-25T06:38:59Z</time>
      </trkpt>
      <trkpt lat="44.81359" lon="0.39256">
        <ele>50.8</ele>
        <time>2022-09-25T06:39:01Z</time>
      </trkpt>
      <trkpt lat="44.81358" lon="0.39226">
        <ele>50.3</ele>
        <time>2022-09-25T06:39:05Z</time>
      </trkpt>
      <trkpt lat="44.81357" lon="0.39218">
        <ele>49.9</ele>
        <time>2022-09-25T06:39:06Z</time>
      </trkpt>
      <trkpt lat="44.81357" lon="0.39201">
        <ele>49.5</ele>
        <time>2022-09-25T06:39:08Z</time>
      </trkpt>
      <trkpt lat="44.81357" lon="0.39188">
        <ele>49.1</ele>
        <time>2022-09-25T06:39:10Z</time>
      </trkpt>
      <trkpt lat="44.81359" lon="0.39182">
        <ele>49.1</ele>
        <time>2022-09-25T06:39:11Z</time>
      </trkpt>
      <trkpt lat="44.81361" lon="0.39169">
        <ele>48.8</ele>
        <time>2022-09-25T06:39:13Z</time>
      </trkpt>
      <trkpt lat="44.81362" lon="0.39163">
        <ele>48.8</ele>
        <time>2022-09-25T06:39:14Z</time>
      </trkpt>
      <trkpt lat="44.81361" lon="0.3915">
        <ele>48.4</ele>
        <time>2022-09-25T06:39:16Z</time>
      </trkpt>
      <trkpt lat="44.81361" lon="0.39145">
        <ele>48.4</ele>
        <time>2022-09-25T06:39:17Z</time>
      </trkpt>
      <trkpt lat="44.81363" lon="0.39131">
        <ele>48.1</ele>
        <time>2022-09-25T06:39:20Z</time>
      </trkpt>
      <trkpt lat="44.81361" lon="0.39123">
        <ele>48.1</ele>
        <time>2022-09-25T06:39:21Z</time>
      </trkpt>
      <trkpt lat="44.81361" lon="0.39116">
        <ele>47.7</ele>
        <time>2022-09-25T06:39:22Z</time>
      </trkpt>
      <trkpt lat="44.81363" lon="0.39106">
        <ele>47.7</ele>
        <time>2022-09-25T06:39:24Z</time>
      </trkpt>
      <trkpt lat="44.81361" lon="0.39101">
        <ele>47.5</ele>
        <time>2022-09-25T06:39:25Z</time>
      </trkpt>
      <trkpt lat="44.81359" lon="0.39088">
        <ele>47.5</ele>
        <time>2022-09-25T06:39:27Z</time>
      </trkpt>
      <trkpt lat="44.81359" lon="0.3907">
        <ele>46.9</ele>
        <time>2022-09-25T06:39:29Z</time>
      </trkpt>
      <trkpt lat="44.81359" lon="0.39061">
        <ele>46.9</ele>
        <time>2022-09-25T06:39:30Z</time>
      </trkpt>
      <trkpt lat="44.81358" lon="0.39053">
        <ele>46.6</ele>
        <time>2022-09-25T06:39:31Z</time>
      </trkpt>
      <trkpt lat="44.81357" lon="0.39035">
        <ele>46.2</ele>
        <time>2022-09-25T06:39:33Z</time>
      </trkpt>
      <trkpt lat="44.81356" lon="0.39024">
        <ele>46.2</ele>
        <time>2022-09-25T06:39:34Z</time>
      </trkpt>
      <trkpt lat="44.81359" lon="0.39007">
        <ele>45.8</ele>
        <time>2022-09-25T06:39:36Z</time>
      </trkpt>
      <trkpt lat="44.8136" lon="0.38992">
        <ele>45.4</ele>
        <time>2022-09-25T06:39:38Z</time>
      </trkpt>
      <trkpt lat="44.81357" lon="0.38984">
        <ele>45.1</ele>
        <time>2022-09-25T06:39:39Z</time>
      </trkpt>
      <trkpt lat="44.81356" lon="0.38974">
        <ele>45.1</ele>
        <time>2022-09-25T06:39:40Z</time>
      </trkpt>
      <trkpt lat="44.81346" lon="0.38954">
        <ele>44.5</ele>
        <time>2022-09-25T06:39:42Z</time>
      </trkpt>
      <trkpt lat="44.81337" lon="0.38935">
        <ele>44.1</ele>
        <time>2022-09-25T06:39:44Z</time>
      </trkpt>
      <trkpt lat="44.81308" lon="0.38881">
        <ele>43.2</ele>
        <time>2022-09-25T06:39:50Z</time>
      </trkpt>
      <trkpt lat="44.81301" lon="0.38852">
        <ele>43.1</ele>
        <time>2022-09-25T06:39:54Z</time>
      </trkpt>
      <trkpt lat="44.81293" lon="0.38838">
        <ele>43.1</ele>
        <time>2022-09-25T06:39:56Z</time>
      </trkpt>
      <trkpt lat="44.81282" lon="0.38827">
        <ele>43.1</ele>
        <time>2022-09-25T06:39:59Z</time>
      </trkpt>
      <trkpt lat="44.81277" lon="0.38816">
        <ele>43.1</ele>
        <time>2022-09-25T06:40:01Z</time>
      </trkpt>
      <trkpt lat="44.8127" lon="0.38802">
        <ele>43.1</ele>
        <time>2022-09-25T06:40:03Z</time>
      </trkpt>
      <trkpt lat="44.81252" lon="0.3877">
        <ele>42.9</ele>
        <time>2022-09-25T06:40:08Z</time>
      </trkpt>
      <trkpt lat="44.81218" lon="0.38735">
        <ele>42.2</ele>
        <time>2022-09-25T06:40:15Z</time>
      </trkpt>
      <trkpt lat="44.81183" lon="0.38723">
        <ele>41.6</ele>
        <time>2022-09-25T06:40:21Z</time>
      </trkpt>
      <trkpt lat="44.81152" lon="0.3871">
        <ele>41</ele>
        <time>2022-09-25T06:40:27Z</time>
      </trkpt>
      <trkpt lat="44.81132" lon="0.38701">
        <ele>40.7</ele>
        <time>2022-09-25T06:40:32Z</time>
      </trkpt>
      <trkpt lat="44.81131" lon="0.38685">
        <ele>40.7</ele>
        <time>2022-09-25T06:40:35Z</time>
      </trkpt>
      <trkpt lat="44.81151" lon="0.38654">
        <ele>40.4</ele>
        <time>2022-09-25T06:40:41Z</time>
      </trkpt>
      <trkpt lat="44.81159" lon="0.38643">
        <ele>40.2</ele>
        <time>2022-09-25T06:40:43Z</time>
      </trkpt>
      <trkpt lat="44.81167" lon="0.38632">
        <ele>40</ele>
        <time>2022-09-25T06:40:45Z</time>
      </trkpt>
      <trkpt lat="44.81171" lon="0.38627">
        <ele>40.2</ele>
        <time>2022-09-25T06:40:48Z</time>
      </trkpt>
      <trkpt lat="44.81162" lon="0.38603">
        <ele>39.2</ele>
        <time>2022-09-25T06:40:51Z</time>
      </trkpt>
      <trkpt lat="44.81144" lon="0.38561">
        <ele>38.2</ele>
        <time>2022-09-25T06:40:57Z</time>
      </trkpt>
      <trkpt lat="44.81132" lon="0.38532">
        <ele>37.7</ele>
        <time>2022-09-25T06:41:02Z</time>
      </trkpt>
      <trkpt lat="44.81121" lon="0.38499">
        <ele>37.8</ele>
        <time>2022-09-25T06:41:09Z</time>
      </trkpt>
      <trkpt lat="44.81114" lon="0.38478">
        <ele>38.2</ele>
        <time>2022-09-25T06:41:15Z</time>
      </trkpt>
      <trkpt lat="44.81113" lon="0.38474">
        <ele>38.2</ele>
        <time>2022-09-25T06:41:18Z</time>
      </trkpt>
      <trkpt lat="44.81112" lon="0.38472">
        <ele>38.2</ele>
        <time>2022-09-25T06:41:19Z</time>
      </trkpt>
      <trkpt lat="44.81125" lon="0.38454">
        <ele>38.2</ele>
        <time>2022-09-25T06:42:17Z</time>
      </trkpt>
      <trkpt lat="44.81127" lon="0.38453">
        <ele>38.2</ele>
        <time>2022-09-25T06:42:18Z</time>
      </trkpt>
      <trkpt lat="44.81136" lon="0.38453">
        <ele>38</ele>
        <time>2022-09-25T06:42:23Z</time>
      </trkpt>
      <trkpt lat="44.81143" lon="0.38446">
        <ele>38.2</ele>
        <time>2022-09-25T06:42:29Z</time>
      </trkpt>
      <trkpt lat="44.81148" lon="0.3844">
        <ele>37.9</ele>
        <time>2022-09-25T06:42:31Z</time>
      </trkpt>
      <trkpt lat="44.81161" lon="0.38424">
        <ele>37.9</ele>
        <time>2022-09-25T06:42:35Z</time>
      </trkpt>
      <trkpt lat="44.81165" lon="0.3842">
        <ele>37.9</ele>
        <time>2022-09-25T06:42:36Z</time>
      </trkpt>
      <trkpt lat="44.8117" lon="0.38413">
        <ele>37.9</ele>
        <time>2022-09-25T06:42:38Z</time>
      </trkpt>
      <trkpt lat="44.81175" lon="0.38408">
        <ele>37.9</ele>
        <time>2022-09-25T06:42:42Z</time>
      </trkpt>
      <trkpt lat="44.81178" lon="0.38406">
        <ele>37.9</ele>
        <time>2022-09-25T06:42:43Z</time>
      </trkpt>
      <trkpt lat="44.81181" lon="0.384">
        <ele>37.8</ele>
        <time>2022-09-25T06:42:46Z</time>
      </trkpt>
      <trkpt lat="44.81182" lon="0.38399">
        <ele>37.8</ele>
        <time>2022-09-25T06:42:47Z</time>
      </trkpt>
      <trkpt lat="44.81187" lon="0.3839">
        <ele>37.8</ele>
        <time>2022-09-25T06:43:06Z</time>
      </trkpt>
      <trkpt lat="44.81189" lon="0.38387">
        <ele>37.8</ele>
        <time>2022-09-25T06:43:08Z</time>
      </trkpt>
      <trkpt lat="44.81191" lon="0.38385">
        <ele>37.8</ele>
        <time>2022-09-25T06:43:10Z</time>
      </trkpt>
      <trkpt lat="44.81194" lon="0.38379">
        <ele>37.7</ele>
        <time>2022-09-25T06:43:55Z</time>
      </trkpt>
      <trkpt lat="44.81196" lon="0.38377">
        <ele>37.7</ele>
        <time>2022-09-25T06:43:56Z</time>
      </trkpt>
      <trkpt lat="44.81197" lon="0.38376">
        <ele>37.7</ele>
        <time>2022-09-25T06:43:59Z</time>
      </trkpt>
      <trkpt lat="44.81208" lon="0.38362">
        <ele>37.5</ele>
        <time>2022-09-25T06:44:19Z</time>
      </trkpt>
      <trkpt lat="44.81218" lon="0.38355">
        <ele>37.3</ele>
        <time>2022-09-25T06:44:25Z</time>
      </trkpt>
      <trkpt lat="44.81226" lon="0.3835">
        <ele>37.3</ele>
        <time>2022-09-25T06:44:32Z</time>
      </trkpt>
      <trkpt lat="44.81231" lon="0.38345">
        <ele>37.2</ele>
        <time>2022-09-25T06:44:34Z</time>
      </trkpt>
      <trkpt lat="44.81248" lon="0.38333">
        <ele>37.1</ele>
        <time>2022-09-25T06:44:39Z</time>
      </trkpt>
      <trkpt lat="44.81253" lon="0.38328">
        <ele>37.1</ele>
        <time>2022-09-25T06:44:43Z</time>
      </trkpt>
      <trkpt lat="44.81293" lon="0.38297">
        <ele>37.1</ele>
        <time>2022-09-25T06:45:26Z</time>
      </trkpt>
      <trkpt lat="44.81295" lon="0.38294">
        <ele>37.1</ele>
        <time>2022-09-25T06:45:28Z</time>
      </trkpt>
      <trkpt lat="44.81298" lon="0.38293">
        <ele>37.1</ele>
        <time>2022-09-25T06:45:29Z</time>
      </trkpt>
      <trkpt lat="44.81303" lon="0.38288">
        <ele>37.1</ele>
        <time>2022-09-25T06:45:32Z</time>
      </trkpt>
      <trkpt lat="44.81313" lon="0.3828">
        <ele>37.1</ele>
        <time>2022-09-25T06:45:38Z</time>
      </trkpt>
      <trkpt lat="44.81316" lon="0.38277">
        <ele>37</ele>
        <time>2022-09-25T06:45:41Z</time>
      </trkpt>
      <trkpt lat="44.81349" lon="0.38266">
        <ele>36.9</ele>
        <time>2022-09-25T06:46:17Z</time>
      </trkpt>
      <trkpt lat="44.81352" lon="0.38264">
        <ele>36.9</ele>
        <time>2022-09-25T06:46:18Z</time>
      </trkpt>
      <trkpt lat="44.81365" lon="0.38256">
        <ele>36.9</ele>
        <time>2022-09-25T06:46:23Z</time>
      </trkpt>
      <trkpt lat="44.81368" lon="0.38255">
        <ele>36.9</ele>
        <time>2022-09-25T06:46:24Z</time>
      </trkpt>
      <trkpt lat="44.81374" lon="0.38252">
        <ele>36.9</ele>
        <time>2022-09-25T06:46:27Z</time>
      </trkpt>
      <trkpt lat="44.81384" lon="0.38245">
        <ele>37</ele>
        <time>2022-09-25T06:46:31Z</time>
      </trkpt>
      <trkpt lat="44.81389" lon="0.38229">
        <ele>36.9</ele>
        <time>2022-09-25T06:46:35Z</time>
      </trkpt>
      <trkpt lat="44.81391" lon="0.38226">
        <ele>36.9</ele>
        <time>2022-09-25T06:46:36Z</time>
      </trkpt>
      <trkpt lat="44.81392" lon="0.38219">
        <ele>36.9</ele>
        <time>2022-09-25T06:46:38Z</time>
      </trkpt>
      <trkpt lat="44.81396" lon="0.38215">
        <ele>36.9</ele>
        <time>2022-09-25T06:46:39Z</time>
      </trkpt>
      <trkpt lat="44.814" lon="0.38205">
        <ele>36.9</ele>
        <time>2022-09-25T06:46:41Z</time>
      </trkpt>
      <trkpt lat="44.81412" lon="0.38194">
        <ele>36.7</ele>
        <time>2022-09-25T06:46:44Z</time>
      </trkpt>
      <trkpt lat="44.81423" lon="0.38178">
        <ele>36.7</ele>
        <time>2022-09-25T06:46:48Z</time>
      </trkpt>
      <trkpt lat="44.81431" lon="0.3816">
        <ele>36.3</ele>
        <time>2022-09-25T06:46:52Z</time>
      </trkpt>
      <trkpt lat="44.8144" lon="0.38138">
        <ele>36</ele>
        <time>2022-09-25T06:46:57Z</time>
      </trkpt>
      <trkpt lat="44.81447" lon="0.38125">
        <ele>35.8</ele>
        <time>2022-09-25T06:47:01Z</time>
      </trkpt>
      <trkpt lat="44.81463" lon="0.38109">
        <ele>35.5</ele>
        <time>2022-09-25T06:47:06Z</time>
      </trkpt>
      <trkpt lat="44.81473" lon="0.38082">
        <ele>35.3</ele>
        <time>2022-09-25T06:47:11Z</time>
      </trkpt>
      <trkpt lat="44.81483" lon="0.38063">
        <ele>35.4</ele>
        <time>2022-09-25T06:47:15Z</time>
      </trkpt>
      <trkpt lat="44.81494" lon="0.38045">
        <ele>35.4</ele>
        <time>2022-09-25T06:47:20Z</time>
      </trkpt>
      <trkpt lat="44.81501" lon="0.38033">
        <ele>35.4</ele>
        <time>2022-09-25T06:47:24Z</time>
      </trkpt>
      <trkpt lat="44.81505" lon="0.38023">
        <ele>35.4</ele>
        <time>2022-09-25T06:47:27Z</time>
      </trkpt>
      <trkpt lat="44.81512" lon="0.3801">
        <ele>35.2</ele>
        <time>2022-09-25T06:47:31Z</time>
      </trkpt>
      <trkpt lat="44.81523" lon="0.37988">
        <ele>34.8</ele>
        <time>2022-09-25T06:47:36Z</time>
      </trkpt>
      <trkpt lat="44.81535" lon="0.37966">
        <ele>34.5</ele>
        <time>2022-09-25T06:47:41Z</time>
      </trkpt>
      <trkpt lat="44.81541" lon="0.37955">
        <ele>34.5</ele>
        <time>2022-09-25T06:47:44Z</time>
      </trkpt>
      <trkpt lat="44.81545" lon="0.37952">
        <ele>34.5</ele>
        <time>2022-09-25T06:47:45Z</time>
      </trkpt>
      <trkpt lat="44.81546" lon="0.37949">
        <ele>34.3</ele>
        <time>2022-09-25T06:47:46Z</time>
      </trkpt>
      <trkpt lat="44.81549" lon="0.37941">
        <ele>34.3</ele>
        <time>2022-09-25T06:47:48Z</time>
      </trkpt>
      <trkpt lat="44.81553" lon="0.37936">
        <ele>34.4</ele>
        <time>2022-09-25T06:47:53Z</time>
      </trkpt>
      <trkpt lat="44.81547" lon="0.37915">
        <ele>34.6</ele>
        <time>2022-09-25T06:48:05Z</time>
      </trkpt>
      <trkpt lat="44.8154" lon="0.37911">
        <ele>34.6</ele>
        <time>2022-09-25T06:48:07Z</time>
      </trkpt>
      <trkpt lat="44.81511" lon="0.379">
        <ele>34.7</ele>
        <time>2022-09-25T06:48:15Z</time>
      </trkpt>
      <trkpt lat="44.81483" lon="0.37893">
        <ele>34.7</ele>
        <time>2022-09-25T06:48:23Z</time>
      </trkpt>
      <trkpt lat="44.81453" lon="0.37881">
        <ele>34.6</ele>
        <time>2022-09-25T06:48:32Z</time>
      </trkpt>
      <trkpt lat="44.81426" lon="0.37862">
        <ele>34.7</ele>
        <time>2022-09-25T06:48:40Z</time>
      </trkpt>
      <trkpt lat="44.81406" lon="0.37837">
        <ele>34.9</ele>
        <time>2022-09-25T06:48:47Z</time>
      </trkpt>
      <trkpt lat="44.81384" lon="0.37809">
        <ele>34.9</ele>
        <time>2022-09-25T06:48:55Z</time>
      </trkpt>
      <trkpt lat="44.81365" lon="0.37792">
        <ele>34.9</ele>
        <time>2022-09-25T06:49:01Z</time>
      </trkpt>
      <trkpt lat="44.81348" lon="0.3778">
        <ele>35.3</ele>
        <time>2022-09-25T06:49:07Z</time>
      </trkpt>
      <trkpt lat="44.81323" lon="0.37762">
        <ele>35.7</ele>
        <time>2022-09-25T06:49:15Z</time>
      </trkpt>
      <trkpt lat="44.81297" lon="0.37746">
        <ele>36.3</ele>
        <time>2022-09-25T06:49:23Z</time>
      </trkpt>
      <trkpt lat="44.8128" lon="0.37733">
        <ele>36.8</ele>
        <time>2022-09-25T06:49:29Z</time>
      </trkpt>
      <trkpt lat="44.81258" lon="0.37713">
        <ele>37.7</ele>
        <time>2022-09-25T06:49:37Z</time>
      </trkpt>
      <trkpt lat="44.81238" lon="0.37693">
        <ele>39</ele>
        <time>2022-09-25T06:49:44Z</time>
      </trkpt>
      <trkpt lat="44.8122" lon="0.37683">
        <ele>39.5</ele>
        <time>2022-09-25T06:49:49Z</time>
      </trkpt>
      <trkpt lat="44.81195" lon="0.37672">
        <ele>40.5</ele>
        <time>2022-09-25T06:49:56Z</time>
      </trkpt>
      <trkpt lat="44.81163" lon="0.37658">
        <ele>41.1</ele>
        <time>2022-09-25T06:50:05Z</time>
      </trkpt>
      <trkpt lat="44.81134" lon="0.37646">
        <ele>41</ele>
        <time>2022-09-25T06:50:13Z</time>
      </trkpt>
      <trkpt lat="44.81104" lon="0.37629">
        <ele>41.3</ele>
        <time>2022-09-25T06:50:21Z</time>
      </trkpt>
      <trkpt lat="44.81086" lon="0.37625">
        <ele>41.5</ele>
        <time>2022-09-25T06:50:27Z</time>
      </trkpt>
      <trkpt lat="44.81066" lon="0.37612">
        <ele>42.5</ele>
        <time>2022-09-25T06:50:33Z</time>
      </trkpt>
      <trkpt lat="44.81057" lon="0.37606">
        <ele>42.9</ele>
        <time>2022-09-25T06:50:37Z</time>
      </trkpt>
      <trkpt lat="44.81055" lon="0.37605">
        <ele>43</ele>
        <time>2022-09-25T06:50:38Z</time>
      </trkpt>
      <trkpt lat="44.81055" lon="0.37602">
        <ele>43</ele>
        <time>2022-09-25T06:50:40Z</time>
      </trkpt>
      <trkpt lat="44.81055" lon="0.3758">
        <ele>43</ele>
        <time>2022-09-25T06:50:45Z</time>
      </trkpt>
      <trkpt lat="44.81055" lon="0.37541">
        <ele>43</ele>
        <time>2022-09-25T06:50:53Z</time>
      </trkpt>
      <trkpt lat="44.81056" lon="0.37511">
        <ele>42.9</ele>
        <time>2022-09-25T06:50:59Z</time>
      </trkpt>
      <trkpt lat="44.81056" lon="0.37487">
        <ele>42.9</ele>
        <time>2022-09-25T06:51:04Z</time>
      </trkpt>
      <trkpt lat="44.81056" lon="0.37464">
        <ele>42.9</ele>
        <time>2022-09-25T06:51:09Z</time>
      </trkpt>
      <trkpt lat="44.81056" lon="0.37455">
        <ele>42.9</ele>
        <time>2022-09-25T06:51:11Z</time>
      </trkpt>
      <trkpt lat="44.81056" lon="0.37445">
        <ele>42.9</ele>
        <time>2022-09-25T06:51:13Z</time>
      </trkpt>
      <trkpt lat="44.81056" lon="0.37424">
        <ele>42.9</ele>
        <time>2022-09-25T06:51:18Z</time>
      </trkpt>
      <trkpt lat="44.81056" lon="0.37407">
        <ele>42.9</ele>
        <time>2022-09-25T06:51:22Z</time>
      </trkpt>
      <trkpt lat="44.81056" lon="0.37391">
        <ele>42.9</ele>
        <time>2022-09-25T06:51:26Z</time>
      </trkpt>
      <trkpt lat="44.81057" lon="0.37372">
        <ele>42.9</ele>
        <time>2022-09-25T06:51:31Z</time>
      </trkpt>
      <trkpt lat="44.81057" lon="0.37357">
        <ele>43</ele>
        <time>2022-09-25T06:51:35Z</time>
      </trkpt>
      <trkpt lat="44.81057" lon="0.37353">
        <ele>43</ele>
        <time>2022-09-25T06:51:36Z</time>
      </trkpt>
      <trkpt lat="44.81057" lon="0.37329">
        <ele>43.1</ele>
        <time>2022-09-25T06:51:42Z</time>
      </trkpt>
      <trkpt lat="44.81057" lon="0.37298">
        <ele>43.3</ele>
        <time>2022-09-25T06:51:49Z</time>
      </trkpt>
      <trkpt lat="44.81057" lon="0.37294">
        <ele>43.3</ele>
        <time>2022-09-25T06:51:50Z</time>
      </trkpt>
      <trkpt lat="44.81057" lon="0.37285">
        <ele>43.4</ele>
        <time>2022-09-25T06:51:52Z</time>
      </trkpt>
      <trkpt lat="44.81057" lon="0.37274">
        <ele>42.4</ele>
        <time>2022-09-25T06:51:53Z</time>
      </trkpt>
      <trkpt lat="44.8104" lon="0.37276">
        <ele>43.3</ele>
        <time>2022-09-25T06:51:58Z</time>
      </trkpt>
      <trkpt lat="44.81029" lon="0.37275">
        <ele>45.3</ele>
        <time>2022-09-25T06:52:04Z</time>
      </trkpt>
      <trkpt lat="44.81017" lon="0.37273">
        <ele>47.9</ele>
        <time>2022-09-25T06:52:11Z</time>
      </trkpt>
      <trkpt lat="44.81007" lon="0.37272">
        <ele>50.7</ele>
        <time>2022-09-25T06:52:17Z</time>
      </trkpt>
      <trkpt lat="44.80995" lon="0.37271">
        <ele>53.6</ele>
        <time>2022-09-25T06:52:24Z</time>
      </trkpt>
      <trkpt lat="44.80985" lon="0.3727">
        <ele>53.5</ele>
        <time>2022-09-25T06:52:31Z</time>
      </trkpt>
      <trkpt lat="44.80974" lon="0.37267">
        <ele>56.1</ele>
        <time>2022-09-25T06:52:39Z</time>
      </trkpt>
      <trkpt lat="44.80965" lon="0.37265">
        <ele>58.6</ele>
        <time>2022-09-25T06:52:46Z</time>
      </trkpt>
      <trkpt lat="44.80965" lon="0.37265">
        <ele>58.6</ele>
        <time>2022-09-25T06:52:48Z</time>
      </trkpt>
      <trkpt lat="44.80957" lon="0.37265">
        <ele>60.8</ele>
        <time>2022-09-25T06:53:00Z</time>
      </trkpt>
      <trkpt lat="44.80955" lon="0.37265">
        <ele>60.7</ele>
        <time>2022-09-25T06:53:01Z</time>
      </trkpt>
      <trkpt lat="44.80946" lon="0.37262">
        <ele>63.5</ele>
        <time>2022-09-25T06:53:07Z</time>
      </trkpt>
      <trkpt lat="44.80936" lon="0.37255">
        <ele>66.1</ele>
        <time>2022-09-25T06:53:13Z</time>
      </trkpt>
      <trkpt lat="44.80935" lon="0.37254">
        <ele>66.1</ele>
        <time>2022-09-25T06:53:14Z</time>
      </trkpt>
      <trkpt lat="44.80928" lon="0.37248">
        <ele>65.3</ele>
        <time>2022-09-25T06:53:19Z</time>
      </trkpt>
      <trkpt lat="44.80919" lon="0.37237">
        <ele>67.9</ele>
        <time>2022-09-25T06:53:26Z</time>
      </trkpt>
      <trkpt lat="44.80909" lon="0.37231">
        <ele>69.3</ele>
        <time>2022-09-25T06:53:34Z</time>
      </trkpt>
      <trkpt lat="44.80898" lon="0.37222">
        <ele>71.2</ele>
        <time>2022-09-25T06:53:40Z</time>
      </trkpt>
      <trkpt lat="44.80899" lon="0.37218">
        <ele>70.8</ele>
        <time>2022-09-25T06:53:42Z</time>
      </trkpt>
      <trkpt lat="44.80901" lon="0.37213">
        <ele>70.4</ele>
        <time>2022-09-25T06:53:44Z</time>
      </trkpt>
      <trkpt lat="44.80907" lon="0.37198">
        <ele>68.9</ele>
        <time>2022-09-25T06:53:50Z</time>
      </trkpt>
      <trkpt lat="44.80913" lon="0.37181">
        <ele>67.4</ele>
        <time>2022-09-25T06:53:56Z</time>
      </trkpt>
      <trkpt lat="44.80919" lon="0.37166">
        <ele>66</ele>
        <time>2022-09-25T06:53:59Z</time>
      </trkpt>
      <trkpt lat="44.80922" lon="0.37158">
        <ele>65.3</ele>
        <time>2022-09-25T06:54:00Z</time>
      </trkpt>
      <trkpt lat="44.80928" lon="0.37141">
        <ele>63.9</ele>
        <time>2022-09-25T06:54:02Z</time>
      </trkpt>
      <trkpt lat="44.80935" lon="0.37122">
        <ele>62.4</ele>
        <time>2022-09-25T06:54:04Z</time>
      </trkpt>
      <trkpt lat="44.80947" lon="0.37088">
        <ele>59.4</ele>
        <time>2022-09-25T06:54:08Z</time>
      </trkpt>
      <trkpt lat="44.80951" lon="0.37071">
        <ele>57.7</ele>
        <time>2022-09-25T06:54:10Z</time>
      </trkpt>
      <trkpt lat="44.80955" lon="0.37052">
        <ele>55.8</ele>
        <time>2022-09-25T06:54:12Z</time>
      </trkpt>
      <trkpt lat="44.80957" lon="0.37042">
        <ele>54.9</ele>
        <time>2022-09-25T06:54:13Z</time>
      </trkpt>
      <trkpt lat="44.80966" lon="0.37015">
        <ele>52.8</ele>
        <time>2022-09-25T06:54:16Z</time>
      </trkpt>
      <trkpt lat="44.8098" lon="0.36982">
        <ele>50.2</ele>
        <time>2022-09-25T06:54:21Z</time>
      </trkpt>
      <trkpt lat="44.80983" lon="0.36977">
        <ele>49.7</ele>
        <time>2022-09-25T06:54:22Z</time>
      </trkpt>
      <trkpt lat="44.80993" lon="0.36961">
        <ele>47.8</ele>
        <time>2022-09-25T06:54:25Z</time>
      </trkpt>
      <trkpt lat="44.81006" lon="0.3695">
        <ele>46.3</ele>
        <time>2022-09-25T06:54:29Z</time>
      </trkpt>
      <trkpt lat="44.81022" lon="0.36935">
        <ele>44.5</ele>
        <time>2022-09-25T06:54:31Z</time>
      </trkpt>
      <trkpt lat="44.81021" lon="0.36931">
        <ele>44.8</ele>
        <time>2022-09-25T06:54:32Z</time>
      </trkpt>
      <trkpt lat="44.81008" lon="0.36949">
        <ele>46.4</ele>
        <time>2022-09-25T06:54:33Z</time>
      </trkpt>
      <trkpt lat="44.81006" lon="0.3695">
        <ele>46.7</ele>
        <time>2022-09-25T06:54:35Z</time>
      </trkpt>
      <trkpt lat="44.80999" lon="0.36956">
        <ele>47.4</ele>
        <time>2022-09-25T06:54:41Z</time>
      </trkpt>
      <trkpt lat="44.80994" lon="0.3696">
        <ele>47.9</ele>
        <time>2022-09-25T06:54:45Z</time>
      </trkpt>
      <trkpt lat="44.80989" lon="0.36965">
        <ele>48.6</ele>
        <time>2022-09-25T06:54:51Z</time>
      </trkpt>
      <trkpt lat="44.80957" lon="0.36938">
        <ele>48.6</ele>
        <time>2022-09-25T06:54:59Z</time>
      </trkpt>
      <trkpt lat="44.80944" lon="0.36938">
        <ele>48.8</ele>
        <time>2022-09-25T06:55:08Z</time>
      </trkpt>
      <trkpt lat="44.80935" lon="0.3694">
        <ele>49.6</ele>
        <time>2022-09-25T06:55:14Z</time>
      </trkpt>
      <trkpt lat="44.80922" lon="0.36941">
        <ele>51.5</ele>
        <time>2022-09-25T06:55:22Z</time>
      </trkpt>
      <trkpt lat="44.80913" lon="0.36943">
        <ele>52.9</ele>
        <time>2022-09-25T06:55:29Z</time>
      </trkpt>
      <trkpt lat="44.80905" lon="0.36945">
        <ele>56</ele>
        <time>2022-09-25T06:55:35Z</time>
      </trkpt>
      <trkpt lat="44.80894" lon="0.36945">
        <ele>59.1</ele>
        <time>2022-09-25T06:55:43Z</time>
      </trkpt>
      <trkpt lat="44.80893" lon="0.36943">
        <ele>59.2</ele>
        <time>2022-09-25T06:55:44Z</time>
      </trkpt>
      <trkpt lat="44.80888" lon="0.36935">
        <ele>58.1</ele>
        <time>2022-09-25T06:55:48Z</time>
      </trkpt>
      <trkpt lat="44.80883" lon="0.36921">
        <ele>61.2</ele>
        <time>2022-09-25T06:55:53Z</time>
      </trkpt>
      <trkpt lat="44.80877" lon="0.3691">
        <ele>61.3</ele>
        <time>2022-09-25T06:55:58Z</time>
      </trkpt>
      <trkpt lat="44.80871" lon="0.36892">
        <ele>64.4</ele>
        <time>2022-09-25T06:56:05Z</time>
      </trkpt>
      <trkpt lat="44.80869" lon="0.36886">
        <ele>63.5</ele>
        <time>2022-09-25T06:56:08Z</time>
      </trkpt>
      <trkpt lat="44.80867" lon="0.36881">
        <ele>63.6</ele>
        <time>2022-09-25T06:56:10Z</time>
      </trkpt>
      <trkpt lat="44.80868" lon="0.3688">
        <ele>63.7</ele>
        <time>2022-09-25T06:56:11Z</time>
      </trkpt>
      <trkpt lat="44.80867" lon="0.36874">
        <ele>63.8</ele>
        <time>2022-09-25T06:56:14Z</time>
      </trkpt>
      <trkpt lat="44.80864" lon="0.36868">
        <ele>63</ele>
        <time>2022-09-25T06:56:17Z</time>
      </trkpt>
      <trkpt lat="44.80861" lon="0.36863">
        <ele>66.6</ele>
        <time>2022-09-25T06:56:19Z</time>
      </trkpt>
      <trkpt lat="44.80854" lon="0.3685">
        <ele>65.9</ele>
        <time>2022-09-25T06:56:25Z</time>
      </trkpt>
      <trkpt lat="44.80843" lon="0.3683">
        <ele>67.3</ele>
        <time>2022-09-25T06:56:31Z</time>
      </trkpt>
      <trkpt lat="44.80833" lon="0.36813">
        <ele>67.7</ele>
        <time>2022-09-25T06:56:37Z</time>
      </trkpt>
      <trkpt lat="44.80824" lon="0.36799">
        <ele>67.2</ele>
        <time>2022-09-25T06:56:44Z</time>
      </trkpt>
      <trkpt lat="44.80818" lon="0.36788">
        <ele>67.4</ele>
        <time>2022-09-25T06:56:50Z</time>
      </trkpt>
      <trkpt lat="44.80813" lon="0.36788">
        <ele>68.9</ele>
        <time>2022-09-25T06:56:54Z</time>
      </trkpt>
      <trkpt lat="44.80812" lon="0.36789">
        <ele>69</ele>
        <time>2022-09-25T06:56:55Z</time>
      </trkpt>
      <trkpt lat="44.80807" lon="0.36792">
        <ele>69.1</ele>
        <time>2022-09-25T06:56:59Z</time>
      </trkpt>
      <trkpt lat="44.80804" lon="0.36795">
        <ele>69.2</ele>
        <time>2022-09-25T06:57:02Z</time>
      </trkpt>
      <trkpt lat="44.80802" lon="0.36796">
        <ele>71.2</ele>
        <time>2022-09-25T06:57:04Z</time>
      </trkpt>
      <trkpt lat="44.80798" lon="0.368">
        <ele>71.3</ele>
        <time>2022-09-25T06:57:08Z</time>
      </trkpt>
      <trkpt lat="44.80796" lon="0.36801">
        <ele>71.4</ele>
        <time>2022-09-25T06:57:09Z</time>
      </trkpt>
      <trkpt lat="44.80792" lon="0.36805">
        <ele>73.8</ele>
        <time>2022-09-25T06:57:12Z</time>
      </trkpt>
      <trkpt lat="44.80783" lon="0.36813">
        <ele>75.7</ele>
        <time>2022-09-25T06:57:18Z</time>
      </trkpt>
      <trkpt lat="44.80776" lon="0.36818">
        <ele>77.9</ele>
        <time>2022-09-25T06:57:23Z</time>
      </trkpt>
      <trkpt lat="44.80773" lon="0.36824">
        <ele>79.9</ele>
        <time>2022-09-25T06:57:27Z</time>
      </trkpt>
      <trkpt lat="44.8077" lon="0.36826">
        <ele>80</ele>
        <time>2022-09-25T06:57:29Z</time>
      </trkpt>
      <trkpt lat="44.80767" lon="0.36828">
        <ele>80.2</ele>
        <time>2022-09-25T06:57:31Z</time>
      </trkpt>
      <trkpt lat="44.80758" lon="0.36825">
        <ele>82.1</ele>
        <time>2022-09-25T06:57:36Z</time>
      </trkpt>
      <trkpt lat="44.8075" lon="0.36813">
        <ele>81.9</ele>
        <time>2022-09-25T06:57:42Z</time>
      </trkpt>
      <trkpt lat="44.80743" lon="0.36802">
        <ele>79.6</ele>
        <time>2022-09-25T06:57:47Z</time>
      </trkpt>
      <trkpt lat="44.80735" lon="0.36787">
        <ele>81.4</ele>
        <time>2022-09-25T06:57:54Z</time>
      </trkpt>
      <trkpt lat="44.80729" lon="0.36777">
        <ele>81.5</ele>
        <time>2022-09-25T06:57:59Z</time>
      </trkpt>
      <trkpt lat="44.80721" lon="0.36768">
        <ele>79.7</ele>
        <time>2022-09-25T06:58:04Z</time>
      </trkpt>
      <trkpt lat="44.80716" lon="0.36754">
        <ele>81.7</ele>
        <time>2022-09-25T06:58:10Z</time>
      </trkpt>
      <trkpt lat="44.80717" lon="0.36751">
        <ele>79.5</ele>
        <time>2022-09-25T06:58:11Z</time>
      </trkpt>
      <trkpt lat="44.80722" lon="0.36745">
        <ele>77.7</ele>
        <time>2022-09-25T06:58:14Z</time>
      </trkpt>
      <trkpt lat="44.80732" lon="0.36733">
        <ele>73.5</ele>
        <time>2022-09-25T06:58:18Z</time>
      </trkpt>
      <trkpt lat="44.80739" lon="0.36727">
        <ele>73.6</ele>
        <time>2022-09-25T06:58:20Z</time>
      </trkpt>
      <trkpt lat="44.80749" lon="0.36718">
        <ele>69.2</ele>
        <time>2022-09-25T06:58:22Z</time>
      </trkpt>
      <trkpt lat="44.80775" lon="0.36691">
        <ele>63.4</ele>
        <time>2022-09-25T06:58:27Z</time>
      </trkpt>
      <trkpt lat="44.80797" lon="0.36668">
        <ele>58.3</ele>
        <time>2022-09-25T06:58:32Z</time>
      </trkpt>
      <trkpt lat="44.80799" lon="0.36656">
        <ele>56.7</ele>
        <time>2022-09-25T06:58:35Z</time>
      </trkpt>
      <trkpt lat="44.80797" lon="0.36657">
        <ele>56.9</ele>
        <time>2022-09-25T06:58:38Z</time>
      </trkpt>
      <trkpt lat="44.80788" lon="0.36659">
        <ele>57.4</ele>
        <time>2022-09-25T06:58:44Z</time>
      </trkpt>
      <trkpt lat="44.80778" lon="0.36661">
        <ele>58</ele>
        <time>2022-09-25T06:58:49Z</time>
      </trkpt>
      <trkpt lat="44.80766" lon="0.3666">
        <ele>58.8</ele>
        <time>2022-09-25T06:58:54Z</time>
      </trkpt>
      <trkpt lat="44.80756" lon="0.36654">
        <ele>59.5</ele>
        <time>2022-09-25T06:58:59Z</time>
      </trkpt>
      <trkpt lat="44.80744" lon="0.36645">
        <ele>60.3</ele>
        <time>2022-09-25T06:59:04Z</time>
      </trkpt>
      <trkpt lat="44.80735" lon="0.36634">
        <ele>61</ele>
        <time>2022-09-25T06:59:08Z</time>
      </trkpt>
      <trkpt lat="44.80723" lon="0.36619">
        <ele>62</ele>
        <time>2022-09-25T06:59:14Z</time>
      </trkpt>
      <trkpt lat="44.80705" lon="0.36607">
        <ele>63.1</ele>
        <time>2022-09-25T06:59:21Z</time>
      </trkpt>
      <trkpt lat="44.80691" lon="0.366">
        <ele>64.1</ele>
        <time>2022-09-25T06:59:27Z</time>
      </trkpt>
      <trkpt lat="44.80677" lon="0.36592">
        <ele>65</ele>
        <time>2022-09-25T06:59:32Z</time>
      </trkpt>
      <trkpt lat="44.80673" lon="0.3659">
        <ele>65.2</ele>
        <time>2022-09-25T06:59:36Z</time>
      </trkpt>
      <trkpt lat="44.80664" lon="0.36592">
        <ele>65.8</ele>
        <time>2022-09-25T06:59:38Z</time>
      </trkpt>
      <trkpt lat="44.80658" lon="0.36593">
        <ele>66.2</ele>
        <time>2022-09-25T06:59:40Z</time>
      </trkpt>
      <trkpt lat="44.80643" lon="0.36596">
        <ele>67.1</ele>
        <time>2022-09-25T06:59:45Z</time>
      </trkpt>
      <trkpt lat="44.80626" lon="0.36582">
        <ele>67.1</ele>
        <time>2022-09-25T06:59:49Z</time>
      </trkpt>
      <trkpt lat="44.80609" lon="0.36568">
        <ele>64.4</ele>
        <time>2022-09-25T06:59:52Z</time>
      </trkpt>
      <trkpt lat="44.80604" lon="0.36569">
        <ele>64.1</ele>
        <time>2022-09-25T06:59:53Z</time>
      </trkpt>
      <trkpt lat="44.80594" lon="0.36568">
        <ele>64</ele>
        <time>2022-09-25T06:59:55Z</time>
      </trkpt>
      <trkpt lat="44.80586" lon="0.36568">
        <ele>64</ele>
        <time>2022-09-25T06:59:57Z</time>
      </trkpt>
      <trkpt lat="44.80581" lon="0.36568">
        <ele>64.1</ele>
        <time>2022-09-25T06:59:58Z</time>
      </trkpt>
      <trkpt lat="44.80563" lon="0.36566">
        <ele>64.3</ele>
        <time>2022-09-25T07:00:02Z</time>
      </trkpt>
      <trkpt lat="44.80543" lon="0.36567">
        <ele>64.4</ele>
        <time>2022-09-25T07:00:06Z</time>
      </trkpt>
      <trkpt lat="44.80537" lon="0.3657">
        <ele>64.4</ele>
        <time>2022-09-25T07:00:08Z</time>
      </trkpt>
      <trkpt lat="44.80533" lon="0.36573">
        <ele>64.2</ele>
        <time>2022-09-25T07:00:10Z</time>
      </trkpt>
      <trkpt lat="44.80533" lon="0.36575">
        <ele>64.2</ele>
        <time>2022-09-25T07:00:11Z</time>
      </trkpt>
      <trkpt lat="44.8053" lon="0.36577">
        <ele>64.2</ele>
        <time>2022-09-25T07:00:12Z</time>
      </trkpt>
      <trkpt lat="44.80523" lon="0.36582">
        <ele>66.5</ele>
        <time>2022-09-25T07:00:15Z</time>
      </trkpt>
      <trkpt lat="44.80503" lon="0.36591">
        <ele>65.6</ele>
        <time>2022-09-25T07:00:21Z</time>
      </trkpt>
      <trkpt lat="44.80497" lon="0.36592">
        <ele>64.9</ele>
        <time>2022-09-25T07:00:24Z</time>
      </trkpt>
      <trkpt lat="44.80493" lon="0.36595">
        <ele>64.9</ele>
        <time>2022-09-25T07:00:29Z</time>
      </trkpt>
      <trkpt lat="44.80495" lon="0.36636">
        <ele>70.7</ele>
        <time>2022-09-25T07:00:52Z</time>
      </trkpt>
      <trkpt lat="44.80495" lon="0.36641">
        <ele>70.7</ele>
        <time>2022-09-25T07:00:54Z</time>
      </trkpt>
      <trkpt lat="44.80495" lon="0.36643">
        <ele>70.7</ele>
        <time>2022-09-25T07:00:55Z</time>
      </trkpt>
      <trkpt lat="44.80498" lon="0.36656">
        <ele>72.8</ele>
        <time>2022-09-25T07:01:02Z</time>
      </trkpt>
      <trkpt lat="44.80498" lon="0.36661">
        <ele>73.9</ele>
        <time>2022-09-25T07:01:04Z</time>
      </trkpt>
      <trkpt lat="44.805" lon="0.36664">
        <ele>73.9</ele>
        <time>2022-09-25T07:01:06Z</time>
      </trkpt>
      <trkpt lat="44.80503" lon="0.36676">
        <ele>76.2</ele>
        <time>2022-09-25T07:01:12Z</time>
      </trkpt>
      <trkpt lat="44.805" lon="0.3668">
        <ele>76.2</ele>
        <time>2022-09-25T07:01:15Z</time>
      </trkpt>
      <trkpt lat="44.80499" lon="0.36682">
        <ele>76.2</ele>
        <time>2022-09-25T07:01:16Z</time>
      </trkpt>
      <trkpt lat="44.80487" lon="0.36688">
        <ele>76.9</ele>
        <time>2022-09-25T07:01:22Z</time>
      </trkpt>
      <trkpt lat="44.80474" lon="0.36695">
        <ele>74.4</ele>
        <time>2022-09-25T07:01:28Z</time>
      </trkpt>
      <trkpt lat="44.8046" lon="0.36702">
        <ele>75.1</ele>
        <time>2022-09-25T07:01:34Z</time>
      </trkpt>
      <trkpt lat="44.80455" lon="0.36708">
        <ele>75.1</ele>
        <time>2022-09-25T07:01:37Z</time>
      </trkpt>
      <trkpt lat="44.80452" lon="0.36709">
        <ele>75.1</ele>
        <time>2022-09-25T07:01:38Z</time>
      </trkpt>
      <trkpt lat="44.80442" lon="0.36716">
        <ele>73.7</ele>
        <time>2022-09-25T07:01:43Z</time>
      </trkpt>
      <trkpt lat="44.80431" lon="0.36724">
        <ele>74.4</ele>
        <time>2022-09-25T07:01:47Z</time>
      </trkpt>
      <trkpt lat="44.80417" lon="0.36732">
        <ele>73</ele>
        <time>2022-09-25T07:01:51Z</time>
      </trkpt>
      <trkpt lat="44.80412" lon="0.36733">
        <ele>71.6</ele>
        <time>2022-09-25T07:01:52Z</time>
      </trkpt>
      <trkpt lat="44.80403" lon="0.3674">
        <ele>73.6</ele>
        <time>2022-09-25T07:01:55Z</time>
      </trkpt>
      <trkpt lat="44.80393" lon="0.36749">
        <ele>72.6</ele>
        <time>2022-09-25T07:01:58Z</time>
      </trkpt>
      <trkpt lat="44.80376" lon="0.36761">
        <ele>74.3</ele>
        <time>2022-09-25T07:02:02Z</time>
      </trkpt>
      <trkpt lat="44.80373" lon="0.36763">
        <ele>73.3</ele>
        <time>2022-09-25T07:02:03Z</time>
      </trkpt>
      <trkpt lat="44.80345" lon="0.3678">
        <ele>73.1</ele>
        <time>2022-09-25T07:02:08Z</time>
      </trkpt>
      <trkpt lat="44.80327" lon="0.36792">
        <ele>73.3</ele>
        <time>2022-09-25T07:02:11Z</time>
      </trkpt>
      <trkpt lat="44.80318" lon="0.36799">
        <ele>73.3</ele>
        <time>2022-09-25T07:02:13Z</time>
      </trkpt>
      <trkpt lat="44.80288" lon="0.36817">
        <ele>73</ele>
        <time>2022-09-25T07:02:19Z</time>
      </trkpt>
      <trkpt lat="44.80272" lon="0.36819">
        <ele>71.8</ele>
        <time>2022-09-25T07:02:23Z</time>
      </trkpt>
      <trkpt lat="44.80267" lon="0.36807">
        <ele>71.8</ele>
        <time>2022-09-25T07:02:25Z</time>
      </trkpt>
      <trkpt lat="44.80265" lon="0.36797">
        <ele>67.2</ele>
        <time>2022-09-25T07:02:26Z</time>
      </trkpt>
      <trkpt lat="44.80263" lon="0.36779">
        <ele>64.1</ele>
        <time>2022-09-25T07:02:28Z</time>
      </trkpt>
      <trkpt lat="44.8026" lon="0.3676">
        <ele>61.7</ele>
        <time>2022-09-25T07:02:30Z</time>
      </trkpt>
      <trkpt lat="44.80252" lon="0.36735">
        <ele>59.1</ele>
        <time>2022-09-25T07:02:34Z</time>
      </trkpt>
      <trkpt lat="44.80238" lon="0.36719">
        <ele>56.6</ele>
        <time>2022-09-25T07:02:38Z</time>
      </trkpt>
      <trkpt lat="44.80224" lon="0.36667">
        <ele>51.5</ele>
        <time>2022-09-25T07:02:44Z</time>
      </trkpt>
      <trkpt lat="44.8022" lon="0.36648">
        <ele>49.6</ele>
        <time>2022-09-25T07:02:46Z</time>
      </trkpt>
      <trkpt lat="44.80212" lon="0.36619">
        <ele>46.7</ele>
        <time>2022-09-25T07:02:49Z</time>
      </trkpt>
      <trkpt lat="44.80208" lon="0.36601">
        <ele>44.9</ele>
        <time>2022-09-25T07:02:51Z</time>
      </trkpt>
      <trkpt lat="44.80204" lon="0.36588">
        <ele>43.6</ele>
        <time>2022-09-25T07:02:53Z</time>
      </trkpt>
      <trkpt lat="44.80203" lon="0.36581">
        <ele>42.9</ele>
        <time>2022-09-25T07:02:55Z</time>
      </trkpt>
      <trkpt lat="44.80202" lon="0.36577">
        <ele>42.6</ele>
        <time>2022-09-25T07:02:56Z</time>
      </trkpt>
      <trkpt lat="44.80196" lon="0.36578">
        <ele>42</ele>
        <time>2022-09-25T07:03:00Z</time>
      </trkpt>
      <trkpt lat="44.80165" lon="0.36596">
        <ele>42.1</ele>
        <time>2022-09-25T07:03:08Z</time>
      </trkpt>
      <trkpt lat="44.80136" lon="0.36613">
        <ele>41.9</ele>
        <time>2022-09-25T07:03:15Z</time>
      </trkpt>
      <trkpt lat="44.80105" lon="0.36632">
        <ele>41.7</ele>
        <time>2022-09-25T07:03:22Z</time>
      </trkpt>
      <trkpt lat="44.8007" lon="0.36652">
        <ele>41.7</ele>
        <time>2022-09-25T07:03:30Z</time>
      </trkpt>
      <trkpt lat="44.80035" lon="0.36673">
        <ele>41.9</ele>
        <time>2022-09-25T07:03:38Z</time>
      </trkpt>
      <trkpt lat="44.80026" lon="0.36678">
        <ele>42</ele>
        <time>2022-09-25T07:03:40Z</time>
      </trkpt>
      <trkpt lat="44.80004" lon="0.36691">
        <ele>42.2</ele>
        <time>2022-09-25T07:03:45Z</time>
      </trkpt>
      <trkpt lat="44.79967" lon="0.3671">
        <ele>42.5</ele>
        <time>2022-09-25T07:03:53Z</time>
      </trkpt>
      <trkpt lat="44.79958" lon="0.36715">
        <ele>42.6</ele>
        <time>2022-09-25T07:03:55Z</time>
      </trkpt>
      <trkpt lat="44.79939" lon="0.36724">
        <ele>42.5</ele>
        <time>2022-09-25T07:03:59Z</time>
      </trkpt>
      <trkpt lat="44.7993" lon="0.36729">
        <ele>42.5</ele>
        <time>2022-09-25T07:04:01Z</time>
      </trkpt>
      <trkpt lat="44.79917" lon="0.36736">
        <ele>42.5</ele>
        <time>2022-09-25T07:04:04Z</time>
      </trkpt>
      <trkpt lat="44.79886" lon="0.36751">
        <ele>42.2</ele>
        <time>2022-09-25T07:04:11Z</time>
      </trkpt>
      <trkpt lat="44.79873" lon="0.36757">
        <ele>42</ele>
        <time>2022-09-25T07:04:14Z</time>
      </trkpt>
      <trkpt lat="44.79863" lon="0.36761">
        <ele>41.8</ele>
        <time>2022-09-25T07:04:16Z</time>
      </trkpt>
      <trkpt lat="44.79826" lon="0.36767">
        <ele>41.3</ele>
        <time>2022-09-25T07:04:23Z</time>
      </trkpt>
      <trkpt lat="44.79787" lon="0.36771">
        <ele>40.8</ele>
        <time>2022-09-25T07:04:30Z</time>
      </trkpt>
      <trkpt lat="44.79744" lon="0.36775">
        <ele>40.2</ele>
        <time>2022-09-25T07:04:37Z</time>
      </trkpt>
      <trkpt lat="44.79738" lon="0.36776">
        <ele>40.1</ele>
        <time>2022-09-25T07:04:38Z</time>
      </trkpt>
      <trkpt lat="44.79699" lon="0.36772">
        <ele>39.7</ele>
        <time>2022-09-25T07:04:45Z</time>
      </trkpt>
      <trkpt lat="44.79692" lon="0.3678">
        <ele>39.8</ele>
        <time>2022-09-25T07:04:47Z</time>
      </trkpt>
      <trkpt lat="44.79688" lon="0.36784">
        <ele>39.8</ele>
        <time>2022-09-25T07:04:48Z</time>
      </trkpt>
      <trkpt lat="44.7968" lon="0.368">
        <ele>40</ele>
        <time>2022-09-25T07:04:51Z</time>
      </trkpt>
      <trkpt lat="44.79681" lon="0.36813">
        <ele>40.1</ele>
        <time>2022-09-25T07:04:53Z</time>
      </trkpt>
      <trkpt lat="44.7968" lon="0.36826">
        <ele>40.2</ele>
        <time>2022-09-25T07:04:55Z</time>
      </trkpt>
      <trkpt lat="44.79674" lon="0.3684">
        <ele>40.4</ele>
        <time>2022-09-25T07:04:57Z</time>
      </trkpt>
      <trkpt lat="44.7967" lon="0.36846">
        <ele>40.4</ele>
        <time>2022-09-25T07:04:58Z</time>
      </trkpt>
      <trkpt lat="44.79666" lon="0.3685">
        <ele>40.4</ele>
        <time>2022-09-25T07:04:59Z</time>
      </trkpt>
      <trkpt lat="44.7965" lon="0.36864">
        <ele>40.6</ele>
        <time>2022-09-25T07:05:03Z</time>
      </trkpt>
      <trkpt lat="44.79646" lon="0.36868">
        <ele>40.6</ele>
        <time>2022-09-25T07:05:04Z</time>
      </trkpt>
      <trkpt lat="44.79635" lon="0.3688">
        <ele>40.9</ele>
        <time>2022-09-25T07:05:07Z</time>
      </trkpt>
      <trkpt lat="44.79632" lon="0.36883">
        <ele>41</ele>
        <time>2022-09-25T07:05:08Z</time>
      </trkpt>
      <trkpt lat="44.79625" lon="0.3689">
        <ele>41.1</ele>
        <time>2022-09-25T07:05:10Z</time>
      </trkpt>
      <trkpt lat="44.79623" lon="0.36897">
        <ele>41.2</ele>
        <time>2022-09-25T07:05:11Z</time>
      </trkpt>
      <trkpt lat="44.79617" lon="0.36933">
        <ele>41.6</ele>
        <time>2022-09-25T07:05:17Z</time>
      </trkpt>
      <trkpt lat="44.79614" lon="0.36945">
        <ele>41.8</ele>
        <time>2022-09-25T07:05:19Z</time>
      </trkpt>
      <trkpt lat="44.79612" lon="0.36958">
        <ele>41.9</ele>
        <time>2022-09-25T07:05:21Z</time>
      </trkpt>
      <trkpt lat="44.79595" lon="0.36989">
        <ele>42.3</ele>
        <time>2022-09-25T07:05:27Z</time>
      </trkpt>
      <trkpt lat="44.79591" lon="0.36994">
        <ele>42.5</ele>
        <time>2022-09-25T07:05:28Z</time>
      </trkpt>
      <trkpt lat="44.79588" lon="0.36999">
        <ele>42.6</ele>
        <time>2022-09-25T07:05:29Z</time>
      </trkpt>
      <trkpt lat="44.79582" lon="0.37008">
        <ele>42.7</ele>
        <time>2022-09-25T07:05:31Z</time>
      </trkpt>
      <trkpt lat="44.79576" lon="0.37018">
        <ele>42.9</ele>
        <time>2022-09-25T07:05:33Z</time>
      </trkpt>
      <trkpt lat="44.79568" lon="0.37033">
        <ele>43</ele>
        <time>2022-09-25T07:05:36Z</time>
      </trkpt>
      <trkpt lat="44.79563" lon="0.37043">
        <ele>43.1</ele>
        <time>2022-09-25T07:05:38Z</time>
      </trkpt>
      <trkpt lat="44.79552" lon="0.37064">
        <ele>43.3</ele>
        <time>2022-09-25T07:05:42Z</time>
      </trkpt>
      <trkpt lat="44.7955" lon="0.37069">
        <ele>43.4</ele>
        <time>2022-09-25T07:05:43Z</time>
      </trkpt>
      <trkpt lat="44.79542" lon="0.37089">
        <ele>43.7</ele>
        <time>2022-09-25T07:05:47Z</time>
      </trkpt>
      <trkpt lat="44.79535" lon="0.37115">
        <ele>44.2</ele>
        <time>2022-09-25T07:05:52Z</time>
      </trkpt>
      <trkpt lat="44.79534" lon="0.37131">
        <ele>44.5</ele>
        <time>2022-09-25T07:05:55Z</time>
      </trkpt>
      <trkpt lat="44.79534" lon="0.37135">
        <ele>44.6</ele>
        <time>2022-09-25T07:05:56Z</time>
      </trkpt>
      <trkpt lat="44.79534" lon="0.37139">
        <ele>44.7</ele>
        <time>2022-09-25T07:05:57Z</time>
      </trkpt>
      <trkpt lat="44.79535" lon="0.37156">
        <ele>45.1</ele>
        <time>2022-09-25T07:06:00Z</time>
      </trkpt>
      <trkpt lat="44.79536" lon="0.37188">
        <ele>46</ele>
        <time>2022-09-25T07:06:06Z</time>
      </trkpt>
      <trkpt lat="44.79537" lon="0.37221">
        <ele>47.2</ele>
        <time>2022-09-25T07:06:12Z</time>
      </trkpt>
      <trkpt lat="44.79539" lon="0.37245">
        <ele>47.9</ele>
        <time>2022-09-25T07:06:17Z</time>
      </trkpt>
      <trkpt lat="44.7954" lon="0.3727">
        <ele>48.4</ele>
        <time>2022-09-25T07:06:22Z</time>
      </trkpt>
      <trkpt lat="44.7954" lon="0.37286">
        <ele>48.7</ele>
        <time>2022-09-25T07:06:25Z</time>
      </trkpt>
      <trkpt lat="44.79541" lon="0.37296">
        <ele>48.8</ele>
        <time>2022-09-25T07:06:27Z</time>
      </trkpt>
      <trkpt lat="44.79542" lon="0.37323">
        <ele>49.2</ele>
        <time>2022-09-25T07:06:32Z</time>
      </trkpt>
      <trkpt lat="44.79543" lon="0.37345">
        <ele>49.5</ele>
        <time>2022-09-25T07:06:36Z</time>
      </trkpt>
      <trkpt lat="44.79544" lon="0.37368">
        <ele>50</ele>
        <time>2022-09-25T07:06:41Z</time>
      </trkpt>
      <trkpt lat="44.79545" lon="0.37387">
        <ele>50.6</ele>
        <time>2022-09-25T07:06:45Z</time>
      </trkpt>
      <trkpt lat="44.79546" lon="0.37405">
        <ele>51.1</ele>
        <time>2022-09-25T07:06:49Z</time>
      </trkpt>
      <trkpt lat="44.79546" lon="0.37409">
        <ele>51.2</ele>
        <time>2022-09-25T07:06:50Z</time>
      </trkpt>
      <trkpt lat="44.79546" lon="0.37426">
        <ele>51.6</ele>
        <time>2022-09-25T07:06:54Z</time>
      </trkpt>
      <trkpt lat="44.79546" lon="0.37435">
        <ele>51.9</ele>
        <time>2022-09-25T07:06:56Z</time>
      </trkpt>
      <trkpt lat="44.79546" lon="0.37444">
        <ele>52.2</ele>
        <time>2022-09-25T07:06:58Z</time>
      </trkpt>
      <trkpt lat="44.79546" lon="0.37449">
        <ele>52.3</ele>
        <time>2022-09-25T07:06:59Z</time>
      </trkpt>
      <trkpt lat="44.79545" lon="0.37456">
        <ele>52.4</ele>
        <time>2022-09-25T07:07:01Z</time>
      </trkpt>
      <trkpt lat="44.79552" lon="0.37455">
        <ele>52.6</ele>
        <time>2022-09-25T07:07:02Z</time>
      </trkpt>
      <trkpt lat="44.79571" lon="0.37455">
        <ele>54.8</ele>
        <time>2022-09-25T07:07:07Z</time>
      </trkpt>
      <trkpt lat="44.79581" lon="0.37453">
        <ele>57.3</ele>
        <time>2022-09-25T07:07:11Z</time>
      </trkpt>
      <trkpt lat="44.79586" lon="0.37453">
        <ele>60.4</ele>
        <time>2022-09-25T07:07:13Z</time>
      </trkpt>
      <trkpt lat="44.79591" lon="0.37453">
        <ele>60.4</ele>
        <time>2022-09-25T07:07:15Z</time>
      </trkpt>
      <trkpt lat="44.79593" lon="0.37454">
        <ele>60.5</ele>
        <time>2022-09-25T07:07:16Z</time>
      </trkpt>
      <trkpt lat="44.79597" lon="0.3746">
        <ele>62.5</ele>
        <time>2022-09-25T07:07:19Z</time>
      </trkpt>
      <trkpt lat="44.79596" lon="0.37462">
        <ele>59.9</ele>
        <time>2022-09-25T07:07:20Z</time>
      </trkpt>
      <trkpt lat="44.79599" lon="0.37468">
        <ele>62.5</ele>
        <time>2022-09-25T07:07:22Z</time>
      </trkpt>
      <trkpt lat="44.79604" lon="0.37478">
        <ele>61.4</ele>
        <time>2022-09-25T07:07:26Z</time>
      </trkpt>
      <trkpt lat="44.79606" lon="0.37481">
        <ele>61.4</ele>
        <time>2022-09-25T07:07:27Z</time>
      </trkpt>
      <trkpt lat="44.79609" lon="0.37486">
        <ele>61.5</ele>
        <time>2022-09-25T07:07:29Z</time>
      </trkpt>
      <trkpt lat="44.79617" lon="0.37496">
        <ele>63.4</ele>
        <time>2022-09-25T07:07:32Z</time>
      </trkpt>
      <trkpt lat="44.79629" lon="0.37506">
        <ele>66.4</ele>
        <time>2022-09-25T07:07:37Z</time>
      </trkpt>
      <trkpt lat="44.79636" lon="0.37517">
        <ele>68.6</ele>
        <time>2022-09-25T07:07:41Z</time>
      </trkpt>
      <trkpt lat="44.79644" lon="0.37527">
        <ele>67.5</ele>
        <time>2022-09-25T07:07:45Z</time>
      </trkpt>
      <trkpt lat="44.79654" lon="0.37538">
        <ele>70.8</ele>
        <time>2022-09-25T07:07:48Z</time>
      </trkpt>
      <trkpt lat="44.79666" lon="0.37556">
        <ele>72.8</ele>
        <time>2022-09-25T07:07:53Z</time>
      </trkpt>
      <trkpt lat="44.79678" lon="0.37574">
        <ele>75.2</ele>
        <time>2022-09-25T07:07:58Z</time>
      </trkpt>
      <trkpt lat="44.79685" lon="0.3759">
        <ele>77.6</ele>
        <time>2022-09-25T07:08:02Z</time>
      </trkpt>
      <trkpt lat="44.79697" lon="0.37612">
        <ele>79.1</ele>
        <time>2022-09-25T07:08:07Z</time>
      </trkpt>
      <trkpt lat="44.79707" lon="0.37627">
        <ele>82.1</ele>
        <time>2022-09-25T07:08:12Z</time>
      </trkpt>
      <trkpt lat="44.79711" lon="0.37629">
        <ele>80.5</ele>
        <time>2022-09-25T07:08:14Z</time>
      </trkpt>
      <trkpt lat="44.79715" lon="0.3763">
        <ele>80.5</ele>
        <time>2022-09-25T07:08:16Z</time>
      </trkpt>
      <trkpt lat="44.79724" lon="0.37644">
        <ele>83.1</ele>
        <time>2022-09-25T07:08:20Z</time>
      </trkpt>
      <trkpt lat="44.79734" lon="0.37655">
        <ele>82.5</ele>
        <time>2022-09-25T07:08:24Z</time>
      </trkpt>
      <trkpt lat="44.79735" lon="0.37658">
        <ele>82.5</ele>
        <time>2022-09-25T07:08:25Z</time>
      </trkpt>
      <trkpt lat="44.7974" lon="0.37664">
        <ele>79.8</ele>
        <time>2022-09-25T07:08:27Z</time>
      </trkpt>
      <trkpt lat="44.79746" lon="0.37673">
        <ele>81.3</ele>
        <time>2022-09-25T07:08:30Z</time>
      </trkpt>
      <trkpt lat="44.79748" lon="0.37675">
        <ele>81.3</ele>
        <time>2022-09-25T07:08:31Z</time>
      </trkpt>
      <trkpt lat="44.79755" lon="0.37691">
        <ele>78.8</ele>
        <time>2022-09-25T07:08:35Z</time>
      </trkpt>
      <trkpt lat="44.79763" lon="0.37708">
        <ele>78.1</ele>
        <time>2022-09-25T07:08:39Z</time>
      </trkpt>
      <trkpt lat="44.7977" lon="0.3772">
        <ele>77.5</ele>
        <time>2022-09-25T07:08:42Z</time>
      </trkpt>
      <trkpt lat="44.7978" lon="0.37732">
        <ele>76.9</ele>
        <time>2022-09-25T07:08:45Z</time>
      </trkpt>
      <trkpt lat="44.79787" lon="0.37743">
        <ele>77</ele>
        <time>2022-09-25T07:08:49Z</time>
      </trkpt>
      <trkpt lat="44.79789" lon="0.37744">
        <ele>77</ele>
        <time>2022-09-25T07:08:50Z</time>
      </trkpt>
      <trkpt lat="44.79795" lon="0.37751">
        <ele>76.1</ele>
        <time>2022-09-25T07:08:53Z</time>
      </trkpt>
      <trkpt lat="44.79806" lon="0.37761">
        <ele>77.4</ele>
        <time>2022-09-25T07:08:58Z</time>
      </trkpt>
      <trkpt lat="44.79817" lon="0.37769">
        <ele>77</ele>
        <time>2022-09-25T07:09:02Z</time>
      </trkpt>
      <trkpt lat="44.79824" lon="0.37775">
        <ele>77</ele>
        <time>2022-09-25T07:09:06Z</time>
      </trkpt>
      <trkpt lat="44.79826" lon="0.37782">
        <ele>77.1</ele>
        <time>2022-09-25T07:09:08Z</time>
      </trkpt>
      <trkpt lat="44.79828" lon="0.37786">
        <ele>76.5</ele>
        <time>2022-09-25T07:09:09Z</time>
      </trkpt>
      <trkpt lat="44.79841" lon="0.37801">
        <ele>75.7</ele>
        <time>2022-09-25T07:09:12Z</time>
      </trkpt>
      <trkpt lat="44.79844" lon="0.37802">
        <ele>75.8</ele>
        <time>2022-09-25T07:09:13Z</time>
      </trkpt>
      <trkpt lat="44.79848" lon="0.37804">
        <ele>75.8</ele>
        <time>2022-09-25T07:09:15Z</time>
      </trkpt>
      <trkpt lat="44.79862" lon="0.37812">
        <ele>76.4</ele>
        <time>2022-09-25T07:09:20Z</time>
      </trkpt>
      <trkpt lat="44.79867" lon="0.37812">
        <ele>77</ele>
        <time>2022-09-25T07:09:21Z</time>
      </trkpt>
      <trkpt lat="44.79871" lon="0.37814">
        <ele>77</ele>
        <time>2022-09-25T07:09:23Z</time>
      </trkpt>
      <trkpt lat="44.79882" lon="0.37822">
        <ele>76.7</ele>
        <time>2022-09-25T07:09:27Z</time>
      </trkpt>
      <trkpt lat="44.79895" lon="0.37834">
        <ele>77.8</ele>
        <time>2022-09-25T07:09:32Z</time>
      </trkpt>
      <trkpt lat="44.79901" lon="0.37846">
        <ele>78</ele>
        <time>2022-09-25T07:09:36Z</time>
      </trkpt>
      <trkpt lat="44.79907" lon="0.37854">
        <ele>77.3</ele>
        <time>2022-09-25T07:09:39Z</time>
      </trkpt>
      <trkpt lat="44.79909" lon="0.37864">
        <ele>77.4</ele>
        <time>2022-09-25T07:09:43Z</time>
      </trkpt>
      <trkpt lat="44.79915" lon="0.37876">
        <ele>77.6</ele>
        <time>2022-09-25T07:09:46Z</time>
      </trkpt>
      <trkpt lat="44.7992" lon="0.37888">
        <ele>76.8</ele>
        <time>2022-09-25T07:09:49Z</time>
      </trkpt>
      <trkpt lat="44.79921" lon="0.37891">
        <ele>76.9</ele>
        <time>2022-09-25T07:09:50Z</time>
      </trkpt>
      <trkpt lat="44.79925" lon="0.37906">
        <ele>76.1</ele>
        <time>2022-09-25T07:09:54Z</time>
      </trkpt>
      <trkpt lat="44.79927" lon="0.37911">
        <ele>76.9</ele>
        <time>2022-09-25T07:09:55Z</time>
      </trkpt>
      <trkpt lat="44.79935" lon="0.37922">
        <ele>75.5</ele>
        <time>2022-09-25T07:09:58Z</time>
      </trkpt>
      <trkpt lat="44.79942" lon="0.37939">
        <ele>74.6</ele>
        <time>2022-09-25T07:10:02Z</time>
      </trkpt>
      <trkpt lat="44.79949" lon="0.37957">
        <ele>73.5</ele>
        <time>2022-09-25T07:10:06Z</time>
      </trkpt>
      <trkpt lat="44.79967" lon="0.37979">
        <ele>73.6</ele>
        <time>2022-09-25T07:10:14Z</time>
      </trkpt>
      <trkpt lat="44.79981" lon="0.37997">
        <ele>73.8</ele>
        <time>2022-09-25T07:10:21Z</time>
      </trkpt>
      <trkpt lat="44.79997" lon="0.38018">
        <ele>74.1</ele>
        <time>2022-09-25T07:10:30Z</time>
      </trkpt>
      <trkpt lat="44.80009" lon="0.38036">
        <ele>74.5</ele>
        <time>2022-09-25T07:10:37Z</time>
      </trkpt>
      <trkpt lat="44.80023" lon="0.38054">
        <ele>75</ele>
        <time>2022-09-25T07:10:45Z</time>
      </trkpt>
      <trkpt lat="44.80037" lon="0.38073">
        <ele>75.8</ele>
        <time>2022-09-25T07:10:53Z</time>
      </trkpt>
      <trkpt lat="44.80051" lon="0.38095">
        <ele>77</ele>
        <time>2022-09-25T07:11:02Z</time>
      </trkpt>
      <trkpt lat="44.80065" lon="0.3812">
        <ele>78.3</ele>
        <time>2022-09-25T07:11:10Z</time>
      </trkpt>
      <trkpt lat="44.80081" lon="0.38149">
        <ele>80.9</ele>
        <time>2022-09-25T07:11:19Z</time>
      </trkpt>
      <trkpt lat="44.80093" lon="0.38168">
        <ele>82.2</ele>
        <time>2022-09-25T07:11:26Z</time>
      </trkpt>
      <trkpt lat="44.80092" lon="0.38171">
        <ele>82.2</ele>
        <time>2022-09-25T07:11:28Z</time>
      </trkpt>
      <trkpt lat="44.80092" lon="0.38172">
        <ele>82.3</ele>
        <time>2022-09-25T07:11:29Z</time>
      </trkpt>
      <trkpt lat="44.80089" lon="0.38175">
        <ele>82.3</ele>
        <time>2022-09-25T07:11:32Z</time>
      </trkpt>
      <trkpt lat="44.80087" lon="0.38175">
        <ele>82.3</ele>
        <time>2022-09-25T07:11:33Z</time>
      </trkpt>
      <trkpt lat="44.80083" lon="0.38183">
        <ele>83.3</ele>
        <time>2022-09-25T07:11:36Z</time>
      </trkpt>
      <trkpt lat="44.80081" lon="0.38186">
        <ele>83.3</ele>
        <time>2022-09-25T07:11:37Z</time>
      </trkpt>
      <trkpt lat="44.80075" lon="0.38196">
        <ele>84.5</ele>
        <time>2022-09-25T07:11:41Z</time>
      </trkpt>
      <trkpt lat="44.80074" lon="0.38198">
        <ele>84.6</ele>
        <time>2022-09-25T07:11:42Z</time>
      </trkpt>
      <trkpt lat="44.80069" lon="0.38212">
        <ele>85.9</ele>
        <time>2022-09-25T07:11:47Z</time>
      </trkpt>
      <trkpt lat="44.80063" lon="0.38225">
        <ele>85.9</ele>
        <time>2022-09-25T07:11:51Z</time>
      </trkpt>
      <trkpt lat="44.80062" lon="0.38228">
        <ele>86</ele>
        <time>2022-09-25T07:11:52Z</time>
      </trkpt>
      <trkpt lat="44.80058" lon="0.38233">
        <ele>87.4</ele>
        <time>2022-09-25T07:11:54Z</time>
      </trkpt>
      <trkpt lat="44.80056" lon="0.38234">
        <ele>87.4</ele>
        <time>2022-09-25T07:11:55Z</time>
      </trkpt>
      <trkpt lat="44.80055" lon="0.38236">
        <ele>87.5</ele>
        <time>2022-09-25T07:11:56Z</time>
      </trkpt>
      <trkpt lat="44.80048" lon="0.38241">
        <ele>87.5</ele>
        <time>2022-09-25T07:12:00Z</time>
      </trkpt>
      <trkpt lat="44.80044" lon="0.38245">
        <ele>87.3</ele>
        <time>2022-09-25T07:12:02Z</time>
      </trkpt>
      <trkpt lat="44.80043" lon="0.38251">
        <ele>88.8</ele>
        <time>2022-09-25T07:12:04Z</time>
      </trkpt>
      <trkpt lat="44.80038" lon="0.38266">
        <ele>90.3</ele>
        <time>2022-09-25T07:12:10Z</time>
      </trkpt>
      <trkpt lat="44.80037" lon="0.3827">
        <ele>90.3</ele>
        <time>2022-09-25T07:12:11Z</time>
      </trkpt>
      <trkpt lat="44.80035" lon="0.38278">
        <ele>90.4</ele>
        <time>2022-09-25T07:12:14Z</time>
      </trkpt>
      <trkpt lat="44.80029" lon="0.38286">
        <ele>92.2</ele>
        <time>2022-09-25T07:12:18Z</time>
      </trkpt>
      <trkpt lat="44.80024" lon="0.38294">
        <ele>92.3</ele>
        <time>2022-09-25T07:12:21Z</time>
      </trkpt>
      <trkpt lat="44.80023" lon="0.38296">
        <ele>92.5</ele>
        <time>2022-09-25T07:12:22Z</time>
      </trkpt>
      <trkpt lat="44.8002" lon="0.38301">
        <ele>94.3</ele>
        <time>2022-09-25T07:12:24Z</time>
      </trkpt>
      <trkpt lat="44.80014" lon="0.38305">
        <ele>94.3</ele>
        <time>2022-09-25T07:12:27Z</time>
      </trkpt>
      <trkpt lat="44.80012" lon="0.38313">
        <ele>94.4</ele>
        <time>2022-09-25T07:12:30Z</time>
      </trkpt>
      <trkpt lat="44.80011" lon="0.38316">
        <ele>96.1</ele>
        <time>2022-09-25T07:12:31Z</time>
      </trkpt>
      <trkpt lat="44.8001" lon="0.38324">
        <ele>96.1</ele>
        <time>2022-09-25T07:12:34Z</time>
      </trkpt>
      <trkpt lat="44.8001" lon="0.38331">
        <ele>96.2</ele>
        <time>2022-09-25T07:12:36Z</time>
      </trkpt>
      <trkpt lat="44.80009" lon="0.38333">
        <ele>98</ele>
        <time>2022-09-25T07:12:37Z</time>
      </trkpt>
      <trkpt lat="44.80008" lon="0.38341">
        <ele>98</ele>
        <time>2022-09-25T07:12:40Z</time>
      </trkpt>
      <trkpt lat="44.80006" lon="0.38345">
        <ele>98.1</ele>
        <time>2022-09-25T07:12:42Z</time>
      </trkpt>
      <trkpt lat="44.80006" lon="0.38348">
        <ele>98.1</ele>
        <time>2022-09-25T07:12:44Z</time>
      </trkpt>
      <trkpt lat="44.80006" lon="0.38354">
        <ele>99.7</ele>
        <time>2022-09-25T07:12:47Z</time>
      </trkpt>
      <trkpt lat="44.80007" lon="0.3836">
        <ele>99.7</ele>
        <time>2022-09-25T07:12:49Z</time>
      </trkpt>
      <trkpt lat="44.80007" lon="0.38362">
        <ele>99.7</ele>
        <time>2022-09-25T07:12:50Z</time>
      </trkpt>
      <trkpt lat="44.80005" lon="0.38376">
        <ele>101.4</ele>
        <time>2022-09-25T07:12:56Z</time>
      </trkpt>
      <trkpt lat="44.80004" lon="0.38387">
        <ele>103.1</ele>
        <time>2022-09-25T07:13:00Z</time>
      </trkpt>
      <trkpt lat="44.80004" lon="0.38394">
        <ele>103.2</ele>
        <time>2022-09-25T07:13:03Z</time>
      </trkpt>
      <trkpt lat="44.80003" lon="0.38403">
        <ele>104.4</ele>
        <time>2022-09-25T07:13:07Z</time>
      </trkpt>
      <trkpt lat="44.80004" lon="0.38409">
        <ele>104.5</ele>
        <time>2022-09-25T07:13:10Z</time>
      </trkpt>
      <trkpt lat="44.80004" lon="0.38412">
        <ele>104.5</ele>
        <time>2022-09-25T07:13:11Z</time>
      </trkpt>
      <trkpt lat="44.80004" lon="0.38422">
        <ele>105.4</ele>
        <time>2022-09-25T07:13:16Z</time>
      </trkpt>
      <trkpt lat="44.80004" lon="0.38434">
        <ele>105.4</ele>
        <time>2022-09-25T07:13:21Z</time>
      </trkpt>
      <trkpt lat="44.80004" lon="0.38438">
        <ele>106</ele>
        <time>2022-09-25T07:13:23Z</time>
      </trkpt>
      <trkpt lat="44.80006" lon="0.38445">
        <ele>106</ele>
        <time>2022-09-25T07:13:26Z</time>
      </trkpt>
      <trkpt lat="44.80007" lon="0.3846">
        <ele>106.5</ele>
        <time>2022-09-25T07:13:33Z</time>
      </trkpt>
      <trkpt lat="44.80006" lon="0.38473">
        <ele>106.9</ele>
        <time>2022-09-25T07:13:39Z</time>
      </trkpt>
      <trkpt lat="44.80006" lon="0.38486">
        <ele>106.9</ele>
        <time>2022-09-25T07:13:45Z</time>
      </trkpt>
      <trkpt lat="44.80008" lon="0.38499">
        <ele>106.9</ele>
        <time>2022-09-25T07:13:50Z</time>
      </trkpt>
      <trkpt lat="44.80012" lon="0.38519">
        <ele>106.7</ele>
        <time>2022-09-25T07:13:57Z</time>
      </trkpt>
      <trkpt lat="44.80014" lon="0.38547">
        <ele>106.8</ele>
        <time>2022-09-25T07:14:07Z</time>
      </trkpt>
      <trkpt lat="44.80015" lon="0.38566">
        <ele>106.6</ele>
        <time>2022-09-25T07:14:13Z</time>
      </trkpt>
      <trkpt lat="44.80015" lon="0.38579">
        <ele>106.4</ele>
        <time>2022-09-25T07:14:17Z</time>
      </trkpt>
      <trkpt lat="44.80016" lon="0.38604">
        <ele>106.1</ele>
        <time>2022-09-25T07:14:25Z</time>
      </trkpt>
      <trkpt lat="44.80016" lon="0.38627">
        <ele>105.8</ele>
        <time>2022-09-25T07:14:32Z</time>
      </trkpt>
      <trkpt lat="44.80018" lon="0.38653">
        <ele>105.7</ele>
        <time>2022-09-25T07:14:40Z</time>
      </trkpt>
      <trkpt lat="44.80019" lon="0.38672">
        <ele>105.7</ele>
        <time>2022-09-25T07:14:45Z</time>
      </trkpt>
      <trkpt lat="44.80017" lon="0.38697">
        <ele>105.5</ele>
        <time>2022-09-25T07:14:52Z</time>
      </trkpt>
      <trkpt lat="44.80014" lon="0.38722">
        <ele>105.7</ele>
        <time>2022-09-25T07:15:00Z</time>
      </trkpt>
      <trkpt lat="44.80008" lon="0.38754">
        <ele>106.4</ele>
        <time>2022-09-25T07:15:08Z</time>
      </trkpt>
      <trkpt lat="44.80004" lon="0.38776">
        <ele>106.5</ele>
        <time>2022-09-25T07:15:14Z</time>
      </trkpt>
      <trkpt lat="44.80001" lon="0.38796">
        <ele>106.5</ele>
        <time>2022-09-25T07:15:20Z</time>
      </trkpt>
      <trkpt lat="44.79997" lon="0.38798">
        <ele>106.5</ele>
        <time>2022-09-25T07:15:22Z</time>
      </trkpt>
      <trkpt lat="44.79993" lon="0.38795">
        <ele>106.5</ele>
        <time>2022-09-25T07:15:24Z</time>
      </trkpt>
      <trkpt lat="44.7997" lon="0.38782">
        <ele>106.8</ele>
        <time>2022-09-25T07:15:33Z</time>
      </trkpt>
      <trkpt lat="44.79956" lon="0.3877">
        <ele>107</ele>
        <time>2022-09-25T07:15:40Z</time>
      </trkpt>
      <trkpt lat="44.79956" lon="0.3877">
        <ele>107.2</ele>
        <time>2022-09-25T07:15:46Z</time>
      </trkpt>
      <trkpt lat="44.79915" lon="0.38746">
        <ele>108.7</ele>
        <time>2022-09-25T07:15:50Z</time>
      </trkpt>
      <trkpt lat="44.79911" lon="0.38744">
        <ele>109.3</ele>
        <time>2022-09-25T07:15:51Z</time>
      </trkpt>
      <trkpt lat="44.79892" lon="0.38732">
        <ele>109.3</ele>
        <time>2022-09-25T07:15:56Z</time>
      </trkpt>
      <trkpt lat="44.7988" lon="0.38724">
        <ele>109.4</ele>
        <time>2022-09-25T07:15:59Z</time>
      </trkpt>
      <trkpt lat="44.79872" lon="0.38719">
        <ele>109.5</ele>
        <time>2022-09-25T07:16:01Z</time>
      </trkpt>
      <trkpt lat="44.79867" lon="0.38716">
        <ele>109.6</ele>
        <time>2022-09-25T07:16:02Z</time>
      </trkpt>
      <trkpt lat="44.79863" lon="0.38714">
        <ele>109.7</ele>
        <time>2022-09-25T07:16:03Z</time>
      </trkpt>
      <trkpt lat="44.79855" lon="0.38711">
        <ele>109.8</ele>
        <time>2022-09-25T07:16:05Z</time>
      </trkpt>
      <trkpt lat="44.79852" lon="0.38709">
        <ele>109.4</ele>
        <time>2022-09-25T07:16:06Z</time>
      </trkpt>
      <trkpt lat="44.79831" lon="0.38695">
        <ele>109.4</ele>
        <time>2022-09-25T07:16:12Z</time>
      </trkpt>
      <trkpt lat="44.798" lon="0.38677">
        <ele>108.4</ele>
        <time>2022-09-25T07:16:21Z</time>
      </trkpt>
      <trkpt lat="44.79771" lon="0.3866">
        <ele>107.9</ele>
        <time>2022-09-25T07:16:29Z</time>
      </trkpt>
      <trkpt lat="44.7974" lon="0.38643">
        <ele>108.5</ele>
        <time>2022-09-25T07:16:36Z</time>
      </trkpt>
      <trkpt lat="44.79731" lon="0.38638">
        <ele>108.5</ele>
        <time>2022-09-25T07:16:38Z</time>
      </trkpt>
      <trkpt lat="44.79722" lon="0.38632">
        <ele>108.6</ele>
        <time>2022-09-25T07:16:40Z</time>
      </trkpt>
      <trkpt lat="44.79718" lon="0.3863">
        <ele>109.1</ele>
        <time>2022-09-25T07:16:41Z</time>
      </trkpt>
      <trkpt lat="44.79694" lon="0.38616">
        <ele>109.7</ele>
        <time>2022-09-25T07:16:47Z</time>
      </trkpt>
      <trkpt lat="44.79668" lon="0.38598">
        <ele>110.1</ele>
        <time>2022-09-25T07:16:54Z</time>
      </trkpt>
      <trkpt lat="44.7965" lon="0.38588">
        <ele>109.9</ele>
        <time>2022-09-25T07:16:59Z</time>
      </trkpt>
      <trkpt lat="44.79645" lon="0.38589">
        <ele>110.2</ele>
        <time>2022-09-25T07:17:00Z</time>
      </trkpt>
      <trkpt lat="44.79642" lon="0.38592">
        <ele>110.8</ele>
        <time>2022-09-25T07:17:01Z</time>
      </trkpt>
      <trkpt lat="44.79636" lon="0.38601">
        <ele>110.9</ele>
        <time>2022-09-25T07:17:03Z</time>
      </trkpt>
      <trkpt lat="44.79625" lon="0.38629">
        <ele>112</ele>
        <time>2022-09-25T07:17:09Z</time>
      </trkpt>
      <trkpt lat="44.7962" lon="0.38636">
        <ele>112.2</ele>
        <time>2022-09-25T07:17:11Z</time>
      </trkpt>
      <trkpt lat="44.79614" lon="0.38641">
        <ele>112.5</ele>
        <time>2022-09-25T07:17:12Z</time>
      </trkpt>
      <trkpt lat="44.79612" lon="0.38639">
        <ele>112.5</ele>
        <time>2022-09-25T07:17:13Z</time>
      </trkpt>
      <trkpt lat="44.79607" lon="0.38631">
        <ele>112.2</ele>
        <time>2022-09-25T07:17:15Z</time>
      </trkpt>
      <trkpt lat="44.79602" lon="0.38622">
        <ele>112</ele>
        <time>2022-09-25T07:17:17Z</time>
      </trkpt>
      <trkpt lat="44.7959" lon="0.38604">
        <ele>111.7</ele>
        <time>2022-09-25T07:17:21Z</time>
      </trkpt>
      <trkpt lat="44.79565" lon="0.3856">
        <ele>110</ele>
        <time>2022-09-25T07:17:30Z</time>
      </trkpt>
      <trkpt lat="44.79552" lon="0.38532">
        <ele>108.7</ele>
        <time>2022-09-25T07:17:35Z</time>
      </trkpt>
      <trkpt lat="44.79547" lon="0.38525">
        <ele>108.2</ele>
        <time>2022-09-25T07:17:37Z</time>
      </trkpt>
      <trkpt lat="44.79545" lon="0.3852">
        <ele>107.9</ele>
        <time>2022-09-25T07:17:41Z</time>
      </trkpt>
      <trkpt lat="44.79537" lon="0.38526">
        <ele>107.9</ele>
        <time>2022-09-25T07:18:01Z</time>
      </trkpt>
      <trkpt lat="44.79534" lon="0.3853">
        <ele>107.9</ele>
        <time>2022-09-25T07:18:03Z</time>
      </trkpt>
      <trkpt lat="44.79526" lon="0.38542">
        <ele>107.9</ele>
        <time>2022-09-25T07:18:07Z</time>
      </trkpt>
      <trkpt lat="44.79517" lon="0.38552">
        <ele>107.9</ele>
        <time>2022-09-25T07:18:12Z</time>
      </trkpt>
      <trkpt lat="44.79516" lon="0.38553">
        <ele>107.9</ele>
        <time>2022-09-25T07:18:15Z</time>
      </trkpt>
      <trkpt lat="44.79523" lon="0.38545">
        <ele>108</ele>
        <time>2022-09-25T07:20:51Z</time>
      </trkpt>
      <trkpt lat="44.79535" lon="0.38529">
        <ele>107.9</ele>
        <time>2022-09-25T07:20:57Z</time>
      </trkpt>
      <trkpt lat="44.79543" lon="0.3852">
        <ele>107.8</ele>
        <time>2022-09-25T07:21:02Z</time>
      </trkpt>
      <trkpt lat="44.79543" lon="0.3852">
        <ele>107.8</ele>
        <time>2022-09-25T07:21:04Z</time>
      </trkpt>
      <trkpt lat="44.79543" lon="0.38515">
        <ele>107.5</ele>
        <time>2022-09-25T07:21:14Z</time>
      </trkpt>
      <trkpt lat="44.79542" lon="0.38511">
        <ele>107.2</ele>
        <time>2022-09-25T07:21:15Z</time>
      </trkpt>
      <trkpt lat="44.79531" lon="0.38488">
        <ele>105.7</ele>
        <time>2022-09-25T07:21:20Z</time>
      </trkpt>
      <trkpt lat="44.79515" lon="0.38455">
        <ele>103.4</ele>
        <time>2022-09-25T07:21:25Z</time>
      </trkpt>
      <trkpt lat="44.79487" lon="0.38412">
        <ele>99.9</ele>
        <time>2022-09-25T07:21:31Z</time>
      </trkpt>
      <trkpt lat="44.79464" lon="0.38365">
        <ele>97</ele>
        <time>2022-09-25T07:21:36Z</time>
      </trkpt>
      <trkpt lat="44.79443" lon="0.3832">
        <ele>95.2</ele>
        <time>2022-09-25T07:21:41Z</time>
      </trkpt>
      <trkpt lat="44.79433" lon="0.38299">
        <ele>94.7</ele>
        <time>2022-09-25T07:21:45Z</time>
      </trkpt>
      <trkpt lat="44.79429" lon="0.38276">
        <ele>93.9</ele>
        <time>2022-09-25T07:21:49Z</time>
      </trkpt>
      <trkpt lat="44.79439" lon="0.38245">
        <ele>92.4</ele>
        <time>2022-09-25T07:21:54Z</time>
      </trkpt>
      <trkpt lat="44.7944" lon="0.38243">
        <ele>92.2</ele>
        <time>2022-09-25T07:21:55Z</time>
      </trkpt>
      <trkpt lat="44.7944" lon="0.38241">
        <ele>92.1</ele>
        <time>2022-09-25T07:21:57Z</time>
      </trkpt>
      <trkpt lat="44.7944" lon="0.38241">
        <ele>92.1</ele>
        <time>2022-09-25T07:21:58Z</time>
      </trkpt>
      <trkpt lat="44.79442" lon="0.38237">
        <ele>91.9</ele>
        <time>2022-09-25T07:22:21Z</time>
      </trkpt>
      <trkpt lat="44.79443" lon="0.38233">
        <ele>91.7</ele>
        <time>2022-09-25T07:22:22Z</time>
      </trkpt>
      <trkpt lat="44.79447" lon="0.38223">
        <ele>91.1</ele>
        <time>2022-09-25T07:22:24Z</time>
      </trkpt>
      <trkpt lat="44.79451" lon="0.38212">
        <ele>90.4</ele>
        <time>2022-09-25T07:22:26Z</time>
      </trkpt>
      <trkpt lat="44.79465" lon="0.38175">
        <ele>88.1</ele>
        <time>2022-09-25T07:22:31Z</time>
      </trkpt>
      <trkpt lat="44.79477" lon="0.38131">
        <ele>86.3</ele>
        <time>2022-09-25T07:22:36Z</time>
      </trkpt>
      <trkpt lat="44.7948" lon="0.38105">
        <ele>85.4</ele>
        <time>2022-09-25T07:22:40Z</time>
      </trkpt>
      <trkpt lat="44.79478" lon="0.38072">
        <ele>84.3</ele>
        <time>2022-09-25T07:22:46Z</time>
      </trkpt>
      <trkpt lat="44.79477" lon="0.38066">
        <ele>84</ele>
        <time>2022-09-25T07:22:47Z</time>
      </trkpt>
      <trkpt lat="44.79467" lon="0.38018">
        <ele>81.8</ele>
        <time>2022-09-25T07:22:54Z</time>
      </trkpt>
      <trkpt lat="44.79455" lon="0.37961">
        <ele>79.6</ele>
        <time>2022-09-25T07:23:00Z</time>
      </trkpt>
      <trkpt lat="44.79443" lon="0.37897">
        <ele>77.5</ele>
        <time>2022-09-25T07:23:06Z</time>
      </trkpt>
      <trkpt lat="44.79433" lon="0.37822">
        <ele>75</ele>
        <time>2022-09-25T07:23:13Z</time>
      </trkpt>
      <trkpt lat="44.79432" lon="0.37812">
        <ele>74.5</ele>
        <time>2022-09-25T07:23:14Z</time>
      </trkpt>
      <trkpt lat="44.79431" lon="0.3779">
        <ele>72.9</ele>
        <time>2022-09-25T07:23:17Z</time>
      </trkpt>
      <trkpt lat="44.79431" lon="0.37784">
        <ele>72.3</ele>
        <time>2022-09-25T07:23:18Z</time>
      </trkpt>
      <trkpt lat="44.79431" lon="0.3777">
        <ele>70.7</ele>
        <time>2022-09-25T07:23:20Z</time>
      </trkpt>
      <trkpt lat="44.79435" lon="0.37757">
        <ele>68.9</ele>
        <time>2022-09-25T07:23:22Z</time>
      </trkpt>
      <trkpt lat="44.79444" lon="0.37733">
        <ele>66</ele>
        <time>2022-09-25T07:23:26Z</time>
      </trkpt>
      <trkpt lat="44.79457" lon="0.3771">
        <ele>62.8</ele>
        <time>2022-09-25T07:23:30Z</time>
      </trkpt>
      <trkpt lat="44.7946" lon="0.37705">
        <ele>62.2</ele>
        <time>2022-09-25T07:23:31Z</time>
      </trkpt>
      <trkpt lat="44.79467" lon="0.37693">
        <ele>60.8</ele>
        <time>2022-09-25T07:23:33Z</time>
      </trkpt>
      <trkpt lat="44.79471" lon="0.37685">
        <ele>59.9</ele>
        <time>2022-09-25T07:23:34Z</time>
      </trkpt>
      <trkpt lat="44.79481" lon="0.37668">
        <ele>58</ele>
        <time>2022-09-25T07:23:36Z</time>
      </trkpt>
      <trkpt lat="44.79492" lon="0.37648">
        <ele>56.3</ele>
        <time>2022-09-25T07:23:38Z</time>
      </trkpt>
      <trkpt lat="44.79506" lon="0.37608">
        <ele>53.1</ele>
        <time>2022-09-25T07:23:42Z</time>
      </trkpt>
      <trkpt lat="44.79512" lon="0.37591">
        <ele>51.6</ele>
        <time>2022-09-25T07:23:44Z</time>
      </trkpt>
      <trkpt lat="44.79514" lon="0.3758">
        <ele>50.7</ele>
        <time>2022-09-25T07:23:46Z</time>
      </trkpt>
      <trkpt lat="44.79518" lon="0.37561">
        <ele>49.6</ele>
        <time>2022-09-25T07:23:51Z</time>
      </trkpt>
      <trkpt lat="44.79521" lon="0.37547">
        <ele>48.9</ele>
        <time>2022-09-25T07:23:55Z</time>
      </trkpt>
      <trkpt lat="44.79521" lon="0.37545">
        <ele>48.9</ele>
        <time>2022-09-25T07:23:56Z</time>
      </trkpt>
      <trkpt lat="44.79515" lon="0.37534">
        <ele>48.4</ele>
        <time>2022-09-25T07:23:59Z</time>
      </trkpt>
      <trkpt lat="44.79512" lon="0.37534">
        <ele>48.4</ele>
        <time>2022-09-25T07:24:00Z</time>
      </trkpt>
      <trkpt lat="44.79503" lon="0.37534">
        <ele>48.1</ele>
        <time>2022-09-25T07:24:03Z</time>
      </trkpt>
      <trkpt lat="44.79499" lon="0.37534">
        <ele>48</ele>
        <time>2022-09-25T07:24:04Z</time>
      </trkpt>
      <trkpt lat="44.79485" lon="0.37534">
        <ele>48</ele>
        <time>2022-09-25T07:24:07Z</time>
      </trkpt>
      <trkpt lat="44.7948" lon="0.37534">
        <ele>48</ele>
        <time>2022-09-25T07:24:08Z</time>
      </trkpt>
      <trkpt lat="44.79462" lon="0.37534">
        <ele>48.1</ele>
        <time>2022-09-25T07:24:12Z</time>
      </trkpt>
      <trkpt lat="44.79447" lon="0.37535">
        <ele>47.6</ele>
        <time>2022-09-25T07:24:16Z</time>
      </trkpt>
      <trkpt lat="44.79443" lon="0.37536">
        <ele>47.5</ele>
        <time>2022-09-25T07:24:17Z</time>
      </trkpt>
      <trkpt lat="44.79433" lon="0.37536">
        <ele>47.2</ele>
        <time>2022-09-25T07:24:19Z</time>
      </trkpt>
      <trkpt lat="44.79411" lon="0.37538">
        <ele>46.6</ele>
        <time>2022-09-25T07:24:23Z</time>
      </trkpt>
      <trkpt lat="44.79382" lon="0.37544">
        <ele>46</ele>
        <time>2022-09-25T07:24:28Z</time>
      </trkpt>
      <trkpt lat="44.79377" lon="0.37545">
        <ele>45.8</ele>
        <time>2022-09-25T07:24:29Z</time>
      </trkpt>
      <trkpt lat="44.79361" lon="0.37552">
        <ele>45.4</ele>
        <time>2022-09-25T07:24:32Z</time>
      </trkpt>
      <trkpt lat="44.79351" lon="0.3756">
        <ele>45.3</ele>
        <time>2022-09-25T07:24:34Z</time>
      </trkpt>
      <trkpt lat="44.7932" lon="0.37585">
        <ele>44.8</ele>
        <time>2022-09-25T07:24:40Z</time>
      </trkpt>
      <trkpt lat="44.793" lon="0.376">
        <ele>44.5</ele>
        <time>2022-09-25T07:24:44Z</time>
      </trkpt>
      <trkpt lat="44.7929" lon="0.37608">
        <ele>44.4</ele>
        <time>2022-09-25T07:24:46Z</time>
      </trkpt>
      <trkpt lat="44.79271" lon="0.37623">
        <ele>44.4</ele>
        <time>2022-09-25T07:24:50Z</time>
      </trkpt>
      <trkpt lat="44.79268" lon="0.37629">
        <ele>44.3</ele>
        <time>2022-09-25T07:24:51Z</time>
      </trkpt>
      <trkpt lat="44.7925" lon="0.37659">
        <ele>44.4</ele>
        <time>2022-09-25T07:24:56Z</time>
      </trkpt>
      <trkpt lat="44.79239" lon="0.37677">
        <ele>44.4</ele>
        <time>2022-09-25T07:24:59Z</time>
      </trkpt>
      <trkpt lat="44.79236" lon="0.37682">
        <ele>44.4</ele>
        <time>2022-09-25T07:25:00Z</time>
      </trkpt>
      <trkpt lat="44.79222" lon="0.37705">
        <ele>44.3</ele>
        <time>2022-09-25T07:25:04Z</time>
      </trkpt>
      <trkpt lat="44.79218" lon="0.37711">
        <ele>44.3</ele>
        <time>2022-09-25T07:25:05Z</time>
      </trkpt>
      <trkpt lat="44.79215" lon="0.37716">
        <ele>44.3</ele>
        <time>2022-09-25T07:25:06Z</time>
      </trkpt>
      <trkpt lat="44.79205" lon="0.37733">
        <ele>44.3</ele>
        <time>2022-09-25T07:25:09Z</time>
      </trkpt>
      <trkpt lat="44.79202" lon="0.37738">
        <ele>44.4</ele>
        <time>2022-09-25T07:25:10Z</time>
      </trkpt>
      <trkpt lat="44.79199" lon="0.37744">
        <ele>44.5</ele>
        <time>2022-09-25T07:25:11Z</time>
      </trkpt>
      <trkpt lat="44.7919" lon="0.37761">
        <ele>44.7</ele>
        <time>2022-09-25T07:25:14Z</time>
      </trkpt>
      <trkpt lat="44.79187" lon="0.37766">
        <ele>44.8</ele>
        <time>2022-09-25T07:25:15Z</time>
      </trkpt>
      <trkpt lat="44.79185" lon="0.37771">
        <ele>44.8</ele>
        <time>2022-09-25T07:25:16Z</time>
      </trkpt>
      <trkpt lat="44.79176" lon="0.37788">
        <ele>45</ele>
        <time>2022-09-25T07:25:19Z</time>
      </trkpt>
      <trkpt lat="44.79174" lon="0.37793">
        <ele>45.2</ele>
        <time>2022-09-25T07:25:20Z</time>
      </trkpt>
      <trkpt lat="44.79163" lon="0.37815">
        <ele>45.8</ele>
        <time>2022-09-25T07:25:24Z</time>
      </trkpt>
      <trkpt lat="44.79161" lon="0.37821">
        <ele>45.9</ele>
        <time>2022-09-25T07:25:25Z</time>
      </trkpt>
      <trkpt lat="44.79154" lon="0.37838">
        <ele>46</ele>
        <time>2022-09-25T07:25:28Z</time>
      </trkpt>
      <trkpt lat="44.79143" lon="0.37874">
        <ele>46.6</ele>
        <time>2022-09-25T07:25:34Z</time>
      </trkpt>
      <trkpt lat="44.79138" lon="0.37893">
        <ele>47.1</ele>
        <time>2022-09-25T07:25:37Z</time>
      </trkpt>
      <trkpt lat="44.79134" lon="0.37906">
        <ele>47.4</ele>
        <time>2022-09-25T07:25:39Z</time>
      </trkpt>
      <trkpt lat="44.79126" lon="0.37923">
        <ele>47.8</ele>
        <time>2022-09-25T07:25:42Z</time>
      </trkpt>
      <trkpt lat="44.79121" lon="0.37933">
        <ele>48</ele>
        <time>2022-09-25T07:25:44Z</time>
      </trkpt>
      <trkpt lat="44.79097" lon="0.37969">
        <ele>49</ele>
        <time>2022-09-25T07:25:52Z</time>
      </trkpt>
      <trkpt lat="44.79088" lon="0.37982">
        <ele>49.3</ele>
        <time>2022-09-25T07:25:55Z</time>
      </trkpt>
      <trkpt lat="44.79078" lon="0.37997">
        <ele>49.4</ele>
        <time>2022-09-25T07:25:58Z</time>
      </trkpt>
      <trkpt lat="44.79052" lon="0.38034">
        <ele>49.1</ele>
        <time>2022-09-25T07:26:05Z</time>
      </trkpt>
      <trkpt lat="44.79031" lon="0.38054">
        <ele>48.6</ele>
        <time>2022-09-25T07:26:10Z</time>
      </trkpt>
      <trkpt lat="44.79013" lon="0.38071">
        <ele>48.3</ele>
        <time>2022-09-25T07:26:14Z</time>
      </trkpt>
      <trkpt lat="44.79004" lon="0.38079">
        <ele>48.3</ele>
        <time>2022-09-25T07:26:16Z</time>
      </trkpt>
      <trkpt lat="44.78974" lon="0.38107">
        <ele>48.6</ele>
        <time>2022-09-25T07:26:23Z</time>
      </trkpt>
      <trkpt lat="44.78962" lon="0.38121">
        <ele>49</ele>
        <time>2022-09-25T07:26:26Z</time>
      </trkpt>
      <trkpt lat="44.78953" lon="0.38138">
        <ele>49.3</ele>
        <time>2022-09-25T07:26:29Z</time>
      </trkpt>
      <trkpt lat="44.78937" lon="0.38174">
        <ele>49.6</ele>
        <time>2022-09-25T07:26:35Z</time>
      </trkpt>
      <trkpt lat="44.78935" lon="0.3818">
        <ele>49.7</ele>
        <time>2022-09-25T07:26:36Z</time>
      </trkpt>
      <trkpt lat="44.78929" lon="0.38195">
        <ele>50</ele>
        <time>2022-09-25T07:26:39Z</time>
      </trkpt>
      <trkpt lat="44.78927" lon="0.38202">
        <ele>50.1</ele>
        <time>2022-09-25T07:26:40Z</time>
      </trkpt>
      <trkpt lat="44.78924" lon="0.38208">
        <ele>50.2</ele>
        <time>2022-09-25T07:26:41Z</time>
      </trkpt>
      <trkpt lat="44.78919" lon="0.3822">
        <ele>50.3</ele>
        <time>2022-09-25T07:26:43Z</time>
      </trkpt>
      <trkpt lat="44.78915" lon="0.38231">
        <ele>50.5</ele>
        <time>2022-09-25T07:26:45Z</time>
      </trkpt>
      <trkpt lat="44.78908" lon="0.38249">
        <ele>50.8</ele>
        <time>2022-09-25T07:26:48Z</time>
      </trkpt>
      <trkpt lat="44.78901" lon="0.38267">
        <ele>50.9</ele>
        <time>2022-09-25T07:26:51Z</time>
      </trkpt>
      <trkpt lat="44.78886" lon="0.38304">
        <ele>51.2</ele>
        <time>2022-09-25T07:26:57Z</time>
      </trkpt>
      <trkpt lat="44.78884" lon="0.3831">
        <ele>51.4</ele>
        <time>2022-09-25T07:26:58Z</time>
      </trkpt>
      <trkpt lat="44.78878" lon="0.38321">
        <ele>51.6</ele>
        <time>2022-09-25T07:27:00Z</time>
      </trkpt>
      <trkpt lat="44.78875" lon="0.38326">
        <ele>51.6</ele>
        <time>2022-09-25T07:27:01Z</time>
      </trkpt>
      <trkpt lat="44.78861" lon="0.38354">
        <ele>51.6</ele>
        <time>2022-09-25T07:27:06Z</time>
      </trkpt>
      <trkpt lat="44.78855" lon="0.38366">
        <ele>51.6</ele>
        <time>2022-09-25T07:27:08Z</time>
      </trkpt>
      <trkpt lat="44.78849" lon="0.38377">
        <ele>51.6</ele>
        <time>2022-09-25T07:27:10Z</time>
      </trkpt>
      <trkpt lat="44.78834" lon="0.38406">
        <ele>51.6</ele>
        <time>2022-09-25T07:27:15Z</time>
      </trkpt>
      <trkpt lat="44.78802" lon="0.38467">
        <ele>51.8</ele>
        <time>2022-09-25T07:27:25Z</time>
      </trkpt>
      <trkpt lat="44.78786" lon="0.38504">
        <ele>52</ele>
        <time>2022-09-25T07:27:31Z</time>
      </trkpt>
      <trkpt lat="44.78775" lon="0.38528">
        <ele>52.1</ele>
        <time>2022-09-25T07:27:35Z</time>
      </trkpt>
      <trkpt lat="44.78766" lon="0.38569">
        <ele>52.7</ele>
        <time>2022-09-25T07:27:41Z</time>
      </trkpt>
      <trkpt lat="44.78756" lon="0.38574">
        <ele>52</ele>
        <time>2022-09-25T07:27:44Z</time>
      </trkpt>
      <trkpt lat="44.78749" lon="0.38565">
        <ele>51.4</ele>
        <time>2022-09-25T07:27:46Z</time>
      </trkpt>
      <trkpt lat="44.78745" lon="0.3856">
        <ele>51.3</ele>
        <time>2022-09-25T07:27:47Z</time>
      </trkpt>
      <trkpt lat="44.78711" lon="0.38519">
        <ele>49.6</ele>
        <time>2022-09-25T07:27:55Z</time>
      </trkpt>
      <trkpt lat="44.78678" lon="0.3848">
        <ele>48.6</ele>
        <time>2022-09-25T07:28:03Z</time>
      </trkpt>
      <trkpt lat="44.78646" lon="0.3844">
        <ele>48.1</ele>
        <time>2022-09-25T07:28:11Z</time>
      </trkpt>
      <trkpt lat="44.78624" lon="0.38415">
        <ele>48.4</ele>
        <time>2022-09-25T07:28:17Z</time>
      </trkpt>
      <trkpt lat="44.78621" lon="0.38411">
        <ele>48.4</ele>
        <time>2022-09-25T07:28:18Z</time>
      </trkpt>
      <trkpt lat="44.78606" lon="0.38397">
        <ele>48.9</ele>
        <time>2022-09-25T07:28:23Z</time>
      </trkpt>
      <trkpt lat="44.78591" lon="0.38386">
        <ele>49.5</ele>
        <time>2022-09-25T07:28:29Z</time>
      </trkpt>
      <trkpt lat="44.7858" lon="0.3838">
        <ele>50.7</ele>
        <time>2022-09-25T07:28:33Z</time>
      </trkpt>
      <trkpt lat="44.78564" lon="0.38367">
        <ele>51.7</ele>
        <time>2022-09-25T07:28:38Z</time>
      </trkpt>
      <trkpt lat="44.7855" lon="0.38355">
        <ele>52.4</ele>
        <time>2022-09-25T07:28:43Z</time>
      </trkpt>
      <trkpt lat="44.78552" lon="0.38348">
        <ele>52.2</ele>
        <time>2022-09-25T07:28:46Z</time>
      </trkpt>
      <trkpt lat="44.78554" lon="0.38344">
        <ele>52.2</ele>
        <time>2022-09-25T07:28:47Z</time>
      </trkpt>
      <trkpt lat="44.78557" lon="0.38336">
        <ele>52</ele>
        <time>2022-09-25T07:28:49Z</time>
      </trkpt>
      <trkpt lat="44.78561" lon="0.38325">
        <ele>51.8</ele>
        <time>2022-09-25T07:28:51Z</time>
      </trkpt>
      <trkpt lat="44.78569" lon="0.38305">
        <ele>51.7</ele>
        <time>2022-09-25T07:28:56Z</time>
      </trkpt>
      <trkpt lat="44.78576" lon="0.38284">
        <ele>52</ele>
        <time>2022-09-25T07:29:01Z</time>
      </trkpt>
      <trkpt lat="44.78586" lon="0.38259">
        <ele>52.7</ele>
        <time>2022-09-25T07:29:07Z</time>
      </trkpt>
      <trkpt lat="44.78593" lon="0.3824">
        <ele>53.3</ele>
        <time>2022-09-25T07:29:12Z</time>
      </trkpt>
      <trkpt lat="44.78603" lon="0.38212">
        <ele>53.5</ele>
        <time>2022-09-25T07:29:18Z</time>
      </trkpt>
      <trkpt lat="44.7861" lon="0.38193">
        <ele>53.6</ele>
        <time>2022-09-25T07:29:22Z</time>
      </trkpt>
      <trkpt lat="44.78614" lon="0.38183">
        <ele>53.6</ele>
        <time>2022-09-25T07:29:24Z</time>
      </trkpt>
      <trkpt lat="44.78618" lon="0.38173">
        <ele>53.7</ele>
        <time>2022-09-25T07:29:26Z</time>
      </trkpt>
      <trkpt lat="44.78627" lon="0.38148">
        <ele>54</ele>
        <time>2022-09-25T07:29:31Z</time>
      </trkpt>
      <trkpt lat="44.78636" lon="0.38125">
        <ele>54.4</ele>
        <time>2022-09-25T07:29:36Z</time>
      </trkpt>
      <trkpt lat="44.78644" lon="0.38102">
        <ele>55.1</ele>
        <time>2022-09-25T07:29:41Z</time>
      </trkpt>
      <trkpt lat="44.78653" lon="0.38079">
        <ele>55.6</ele>
        <time>2022-09-25T07:29:47Z</time>
      </trkpt>
      <trkpt lat="44.78659" lon="0.38067">
        <ele>55.9</ele>
        <time>2022-09-25T07:29:50Z</time>
      </trkpt>
      <trkpt lat="44.78674" lon="0.38053">
        <ele>55.9</ele>
        <time>2022-09-25T07:29:55Z</time>
      </trkpt>
      <trkpt lat="44.78685" lon="0.38042">
        <ele>55.8</ele>
        <time>2022-09-25T07:29:58Z</time>
      </trkpt>
      <trkpt lat="44.78693" lon="0.38035">
        <ele>55.5</ele>
        <time>2022-09-25T07:30:00Z</time>
      </trkpt>
      <trkpt lat="44.78697" lon="0.38031">
        <ele>55.4</ele>
        <time>2022-09-25T07:30:01Z</time>
      </trkpt>
      <trkpt lat="44.78711" lon="0.38017">
        <ele>54.9</ele>
        <time>2022-09-25T07:30:04Z</time>
      </trkpt>
      <trkpt lat="44.78731" lon="0.37998">
        <ele>53.9</ele>
        <time>2022-09-25T07:30:08Z</time>
      </trkpt>
      <trkpt lat="44.78754" lon="0.37976">
        <ele>52.5</ele>
        <time>2022-09-25T07:30:12Z</time>
      </trkpt>
      <trkpt lat="44.78768" lon="0.37962">
        <ele>51.9</ele>
        <time>2022-09-25T07:30:15Z</time>
      </trkpt>
      <trkpt lat="44.78772" lon="0.37958">
        <ele>51.8</ele>
        <time>2022-09-25T07:30:16Z</time>
      </trkpt>
      <trkpt lat="44.78777" lon="0.37954">
        <ele>51.8</ele>
        <time>2022-09-25T07:30:17Z</time>
      </trkpt>
      <trkpt lat="44.78785" lon="0.37942">
        <ele>51.6</ele>
        <time>2022-09-25T07:30:20Z</time>
      </trkpt>
      <trkpt lat="44.78792" lon="0.37921">
        <ele>51.5</ele>
        <time>2022-09-25T07:30:24Z</time>
      </trkpt>
      <trkpt lat="44.78798" lon="0.37902">
        <ele>51.7</ele>
        <time>2022-09-25T07:30:26Z</time>
      </trkpt>
      <trkpt lat="44.78801" lon="0.37895">
        <ele>51.8</ele>
        <time>2022-09-25T07:30:27Z</time>
      </trkpt>
      <trkpt lat="44.78807" lon="0.37877">
        <ele>52.1</ele>
        <time>2022-09-25T07:30:30Z</time>
      </trkpt>
      <trkpt lat="44.78811" lon="0.37864">
        <ele>52.1</ele>
        <time>2022-09-25T07:30:32Z</time>
      </trkpt>
      <trkpt lat="44.78817" lon="0.37847">
        <ele>52.2</ele>
        <time>2022-09-25T07:30:35Z</time>
      </trkpt>
      <trkpt lat="44.78824" lon="0.37825">
        <ele>52.6</ele>
        <time>2022-09-25T07:30:39Z</time>
      </trkpt>
      <trkpt lat="44.78826" lon="0.37821">
        <ele>52.6</ele>
        <time>2022-09-25T07:30:40Z</time>
      </trkpt>
      <trkpt lat="44.78843" lon="0.37824">
        <ele>52.9</ele>
        <time>2022-09-25T07:30:42Z</time>
      </trkpt>
      <trkpt lat="44.78836" lon="0.37815">
        <ele>53.1</ele>
        <time>2022-09-25T07:30:47Z</time>
      </trkpt>
      <trkpt lat="44.78826" lon="0.37821">
        <ele>53.5</ele>
        <time>2022-09-25T07:30:51Z</time>
      </trkpt>
      <trkpt lat="44.78816" lon="0.3782">
        <ele>54</ele>
        <time>2022-09-25T07:30:56Z</time>
      </trkpt>
      <trkpt lat="44.78804" lon="0.37819">
        <ele>54.7</ele>
        <time>2022-09-25T07:31:01Z</time>
      </trkpt>
      <trkpt lat="44.7879" lon="0.37817">
        <ele>55.3</ele>
        <time>2022-09-25T07:31:08Z</time>
      </trkpt>
      <trkpt lat="44.78782" lon="0.37815">
        <ele>55.9</ele>
        <time>2022-09-25T07:31:13Z</time>
      </trkpt>
      <trkpt lat="44.7878" lon="0.37815">
        <ele>56.1</ele>
        <time>2022-09-25T07:31:14Z</time>
      </trkpt>
      <trkpt lat="44.78771" lon="0.37814">
        <ele>57</ele>
        <time>2022-09-25T07:31:19Z</time>
      </trkpt>
      <trkpt lat="44.78764" lon="0.37813">
        <ele>57.9</ele>
        <time>2022-09-25T07:31:22Z</time>
      </trkpt>
      <trkpt lat="44.78762" lon="0.37813">
        <ele>58.3</ele>
        <time>2022-09-25T07:31:24Z</time>
      </trkpt>
      <trkpt lat="44.78753" lon="0.37812">
        <ele>59.5</ele>
        <time>2022-09-25T07:31:29Z</time>
      </trkpt>
      <trkpt lat="44.78751" lon="0.37811">
        <ele>59.8</ele>
        <time>2022-09-25T07:31:30Z</time>
      </trkpt>
      <trkpt lat="44.78748" lon="0.37811">
        <ele>60.3</ele>
        <time>2022-09-25T07:31:33Z</time>
      </trkpt>
      <trkpt lat="44.78747" lon="0.37811">
        <ele>60.4</ele>
        <time>2022-09-25T07:31:34Z</time>
      </trkpt>
      <trkpt lat="44.78741" lon="0.3781">
        <ele>61.1</ele>
        <time>2022-09-25T07:31:38Z</time>
      </trkpt>
      <trkpt lat="44.78739" lon="0.3781">
        <ele>61.4</ele>
        <time>2022-09-25T07:31:39Z</time>
      </trkpt>
      <trkpt lat="44.78736" lon="0.37809">
        <ele>61.8</ele>
        <time>2022-09-25T07:31:41Z</time>
      </trkpt>
      <trkpt lat="44.78734" lon="0.37809">
        <ele>62.1</ele>
        <time>2022-09-25T07:31:43Z</time>
      </trkpt>
      <trkpt lat="44.78732" lon="0.37809">
        <ele>62.3</ele>
        <time>2022-09-25T07:31:44Z</time>
      </trkpt>
      <trkpt lat="44.78728" lon="0.37808">
        <ele>63.1</ele>
        <time>2022-09-25T07:31:48Z</time>
      </trkpt>
      <trkpt lat="44.78724" lon="0.37808">
        <ele>63.8</ele>
        <time>2022-09-25T07:31:51Z</time>
      </trkpt>
      <trkpt lat="44.78715" lon="0.37807">
        <ele>65.5</ele>
        <time>2022-09-25T07:31:58Z</time>
      </trkpt>
      <trkpt lat="44.78707" lon="0.37806">
        <ele>67.2</ele>
        <time>2022-09-25T07:32:04Z</time>
      </trkpt>
      <trkpt lat="44.78698" lon="0.37804">
        <ele>69.1</ele>
        <time>2022-09-25T07:32:11Z</time>
      </trkpt>
      <trkpt lat="44.78695" lon="0.37804">
        <ele>69.5</ele>
        <time>2022-09-25T07:32:14Z</time>
      </trkpt>
      <trkpt lat="44.78693" lon="0.37804">
        <ele>69.8</ele>
        <time>2022-09-25T07:32:17Z</time>
      </trkpt>
      <trkpt lat="44.7869" lon="0.37803">
        <ele>70.3</ele>
        <time>2022-09-25T07:32:21Z</time>
      </trkpt>
      <trkpt lat="44.78649" lon="0.37791">
        <ele>76.7</ele>
        <time>2022-09-25T07:32:50Z</time>
      </trkpt>
      <trkpt lat="44.78647" lon="0.3779">
        <ele>76.8</ele>
        <time>2022-09-25T07:32:51Z</time>
      </trkpt>
      <trkpt lat="44.78645" lon="0.37789">
        <ele>77</ele>
        <time>2022-09-25T07:32:52Z</time>
      </trkpt>
      <trkpt lat="44.78643" lon="0.37787">
        <ele>77.3</ele>
        <time>2022-09-25T07:32:54Z</time>
      </trkpt>
      <trkpt lat="44.78641" lon="0.37786">
        <ele>77.5</ele>
        <time>2022-09-25T07:32:56Z</time>
      </trkpt>
      <trkpt lat="44.78639" lon="0.37785">
        <ele>77.7</ele>
        <time>2022-09-25T07:32:58Z</time>
      </trkpt>
      <trkpt lat="44.78634" lon="0.37782">
        <ele>78.2</ele>
        <time>2022-09-25T07:33:01Z</time>
      </trkpt>
      <trkpt lat="44.78632" lon="0.37781">
        <ele>78.3</ele>
        <time>2022-09-25T07:33:02Z</time>
      </trkpt>
      <trkpt lat="44.78627" lon="0.37778">
        <ele>79</ele>
        <time>2022-09-25T07:33:05Z</time>
      </trkpt>
      <trkpt lat="44.78624" lon="0.37777">
        <ele>79.2</ele>
        <time>2022-09-25T07:33:06Z</time>
      </trkpt>
      <trkpt lat="44.78617" lon="0.37772">
        <ele>80.1</ele>
        <time>2022-09-25T07:33:10Z</time>
      </trkpt>
      <trkpt lat="44.78607" lon="0.37767">
        <ele>81.4</ele>
        <time>2022-09-25T07:33:15Z</time>
      </trkpt>
      <trkpt lat="44.78604" lon="0.37765">
        <ele>81.8</ele>
        <time>2022-09-25T07:33:17Z</time>
      </trkpt>
      <trkpt lat="44.78598" lon="0.37762">
        <ele>82.4</ele>
        <time>2022-09-25T07:33:20Z</time>
      </trkpt>
      <trkpt lat="44.78594" lon="0.37759">
        <ele>82.9</ele>
        <time>2022-09-25T07:33:23Z</time>
      </trkpt>
      <trkpt lat="44.78589" lon="0.37757">
        <ele>83.4</ele>
        <time>2022-09-25T07:33:26Z</time>
      </trkpt>
      <trkpt lat="44.7858" lon="0.37751">
        <ele>84.6</ele>
        <time>2022-09-25T07:33:31Z</time>
      </trkpt>
      <trkpt lat="44.78568" lon="0.37744">
        <ele>85.8</ele>
        <time>2022-09-25T07:33:37Z</time>
      </trkpt>
      <trkpt lat="44.78552" lon="0.37735">
        <ele>87.4</ele>
        <time>2022-09-25T07:33:45Z</time>
      </trkpt>
      <trkpt lat="44.78534" lon="0.37725">
        <ele>88.7</ele>
        <time>2022-09-25T07:33:52Z</time>
      </trkpt>
      <trkpt lat="44.78528" lon="0.37721">
        <ele>89</ele>
        <time>2022-09-25T07:33:55Z</time>
      </trkpt>
      <trkpt lat="44.78526" lon="0.3772">
        <ele>89</ele>
        <time>2022-09-25T07:33:56Z</time>
      </trkpt>
      <trkpt lat="44.78515" lon="0.37713">
        <ele>89.6</ele>
        <time>2022-09-25T07:34:02Z</time>
      </trkpt>
      <trkpt lat="44.78505" lon="0.37707">
        <ele>90.2</ele>
        <time>2022-09-25T07:34:07Z</time>
      </trkpt>
      <trkpt lat="44.78494" lon="0.377">
        <ele>90.9</ele>
        <time>2022-09-25T07:34:12Z</time>
      </trkpt>
      <trkpt lat="44.78481" lon="0.37692">
        <ele>91.7</ele>
        <time>2022-09-25T07:34:18Z</time>
      </trkpt>
      <trkpt lat="44.78467" lon="0.37683">
        <ele>93</ele>
        <time>2022-09-25T07:34:25Z</time>
      </trkpt>
      <trkpt lat="44.78452" lon="0.37674">
        <ele>94.2</ele>
        <time>2022-09-25T07:34:32Z</time>
      </trkpt>
      <trkpt lat="44.78436" lon="0.37663">
        <ele>95.6</ele>
        <time>2022-09-25T07:34:41Z</time>
      </trkpt>
      <trkpt lat="44.78419" lon="0.37653">
        <ele>97</ele>
        <time>2022-09-25T07:34:50Z</time>
      </trkpt>
      <trkpt lat="44.78403" lon="0.37643">
        <ele>98.5</ele>
        <time>2022-09-25T07:34:58Z</time>
      </trkpt>
      <trkpt lat="44.78387" lon="0.37633">
        <ele>99.7</ele>
        <time>2022-09-25T07:35:06Z</time>
      </trkpt>
      <trkpt lat="44.78369" lon="0.37621">
        <ele>100.8</ele>
        <time>2022-09-25T07:35:15Z</time>
      </trkpt>
      <trkpt lat="44.78354" lon="0.37612">
        <ele>101.6</ele>
        <time>2022-09-25T07:35:22Z</time>
      </trkpt>
      <trkpt lat="44.78334" lon="0.37599">
        <ele>103</ele>
        <time>2022-09-25T07:35:32Z</time>
      </trkpt>
      <trkpt lat="44.78322" lon="0.37591">
        <ele>104</ele>
        <time>2022-09-25T07:35:38Z</time>
      </trkpt>
      <trkpt lat="44.7831" lon="0.37603">
        <ele>105</ele>
        <time>2022-09-25T07:35:43Z</time>
      </trkpt>
      <trkpt lat="44.78302" lon="0.37615">
        <ele>105.6</ele>
        <time>2022-09-25T07:35:49Z</time>
      </trkpt>
      <trkpt lat="44.7829" lon="0.37632">
        <ele>106.5</ele>
        <time>2022-09-25T07:35:55Z</time>
      </trkpt>
      <trkpt lat="44.78275" lon="0.37653">
        <ele>107.3</ele>
        <time>2022-09-25T07:36:04Z</time>
      </trkpt>
      <trkpt lat="44.78262" lon="0.37672">
        <ele>107.7</ele>
        <time>2022-09-25T07:36:11Z</time>
      </trkpt>
      <trkpt lat="44.7825" lon="0.37688">
        <ele>107.9</ele>
        <time>2022-09-25T07:36:17Z</time>
      </trkpt>
      <trkpt lat="44.78235" lon="0.3771">
        <ele>108.3</ele>
        <time>2022-09-25T07:36:24Z</time>
      </trkpt>
      <trkpt lat="44.7822" lon="0.37701">
        <ele>108.9</ele>
        <time>2022-09-25T07:36:29Z</time>
      </trkpt>
      <trkpt lat="44.78202" lon="0.3768">
        <ele>109.8</ele>
        <time>2022-09-25T07:36:38Z</time>
      </trkpt>
      <trkpt lat="44.78185" lon="0.37658">
        <ele>110.7</ele>
        <time>2022-09-25T07:36:47Z</time>
      </trkpt>
      <trkpt lat="44.78167" lon="0.37632">
        <ele>112.2</ele>
        <time>2022-09-25T07:36:57Z</time>
      </trkpt>
      <trkpt lat="44.78152" lon="0.37612">
        <ele>113.1</ele>
        <time>2022-09-25T07:37:05Z</time>
      </trkpt>
      <trkpt lat="44.7814" lon="0.37594">
        <ele>113.7</ele>
        <time>2022-09-25T07:37:12Z</time>
      </trkpt>
      <trkpt lat="44.78124" lon="0.37572">
        <ele>114.8</ele>
        <time>2022-09-25T07:37:21Z</time>
      </trkpt>
      <trkpt lat="44.78108" lon="0.37549">
        <ele>116</ele>
        <time>2022-09-25T07:37:30Z</time>
      </trkpt>
      <trkpt lat="44.78093" lon="0.37529">
        <ele>116.8</ele>
        <time>2022-09-25T07:37:38Z</time>
      </trkpt>
      <trkpt lat="44.78087" lon="0.3752">
        <ele>117</ele>
        <time>2022-09-25T07:37:43Z</time>
      </trkpt>
      <trkpt lat="44.7808" lon="0.37511">
        <ele>117.1</ele>
        <time>2022-09-25T07:37:49Z</time>
      </trkpt>
      <trkpt lat="44.78071" lon="0.37496">
        <ele>117</ele>
        <time>2022-09-25T07:37:53Z</time>
      </trkpt>
      <trkpt lat="44.78068" lon="0.3749">
        <ele>116.8</ele>
        <time>2022-09-25T07:37:54Z</time>
      </trkpt>
      <trkpt lat="44.78063" lon="0.37479">
        <ele>116.6</ele>
        <time>2022-09-25T07:37:56Z</time>
      </trkpt>
      <trkpt lat="44.78052" lon="0.37455">
        <ele>116.3</ele>
        <time>2022-09-25T07:38:00Z</time>
      </trkpt>
      <trkpt lat="44.78034" lon="0.37415">
        <ele>116.1</ele>
        <time>2022-09-25T07:38:07Z</time>
      </trkpt>
      <trkpt lat="44.78017" lon="0.3739">
        <ele>115.4</ele>
        <time>2022-09-25T07:38:12Z</time>
      </trkpt>
      <trkpt lat="44.78013" lon="0.37388">
        <ele>115.3</ele>
        <time>2022-09-25T07:38:13Z</time>
      </trkpt>
      <trkpt lat="44.78009" lon="0.37386">
        <ele>115.1</ele>
        <time>2022-09-25T07:38:14Z</time>
      </trkpt>
      <trkpt lat="44.77985" lon="0.37379">
        <ele>114.5</ele>
        <time>2022-09-25T07:38:19Z</time>
      </trkpt>
      <trkpt lat="44.77959" lon="0.37371">
        <ele>114.5</ele>
        <time>2022-09-25T07:38:25Z</time>
      </trkpt>
      <trkpt lat="44.7793" lon="0.37357">
        <ele>115.1</ele>
        <time>2022-09-25T07:38:32Z</time>
      </trkpt>
      <trkpt lat="44.77889" lon="0.3734">
        <ele>115.4</ele>
        <time>2022-09-25T07:38:41Z</time>
      </trkpt>
      <trkpt lat="44.77848" lon="0.37321">
        <ele>115.6</ele>
        <time>2022-09-25T07:38:50Z</time>
      </trkpt>
      <trkpt lat="44.77826" lon="0.37314">
        <ele>115.8</ele>
        <time>2022-09-25T07:38:55Z</time>
      </trkpt>
      <trkpt lat="44.77821" lon="0.37314">
        <ele>115.8</ele>
        <time>2022-09-25T07:38:56Z</time>
      </trkpt>
      <trkpt lat="44.77783" lon="0.37313">
        <ele>116.2</ele>
        <time>2022-09-25T07:39:04Z</time>
      </trkpt>
      <trkpt lat="44.77753" lon="0.37318">
        <ele>116.6</ele>
        <time>2022-09-25T07:39:11Z</time>
      </trkpt>
      <trkpt lat="44.77751" lon="0.37319">
        <ele>116.5</ele>
        <time>2022-09-25T07:39:12Z</time>
      </trkpt>
      <trkpt lat="44.77748" lon="0.37309">
        <ele>116.4</ele>
        <time>2022-09-25T07:39:14Z</time>
      </trkpt>
      <trkpt lat="44.77744" lon="0.3727">
        <ele>115.7</ele>
        <time>2022-09-25T07:39:21Z</time>
      </trkpt>
      <trkpt lat="44.7774" lon="0.37218">
        <ele>114.7</ele>
        <time>2022-09-25T07:39:30Z</time>
      </trkpt>
      <trkpt lat="44.77736" lon="0.37169">
        <ele>113.7</ele>
        <time>2022-09-25T07:39:38Z</time>
      </trkpt>
      <trkpt lat="44.77733" lon="0.37131">
        <ele>113.1</ele>
        <time>2022-09-25T07:39:43Z</time>
      </trkpt>
      <trkpt lat="44.77732" lon="0.37124">
        <ele>113.1</ele>
        <time>2022-09-25T07:39:44Z</time>
      </trkpt>
      <trkpt lat="44.77724" lon="0.37071">
        <ele>112.4</ele>
        <time>2022-09-25T07:39:51Z</time>
      </trkpt>
      <trkpt lat="44.77716" lon="0.37014">
        <ele>111.7</ele>
        <time>2022-09-25T07:39:58Z</time>
      </trkpt>
      <trkpt lat="44.77708" lon="0.36962">
        <ele>111</ele>
        <time>2022-09-25T07:40:04Z</time>
      </trkpt>
      <trkpt lat="44.77695" lon="0.36913">
        <ele>110.5</ele>
        <time>2022-09-25T07:40:10Z</time>
      </trkpt>
      <trkpt lat="44.77691" lon="0.36905">
        <ele>110.4</ele>
        <time>2022-09-25T07:40:11Z</time>
      </trkpt>
      <trkpt lat="44.77688" lon="0.36897">
        <ele>110.3</ele>
        <time>2022-09-25T07:40:12Z</time>
      </trkpt>
      <trkpt lat="44.77675" lon="0.36889">
        <ele>110.1</ele>
        <time>2022-09-25T07:40:14Z</time>
      </trkpt>
      <trkpt lat="44.77634" lon="0.36873">
        <ele>109.5</ele>
        <time>2022-09-25T07:40:20Z</time>
      </trkpt>
      <trkpt lat="44.7762" lon="0.36868">
        <ele>109.6</ele>
        <time>2022-09-25T07:40:22Z</time>
      </trkpt>
      <trkpt lat="44.77605" lon="0.36864">
        <ele>109.7</ele>
        <time>2022-09-25T07:40:24Z</time>
      </trkpt>
      <trkpt lat="44.77585" lon="0.36861">
        <ele>109.6</ele>
        <time>2022-09-25T07:40:27Z</time>
      </trkpt>
      <trkpt lat="44.77579" lon="0.36858">
        <ele>109.3</ele>
        <time>2022-09-25T07:40:28Z</time>
      </trkpt>
      <trkpt lat="44.77568" lon="0.36846">
        <ele>108.5</ele>
        <time>2022-09-25T07:40:30Z</time>
      </trkpt>
      <trkpt lat="44.77558" lon="0.36831">
        <ele>107.8</ele>
        <time>2022-09-25T07:40:32Z</time>
      </trkpt>
      <trkpt lat="44.77533" lon="0.36791">
        <ele>105.9</ele>
        <time>2022-09-25T07:40:37Z</time>
      </trkpt>
      <trkpt lat="44.77515" lon="0.36765">
        <ele>104.5</ele>
        <time>2022-09-25T07:40:40Z</time>
      </trkpt>
      <trkpt lat="44.7751" lon="0.36756">
        <ele>103.8</ele>
        <time>2022-09-25T07:40:41Z</time>
      </trkpt>
      <trkpt lat="44.7748" lon="0.3671">
        <ele>100.1</ele>
        <time>2022-09-25T07:40:46Z</time>
      </trkpt>
      <trkpt lat="44.77451" lon="0.36663">
        <ele>96.4</ele>
        <time>2022-09-25T07:40:51Z</time>
      </trkpt>
      <trkpt lat="44.77425" lon="0.36632">
        <ele>93.1</ele>
        <time>2022-09-25T07:40:55Z</time>
      </trkpt>
      <trkpt lat="44.77409" lon="0.36619">
        <ele>91.5</ele>
        <time>2022-09-25T07:40:57Z</time>
      </trkpt>
      <trkpt lat="44.77402" lon="0.36613">
        <ele>90.7</ele>
        <time>2022-09-25T07:40:58Z</time>
      </trkpt>
      <trkpt lat="44.77394" lon="0.36607">
        <ele>90</ele>
        <time>2022-09-25T07:40:59Z</time>
      </trkpt>
      <trkpt lat="44.77376" lon="0.36603">
        <ele>88.5</ele>
        <time>2022-09-25T07:41:01Z</time>
      </trkpt>
      <trkpt lat="44.77359" lon="0.36599">
        <ele>87.3</ele>
        <time>2022-09-25T07:41:03Z</time>
      </trkpt>
      <trkpt lat="44.77344" lon="0.36596">
        <ele>85.9</ele>
        <time>2022-09-25T07:41:05Z</time>
      </trkpt>
      <trkpt lat="44.77318" lon="0.36591">
        <ele>82.9</ele>
        <time>2022-09-25T07:41:09Z</time>
      </trkpt>
      <trkpt lat="44.77312" lon="0.3659">
        <ele>82.3</ele>
        <time>2022-09-25T07:41:10Z</time>
      </trkpt>
      <trkpt lat="44.77298" lon="0.36587">
        <ele>80.8</ele>
        <time>2022-09-25T07:41:13Z</time>
      </trkpt>
      <trkpt lat="44.77289" lon="0.36586">
        <ele>80.4</ele>
        <time>2022-09-25T07:41:16Z</time>
      </trkpt>
      <trkpt lat="44.77276" lon="0.36588">
        <ele>80.3</ele>
        <time>2022-09-25T07:41:19Z</time>
      </trkpt>
      <trkpt lat="44.77271" lon="0.36589">
        <ele>80.2</ele>
        <time>2022-09-25T07:41:20Z</time>
      </trkpt>
      <trkpt lat="44.77253" lon="0.36592">
        <ele>79.3</ele>
        <time>2022-09-25T07:41:23Z</time>
      </trkpt>
      <trkpt lat="44.77235" lon="0.36595">
        <ele>78.3</ele>
        <time>2022-09-25T07:41:26Z</time>
      </trkpt>
      <trkpt lat="44.77225" lon="0.36597">
        <ele>77.8</ele>
        <time>2022-09-25T07:41:27Z</time>
      </trkpt>
      <trkpt lat="44.77219" lon="0.36602">
        <ele>77.6</ele>
        <time>2022-09-25T07:41:28Z</time>
      </trkpt>
      <trkpt lat="44.77201" lon="0.36615">
        <ele>77.9</ele>
        <time>2022-09-25T07:41:31Z</time>
      </trkpt>
      <trkpt lat="44.77174" lon="0.36635">
        <ele>78.6</ele>
        <time>2022-09-25T07:41:36Z</time>
      </trkpt>
      <trkpt lat="44.77169" lon="0.36638">
        <ele>78.6</ele>
        <time>2022-09-25T07:41:37Z</time>
      </trkpt>
      <trkpt lat="44.77159" lon="0.36644">
        <ele>78.6</ele>
        <time>2022-09-25T07:41:39Z</time>
      </trkpt>
      <trkpt lat="44.77149" lon="0.36649">
        <ele>78.7</ele>
        <time>2022-09-25T07:41:41Z</time>
      </trkpt>
      <trkpt lat="44.77144" lon="0.36651">
        <ele>78.9</ele>
        <time>2022-09-25T07:41:42Z</time>
      </trkpt>
      <trkpt lat="44.77124" lon="0.36661">
        <ele>79.5</ele>
        <time>2022-09-25T07:41:46Z</time>
      </trkpt>
      <trkpt lat="44.77115" lon="0.36665">
        <ele>79.7</ele>
        <time>2022-09-25T07:41:48Z</time>
      </trkpt>
      <trkpt lat="44.77106" lon="0.3667">
        <ele>79.9</ele>
        <time>2022-09-25T07:41:50Z</time>
      </trkpt>
      <trkpt lat="44.77101" lon="0.36672">
        <ele>80</ele>
        <time>2022-09-25T07:41:51Z</time>
      </trkpt>
      <trkpt lat="44.7709" lon="0.36683">
        <ele>80.5</ele>
        <time>2022-09-25T07:41:55Z</time>
      </trkpt>
      <trkpt lat="44.77086" lon="0.36687">
        <ele>80.7</ele>
        <time>2022-09-25T07:41:56Z</time>
      </trkpt>
      <trkpt lat="44.77083" lon="0.36691">
        <ele>80.8</ele>
        <time>2022-09-25T07:41:57Z</time>
      </trkpt>
      <trkpt lat="44.77077" lon="0.36697">
        <ele>81.1</ele>
        <time>2022-09-25T07:42:00Z</time>
      </trkpt>
      <trkpt lat="44.77077" lon="0.36704">
        <ele>81.4</ele>
        <time>2022-09-25T07:42:04Z</time>
      </trkpt>
      <trkpt lat="44.77077" lon="0.36712">
        <ele>81.6</ele>
        <time>2022-09-25T07:42:08Z</time>
      </trkpt>
      <trkpt lat="44.77085" lon="0.36725">
        <ele>82.2</ele>
        <time>2022-09-25T07:42:13Z</time>
      </trkpt>
      <trkpt lat="44.77088" lon="0.36731">
        <ele>82.5</ele>
        <time>2022-09-25T07:42:15Z</time>
      </trkpt>
      <trkpt lat="44.77091" lon="0.36736">
        <ele>82.7</ele>
        <time>2022-09-25T07:42:17Z</time>
      </trkpt>
      <trkpt lat="44.77095" lon="0.36743">
        <ele>83.2</ele>
        <time>2022-09-25T07:42:20Z</time>
      </trkpt>
      <trkpt lat="44.77097" lon="0.36746">
        <ele>83.4</ele>
        <time>2022-09-25T07:42:22Z</time>
      </trkpt>
      <trkpt lat="44.77098" lon="0.36748">
        <ele>83.6</ele>
        <time>2022-09-25T07:42:23Z</time>
      </trkpt>
      <trkpt lat="44.77103" lon="0.36756">
        <ele>84.3</ele>
        <time>2022-09-25T07:42:26Z</time>
      </trkpt>
      <trkpt lat="44.77108" lon="0.36765">
        <ele>85</ele>
        <time>2022-09-25T07:42:30Z</time>
      </trkpt>
      <trkpt lat="44.77114" lon="0.36776">
        <ele>85.6</ele>
        <time>2022-09-25T07:42:35Z</time>
      </trkpt>
      <trkpt lat="44.77117" lon="0.3678">
        <ele>85.8</ele>
        <time>2022-09-25T07:42:37Z</time>
      </trkpt>
      <trkpt lat="44.77123" lon="0.3679">
        <ele>86.2</ele>
        <time>2022-09-25T07:42:40Z</time>
      </trkpt>
      <trkpt lat="44.77133" lon="0.36808">
        <ele>86.5</ele>
        <time>2022-09-25T07:42:45Z</time>
      </trkpt>
      <trkpt lat="44.77144" lon="0.36826">
        <ele>86.7</ele>
        <time>2022-09-25T07:42:51Z</time>
      </trkpt>
      <trkpt lat="44.77155" lon="0.36845">
        <ele>87.4</ele>
        <time>2022-09-25T07:42:57Z</time>
      </trkpt>
      <trkpt lat="44.77155" lon="0.36861">
        <ele>87.8</ele>
        <time>2022-09-25T07:43:02Z</time>
      </trkpt>
      <trkpt lat="44.77154" lon="0.36864">
        <ele>87.9</ele>
        <time>2022-09-25T07:43:03Z</time>
      </trkpt>
      <trkpt lat="44.77153" lon="0.36875">
        <ele>88.3</ele>
        <time>2022-09-25T07:43:06Z</time>
      </trkpt>
      <trkpt lat="44.77151" lon="0.36893">
        <ele>88.8</ele>
        <time>2022-09-25T07:43:11Z</time>
      </trkpt>
      <trkpt lat="44.77152" lon="0.36909">
        <ele>89.3</ele>
        <time>2022-09-25T07:43:16Z</time>
      </trkpt>
      <trkpt lat="44.77156" lon="0.36922">
        <ele>89.7</ele>
        <time>2022-09-25T07:43:20Z</time>
      </trkpt>
      <trkpt lat="44.77163" lon="0.36941">
        <ele>90.1</ele>
        <time>2022-09-25T07:43:26Z</time>
      </trkpt>
      <trkpt lat="44.77168" lon="0.36958">
        <ele>90.3</ele>
        <time>2022-09-25T07:43:31Z</time>
      </trkpt>
      <trkpt lat="44.77175" lon="0.36976">
        <ele>90.9</ele>
        <time>2022-09-25T07:43:36Z</time>
      </trkpt>
      <trkpt lat="44.77182" lon="0.36996">
        <ele>91.8</ele>
        <time>2022-09-25T07:43:41Z</time>
      </trkpt>
      <trkpt lat="44.77183" lon="0.37">
        <ele>92</ele>
        <time>2022-09-25T07:43:42Z</time>
      </trkpt>
      <trkpt lat="44.77185" lon="0.37007">
        <ele>92.2</ele>
        <time>2022-09-25T07:43:44Z</time>
      </trkpt>
      <trkpt lat="44.77186" lon="0.3701">
        <ele>92.3</ele>
        <time>2022-09-25T07:43:45Z</time>
      </trkpt>
      <trkpt lat="44.77188" lon="0.3702">
        <ele>92.5</ele>
        <time>2022-09-25T07:43:48Z</time>
      </trkpt>
      <trkpt lat="44.77192" lon="0.37039">
        <ele>92.9</ele>
        <time>2022-09-25T07:43:53Z</time>
      </trkpt>
      <trkpt lat="44.77195" lon="0.37055">
        <ele>93.2</ele>
        <time>2022-09-25T07:43:57Z</time>
      </trkpt>
      <trkpt lat="44.77193" lon="0.37064">
        <ele>93.5</ele>
        <time>2022-09-25T07:44:00Z</time>
      </trkpt>
      <trkpt lat="44.77192" lon="0.37068">
        <ele>93.6</ele>
        <time>2022-09-25T07:44:01Z</time>
      </trkpt>
      <trkpt lat="44.7719" lon="0.37082">
        <ele>94</ele>
        <time>2022-09-25T07:44:05Z</time>
      </trkpt>
      <trkpt lat="44.77189" lon="0.37085">
        <ele>94.1</ele>
        <time>2022-09-25T07:44:06Z</time>
      </trkpt>
      <trkpt lat="44.77187" lon="0.371">
        <ele>94.6</ele>
        <time>2022-09-25T07:44:10Z</time>
      </trkpt>
      <trkpt lat="44.77182" lon="0.37122">
        <ele>95.3</ele>
        <time>2022-09-25T07:44:16Z</time>
      </trkpt>
      <trkpt lat="44.77181" lon="0.37125">
        <ele>95.4</ele>
        <time>2022-09-25T07:44:17Z</time>
      </trkpt>
      <trkpt lat="44.77178" lon="0.37136">
        <ele>95.8</ele>
        <time>2022-09-25T07:44:20Z</time>
      </trkpt>
      <trkpt lat="44.77172" lon="0.37155">
        <ele>96.9</ele>
        <time>2022-09-25T07:44:26Z</time>
      </trkpt>
      <trkpt lat="44.77165" lon="0.3718">
        <ele>98.4</ele>
        <time>2022-09-25T07:44:34Z</time>
      </trkpt>
      <trkpt lat="44.77163" lon="0.37189">
        <ele>99.1</ele>
        <time>2022-09-25T07:44:37Z</time>
      </trkpt>
      <trkpt lat="44.77161" lon="0.37195">
        <ele>99.5</ele>
        <time>2022-09-25T07:44:39Z</time>
      </trkpt>
      <trkpt lat="44.77156" lon="0.37218">
        <ele>100.9</ele>
        <time>2022-09-25T07:44:46Z</time>
      </trkpt>
      <trkpt lat="44.77153" lon="0.37231">
        <ele>101.3</ele>
        <time>2022-09-25T07:44:50Z</time>
      </trkpt>
      <trkpt lat="44.77149" lon="0.37248">
        <ele>101.6</ele>
        <time>2022-09-25T07:44:55Z</time>
      </trkpt>
      <trkpt lat="44.77144" lon="0.37272">
        <ele>102.1</ele>
        <time>2022-09-25T07:45:01Z</time>
      </trkpt>
      <trkpt lat="44.77141" lon="0.37289">
        <ele>102.5</ele>
        <time>2022-09-25T07:45:06Z</time>
      </trkpt>
      <trkpt lat="44.77136" lon="0.3731">
        <ele>103</ele>
        <time>2022-09-25T07:45:12Z</time>
      </trkpt>
      <trkpt lat="44.7713" lon="0.37339">
        <ele>104</ele>
        <time>2022-09-25T07:45:20Z</time>
      </trkpt>
      <trkpt lat="44.77127" lon="0.37358">
        <ele>104.5</ele>
        <time>2022-09-25T07:45:25Z</time>
      </trkpt>
      <trkpt lat="44.77125" lon="0.37387">
        <ele>104.9</ele>
        <time>2022-09-25T07:45:32Z</time>
      </trkpt>
      <trkpt lat="44.7713" lon="0.37407">
        <ele>105</ele>
        <time>2022-09-25T07:45:37Z</time>
      </trkpt>
      <trkpt lat="44.77143" lon="0.37434">
        <ele>105.2</ele>
        <time>2022-09-25T07:45:45Z</time>
      </trkpt>
      <trkpt lat="44.77152" lon="0.37461">
        <ele>105.8</ele>
        <time>2022-09-25T07:45:52Z</time>
      </trkpt>
      <trkpt lat="44.77155" lon="0.37489">
        <ele>106.4</ele>
        <time>2022-09-25T07:45:59Z</time>
      </trkpt>
      <trkpt lat="44.77155" lon="0.37527">
        <ele>107.1</ele>
        <time>2022-09-25T07:46:08Z</time>
      </trkpt>
      <trkpt lat="44.77156" lon="0.37557">
        <ele>108.2</ele>
        <time>2022-09-25T07:46:15Z</time>
      </trkpt>
      <trkpt lat="44.77155" lon="0.37575">
        <ele>108.6</ele>
        <time>2022-09-25T07:46:20Z</time>
      </trkpt>
      <trkpt lat="44.77153" lon="0.37602">
        <ele>108.8</ele>
        <time>2022-09-25T07:46:27Z</time>
      </trkpt>
      <trkpt lat="44.77149" lon="0.37644">
        <ele>109.3</ele>
        <time>2022-09-25T07:46:37Z</time>
      </trkpt>
      <trkpt lat="44.77145" lon="0.37691">
        <ele>109.9</ele>
        <time>2022-09-25T07:46:48Z</time>
      </trkpt>
      <trkpt lat="44.77143" lon="0.37716">
        <ele>110.2</ele>
        <time>2022-09-25T07:46:54Z</time>
      </trkpt>
      <trkpt lat="44.77139" lon="0.37751">
        <ele>110.6</ele>
        <time>2022-09-25T07:47:02Z</time>
      </trkpt>
      <trkpt lat="44.77135" lon="0.37786">
        <ele>110.9</ele>
        <time>2022-09-25T07:47:10Z</time>
      </trkpt>
      <trkpt lat="44.77132" lon="0.37828">
        <ele>111.4</ele>
        <time>2022-09-25T07:47:19Z</time>
      </trkpt>
      <trkpt lat="44.7713" lon="0.37876">
        <ele>112.2</ele>
        <time>2022-09-25T07:47:29Z</time>
      </trkpt>
      <trkpt lat="44.77129" lon="0.37935">
        <ele>113.1</ele>
        <time>2022-09-25T07:47:41Z</time>
      </trkpt>
      <trkpt lat="44.77123" lon="0.37974">
        <ele>113.7</ele>
        <time>2022-09-25T07:47:49Z</time>
      </trkpt>
      <trkpt lat="44.77116" lon="0.3801">
        <ele>114.2</ele>
        <time>2022-09-25T07:47:56Z</time>
      </trkpt>
      <trkpt lat="44.77109" lon="0.38065">
        <ele>114.8</ele>
        <time>2022-09-25T07:48:06Z</time>
      </trkpt>
      <trkpt lat="44.77104" lon="0.38112">
        <ele>116.5</ele>
        <time>2022-09-25T07:48:15Z</time>
      </trkpt>
      <trkpt lat="44.77103" lon="0.38138">
        <ele>117.2</ele>
        <time>2022-09-25T07:48:20Z</time>
      </trkpt>
      <trkpt lat="44.77098" lon="0.38144">
        <ele>117.4</ele>
        <time>2022-09-25T07:48:21Z</time>
      </trkpt>
      <trkpt lat="44.77094" lon="0.38145">
        <ele>117.5</ele>
        <time>2022-09-25T07:48:22Z</time>
      </trkpt>
      <trkpt lat="44.77087" lon="0.38146">
        <ele>117.7</ele>
        <time>2022-09-25T07:48:24Z</time>
      </trkpt>
      <trkpt lat="44.7707" lon="0.38152">
        <ele>118.1</ele>
        <time>2022-09-25T07:48:29Z</time>
      </trkpt>
      <trkpt lat="44.77052" lon="0.38164">
        <ele>118.7</ele>
        <time>2022-09-25T07:48:35Z</time>
      </trkpt>
      <trkpt lat="44.7703" lon="0.38171">
        <ele>119.3</ele>
        <time>2022-09-25T07:48:42Z</time>
      </trkpt>
      <trkpt lat="44.77013" lon="0.38169">
        <ele>119.6</ele>
        <time>2022-09-25T07:48:47Z</time>
      </trkpt>
      <trkpt lat="44.76993" lon="0.38166">
        <ele>119.6</ele>
        <time>2022-09-25T07:48:52Z</time>
      </trkpt>
      <trkpt lat="44.76985" lon="0.38165">
        <ele>119.6</ele>
        <time>2022-09-25T07:48:54Z</time>
      </trkpt>
      <trkpt lat="44.76972" lon="0.38163">
        <ele>119.3</ele>
        <time>2022-09-25T07:48:57Z</time>
      </trkpt>
      <trkpt lat="44.76947" lon="0.38164">
        <ele>118.7</ele>
        <time>2022-09-25T07:49:02Z</time>
      </trkpt>
      <trkpt lat="44.76917" lon="0.38169">
        <ele>117.6</ele>
        <time>2022-09-25T07:49:08Z</time>
      </trkpt>
      <trkpt lat="44.76885" lon="0.38176">
        <ele>116.8</ele>
        <time>2022-09-25T07:49:14Z</time>
      </trkpt>
      <trkpt lat="44.76842" lon="0.38177">
        <ele>117.5</ele>
        <time>2022-09-25T07:49:22Z</time>
      </trkpt>
      <trkpt lat="44.76838" lon="0.38175">
        <ele>117.7</ele>
        <time>2022-09-25T07:49:23Z</time>
      </trkpt>
      <trkpt lat="44.76825" lon="0.38169">
        <ele>117.9</ele>
        <time>2022-09-25T07:49:26Z</time>
      </trkpt>
      <trkpt lat="44.76821" lon="0.38168">
        <ele>118</ele>
        <time>2022-09-25T07:49:27Z</time>
      </trkpt>
      <trkpt lat="44.76803" lon="0.38163">
        <ele>118.4</ele>
        <time>2022-09-25T07:49:31Z</time>
      </trkpt>
      <trkpt lat="44.76794" lon="0.38163">
        <ele>118.5</ele>
        <time>2022-09-25T07:49:33Z</time>
      </trkpt>
      <trkpt lat="44.7679" lon="0.38163">
        <ele>118.6</ele>
        <time>2022-09-25T07:49:34Z</time>
      </trkpt>
      <trkpt lat="44.76772" lon="0.38167">
        <ele>118.7</ele>
        <time>2022-09-25T07:49:38Z</time>
      </trkpt>
      <trkpt lat="44.76765" lon="0.38173">
        <ele>118.8</ele>
        <time>2022-09-25T07:49:40Z</time>
      </trkpt>
      <trkpt lat="44.76748" lon="0.38192">
        <ele>119.1</ele>
        <time>2022-09-25T07:49:45Z</time>
      </trkpt>
      <trkpt lat="44.76745" lon="0.38196">
        <ele>119.2</ele>
        <time>2022-09-25T07:49:46Z</time>
      </trkpt>
      <trkpt lat="44.76723" lon="0.38222">
        <ele>120.1</ele>
        <time>2022-09-25T07:49:53Z</time>
      </trkpt>
      <trkpt lat="44.76701" lon="0.3825">
        <ele>120.6</ele>
        <time>2022-09-25T07:50:01Z</time>
      </trkpt>
      <trkpt lat="44.76674" lon="0.38286">
        <ele>121.1</ele>
        <time>2022-09-25T07:50:10Z</time>
      </trkpt>
      <trkpt lat="44.76644" lon="0.38325">
        <ele>121.8</ele>
        <time>2022-09-25T07:50:20Z</time>
      </trkpt>
      <trkpt lat="44.76632" lon="0.38345">
        <ele>121.3</ele>
        <time>2022-09-25T07:50:25Z</time>
      </trkpt>
      <trkpt lat="44.76624" lon="0.38369">
        <ele>120.5</ele>
        <time>2022-09-25T07:50:29Z</time>
      </trkpt>
      <trkpt lat="44.76621" lon="0.38376">
        <ele>120.3</ele>
        <time>2022-09-25T07:50:30Z</time>
      </trkpt>
      <trkpt lat="44.76607" lon="0.38421">
        <ele>118.6</ele>
        <time>2022-09-25T07:50:36Z</time>
      </trkpt>
      <trkpt lat="44.76592" lon="0.38475">
        <ele>116.8</ele>
        <time>2022-09-25T07:50:42Z</time>
      </trkpt>
      <trkpt lat="44.76569" lon="0.38548">
        <ele>116.1</ele>
        <time>2022-09-25T07:50:51Z</time>
      </trkpt>
      <trkpt lat="44.7655" lon="0.38605">
        <ele>115.8</ele>
        <time>2022-09-25T07:50:59Z</time>
      </trkpt>
      <trkpt lat="44.76548" lon="0.38614">
        <ele>115.8</ele>
        <time>2022-09-25T07:51:00Z</time>
      </trkpt>
      <trkpt lat="44.76543" lon="0.38635">
        <ele>115.9</ele>
        <time>2022-09-25T07:51:03Z</time>
      </trkpt>
      <trkpt lat="44.7654" lon="0.38654">
        <ele>115.9</ele>
        <time>2022-09-25T07:51:06Z</time>
      </trkpt>
      <trkpt lat="44.76536" lon="0.38673">
        <ele>115.8</ele>
        <time>2022-09-25T07:51:09Z</time>
      </trkpt>
      <trkpt lat="44.76527" lon="0.38717">
        <ele>116</ele>
        <time>2022-09-25T07:51:16Z</time>
      </trkpt>
      <trkpt lat="44.76515" lon="0.38765">
        <ele>116</ele>
        <time>2022-09-25T07:51:24Z</time>
      </trkpt>
      <trkpt lat="44.76509" lon="0.38789">
        <ele>115.8</ele>
        <time>2022-09-25T07:51:28Z</time>
      </trkpt>
      <trkpt lat="44.76506" lon="0.38802">
        <ele>115.8</ele>
        <time>2022-09-25T07:51:30Z</time>
      </trkpt>
      <trkpt lat="44.76497" lon="0.38839">
        <ele>115.7</ele>
        <time>2022-09-25T07:51:36Z</time>
      </trkpt>
      <trkpt lat="44.76492" lon="0.38857">
        <ele>115.8</ele>
        <time>2022-09-25T07:51:39Z</time>
      </trkpt>
      <trkpt lat="44.7648" lon="0.38905">
        <ele>116</ele>
        <time>2022-09-25T07:51:47Z</time>
      </trkpt>
      <trkpt lat="44.76467" lon="0.38953">
        <ele>116.3</ele>
        <time>2022-09-25T07:51:55Z</time>
      </trkpt>
      <trkpt lat="44.76463" lon="0.3897">
        <ele>116.4</ele>
        <time>2022-09-25T07:51:58Z</time>
      </trkpt>
      <trkpt lat="44.7646" lon="0.38981">
        <ele>116.5</ele>
        <time>2022-09-25T07:52:00Z</time>
      </trkpt>
      <trkpt lat="44.76458" lon="0.38987">
        <ele>116.6</ele>
        <time>2022-09-25T07:52:01Z</time>
      </trkpt>
      <trkpt lat="44.76444" lon="0.39039">
        <ele>117.2</ele>
        <time>2022-09-25T07:52:10Z</time>
      </trkpt>
      <trkpt lat="44.76432" lon="0.39081">
        <ele>118.3</ele>
        <time>2022-09-25T07:52:18Z</time>
      </trkpt>
      <trkpt lat="44.76421" lon="0.39123">
        <ele>119.3</ele>
        <time>2022-09-25T07:52:26Z</time>
      </trkpt>
      <trkpt lat="44.76408" lon="0.39171">
        <ele>119.7</ele>
        <time>2022-09-25T07:52:35Z</time>
      </trkpt>
      <trkpt lat="44.76393" lon="0.39226">
        <ele>118.7</ele>
        <time>2022-09-25T07:52:44Z</time>
      </trkpt>
      <trkpt lat="44.76382" lon="0.39272">
        <ele>117.5</ele>
        <time>2022-09-25T07:52:51Z</time>
      </trkpt>
      <trkpt lat="44.76371" lon="0.39316">
        <ele>116.4</ele>
        <time>2022-09-25T07:52:57Z</time>
      </trkpt>
      <trkpt lat="44.76358" lon="0.39374">
        <ele>115.8</ele>
        <time>2022-09-25T07:53:05Z</time>
      </trkpt>
      <trkpt lat="44.76348" lon="0.39422">
        <ele>115.2</ele>
        <time>2022-09-25T07:53:12Z</time>
      </trkpt>
      <trkpt lat="44.76334" lon="0.39485">
        <ele>114.8</ele>
        <time>2022-09-25T07:53:21Z</time>
      </trkpt>
      <trkpt lat="44.76323" lon="0.39534">
        <ele>114.2</ele>
        <time>2022-09-25T07:53:28Z</time>
      </trkpt>
      <trkpt lat="44.76312" lon="0.39592">
        <ele>113.7</ele>
        <time>2022-09-25T07:53:36Z</time>
      </trkpt>
      <trkpt lat="44.76302" lon="0.3964">
        <ele>113.4</ele>
        <time>2022-09-25T07:53:43Z</time>
      </trkpt>
      <trkpt lat="44.76292" lon="0.39688">
        <ele>113.2</ele>
        <time>2022-09-25T07:53:50Z</time>
      </trkpt>
      <trkpt lat="44.76288" lon="0.3971">
        <ele>113.2</ele>
        <time>2022-09-25T07:53:53Z</time>
      </trkpt>
      <trkpt lat="44.76282" lon="0.39723">
        <ele>113.2</ele>
        <time>2022-09-25T07:53:55Z</time>
      </trkpt>
      <trkpt lat="44.76256" lon="0.39767">
        <ele>113.2</ele>
        <time>2022-09-25T07:54:03Z</time>
      </trkpt>
      <trkpt lat="44.76226" lon="0.39817">
        <ele>113.1</ele>
        <time>2022-09-25T07:54:12Z</time>
      </trkpt>
      <trkpt lat="44.76211" lon="0.39872">
        <ele>113.2</ele>
        <time>2022-09-25T07:54:20Z</time>
      </trkpt>
      <trkpt lat="44.76198" lon="0.39925">
        <ele>113.3</ele>
        <time>2022-09-25T07:54:28Z</time>
      </trkpt>
      <trkpt lat="44.7619" lon="0.39972">
        <ele>113.4</ele>
        <time>2022-09-25T07:54:35Z</time>
      </trkpt>
      <trkpt lat="44.76183" lon="0.40016">
        <ele>113.4</ele>
        <time>2022-09-25T07:54:42Z</time>
      </trkpt>
      <trkpt lat="44.76171" lon="0.40064">
        <ele>113.7</ele>
        <time>2022-09-25T07:54:50Z</time>
      </trkpt>
      <trkpt lat="44.76165" lon="0.40094">
        <ele>113.7</ele>
        <time>2022-09-25T07:54:56Z</time>
      </trkpt>
      <trkpt lat="44.76159" lon="0.40131">
        <ele>113.6</ele>
        <time>2022-09-25T07:55:03Z</time>
      </trkpt>
      <trkpt lat="44.76157" lon="0.40178">
        <ele>113.7</ele>
        <time>2022-09-25T07:55:11Z</time>
      </trkpt>
      <trkpt lat="44.76157" lon="0.40202">
        <ele>113.6</ele>
        <time>2022-09-25T07:55:15Z</time>
      </trkpt>
      <trkpt lat="44.76158" lon="0.40215">
        <ele>113.5</ele>
        <time>2022-09-25T07:55:17Z</time>
      </trkpt>
      <trkpt lat="44.76162" lon="0.40277">
        <ele>113.4</ele>
        <time>2022-09-25T07:55:27Z</time>
      </trkpt>
      <trkpt lat="44.76158" lon="0.40329">
        <ele>113.2</ele>
        <time>2022-09-25T07:55:35Z</time>
      </trkpt>
      <trkpt lat="44.76167" lon="0.40376">
        <ele>112.9</ele>
        <time>2022-09-25T07:55:42Z</time>
      </trkpt>
      <trkpt lat="44.76174" lon="0.40404">
        <ele>112.7</ele>
        <time>2022-09-25T07:55:46Z</time>
      </trkpt>
      <trkpt lat="44.76187" lon="0.40457">
        <ele>112.6</ele>
        <time>2022-09-25T07:55:54Z</time>
      </trkpt>
      <trkpt lat="44.76202" lon="0.40504">
        <ele>112.6</ele>
        <time>2022-09-25T07:56:02Z</time>
      </trkpt>
      <trkpt lat="44.76222" lon="0.40552">
        <ele>113</ele>
        <time>2022-09-25T07:56:11Z</time>
      </trkpt>
      <trkpt lat="44.76229" lon="0.4057">
        <ele>113</ele>
        <time>2022-09-25T07:56:16Z</time>
      </trkpt>
      <trkpt lat="44.76241" lon="0.40584">
        <ele>112.6</ele>
        <time>2022-09-25T07:56:19Z</time>
      </trkpt>
      <trkpt lat="44.76247" lon="0.40592">
        <ele>112.5</ele>
        <time>2022-09-25T07:56:21Z</time>
      </trkpt>
      <trkpt lat="44.76274" lon="0.40615">
        <ele>111.6</ele>
        <time>2022-09-25T07:56:27Z</time>
      </trkpt>
      <trkpt lat="44.76317" lon="0.40652">
        <ele>109.9</ele>
        <time>2022-09-25T07:56:35Z</time>
      </trkpt>
      <trkpt lat="44.76367" lon="0.40693">
        <ele>108</ele>
        <time>2022-09-25T07:56:44Z</time>
      </trkpt>
      <trkpt lat="44.76372" lon="0.40698">
        <ele>107.7</ele>
        <time>2022-09-25T07:56:45Z</time>
      </trkpt>
      <trkpt lat="44.76405" lon="0.4073">
        <ele>105.8</ele>
        <time>2022-09-25T07:56:51Z</time>
      </trkpt>
      <trkpt lat="44.76411" lon="0.40736">
        <ele>105.4</ele>
        <time>2022-09-25T07:56:52Z</time>
      </trkpt>
      <trkpt lat="44.7644" lon="0.40786">
        <ele>102.9</ele>
        <time>2022-09-25T07:56:58Z</time>
      </trkpt>
      <trkpt lat="44.7646" lon="0.40807">
        <ele>101.3</ele>
        <time>2022-09-25T07:57:01Z</time>
      </trkpt>
      <trkpt lat="44.76469" lon="0.40812">
        <ele>100.7</ele>
        <time>2022-09-25T07:57:02Z</time>
      </trkpt>
      <trkpt lat="44.76508" lon="0.40835">
        <ele>97.3</ele>
        <time>2022-09-25T07:57:07Z</time>
      </trkpt>
      <trkpt lat="44.76551" lon="0.40861">
        <ele>95.2</ele>
        <time>2022-09-25T07:57:12Z</time>
      </trkpt>
      <trkpt lat="44.76593" lon="0.40881">
        <ele>93.8</ele>
        <time>2022-09-25T07:57:17Z</time>
      </trkpt>
      <trkpt lat="44.76652" lon="0.40893">
        <ele>91.7</ele>
        <time>2022-09-25T07:57:24Z</time>
      </trkpt>
      <trkpt lat="44.7666" lon="0.40894">
        <ele>91.4</ele>
        <time>2022-09-25T07:57:25Z</time>
      </trkpt>
      <trkpt lat="44.76699" lon="0.40899">
        <ele>89.9</ele>
        <time>2022-09-25T07:57:30Z</time>
      </trkpt>
      <trkpt lat="44.76722" lon="0.40909">
        <ele>89</ele>
        <time>2022-09-25T07:57:33Z</time>
      </trkpt>
      <trkpt lat="44.76729" lon="0.40914">
        <ele>88.7</ele>
        <time>2022-09-25T07:57:34Z</time>
      </trkpt>
      <trkpt lat="44.7676" lon="0.40949">
        <ele>87</ele>
        <time>2022-09-25T07:57:39Z</time>
      </trkpt>
      <trkpt lat="44.76802" lon="0.41004">
        <ele>84.3</ele>
        <time>2022-09-25T07:57:46Z</time>
      </trkpt>
      <trkpt lat="44.7682" lon="0.41028">
        <ele>82.7</ele>
        <time>2022-09-25T07:57:49Z</time>
      </trkpt>
      <trkpt lat="44.76833" lon="0.41047">
        <ele>81.3</ele>
        <time>2022-09-25T07:57:51Z</time>
      </trkpt>
      <trkpt lat="44.76841" lon="0.41053">
        <ele>80.6</ele>
        <time>2022-09-25T07:57:52Z</time>
      </trkpt>
      <trkpt lat="44.76868" lon="0.41071">
        <ele>77.9</ele>
        <time>2022-09-25T07:57:55Z</time>
      </trkpt>
      <trkpt lat="44.76898" lon="0.41087">
        <ele>75.2</ele>
        <time>2022-09-25T07:57:58Z</time>
      </trkpt>
      <trkpt lat="44.76908" lon="0.41088">
        <ele>74.3</ele>
        <time>2022-09-25T07:57:59Z</time>
      </trkpt>
      <trkpt lat="44.76928" lon="0.41088">
        <ele>72.6</ele>
        <time>2022-09-25T07:58:01Z</time>
      </trkpt>
      <trkpt lat="44.76937" lon="0.41084">
        <ele>71.9</ele>
        <time>2022-09-25T07:58:02Z</time>
      </trkpt>
      <trkpt lat="44.76969" lon="0.41066">
        <ele>68.6</ele>
        <time>2022-09-25T07:58:06Z</time>
      </trkpt>
      <trkpt lat="44.76987" lon="0.41071">
        <ele>66.5</ele>
        <time>2022-09-25T07:58:08Z</time>
      </trkpt>
      <trkpt lat="44.77" lon="0.41087">
        <ele>64.3</ele>
        <time>2022-09-25T07:58:10Z</time>
      </trkpt>
      <trkpt lat="44.77007" lon="0.41096">
        <ele>63.2</ele>
        <time>2022-09-25T07:58:11Z</time>
      </trkpt>
      <trkpt lat="44.77038" lon="0.41141">
        <ele>59.8</ele>
        <time>2022-09-25T07:58:17Z</time>
      </trkpt>
      <trkpt lat="44.77053" lon="0.41157">
        <ele>59.6</ele>
        <time>2022-09-25T07:58:19Z</time>
      </trkpt>
      <trkpt lat="44.77067" lon="0.41163">
        <ele>59.6</ele>
        <time>2022-09-25T07:58:21Z</time>
      </trkpt>
      <trkpt lat="44.77104" lon="0.4118">
        <ele>59.6</ele>
        <time>2022-09-25T07:58:27Z</time>
      </trkpt>
      <trkpt lat="44.77144" lon="0.41198">
        <ele>59.7</ele>
        <time>2022-09-25T07:58:34Z</time>
      </trkpt>
      <trkpt lat="44.77184" lon="0.41217">
        <ele>60.2</ele>
        <time>2022-09-25T07:58:42Z</time>
      </trkpt>
      <trkpt lat="44.77193" lon="0.41218">
        <ele>60.4</ele>
        <time>2022-09-25T07:58:44Z</time>
      </trkpt>
      <trkpt lat="44.77199" lon="0.41218">
        <ele>60.4</ele>
        <time>2022-09-25T07:58:46Z</time>
      </trkpt>
      <trkpt lat="44.77208" lon="0.41217">
        <ele>61.1</ele>
        <time>2022-09-25T07:58:50Z</time>
      </trkpt>
      <trkpt lat="44.77208" lon="0.41217">
        <ele>61.1</ele>
        <time>2022-09-25T07:58:52Z</time>
      </trkpt>
      <trkpt lat="44.77328" lon="0.4122">
        <ele>89.1</ele>
        <time>2022-09-25T08:01:46Z</time>
      </trkpt>
      <trkpt lat="44.77328" lon="0.4122">
        <ele>89.1</ele>
        <time>2022-09-25T08:01:47Z</time>
      </trkpt>
      <trkpt lat="44.77345" lon="0.41183">
        <ele>89.2</ele>
        <time>2022-09-25T08:01:54Z</time>
      </trkpt>
      <trkpt lat="44.77351" lon="0.4117">
        <ele>87</ele>
        <time>2022-09-25T08:01:59Z</time>
      </trkpt>
      <trkpt lat="44.77361" lon="0.41153">
        <ele>87</ele>
        <time>2022-09-25T08:02:05Z</time>
      </trkpt>
      <trkpt lat="44.77369" lon="0.41134">
        <ele>87.6</ele>
        <time>2022-09-25T08:02:11Z</time>
      </trkpt>
      <trkpt lat="44.77378" lon="0.41115">
        <ele>86</ele>
        <time>2022-09-25T08:02:16Z</time>
      </trkpt>
      <trkpt lat="44.7739" lon="0.41096">
        <ele>84.8</ele>
        <time>2022-09-25T08:02:21Z</time>
      </trkpt>
      <trkpt lat="44.77392" lon="0.41091">
        <ele>87.8</ele>
        <time>2022-09-25T08:02:22Z</time>
      </trkpt>
      <trkpt lat="44.77395" lon="0.41083">
        <ele>87.8</ele>
        <time>2022-09-25T08:02:24Z</time>
      </trkpt>
      <trkpt lat="44.77406" lon="0.41062">
        <ele>87.7</ele>
        <time>2022-09-25T08:02:29Z</time>
      </trkpt>
      <trkpt lat="44.77422" lon="0.41036">
        <ele>86.4</ele>
        <time>2022-09-25T08:02:35Z</time>
      </trkpt>
      <trkpt lat="44.77426" lon="0.41031">
        <ele>86.4</ele>
        <time>2022-09-25T08:02:37Z</time>
      </trkpt>
      <trkpt lat="44.77428" lon="0.41032">
        <ele>86.5</ele>
        <time>2022-09-25T08:02:38Z</time>
      </trkpt>
      <trkpt lat="44.7743" lon="0.41035">
        <ele>88.3</ele>
        <time>2022-09-25T08:02:39Z</time>
      </trkpt>
      <trkpt lat="44.77436" lon="0.4104">
        <ele>88.4</ele>
        <time>2022-09-25T08:02:42Z</time>
      </trkpt>
      <trkpt lat="44.77449" lon="0.41051">
        <ele>91.5</ele>
        <time>2022-09-25T08:02:49Z</time>
      </trkpt>
      <trkpt lat="44.77462" lon="0.41064">
        <ele>94.8</ele>
        <time>2022-09-25T08:02:58Z</time>
      </trkpt>
      <trkpt lat="44.77471" lon="0.41075">
        <ele>96.5</ele>
        <time>2022-09-25T08:03:05Z</time>
      </trkpt>
      <trkpt lat="44.77476" lon="0.41076">
        <ele>96.6</ele>
        <time>2022-09-25T08:03:08Z</time>
      </trkpt>
      <trkpt lat="44.77485" lon="0.41077">
        <ele>97.9</ele>
        <time>2022-09-25T08:03:11Z</time>
      </trkpt>
      <trkpt lat="44.77487" lon="0.41072">
        <ele>98</ele>
        <time>2022-09-25T08:03:16Z</time>
      </trkpt>
      <trkpt lat="44.77487" lon="0.41072">
        <ele>98</ele>
        <time>2022-09-25T08:03:17Z</time>
      </trkpt>
      <trkpt lat="44.77488" lon="0.41074">
        <ele>98.1</ele>
        <time>2022-09-25T08:03:20Z</time>
      </trkpt>
      <trkpt lat="44.77489" lon="0.41075">
        <ele>98.7</ele>
        <time>2022-09-25T08:03:21Z</time>
      </trkpt>
      <trkpt lat="44.77497" lon="0.41083">
        <ele>99.9</ele>
        <time>2022-09-25T08:03:27Z</time>
      </trkpt>
      <trkpt lat="44.77505" lon="0.41089">
        <ele>100.3</ele>
        <time>2022-09-25T08:03:34Z</time>
      </trkpt>
      <trkpt lat="44.77513" lon="0.41096">
        <ele>100.3</ele>
        <time>2022-09-25T08:03:42Z</time>
      </trkpt>
      <trkpt lat="44.77518" lon="0.411">
        <ele>102</ele>
        <time>2022-09-25T08:03:49Z</time>
      </trkpt>
      <trkpt lat="44.77517" lon="0.41118">
        <ele>103.7</ele>
        <time>2022-09-25T08:03:56Z</time>
      </trkpt>
      <trkpt lat="44.77516" lon="0.4113">
        <ele>103.8</ele>
        <time>2022-09-25T08:04:04Z</time>
      </trkpt>
      <trkpt lat="44.77516" lon="0.41137">
        <ele>105.3</ele>
        <time>2022-09-25T08:04:09Z</time>
      </trkpt>
      <trkpt lat="44.77516" lon="0.4114">
        <ele>105.3</ele>
        <time>2022-09-25T08:04:11Z</time>
      </trkpt>
      <trkpt lat="44.77514" lon="0.41148">
        <ele>106.9</ele>
        <time>2022-09-25T08:04:17Z</time>
      </trkpt>
      <trkpt lat="44.77514" lon="0.41162">
        <ele>106.9</ele>
        <time>2022-09-25T08:04:25Z</time>
      </trkpt>
      <trkpt lat="44.77512" lon="0.41172">
        <ele>108.3</ele>
        <time>2022-09-25T08:04:32Z</time>
      </trkpt>
      <trkpt lat="44.77512" lon="0.4118">
        <ele>108.3</ele>
        <time>2022-09-25T08:04:37Z</time>
      </trkpt>
      <trkpt lat="44.77515" lon="0.41182">
        <ele>110.3</ele>
        <time>2022-09-25T08:04:39Z</time>
      </trkpt>
      <trkpt lat="44.77516" lon="0.41181">
        <ele>108.8</ele>
        <time>2022-09-25T08:04:40Z</time>
      </trkpt>
      <trkpt lat="44.77517" lon="0.41177">
        <ele>108.9</ele>
        <time>2022-09-25T08:04:42Z</time>
      </trkpt>
      <trkpt lat="44.77518" lon="0.41174">
        <ele>108.9</ele>
        <time>2022-09-25T08:04:43Z</time>
      </trkpt>
      <trkpt lat="44.77527" lon="0.41171">
        <ele>109.4</ele>
        <time>2022-09-25T08:04:47Z</time>
      </trkpt>
      <trkpt lat="44.77529" lon="0.41172">
        <ele>109.4</ele>
        <time>2022-09-25T08:04:48Z</time>
      </trkpt>
      <trkpt lat="44.77545" lon="0.41186">
        <ele>111.3</ele>
        <time>2022-09-25T08:04:56Z</time>
      </trkpt>
      <trkpt lat="44.77563" lon="0.41202">
        <ele>113.2</ele>
        <time>2022-09-25T08:05:05Z</time>
      </trkpt>
      <trkpt lat="44.77582" lon="0.41221">
        <ele>114.5</ele>
        <time>2022-09-25T08:05:14Z</time>
      </trkpt>
      <trkpt lat="44.776" lon="0.41237">
        <ele>115.3</ele>
        <time>2022-09-25T08:05:22Z</time>
      </trkpt>
      <trkpt lat="44.77615" lon="0.4125">
        <ele>115.4</ele>
        <time>2022-09-25T08:05:28Z</time>
      </trkpt>
      <trkpt lat="44.77636" lon="0.41268">
        <ele>116.9</ele>
        <time>2022-09-25T08:05:37Z</time>
      </trkpt>
      <trkpt lat="44.77656" lon="0.41287">
        <ele>117.5</ele>
        <time>2022-09-25T08:05:46Z</time>
      </trkpt>
      <trkpt lat="44.77679" lon="0.41309">
        <ele>118.2</ele>
        <time>2022-09-25T08:05:56Z</time>
      </trkpt>
      <trkpt lat="44.77697" lon="0.41328">
        <ele>119</ele>
        <time>2022-09-25T08:06:04Z</time>
      </trkpt>
      <trkpt lat="44.77703" lon="0.41346">
        <ele>119.4</ele>
        <time>2022-09-25T08:06:09Z</time>
      </trkpt>
      <trkpt lat="44.7772" lon="0.41362">
        <ele>119.8</ele>
        <time>2022-09-25T08:06:16Z</time>
      </trkpt>
      <trkpt lat="44.7774" lon="0.41382">
        <ele>120.2</ele>
        <time>2022-09-25T08:06:24Z</time>
      </trkpt>
      <trkpt lat="44.77763" lon="0.41404">
        <ele>120.2</ele>
        <time>2022-09-25T08:06:33Z</time>
      </trkpt>
      <trkpt lat="44.77793" lon="0.41432">
        <ele>120.2</ele>
        <time>2022-09-25T08:06:44Z</time>
      </trkpt>
      <trkpt lat="44.77819" lon="0.41454">
        <ele>119.8</ele>
        <time>2022-09-25T08:06:53Z</time>
      </trkpt>
      <trkpt lat="44.77842" lon="0.41476">
        <ele>120.3</ele>
        <time>2022-09-25T08:07:01Z</time>
      </trkpt>
      <trkpt lat="44.77862" lon="0.41498">
        <ele>120</ele>
        <time>2022-09-25T08:07:08Z</time>
      </trkpt>
      <trkpt lat="44.7789" lon="0.41526">
        <ele>120</ele>
        <time>2022-09-25T08:07:17Z</time>
      </trkpt>
      <trkpt lat="44.77908" lon="0.41549">
        <ele>120</ele>
        <time>2022-09-25T08:07:24Z</time>
      </trkpt>
      <trkpt lat="44.77925" lon="0.41572">
        <ele>120.3</ele>
        <time>2022-09-25T08:07:31Z</time>
      </trkpt>
      <trkpt lat="44.7794" lon="0.41587">
        <ele>121</ele>
        <time>2022-09-25T08:07:38Z</time>
      </trkpt>
      <trkpt lat="44.77957" lon="0.41591">
        <ele>121.2</ele>
        <time>2022-09-25T08:07:44Z</time>
      </trkpt>
      <trkpt lat="44.77973" lon="0.41593">
        <ele>121.4</ele>
        <time>2022-09-25T08:07:49Z</time>
      </trkpt>
      <trkpt lat="44.77988" lon="0.41594">
        <ele>121.5</ele>
        <time>2022-09-25T08:07:54Z</time>
      </trkpt>
      <trkpt lat="44.77988" lon="0.41596">
        <ele>121.6</ele>
        <time>2022-09-25T08:07:55Z</time>
      </trkpt>
      <trkpt lat="44.77988" lon="0.416">
        <ele>121.6</ele>
        <time>2022-09-25T08:07:56Z</time>
      </trkpt>
      <trkpt lat="44.77988" lon="0.41609">
        <ele>121.7</ele>
        <time>2022-09-25T08:07:58Z</time>
      </trkpt>
      <trkpt lat="44.77987" lon="0.41639">
        <ele>122</ele>
        <time>2022-09-25T08:08:05Z</time>
      </trkpt>
      <trkpt lat="44.77989" lon="0.41676">
        <ele>122.6</ele>
        <time>2022-09-25T08:08:14Z</time>
      </trkpt>
      <trkpt lat="44.77992" lon="0.4171">
        <ele>123.2</ele>
        <time>2022-09-25T08:08:22Z</time>
      </trkpt>
      <trkpt lat="44.77996" lon="0.41744">
        <ele>124</ele>
        <time>2022-09-25T08:08:30Z</time>
      </trkpt>
      <trkpt lat="44.77994" lon="0.41778">
        <ele>124.8</ele>
        <time>2022-09-25T08:08:38Z</time>
      </trkpt>
      <trkpt lat="44.77993" lon="0.41782">
        <ele>124.9</ele>
        <time>2022-09-25T08:08:40Z</time>
      </trkpt>
      <trkpt lat="44.77992" lon="0.41785">
        <ele>125</ele>
        <time>2022-09-25T08:08:42Z</time>
      </trkpt>
      <trkpt lat="44.77991" lon="0.4179">
        <ele>125.2</ele>
        <time>2022-09-25T08:08:46Z</time>
      </trkpt>
      <trkpt lat="44.77991" lon="0.4179">
        <ele>125.2</ele>
        <time>2022-09-25T08:08:47Z</time>
      </trkpt>
      <trkpt lat="44.77995" lon="0.41788">
        <ele>125.4</ele>
        <time>2022-09-25T08:13:09Z</time>
      </trkpt>
      <trkpt lat="44.77991" lon="0.41788">
        <ele>125.5</ele>
        <time>2022-09-25T08:13:11Z</time>
      </trkpt>
      <trkpt lat="44.77987" lon="0.41805">
        <ele>126.1</ele>
        <time>2022-09-25T08:13:16Z</time>
      </trkpt>
      <trkpt lat="44.77975" lon="0.41825">
        <ele>126.8</ele>
        <time>2022-09-25T08:13:22Z</time>
      </trkpt>
      <trkpt lat="44.77964" lon="0.4182">
        <ele>127</ele>
        <time>2022-09-25T08:13:26Z</time>
      </trkpt>
      <trkpt lat="44.77939" lon="0.41812">
        <ele>127.2</ele>
        <time>2022-09-25T08:13:35Z</time>
      </trkpt>
      <trkpt lat="44.77917" lon="0.41804">
        <ele>127.3</ele>
        <time>2022-09-25T08:13:43Z</time>
      </trkpt>
      <trkpt lat="44.77905" lon="0.41796">
        <ele>127.4</ele>
        <time>2022-09-25T08:13:48Z</time>
      </trkpt>
      <trkpt lat="44.77894" lon="0.41766">
        <ele>127.3</ele>
        <time>2022-09-25T08:13:55Z</time>
      </trkpt>
      <trkpt lat="44.77888" lon="0.41752">
        <ele>127.2</ele>
        <time>2022-09-25T08:14:00Z</time>
      </trkpt>
      <trkpt lat="44.77873" lon="0.41736">
        <ele>126.7</ele>
        <time>2022-09-25T08:14:05Z</time>
      </trkpt>
      <trkpt lat="44.77837" lon="0.41712">
        <ele>125.4</ele>
        <time>2022-09-25T08:14:14Z</time>
      </trkpt>
      <trkpt lat="44.77813" lon="0.41696">
        <ele>124.4</ele>
        <time>2022-09-25T08:14:20Z</time>
      </trkpt>
      <trkpt lat="44.7781" lon="0.41693">
        <ele>124.4</ele>
        <time>2022-09-25T08:14:21Z</time>
      </trkpt>
      <trkpt lat="44.77806" lon="0.41702">
        <ele>124.4</ele>
        <time>2022-09-25T08:14:22Z</time>
      </trkpt>
      <trkpt lat="44.77804" lon="0.41714">
        <ele>124.4</ele>
        <time>2022-09-25T08:14:24Z</time>
      </trkpt>
      <trkpt lat="44.77799" lon="0.41733">
        <ele>124.3</ele>
        <time>2022-09-25T08:14:27Z</time>
      </trkpt>
      <trkpt lat="44.77794" lon="0.41757">
        <ele>124.3</ele>
        <time>2022-09-25T08:14:31Z</time>
      </trkpt>
      <trkpt lat="44.77784" lon="0.41802">
        <ele>124.2</ele>
        <time>2022-09-25T08:14:38Z</time>
      </trkpt>
      <trkpt lat="44.77774" lon="0.41846">
        <ele>123.8</ele>
        <time>2022-09-25T08:14:45Z</time>
      </trkpt>
      <trkpt lat="44.77762" lon="0.41884">
        <ele>122.6</ele>
        <time>2022-09-25T08:14:50Z</time>
      </trkpt>
      <trkpt lat="44.77759" lon="0.41902">
        <ele>122.1</ele>
        <time>2022-09-25T08:14:52Z</time>
      </trkpt>
      <trkpt lat="44.77755" lon="0.41938">
        <ele>121.3</ele>
        <time>2022-09-25T08:14:56Z</time>
      </trkpt>
      <trkpt lat="44.77748" lon="0.41983">
        <ele>120.3</ele>
        <time>2022-09-25T08:15:02Z</time>
      </trkpt>
      <trkpt lat="44.77746" lon="0.42004">
        <ele>120.2</ele>
        <time>2022-09-25T08:15:07Z</time>
      </trkpt>
      <trkpt lat="44.77745" lon="0.42028">
        <ele>120.1</ele>
        <time>2022-09-25T08:15:12Z</time>
      </trkpt>
      <trkpt lat="44.77742" lon="0.42025">
        <ele>120.1</ele>
        <time>2022-09-25T08:15:15Z</time>
      </trkpt>
      <trkpt lat="44.77744" lon="0.42023">
        <ele>120</ele>
        <time>2022-09-25T08:15:17Z</time>
      </trkpt>
      <trkpt lat="44.77745" lon="0.42018">
        <ele>120</ele>
        <time>2022-09-25T08:15:19Z</time>
      </trkpt>
      <trkpt lat="44.77746" lon="0.42001">
        <ele>119.9</ele>
        <time>2022-09-25T08:15:23Z</time>
      </trkpt>
      <trkpt lat="44.77746" lon="0.42001">
        <ele>119.9</ele>
        <time>2022-09-25T08:15:27Z</time>
      </trkpt>
      <trkpt lat="44.77744" lon="0.42012">
        <ele>119.8</ele>
        <time>2022-09-25T08:15:30Z</time>
      </trkpt>
      <trkpt lat="44.77741" lon="0.42027">
        <ele>119.7</ele>
        <time>2022-09-25T08:15:34Z</time>
      </trkpt>
      <trkpt lat="44.77744" lon="0.42023">
        <ele>119.7</ele>
        <time>2022-09-25T08:15:37Z</time>
      </trkpt>
      <trkpt lat="44.77744" lon="0.42022">
        <ele>119.7</ele>
        <time>2022-09-25T08:15:38Z</time>
      </trkpt>
      <trkpt lat="44.77747" lon="0.41998">
        <ele>120.1</ele>
        <time>2022-09-25T08:15:42Z</time>
      </trkpt>
      <trkpt lat="44.77749" lon="0.41969">
        <ele>120.5</ele>
        <time>2022-09-25T08:15:47Z</time>
      </trkpt>
      <trkpt lat="44.77744" lon="0.41954">
        <ele>120.8</ele>
        <time>2022-09-25T08:15:48Z</time>
      </trkpt>
      <trkpt lat="44.77741" lon="0.41953">
        <ele>120.8</ele>
        <time>2022-09-25T08:15:49Z</time>
      </trkpt>
      <trkpt lat="44.77734" lon="0.4195">
        <ele>120.8</ele>
        <time>2022-09-25T08:15:51Z</time>
      </trkpt>
      <trkpt lat="44.77723" lon="0.41946">
        <ele>120.8</ele>
        <time>2022-09-25T08:15:59Z</time>
      </trkpt>
      <trkpt lat="44.77664" lon="0.41954">
        <ele>119.9</ele>
        <time>2022-09-25T08:16:05Z</time>
      </trkpt>
      <trkpt lat="44.77656" lon="0.41952">
        <ele>120</ele>
        <time>2022-09-25T08:16:07Z</time>
      </trkpt>
      <trkpt lat="44.77619" lon="0.41946">
        <ele>120.1</ele>
        <time>2022-09-25T08:16:15Z</time>
      </trkpt>
      <trkpt lat="44.77603" lon="0.41941">
        <ele>120.3</ele>
        <time>2022-09-25T08:16:19Z</time>
      </trkpt>
      <trkpt lat="44.77587" lon="0.41938">
        <ele>120.5</ele>
        <time>2022-09-25T08:16:23Z</time>
      </trkpt>
      <trkpt lat="44.77566" lon="0.41927">
        <ele>121.3</ele>
        <time>2022-09-25T08:16:29Z</time>
      </trkpt>
      <trkpt lat="44.77539" lon="0.41908">
        <ele>122.9</ele>
        <time>2022-09-25T08:16:36Z</time>
      </trkpt>
      <trkpt lat="44.77519" lon="0.41892">
        <ele>124</ele>
        <time>2022-09-25T08:16:41Z</time>
      </trkpt>
      <trkpt lat="44.77518" lon="0.41896">
        <ele>123.9</ele>
        <time>2022-09-25T08:16:42Z</time>
      </trkpt>
      <trkpt lat="44.77516" lon="0.41901">
        <ele>123.8</ele>
        <time>2022-09-25T08:16:43Z</time>
      </trkpt>
      <trkpt lat="44.77514" lon="0.4191">
        <ele>123.7</ele>
        <time>2022-09-25T08:16:45Z</time>
      </trkpt>
      <trkpt lat="44.77512" lon="0.4192">
        <ele>123.6</ele>
        <time>2022-09-25T08:16:47Z</time>
      </trkpt>
      <trkpt lat="44.77511" lon="0.41933">
        <ele>123.5</ele>
        <time>2022-09-25T08:16:49Z</time>
      </trkpt>
      <trkpt lat="44.77511" lon="0.4194">
        <ele>123.5</ele>
        <time>2022-09-25T08:16:50Z</time>
      </trkpt>
      <trkpt lat="44.77508" lon="0.41953">
        <ele>123.4</ele>
        <time>2022-09-25T08:16:52Z</time>
      </trkpt>
      <trkpt lat="44.77506" lon="0.4196">
        <ele>123.2</ele>
        <time>2022-09-25T08:16:53Z</time>
      </trkpt>
      <trkpt lat="44.77505" lon="0.41967">
        <ele>123</ele>
        <time>2022-09-25T08:16:54Z</time>
      </trkpt>
      <trkpt lat="44.77504" lon="0.41983">
        <ele>122.5</ele>
        <time>2022-09-25T08:16:56Z</time>
      </trkpt>
      <trkpt lat="44.77504" lon="0.42001">
        <ele>121.9</ele>
        <time>2022-09-25T08:16:58Z</time>
      </trkpt>
      <trkpt lat="44.77501" lon="0.42008">
        <ele>121.7</ele>
        <time>2022-09-25T08:16:59Z</time>
      </trkpt>
      <trkpt lat="44.77499" lon="0.42015">
        <ele>121.5</ele>
        <time>2022-09-25T08:17:00Z</time>
      </trkpt>
      <trkpt lat="44.77487" lon="0.42031">
        <ele>121.2</ele>
        <time>2022-09-25T08:17:03Z</time>
      </trkpt>
      <trkpt lat="44.77476" lon="0.42038">
        <ele>121.2</ele>
        <time>2022-09-25T08:17:05Z</time>
      </trkpt>
      <trkpt lat="44.77465" lon="0.42042">
        <ele>121.2</ele>
        <time>2022-09-25T08:17:07Z</time>
      </trkpt>
      <trkpt lat="44.77454" lon="0.42044">
        <ele>121.2</ele>
        <time>2022-09-25T08:17:09Z</time>
      </trkpt>
      <trkpt lat="44.77444" lon="0.42046">
        <ele>121.2</ele>
        <time>2022-09-25T08:17:11Z</time>
      </trkpt>
      <trkpt lat="44.77437" lon="0.42052">
        <ele>121.1</ele>
        <time>2022-09-25T08:17:13Z</time>
      </trkpt>
      <trkpt lat="44.77435" lon="0.42056">
        <ele>121</ele>
        <time>2022-09-25T08:17:14Z</time>
      </trkpt>
      <trkpt lat="44.77434" lon="0.42059">
        <ele>120.9</ele>
        <time>2022-09-25T08:17:15Z</time>
      </trkpt>
      <trkpt lat="44.77432" lon="0.4207">
        <ele>120.4</ele>
        <time>2022-09-25T08:17:17Z</time>
      </trkpt>
      <trkpt lat="44.77434" lon="0.42082">
        <ele>119.9</ele>
        <time>2022-09-25T08:17:19Z</time>
      </trkpt>
      <trkpt lat="44.77437" lon="0.42095">
        <ele>119.2</ele>
        <time>2022-09-25T08:17:21Z</time>
      </trkpt>
      <trkpt lat="44.77439" lon="0.4212">
        <ele>117.3</ele>
        <time>2022-09-25T08:17:24Z</time>
      </trkpt>
      <trkpt lat="44.77446" lon="0.42138">
        <ele>115.4</ele>
        <time>2022-09-25T08:17:27Z</time>
      </trkpt>
      <trkpt lat="44.77451" lon="0.42151">
        <ele>113.8</ele>
        <time>2022-09-25T08:17:30Z</time>
      </trkpt>
      <trkpt lat="44.77452" lon="0.42156">
        <ele>113.2</ele>
        <time>2022-09-25T08:17:32Z</time>
      </trkpt>
      <trkpt lat="44.77461" lon="0.42173">
        <ele>109.4</ele>
        <time>2022-09-25T08:17:33Z</time>
      </trkpt>
      <trkpt lat="44.77459" lon="0.42182">
        <ele>108.4</ele>
        <time>2022-09-25T08:17:35Z</time>
      </trkpt>
      <trkpt lat="44.7745" lon="0.422">
        <ele>106.6</ele>
        <time>2022-09-25T08:17:38Z</time>
      </trkpt>
      <trkpt lat="44.77446" lon="0.42206">
        <ele>106.1</ele>
        <time>2022-09-25T08:17:39Z</time>
      </trkpt>
      <trkpt lat="44.77442" lon="0.42211">
        <ele>105.6</ele>
        <time>2022-09-25T08:17:40Z</time>
      </trkpt>
      <trkpt lat="44.77429" lon="0.4223">
        <ele>104.2</ele>
        <time>2022-09-25T08:17:43Z</time>
      </trkpt>
      <trkpt lat="44.77424" lon="0.42236">
        <ele>103.7</ele>
        <time>2022-09-25T08:17:44Z</time>
      </trkpt>
      <trkpt lat="44.77416" lon="0.42246">
        <ele>102.9</ele>
        <time>2022-09-25T08:17:46Z</time>
      </trkpt>
      <trkpt lat="44.7741" lon="0.4225">
        <ele>102.5</ele>
        <time>2022-09-25T08:17:47Z</time>
      </trkpt>
      <trkpt lat="44.77405" lon="0.42254">
        <ele>102.1</ele>
        <time>2022-09-25T08:17:48Z</time>
      </trkpt>
      <trkpt lat="44.77395" lon="0.42261">
        <ele>101.3</ele>
        <time>2022-09-25T08:17:50Z</time>
      </trkpt>
      <trkpt lat="44.7739" lon="0.42265">
        <ele>100.8</ele>
        <time>2022-09-25T08:17:51Z</time>
      </trkpt>
      <trkpt lat="44.77381" lon="0.42273">
        <ele>99.8</ele>
        <time>2022-09-25T08:17:53Z</time>
      </trkpt>
      <trkpt lat="44.77375" lon="0.42279">
        <ele>99.1</ele>
        <time>2022-09-25T08:17:54Z</time>
      </trkpt>
      <trkpt lat="44.7735" lon="0.42294">
        <ele>96.9</ele>
        <time>2022-09-25T08:17:58Z</time>
      </trkpt>
      <trkpt lat="44.77344" lon="0.42296">
        <ele>96.5</ele>
        <time>2022-09-25T08:17:59Z</time>
      </trkpt>
      <trkpt lat="44.77338" lon="0.42298">
        <ele>96.1</ele>
        <time>2022-09-25T08:18:00Z</time>
      </trkpt>
      <trkpt lat="44.7732" lon="0.42306">
        <ele>95</ele>
        <time>2022-09-25T08:18:03Z</time>
      </trkpt>
      <trkpt lat="44.77296" lon="0.4232">
        <ele>93.3</ele>
        <time>2022-09-25T08:18:07Z</time>
      </trkpt>
      <trkpt lat="44.77276" lon="0.42332">
        <ele>91.6</ele>
        <time>2022-09-25T08:18:11Z</time>
      </trkpt>
      <trkpt lat="44.77261" lon="0.42343">
        <ele>90.1</ele>
        <time>2022-09-25T08:18:15Z</time>
      </trkpt>
      <trkpt lat="44.77248" lon="0.42349">
        <ele>90</ele>
        <time>2022-09-25T08:18:17Z</time>
      </trkpt>
      <trkpt lat="44.77234" lon="0.42349">
        <ele>90.2</ele>
        <time>2022-09-25T08:18:19Z</time>
      </trkpt>
      <trkpt lat="44.77231" lon="0.42349">
        <ele>90.2</ele>
        <time>2022-09-25T08:18:20Z</time>
      </trkpt>
      <trkpt lat="44.77226" lon="0.42349">
        <ele>90.2</ele>
        <time>2022-09-25T08:18:22Z</time>
      </trkpt>
      <trkpt lat="44.77215" lon="0.42351">
        <ele>89.8</ele>
        <time>2022-09-25T08:18:24Z</time>
      </trkpt>
      <trkpt lat="44.77206" lon="0.42353">
        <ele>88.8</ele>
        <time>2022-09-25T08:18:25Z</time>
      </trkpt>
      <trkpt lat="44.77199" lon="0.42357">
        <ele>87.6</ele>
        <time>2022-09-25T08:18:26Z</time>
      </trkpt>
      <trkpt lat="44.77185" lon="0.42367">
        <ele>84.8</ele>
        <time>2022-09-25T08:18:28Z</time>
      </trkpt>
      <trkpt lat="44.77176" lon="0.42376">
        <ele>82.8</ele>
        <time>2022-09-25T08:18:30Z</time>
      </trkpt>
      <trkpt lat="44.7717" lon="0.42381">
        <ele>81.6</ele>
        <time>2022-09-25T08:18:31Z</time>
      </trkpt>
      <trkpt lat="44.77158" lon="0.42393">
        <ele>79.6</ele>
        <time>2022-09-25T08:18:33Z</time>
      </trkpt>
      <trkpt lat="44.77143" lon="0.42402">
        <ele>77.7</ele>
        <time>2022-09-25T08:18:35Z</time>
      </trkpt>
      <trkpt lat="44.77127" lon="0.42408">
        <ele>75.8</ele>
        <time>2022-09-25T08:18:38Z</time>
      </trkpt>
      <trkpt lat="44.77119" lon="0.4241">
        <ele>74.9</ele>
        <time>2022-09-25T08:18:41Z</time>
      </trkpt>
      <trkpt lat="44.77114" lon="0.42412">
        <ele>74.4</ele>
        <time>2022-09-25T08:18:43Z</time>
      </trkpt>
      <trkpt lat="44.77111" lon="0.42413">
        <ele>74.1</ele>
        <time>2022-09-25T08:18:44Z</time>
      </trkpt>
      <trkpt lat="44.77107" lon="0.42418">
        <ele>73.7</ele>
        <time>2022-09-25T08:18:45Z</time>
      </trkpt>
      <trkpt lat="44.77107" lon="0.42418">
        <ele>73.8</ele>
        <time>2022-09-25T08:18:47Z</time>
      </trkpt>
      <trkpt lat="44.77112" lon="0.42421">
        <ele>74.2</ele>
        <time>2022-09-25T08:18:51Z</time>
      </trkpt>
      <trkpt lat="44.77114" lon="0.42423">
        <ele>74.4</ele>
        <time>2022-09-25T08:18:52Z</time>
      </trkpt>
      <trkpt lat="44.7712" lon="0.42426">
        <ele>75</ele>
        <time>2022-09-25T08:18:54Z</time>
      </trkpt>
      <trkpt lat="44.77125" lon="0.42435">
        <ele>75.2</ele>
        <time>2022-09-25T08:18:56Z</time>
      </trkpt>
      <trkpt lat="44.77126" lon="0.42438">
        <ele>75.2</ele>
        <time>2022-09-25T08:18:57Z</time>
      </trkpt>
      <trkpt lat="44.7713" lon="0.4245">
        <ele>75.3</ele>
        <time>2022-09-25T08:19:00Z</time>
      </trkpt>
      <trkpt lat="44.7713" lon="0.42454">
        <ele>75.4</ele>
        <time>2022-09-25T08:19:03Z</time>
      </trkpt>
      <trkpt lat="44.7713" lon="0.42445">
        <ele>75.5</ele>
        <time>2022-09-25T08:19:04Z</time>
      </trkpt>
      <trkpt lat="44.7713" lon="0.4246">
        <ele>76.2</ele>
        <time>2022-09-25T08:19:07Z</time>
      </trkpt>
      <trkpt lat="44.77134" lon="0.42473">
        <ele>76.9</ele>
        <time>2022-09-25T08:19:12Z</time>
      </trkpt>
      <trkpt lat="44.77135" lon="0.42474">
        <ele>77.1</ele>
        <time>2022-09-25T08:19:13Z</time>
      </trkpt>
      <trkpt lat="44.77135" lon="0.42474">
        <ele>77.1</ele>
        <time>2022-09-25T08:19:15Z</time>
      </trkpt>
      <trkpt lat="44.77135" lon="0.42484">
        <ele>77.8</ele>
        <time>2022-09-25T08:19:21Z</time>
      </trkpt>
      <trkpt lat="44.77127" lon="0.4249">
        <ele>77.5</ele>
        <time>2022-09-25T08:19:24Z</time>
      </trkpt>
      <trkpt lat="44.77124" lon="0.42493">
        <ele>77.4</ele>
        <time>2022-09-25T08:19:25Z</time>
      </trkpt>
      <trkpt lat="44.77117" lon="0.425">
        <ele>77.1</ele>
        <time>2022-09-25T08:19:27Z</time>
      </trkpt>
      <trkpt lat="44.77111" lon="0.42509">
        <ele>76.9</ele>
        <time>2022-09-25T08:19:29Z</time>
      </trkpt>
      <trkpt lat="44.77107" lon="0.42514">
        <ele>76.8</ele>
        <time>2022-09-25T08:19:31Z</time>
      </trkpt>
      <trkpt lat="44.77107" lon="0.42514">
        <ele>76.8</ele>
        <time>2022-09-25T08:19:32Z</time>
      </trkpt>
      <trkpt lat="44.77107" lon="0.42514">
        <ele>76.8</ele>
        <time>2022-09-25T08:19:36Z</time>
      </trkpt>
      <trkpt lat="44.77066" lon="0.42556">
        <ele>78.3</ele>
        <time>2022-09-25T08:19:40Z</time>
      </trkpt>
      <trkpt lat="44.77058" lon="0.42557">
        <ele>76.7</ele>
        <time>2022-09-25T08:19:42Z</time>
      </trkpt>
      <trkpt lat="44.77053" lon="0.42558">
        <ele>76.7</ele>
        <time>2022-09-25T08:19:43Z</time>
      </trkpt>
      <trkpt lat="44.77047" lon="0.42555">
        <ele>75.3</ele>
        <time>2022-09-25T08:19:44Z</time>
      </trkpt>
      <trkpt lat="44.77042" lon="0.42559">
        <ele>75.3</ele>
        <time>2022-09-25T08:19:46Z</time>
      </trkpt>
      <trkpt lat="44.77038" lon="0.42574">
        <ele>75.3</ele>
        <time>2022-09-25T08:19:49Z</time>
      </trkpt>
      <trkpt lat="44.77034" lon="0.42575">
        <ele>75.3</ele>
        <time>2022-09-25T08:19:50Z</time>
      </trkpt>
      <trkpt lat="44.7703" lon="0.42574">
        <ele>75.2</ele>
        <time>2022-09-25T08:19:51Z</time>
      </trkpt>
      <trkpt lat="44.77011" lon="0.4257">
        <ele>72.1</ele>
        <time>2022-09-25T08:19:55Z</time>
      </trkpt>
      <trkpt lat="44.76989" lon="0.42562">
        <ele>70.9</ele>
        <time>2022-09-25T08:20:00Z</time>
      </trkpt>
      <trkpt lat="44.76984" lon="0.42561">
        <ele>70.9</ele>
        <time>2022-09-25T08:20:01Z</time>
      </trkpt>
      <trkpt lat="44.76973" lon="0.42559">
        <ele>71.8</ele>
        <time>2022-09-25T08:20:04Z</time>
      </trkpt>
      <trkpt lat="44.7697" lon="0.42562">
        <ele>71.8</ele>
        <time>2022-09-25T08:20:05Z</time>
      </trkpt>
      <trkpt lat="44.7697" lon="0.42569">
        <ele>71.8</ele>
        <time>2022-09-25T08:20:07Z</time>
      </trkpt>
      <trkpt lat="44.76973" lon="0.42575">
        <ele>71.6</ele>
        <time>2022-09-25T08:20:09Z</time>
      </trkpt>
      <trkpt lat="44.76979" lon="0.42585">
        <ele>70.9</ele>
        <time>2022-09-25T08:20:11Z</time>
      </trkpt>
      <trkpt lat="44.76991" lon="0.42609">
        <ele>71.8</ele>
        <time>2022-09-25T08:20:16Z</time>
      </trkpt>
      <trkpt lat="44.76991" lon="0.42615">
        <ele>71.8</ele>
        <time>2022-09-25T08:20:17Z</time>
      </trkpt>
      <trkpt lat="44.76994" lon="0.42634">
        <ele>72</ele>
        <time>2022-09-25T08:20:20Z</time>
      </trkpt>
      <trkpt lat="44.76996" lon="0.4265">
        <ele>72.1</ele>
        <time>2022-09-25T08:20:23Z</time>
      </trkpt>
      <trkpt lat="44.76996" lon="0.42654">
        <ele>72.1</ele>
        <time>2022-09-25T08:20:24Z</time>
      </trkpt>
      <trkpt lat="44.77001" lon="0.42679">
        <ele>72.6</ele>
        <time>2022-09-25T08:20:28Z</time>
      </trkpt>
      <trkpt lat="44.76998" lon="0.42702">
        <ele>72.8</ele>
        <time>2022-09-25T08:20:32Z</time>
      </trkpt>
      <trkpt lat="44.76998" lon="0.42709">
        <ele>72.8</ele>
        <time>2022-09-25T08:20:33Z</time>
      </trkpt>
      <trkpt lat="44.76995" lon="0.4272">
        <ele>73.2</ele>
        <time>2022-09-25T08:20:35Z</time>
      </trkpt>
      <trkpt lat="44.76995" lon="0.42727">
        <ele>73.8</ele>
        <time>2022-09-25T08:20:36Z</time>
      </trkpt>
      <trkpt lat="44.76993" lon="0.42733">
        <ele>73.8</ele>
        <time>2022-09-25T08:20:37Z</time>
      </trkpt>
      <trkpt lat="44.76988" lon="0.42742">
        <ele>72.1</ele>
        <time>2022-09-25T08:20:39Z</time>
      </trkpt>
      <trkpt lat="44.76983" lon="0.42754">
        <ele>72.8</ele>
        <time>2022-09-25T08:20:41Z</time>
      </trkpt>
      <trkpt lat="44.76981" lon="0.42765">
        <ele>73.4</ele>
        <time>2022-09-25T08:20:43Z</time>
      </trkpt>
      <trkpt lat="44.76982" lon="0.42769">
        <ele>73.4</ele>
        <time>2022-09-25T08:20:44Z</time>
      </trkpt>
      <trkpt lat="44.76983" lon="0.42781">
        <ele>73.6</ele>
        <time>2022-09-25T08:20:46Z</time>
      </trkpt>
      <trkpt lat="44.76976" lon="0.42794">
        <ele>71.9</ele>
        <time>2022-09-25T08:20:49Z</time>
      </trkpt>
      <trkpt lat="44.76966" lon="0.42811">
        <ele>71.9</ele>
        <time>2022-09-25T08:20:53Z</time>
      </trkpt>
      <trkpt lat="44.76962" lon="0.42821">
        <ele>71.1</ele>
        <time>2022-09-25T08:20:55Z</time>
      </trkpt>
      <trkpt lat="44.7696" lon="0.4283">
        <ele>71.2</ele>
        <time>2022-09-25T08:20:57Z</time>
      </trkpt>
      <trkpt lat="44.76955" lon="0.42839">
        <ele>71.2</ele>
        <time>2022-09-25T08:20:59Z</time>
      </trkpt>
      <trkpt lat="44.76952" lon="0.42842">
        <ele>70.8</ele>
        <time>2022-09-25T08:21:00Z</time>
      </trkpt>
      <trkpt lat="44.76949" lon="0.42851">
        <ele>71</ele>
        <time>2022-09-25T08:21:02Z</time>
      </trkpt>
      <trkpt lat="44.76948" lon="0.42857">
        <ele>71</ele>
        <time>2022-09-25T08:21:03Z</time>
      </trkpt>
      <trkpt lat="44.76944" lon="0.42871">
        <ele>71.4</ele>
        <time>2022-09-25T08:21:06Z</time>
      </trkpt>
      <trkpt lat="44.76943" lon="0.42877">
        <ele>71.4</ele>
        <time>2022-09-25T08:21:07Z</time>
      </trkpt>
      <trkpt lat="44.76936" lon="0.42886">
        <ele>71.1</ele>
        <time>2022-09-25T08:21:11Z</time>
      </trkpt>
      <trkpt lat="44.76937" lon="0.42888">
        <ele>71.1</ele>
        <time>2022-09-25T08:21:12Z</time>
      </trkpt>
      <trkpt lat="44.76937" lon="0.42902">
        <ele>71.5</ele>
        <time>2022-09-25T08:21:14Z</time>
      </trkpt>
      <trkpt lat="44.76943" lon="0.42905">
        <ele>71.7</ele>
        <time>2022-09-25T08:21:16Z</time>
      </trkpt>
      <trkpt lat="44.76947" lon="0.42907">
        <ele>71.7</ele>
        <time>2022-09-25T08:21:17Z</time>
      </trkpt>
      <trkpt lat="44.76954" lon="0.42912">
        <ele>71.9</ele>
        <time>2022-09-25T08:21:19Z</time>
      </trkpt>
      <trkpt lat="44.76961" lon="0.42916">
        <ele>72.2</ele>
        <time>2022-09-25T08:21:21Z</time>
      </trkpt>
      <trkpt lat="44.76966" lon="0.42922">
        <ele>72.4</ele>
        <time>2022-09-25T08:21:23Z</time>
      </trkpt>
      <trkpt lat="44.76966" lon="0.42927">
        <ele>72.6</ele>
        <time>2022-09-25T08:21:24Z</time>
      </trkpt>
      <trkpt lat="44.76961" lon="0.42945">
        <ele>72.9</ele>
        <time>2022-09-25T08:21:29Z</time>
      </trkpt>
      <trkpt lat="44.7697" lon="0.42955">
        <ele>73.2</ele>
        <time>2022-09-25T08:21:33Z</time>
      </trkpt>
      <trkpt lat="44.76978" lon="0.42971">
        <ele>73.7</ele>
        <time>2022-09-25T08:21:40Z</time>
      </trkpt>
      <trkpt lat="44.76978" lon="0.42975">
        <ele>73.9</ele>
        <time>2022-09-25T08:21:41Z</time>
      </trkpt>
      <trkpt lat="44.76978" lon="0.42983">
        <ele>74.3</ele>
        <time>2022-09-25T08:21:44Z</time>
      </trkpt>
      <trkpt lat="44.76978" lon="0.42984">
        <ele>74.3</ele>
        <time>2022-09-25T08:21:45Z</time>
      </trkpt>
      <trkpt lat="44.76973" lon="0.42997">
        <ele>75.1</ele>
        <time>2022-09-25T08:21:49Z</time>
      </trkpt>
      <trkpt lat="44.76971" lon="0.43002">
        <ele>75.4</ele>
        <time>2022-09-25T08:21:51Z</time>
      </trkpt>
      <trkpt lat="44.76967" lon="0.43008">
        <ele>75.9</ele>
        <time>2022-09-25T08:21:54Z</time>
      </trkpt>
      <trkpt lat="44.76967" lon="0.4301">
        <ele>76.1</ele>
        <time>2022-09-25T08:21:55Z</time>
      </trkpt>
      <trkpt lat="44.76961" lon="0.43017">
        <ele>77.1</ele>
        <time>2022-09-25T08:21:59Z</time>
      </trkpt>
      <trkpt lat="44.7696" lon="0.43019">
        <ele>77.5</ele>
        <time>2022-09-25T08:22:00Z</time>
      </trkpt>
      <trkpt lat="44.76959" lon="0.4302">
        <ele>77.8</ele>
        <time>2022-09-25T08:22:02Z</time>
      </trkpt>
      <trkpt lat="44.76957" lon="0.43023">
        <ele>78.5</ele>
        <time>2022-09-25T08:22:03Z</time>
      </trkpt>
      <trkpt lat="44.76957" lon="0.43023">
        <ele>78.5</ele>
        <time>2022-09-25T08:22:05Z</time>
      </trkpt>
      <trkpt lat="44.76979" lon="0.4309">
        <ele>92.4</ele>
        <time>2022-09-25T08:23:50Z</time>
      </trkpt>
      <trkpt lat="44.76981" lon="0.43093">
        <ele>92.7</ele>
        <time>2022-09-25T08:23:53Z</time>
      </trkpt>
      <trkpt lat="44.76982" lon="0.43095">
        <ele>92.9</ele>
        <time>2022-09-25T08:23:57Z</time>
      </trkpt>
      <trkpt lat="44.76987" lon="0.43101">
        <ele>93.2</ele>
        <time>2022-09-25T08:24:05Z</time>
      </trkpt>
      <trkpt lat="44.76992" lon="0.43106">
        <ele>93.3</ele>
        <time>2022-09-25T08:24:09Z</time>
      </trkpt>
      <trkpt lat="44.76995" lon="0.4311">
        <ele>93.4</ele>
        <time>2022-09-25T08:24:11Z</time>
      </trkpt>
      <trkpt lat="44.76999" lon="0.43113">
        <ele>93.5</ele>
        <time>2022-09-25T08:24:14Z</time>
      </trkpt>
      <trkpt lat="44.77008" lon="0.43124">
        <ele>93.9</ele>
        <time>2022-09-25T08:24:18Z</time>
      </trkpt>
      <trkpt lat="44.7702" lon="0.43138">
        <ele>94.3</ele>
        <time>2022-09-25T08:24:24Z</time>
      </trkpt>
      <trkpt lat="44.77022" lon="0.4314">
        <ele>94.3</ele>
        <time>2022-09-25T08:24:25Z</time>
      </trkpt>
      <trkpt lat="44.77027" lon="0.43147">
        <ele>94.3</ele>
        <time>2022-09-25T08:24:28Z</time>
      </trkpt>
      <trkpt lat="44.77034" lon="0.43156">
        <ele>94.3</ele>
        <time>2022-09-25T08:24:31Z</time>
      </trkpt>
      <trkpt lat="44.77037" lon="0.43159">
        <ele>94.3</ele>
        <time>2022-09-25T08:24:32Z</time>
      </trkpt>
      <trkpt lat="44.77046" lon="0.43168">
        <ele>94.3</ele>
        <time>2022-09-25T08:24:37Z</time>
      </trkpt>
      <trkpt lat="44.77055" lon="0.43176">
        <ele>94.4</ele>
        <time>2022-09-25T08:24:41Z</time>
      </trkpt>
      <trkpt lat="44.7706" lon="0.4318">
        <ele>94.5</ele>
        <time>2022-09-25T08:24:44Z</time>
      </trkpt>
      <trkpt lat="44.77062" lon="0.43181">
        <ele>94.6</ele>
        <time>2022-09-25T08:24:45Z</time>
      </trkpt>
      <trkpt lat="44.77063" lon="0.43182">
        <ele>94.6</ele>
        <time>2022-09-25T08:24:48Z</time>
      </trkpt>
      <trkpt lat="44.77063" lon="0.43182">
        <ele>94.6</ele>
        <time>2022-09-25T08:24:49Z</time>
      </trkpt>
      <trkpt lat="44.77107" lon="0.43155">
        <ele>94.5</ele>
        <time>2022-09-25T08:25:35Z</time>
      </trkpt>
      <trkpt lat="44.7711" lon="0.43158">
        <ele>94.4</ele>
        <time>2022-09-25T08:25:36Z</time>
      </trkpt>
      <trkpt lat="44.77116" lon="0.43164">
        <ele>94.2</ele>
        <time>2022-09-25T08:25:39Z</time>
      </trkpt>
      <trkpt lat="44.77119" lon="0.43166">
        <ele>94.1</ele>
        <time>2022-09-25T08:25:40Z</time>
      </trkpt>
      <trkpt lat="44.7712" lon="0.4317">
        <ele>94.1</ele>
        <time>2022-09-25T08:25:42Z</time>
      </trkpt>
      <trkpt lat="44.77124" lon="0.43174">
        <ele>94.1</ele>
        <time>2022-09-25T08:25:44Z</time>
      </trkpt>
      <trkpt lat="44.77128" lon="0.43179">
        <ele>94.2</ele>
        <time>2022-09-25T08:25:46Z</time>
      </trkpt>
      <trkpt lat="44.77129" lon="0.43183">
        <ele>94.3</ele>
        <time>2022-09-25T08:25:48Z</time>
      </trkpt>
      <trkpt lat="44.77139" lon="0.4319">
        <ele>94.7</ele>
        <time>2022-09-25T08:25:53Z</time>
      </trkpt>
      <trkpt lat="44.77144" lon="0.43197">
        <ele>95</ele>
        <time>2022-09-25T08:25:56Z</time>
      </trkpt>
      <trkpt lat="44.77147" lon="0.432">
        <ele>95.1</ele>
        <time>2022-09-25T08:25:58Z</time>
      </trkpt>
      <trkpt lat="44.7715" lon="0.43204">
        <ele>95.3</ele>
        <time>2022-09-25T08:26:00Z</time>
      </trkpt>
      <trkpt lat="44.77151" lon="0.43208">
        <ele>95.4</ele>
        <time>2022-09-25T08:26:02Z</time>
      </trkpt>
      <trkpt lat="44.77153" lon="0.43209">
        <ele>95.4</ele>
        <time>2022-09-25T08:26:03Z</time>
      </trkpt>
      <trkpt lat="44.77155" lon="0.43213">
        <ele>95.6</ele>
        <time>2022-09-25T08:26:05Z</time>
      </trkpt>
      <trkpt lat="44.77157" lon="0.43213">
        <ele>95.1</ele>
        <time>2022-09-25T08:26:06Z</time>
      </trkpt>
      <trkpt lat="44.77159" lon="0.43214">
        <ele>94.6</ele>
        <time>2022-09-25T08:26:07Z</time>
      </trkpt>
      <trkpt lat="44.77157" lon="0.43242">
        <ele>95.7</ele>
        <time>2022-09-25T08:26:11Z</time>
      </trkpt>
      <trkpt lat="44.77158" lon="0.43243">
        <ele>95.2</ele>
        <time>2022-09-25T08:26:12Z</time>
      </trkpt>
      <trkpt lat="44.7716" lon="0.43244">
        <ele>94.7</ele>
        <time>2022-09-25T08:26:15Z</time>
      </trkpt>
      <trkpt lat="44.77163" lon="0.43246">
        <ele>94.2</ele>
        <time>2022-09-25T08:26:17Z</time>
      </trkpt>
      <trkpt lat="44.77163" lon="0.43246">
        <ele>93.7</ele>
        <time>2022-09-25T08:26:18Z</time>
      </trkpt>
      <trkpt lat="44.77187" lon="0.43222">
        <ele>91.5</ele>
        <time>2022-09-25T08:26:24Z</time>
      </trkpt>
      <trkpt lat="44.77198" lon="0.43223">
        <ele>90.8</ele>
        <time>2022-09-25T08:26:29Z</time>
      </trkpt>
      <trkpt lat="44.77207" lon="0.43226">
        <ele>91.1</ele>
        <time>2022-09-25T08:26:34Z</time>
      </trkpt>
      <trkpt lat="44.77216" lon="0.43228">
        <ele>90.4</ele>
        <time>2022-09-25T08:26:38Z</time>
      </trkpt>
      <trkpt lat="44.77216" lon="0.43224">
        <ele>90.4</ele>
        <time>2022-09-25T08:26:40Z</time>
      </trkpt>
      <trkpt lat="44.77217" lon="0.43218">
        <ele>90.4</ele>
        <time>2022-09-25T08:26:42Z</time>
      </trkpt>
      <trkpt lat="44.77219" lon="0.43201">
        <ele>90.7</ele>
        <time>2022-09-25T08:26:49Z</time>
      </trkpt>
      <trkpt lat="44.77221" lon="0.43183">
        <ele>91.1</ele>
        <time>2022-09-25T08:26:56Z</time>
      </trkpt>
      <trkpt lat="44.77224" lon="0.4316">
        <ele>91.9</ele>
        <time>2022-09-25T08:27:05Z</time>
      </trkpt>
      <trkpt lat="44.77227" lon="0.43139">
        <ele>92.7</ele>
        <time>2022-09-25T08:27:13Z</time>
      </trkpt>
      <trkpt lat="44.77229" lon="0.43114">
        <ele>93.7</ele>
        <time>2022-09-25T08:27:22Z</time>
      </trkpt>
      <trkpt lat="44.77232" lon="0.43092">
        <ele>94.8</ele>
        <time>2022-09-25T08:27:30Z</time>
      </trkpt>
      <trkpt lat="44.77234" lon="0.43075">
        <ele>95.5</ele>
        <time>2022-09-25T08:27:36Z</time>
      </trkpt>
      <trkpt lat="44.77237" lon="0.43052">
        <ele>96.4</ele>
        <time>2022-09-25T08:27:43Z</time>
      </trkpt>
      <trkpt lat="44.77239" lon="0.43034">
        <ele>97.1</ele>
        <time>2022-09-25T08:27:51Z</time>
      </trkpt>
      <trkpt lat="44.77239" lon="0.43031">
        <ele>97.2</ele>
        <time>2022-09-25T08:27:54Z</time>
      </trkpt>
      <trkpt lat="44.7724" lon="0.43026">
        <ele>97.3</ele>
        <time>2022-09-25T08:27:57Z</time>
      </trkpt>
      <trkpt lat="44.7724" lon="0.43021">
        <ele>97.5</ele>
        <time>2022-09-25T08:27:59Z</time>
      </trkpt>
      <trkpt lat="44.77242" lon="0.43011">
        <ele>97.8</ele>
        <time>2022-09-25T08:28:02Z</time>
      </trkpt>
      <trkpt lat="44.77245" lon="0.42983">
        <ele>98.5</ele>
        <time>2022-09-25T08:28:09Z</time>
      </trkpt>
      <trkpt lat="44.7725" lon="0.42942">
        <ele>100.3</ele>
        <time>2022-09-25T08:28:19Z</time>
      </trkpt>
      <trkpt lat="44.77255" lon="0.42901">
        <ele>102</ele>
        <time>2022-09-25T08:28:28Z</time>
      </trkpt>
      <trkpt lat="44.77261" lon="0.42846">
        <ele>104.1</ele>
        <time>2022-09-25T08:28:39Z</time>
      </trkpt>
      <trkpt lat="44.77272" lon="0.42799">
        <ele>105</ele>
        <time>2022-09-25T08:28:48Z</time>
      </trkpt>
      <trkpt lat="44.77292" lon="0.42759">
        <ele>104.6</ele>
        <time>2022-09-25T08:28:56Z</time>
      </trkpt>
      <trkpt lat="44.77315" lon="0.42712">
        <ele>103.5</ele>
        <time>2022-09-25T08:29:04Z</time>
      </trkpt>
      <trkpt lat="44.77338" lon="0.42675">
        <ele>102.1</ele>
        <time>2022-09-25T08:29:10Z</time>
      </trkpt>
      <trkpt lat="44.77347" lon="0.42664">
        <ele>101.6</ele>
        <time>2022-09-25T08:29:12Z</time>
      </trkpt>
      <trkpt lat="44.77356" lon="0.42654">
        <ele>101</ele>
        <time>2022-09-25T08:29:14Z</time>
      </trkpt>
      <trkpt lat="44.77362" lon="0.42649">
        <ele>100.6</ele>
        <time>2022-09-25T08:29:15Z</time>
      </trkpt>
      <trkpt lat="44.77386" lon="0.42633">
        <ele>99.4</ele>
        <time>2022-09-25T08:29:19Z</time>
      </trkpt>
      <trkpt lat="44.77392" lon="0.42629">
        <ele>99.2</ele>
        <time>2022-09-25T08:29:20Z</time>
      </trkpt>
      <trkpt lat="44.77403" lon="0.42623">
        <ele>98.7</ele>
        <time>2022-09-25T08:29:22Z</time>
      </trkpt>
      <trkpt lat="44.77407" lon="0.4262">
        <ele>98.6</ele>
        <time>2022-09-25T08:29:23Z</time>
      </trkpt>
      <trkpt lat="44.77414" lon="0.42616">
        <ele>98.2</ele>
        <time>2022-09-25T08:29:26Z</time>
      </trkpt>
      <trkpt lat="44.77419" lon="0.42623">
        <ele>98.5</ele>
        <time>2022-09-25T08:29:29Z</time>
      </trkpt>
      <trkpt lat="44.77421" lon="0.42621">
        <ele>98.5</ele>
        <time>2022-09-25T08:29:30Z</time>
      </trkpt>
      <trkpt lat="44.77424" lon="0.42628">
        <ele>99.3</ele>
        <time>2022-09-25T08:29:33Z</time>
      </trkpt>
      <trkpt lat="44.77427" lon="0.42634">
        <ele>99.3</ele>
        <time>2022-09-25T08:29:35Z</time>
      </trkpt>
      <trkpt lat="44.7743" lon="0.42638">
        <ele>99.4</ele>
        <time>2022-09-25T08:29:37Z</time>
      </trkpt>
      <trkpt lat="44.77433" lon="0.4264">
        <ele>99.4</ele>
        <time>2022-09-25T08:29:38Z</time>
      </trkpt>
      <trkpt lat="44.77433" lon="0.42644">
        <ele>100</ele>
        <time>2022-09-25T08:29:40Z</time>
      </trkpt>
      <trkpt lat="44.77435" lon="0.42649">
        <ele>100</ele>
        <time>2022-09-25T08:29:42Z</time>
      </trkpt>
      <trkpt lat="44.77437" lon="0.42654">
        <ele>100</ele>
        <time>2022-09-25T08:29:44Z</time>
      </trkpt>
      <trkpt lat="44.77439" lon="0.42655">
        <ele>100</ele>
        <time>2022-09-25T08:29:45Z</time>
      </trkpt>
      <trkpt lat="44.77442" lon="0.42663">
        <ele>100.4</ele>
        <time>2022-09-25T08:29:48Z</time>
      </trkpt>
      <trkpt lat="44.77445" lon="0.42671">
        <ele>100.4</ele>
        <time>2022-09-25T08:29:51Z</time>
      </trkpt>
      <trkpt lat="44.77449" lon="0.42672">
        <ele>100.4</ele>
        <time>2022-09-25T08:29:53Z</time>
      </trkpt>
      <trkpt lat="44.77455" lon="0.4267">
        <ele>100.3</ele>
        <time>2022-09-25T08:29:57Z</time>
      </trkpt>
      <trkpt lat="44.77457" lon="0.42668">
        <ele>100.3</ele>
        <time>2022-09-25T08:29:58Z</time>
      </trkpt>
      <trkpt lat="44.77459" lon="0.42663">
        <ele>100.3</ele>
        <time>2022-09-25T08:30:01Z</time>
      </trkpt>
      <trkpt lat="44.77461" lon="0.4266">
        <ele>100.3</ele>
        <time>2022-09-25T08:30:03Z</time>
      </trkpt>
      <trkpt lat="44.77469" lon="0.42656">
        <ele>99.1</ele>
        <time>2022-09-25T08:30:05Z</time>
      </trkpt>
      <trkpt lat="44.77481" lon="0.42652">
        <ele>98.4</ele>
        <time>2022-09-25T08:30:09Z</time>
      </trkpt>
      <trkpt lat="44.77482" lon="0.42654">
        <ele>98.4</ele>
        <time>2022-09-25T08:30:10Z</time>
      </trkpt>
      <trkpt lat="44.77489" lon="0.42657">
        <ele>98.4</ele>
        <time>2022-09-25T08:30:12Z</time>
      </trkpt>
      <trkpt lat="44.77499" lon="0.42665">
        <ele>99</ele>
        <time>2022-09-25T08:30:16Z</time>
      </trkpt>
      <trkpt lat="44.77503" lon="0.42665">
        <ele>98</ele>
        <time>2022-09-25T08:30:17Z</time>
      </trkpt>
      <trkpt lat="44.77504" lon="0.42669">
        <ele>98</ele>
        <time>2022-09-25T08:30:18Z</time>
      </trkpt>
      <trkpt lat="44.77505" lon="0.42673">
        <ele>98</ele>
        <time>2022-09-25T08:30:20Z</time>
      </trkpt>
      <trkpt lat="44.7751" lon="0.42672">
        <ele>98.1</ele>
        <time>2022-09-25T08:30:22Z</time>
      </trkpt>
      <trkpt lat="44.77512" lon="0.42678">
        <ele>99.3</ele>
        <time>2022-09-25T08:30:24Z</time>
      </trkpt>
      <trkpt lat="44.77517" lon="0.42689">
        <ele>98.5</ele>
        <time>2022-09-25T08:30:29Z</time>
      </trkpt>
      <trkpt lat="44.77516" lon="0.42695">
        <ele>99.9</ele>
        <time>2022-09-25T08:30:32Z</time>
      </trkpt>
      <trkpt lat="44.77512" lon="0.42704">
        <ele>100.6</ele>
        <time>2022-09-25T08:30:36Z</time>
      </trkpt>
      <trkpt lat="44.77512" lon="0.42706">
        <ele>100.6</ele>
        <time>2022-09-25T08:30:37Z</time>
      </trkpt>
      <trkpt lat="44.77512" lon="0.42712">
        <ele>101.5</ele>
        <time>2022-09-25T08:30:39Z</time>
      </trkpt>
      <trkpt lat="44.77512" lon="0.42716">
        <ele>101.5</ele>
        <time>2022-09-25T08:30:40Z</time>
      </trkpt>
      <trkpt lat="44.77513" lon="0.42723">
        <ele>101.5</ele>
        <time>2022-09-25T08:30:43Z</time>
      </trkpt>
      <trkpt lat="44.77513" lon="0.42727">
        <ele>102.4</ele>
        <time>2022-09-25T08:30:44Z</time>
      </trkpt>
      <trkpt lat="44.77514" lon="0.42735">
        <ele>102.2</ele>
        <time>2022-09-25T08:30:48Z</time>
      </trkpt>
      <trkpt lat="44.77514" lon="0.4274">
        <ele>102.2</ele>
        <time>2022-09-25T08:30:50Z</time>
      </trkpt>
      <trkpt lat="44.77515" lon="0.42744">
        <ele>103.4</ele>
        <time>2022-09-25T08:30:52Z</time>
      </trkpt>
      <trkpt lat="44.7752" lon="0.42757">
        <ele>103.4</ele>
        <time>2022-09-25T08:30:57Z</time>
      </trkpt>
      <trkpt lat="44.77524" lon="0.42768">
        <ele>104.4</ele>
        <time>2022-09-25T08:31:02Z</time>
      </trkpt>
      <trkpt lat="44.77528" lon="0.42778">
        <ele>105.4</ele>
        <time>2022-09-25T08:31:06Z</time>
      </trkpt>
      <trkpt lat="44.77529" lon="0.4278">
        <ele>105.5</ele>
        <time>2022-09-25T08:31:07Z</time>
      </trkpt>
      <trkpt lat="44.77536" lon="0.42795">
        <ele>105.5</ele>
        <time>2022-09-25T08:31:12Z</time>
      </trkpt>
      <trkpt lat="44.77537" lon="0.42799">
        <ele>106.3</ele>
        <time>2022-09-25T08:31:14Z</time>
      </trkpt>
      <trkpt lat="44.77539" lon="0.42804">
        <ele>106.4</ele>
        <time>2022-09-25T08:31:16Z</time>
      </trkpt>
      <trkpt lat="44.7754" lon="0.42805">
        <ele>106.5</ele>
        <time>2022-09-25T08:31:17Z</time>
      </trkpt>
      <trkpt lat="44.77547" lon="0.42811">
        <ele>106.5</ele>
        <time>2022-09-25T08:31:19Z</time>
      </trkpt>
      <trkpt lat="44.77548" lon="0.42814">
        <ele>107.4</ele>
        <time>2022-09-25T08:31:20Z</time>
      </trkpt>
      <trkpt lat="44.77561" lon="0.42825">
        <ele>107.6</ele>
        <time>2022-09-25T08:31:25Z</time>
      </trkpt>
      <trkpt lat="44.77565" lon="0.42827">
        <ele>107.7</ele>
        <time>2022-09-25T08:31:27Z</time>
      </trkpt>
      <trkpt lat="44.77568" lon="0.42832">
        <ele>108.2</ele>
        <time>2022-09-25T08:31:29Z</time>
      </trkpt>
      <trkpt lat="44.77576" lon="0.42841">
        <ele>108.1</ele>
        <time>2022-09-25T08:31:33Z</time>
      </trkpt>
      <trkpt lat="44.77586" lon="0.42849">
        <ele>108.2</ele>
        <time>2022-09-25T08:31:38Z</time>
      </trkpt>
      <trkpt lat="44.77589" lon="0.42858">
        <ele>107.9</ele>
        <time>2022-09-25T08:31:41Z</time>
      </trkpt>
      <trkpt lat="44.77591" lon="0.42864">
        <ele>108.1</ele>
        <time>2022-09-25T08:31:44Z</time>
      </trkpt>
      <trkpt lat="44.77592" lon="0.42867">
        <ele>108.2</ele>
        <time>2022-09-25T08:31:45Z</time>
      </trkpt>
      <trkpt lat="44.77591" lon="0.42868">
        <ele>108.2</ele>
        <time>2022-09-25T08:31:46Z</time>
      </trkpt>
      <trkpt lat="44.7759" lon="0.42871">
        <ele>108.2</ele>
        <time>2022-09-25T08:31:49Z</time>
      </trkpt>
      <trkpt lat="44.77588" lon="0.42885">
        <ele>108.3</ele>
        <time>2022-09-25T08:31:54Z</time>
      </trkpt>
      <trkpt lat="44.77593" lon="0.42892">
        <ele>108.3</ele>
        <time>2022-09-25T08:31:57Z</time>
      </trkpt>
      <trkpt lat="44.77596" lon="0.42896">
        <ele>108.3</ele>
        <time>2022-09-25T08:31:59Z</time>
      </trkpt>
      <trkpt lat="44.77599" lon="0.42894">
        <ele>108.1</ele>
        <time>2022-09-25T08:32:01Z</time>
      </trkpt>
      <trkpt lat="44.77612" lon="0.42899">
        <ele>107.9</ele>
        <time>2022-09-25T08:32:05Z</time>
      </trkpt>
      <trkpt lat="44.77634" lon="0.42904">
        <ele>107.4</ele>
        <time>2022-09-25T08:32:12Z</time>
      </trkpt>
      <trkpt lat="44.77655" lon="0.42905">
        <ele>105.5</ele>
        <time>2022-09-25T08:32:18Z</time>
      </trkpt>
      <trkpt lat="44.77687" lon="0.42916">
        <ele>102.4</ele>
        <time>2022-09-25T08:32:26Z</time>
      </trkpt>
      <trkpt lat="44.77721" lon="0.42929">
        <ele>97.9</ele>
        <time>2022-09-25T08:32:33Z</time>
      </trkpt>
      <trkpt lat="44.77739" lon="0.42935">
        <ele>97.6</ele>
        <time>2022-09-25T08:32:36Z</time>
      </trkpt>
      <trkpt lat="44.77751" lon="0.4294">
        <ele>96.9</ele>
        <time>2022-09-25T08:32:38Z</time>
      </trkpt>
      <trkpt lat="44.77762" lon="0.42945">
        <ele>96.6</ele>
        <time>2022-09-25T08:32:40Z</time>
      </trkpt>
      <trkpt lat="44.77774" lon="0.42945">
        <ele>96.2</ele>
        <time>2022-09-25T08:32:42Z</time>
      </trkpt>
      <trkpt lat="44.77781" lon="0.42932">
        <ele>95.3</ele>
        <time>2022-09-25T08:32:44Z</time>
      </trkpt>
      <trkpt lat="44.77787" lon="0.42924">
        <ele>94.8</ele>
        <time>2022-09-25T08:32:46Z</time>
      </trkpt>
      <trkpt lat="44.7779" lon="0.42926">
        <ele>94.8</ele>
        <time>2022-09-25T08:32:47Z</time>
      </trkpt>
      <trkpt lat="44.77792" lon="0.42929">
        <ele>94.8</ele>
        <time>2022-09-25T08:32:48Z</time>
      </trkpt>
      <trkpt lat="44.77798" lon="0.42936">
        <ele>95.3</ele>
        <time>2022-09-25T08:32:51Z</time>
      </trkpt>
      <trkpt lat="44.77813" lon="0.4295">
        <ele>94.9</ele>
        <time>2022-09-25T08:32:57Z</time>
      </trkpt>
      <trkpt lat="44.77831" lon="0.42964">
        <ele>95.4</ele>
        <time>2022-09-25T08:33:04Z</time>
      </trkpt>
      <trkpt lat="44.77846" lon="0.42977">
        <ele>96.7</ele>
        <time>2022-09-25T08:33:11Z</time>
      </trkpt>
      <trkpt lat="44.77863" lon="0.4299">
        <ele>97.9</ele>
        <time>2022-09-25T08:33:19Z</time>
      </trkpt>
      <trkpt lat="44.77871" lon="0.42995">
        <ele>97.9</ele>
        <time>2022-09-25T08:33:23Z</time>
      </trkpt>
      <trkpt lat="44.77874" lon="0.42989">
        <ele>97.9</ele>
        <time>2022-09-25T08:33:25Z</time>
      </trkpt>
      <trkpt lat="44.77882" lon="0.42966">
        <ele>96.7</ele>
        <time>2022-09-25T08:33:30Z</time>
      </trkpt>
      <trkpt lat="44.77891" lon="0.42938">
        <ele>96</ele>
        <time>2022-09-25T08:33:35Z</time>
      </trkpt>
      <trkpt lat="44.77895" lon="0.42925">
        <ele>95.4</ele>
        <time>2022-09-25T08:33:37Z</time>
      </trkpt>
      <trkpt lat="44.7791" lon="0.42874">
        <ele>94</ele>
        <time>2022-09-25T08:33:43Z</time>
      </trkpt>
      <trkpt lat="44.77922" lon="0.42823">
        <ele>91.7</ele>
        <time>2022-09-25T08:33:48Z</time>
      </trkpt>
      <trkpt lat="44.77925" lon="0.42795">
        <ele>91.2</ele>
        <time>2022-09-25T08:33:52Z</time>
      </trkpt>
      <trkpt lat="44.77919" lon="0.42773">
        <ele>91.2</ele>
        <time>2022-09-25T08:33:55Z</time>
      </trkpt>
      <trkpt lat="44.77922" lon="0.42757">
        <ele>91.3</ele>
        <time>2022-09-25T08:33:57Z</time>
      </trkpt>
      <trkpt lat="44.77928" lon="0.42745">
        <ele>91.4</ele>
        <time>2022-09-25T08:33:59Z</time>
      </trkpt>
      <trkpt lat="44.77935" lon="0.42749">
        <ele>91.4</ele>
        <time>2022-09-25T08:34:01Z</time>
      </trkpt>
      <trkpt lat="44.77936" lon="0.42752">
        <ele>91.4</ele>
        <time>2022-09-25T08:34:02Z</time>
      </trkpt>
      <trkpt lat="44.77942" lon="0.42756">
        <ele>91.5</ele>
        <time>2022-09-25T08:34:04Z</time>
      </trkpt>
      <trkpt lat="44.77948" lon="0.42763">
        <ele>91.4</ele>
        <time>2022-09-25T08:34:07Z</time>
      </trkpt>
      <trkpt lat="44.77949" lon="0.42766">
        <ele>91.4</ele>
        <time>2022-09-25T08:34:08Z</time>
      </trkpt>
      <trkpt lat="44.77952" lon="0.42775">
        <ele>91.4</ele>
        <time>2022-09-25T08:34:11Z</time>
      </trkpt>
      <trkpt lat="44.77952" lon="0.42779">
        <ele>91.6</ele>
        <time>2022-09-25T08:34:12Z</time>
      </trkpt>
      <trkpt lat="44.77956" lon="0.42793">
        <ele>91.6</ele>
        <time>2022-09-25T08:34:17Z</time>
      </trkpt>
      <trkpt lat="44.77959" lon="0.42796">
        <ele>91.5</ele>
        <time>2022-09-25T08:34:18Z</time>
      </trkpt>
      <trkpt lat="44.77961" lon="0.42801">
        <ele>91.6</ele>
        <time>2022-09-25T08:34:20Z</time>
      </trkpt>
      <trkpt lat="44.77965" lon="0.42813">
        <ele>91.6</ele>
        <time>2022-09-25T08:34:22Z</time>
      </trkpt>
      <trkpt lat="44.77968" lon="0.42816">
        <ele>91.6</ele>
        <time>2022-09-25T08:34:23Z</time>
      </trkpt>
      <trkpt lat="44.77972" lon="0.42816">
        <ele>91.6</ele>
        <time>2022-09-25T08:34:24Z</time>
      </trkpt>
      <trkpt lat="44.77977" lon="0.42818">
        <ele>91.5</ele>
        <time>2022-09-25T08:34:26Z</time>
      </trkpt>
      <trkpt lat="44.77981" lon="0.42828">
        <ele>91.6</ele>
        <time>2022-09-25T08:34:29Z</time>
      </trkpt>
      <trkpt lat="44.77986" lon="0.42836">
        <ele>91.8</ele>
        <time>2022-09-25T08:34:31Z</time>
      </trkpt>
      <trkpt lat="44.77991" lon="0.42843">
        <ele>91.7</ele>
        <time>2022-09-25T08:34:33Z</time>
      </trkpt>
      <trkpt lat="44.77996" lon="0.42844">
        <ele>91.7</ele>
        <time>2022-09-25T08:34:34Z</time>
      </trkpt>
      <trkpt lat="44.78004" lon="0.42847">
        <ele>91.8</ele>
        <time>2022-09-25T08:34:36Z</time>
      </trkpt>
      <trkpt lat="44.78012" lon="0.42855">
        <ele>91.9</ele>
        <time>2022-09-25T08:34:39Z</time>
      </trkpt>
      <trkpt lat="44.78013" lon="0.42858">
        <ele>91.9</ele>
        <time>2022-09-25T08:34:40Z</time>
      </trkpt>
      <trkpt lat="44.78014" lon="0.42875">
        <ele>91.9</ele>
        <time>2022-09-25T08:34:44Z</time>
      </trkpt>
      <trkpt lat="44.78015" lon="0.42885">
        <ele>92.3</ele>
        <time>2022-09-25T08:34:47Z</time>
      </trkpt>
      <trkpt lat="44.78017" lon="0.42889">
        <ele>92.3</ele>
        <time>2022-09-25T08:34:48Z</time>
      </trkpt>
      <trkpt lat="44.78021" lon="0.42894">
        <ele>92.4</ele>
        <time>2022-09-25T08:34:50Z</time>
      </trkpt>
      <trkpt lat="44.78027" lon="0.42897">
        <ele>91.8</ele>
        <time>2022-09-25T08:34:52Z</time>
      </trkpt>
      <trkpt lat="44.78033" lon="0.42902">
        <ele>92.1</ele>
        <time>2022-09-25T08:34:55Z</time>
      </trkpt>
      <trkpt lat="44.78035" lon="0.42906">
        <ele>92.2</ele>
        <time>2022-09-25T08:34:56Z</time>
      </trkpt>
      <trkpt lat="44.78038" lon="0.42916">
        <ele>91.9</ele>
        <time>2022-09-25T08:34:59Z</time>
      </trkpt>
      <trkpt lat="44.78041" lon="0.4292">
        <ele>92</ele>
        <time>2022-09-25T08:35:00Z</time>
      </trkpt>
      <trkpt lat="44.78045" lon="0.42932">
        <ele>92</ele>
        <time>2022-09-25T08:35:04Z</time>
      </trkpt>
      <trkpt lat="44.78045" lon="0.42938">
        <ele>92.2</ele>
        <time>2022-09-25T08:35:07Z</time>
      </trkpt>
      <trkpt lat="44.78045" lon="0.42938">
        <ele>92.3</ele>
        <time>2022-09-25T08:35:08Z</time>
      </trkpt>
      <trkpt lat="44.78045" lon="0.42946">
        <ele>92.3</ele>
        <time>2022-09-25T08:35:10Z</time>
      </trkpt>
      <trkpt lat="44.78047" lon="0.42954">
        <ele>92.5</ele>
        <time>2022-09-25T08:35:12Z</time>
      </trkpt>
      <trkpt lat="44.78048" lon="0.42965">
        <ele>92.5</ele>
        <time>2022-09-25T08:35:15Z</time>
      </trkpt>
      <trkpt lat="44.78054" lon="0.42971">
        <ele>91.8</ele>
        <time>2022-09-25T08:35:17Z</time>
      </trkpt>
      <trkpt lat="44.7806" lon="0.42981">
        <ele>91.8</ele>
        <time>2022-09-25T08:35:20Z</time>
      </trkpt>
      <trkpt lat="44.78066" lon="0.42989">
        <ele>91</ele>
        <time>2022-09-25T08:35:24Z</time>
      </trkpt>
      <trkpt lat="44.78074" lon="0.42995">
        <ele>91</ele>
        <time>2022-09-25T08:35:29Z</time>
      </trkpt>
      <trkpt lat="44.78077" lon="0.42997">
        <ele>90.7</ele>
        <time>2022-09-25T08:35:31Z</time>
      </trkpt>
      <trkpt lat="44.78082" lon="0.43001">
        <ele>90.7</ele>
        <time>2022-09-25T08:35:34Z</time>
      </trkpt>
      <trkpt lat="44.78092" lon="0.43">
        <ele>90.6</ele>
        <time>2022-09-25T08:35:38Z</time>
      </trkpt>
      <trkpt lat="44.78102" lon="0.42999">
        <ele>90.7</ele>
        <time>2022-09-25T08:35:41Z</time>
      </trkpt>
      <trkpt lat="44.78105" lon="0.43">
        <ele>90.7</ele>
        <time>2022-09-25T08:35:42Z</time>
      </trkpt>
      <trkpt lat="44.7811" lon="0.43003">
        <ele>90.5</ele>
        <time>2022-09-25T08:35:44Z</time>
      </trkpt>
      <trkpt lat="44.78117" lon="0.43008">
        <ele>90.7</ele>
        <time>2022-09-25T08:35:47Z</time>
      </trkpt>
      <trkpt lat="44.7813" lon="0.43016">
        <ele>91</ele>
        <time>2022-09-25T08:35:51Z</time>
      </trkpt>
      <trkpt lat="44.78131" lon="0.43023">
        <ele>90.8</ele>
        <time>2022-09-25T08:35:53Z</time>
      </trkpt>
      <trkpt lat="44.78135" lon="0.43029">
        <ele>90.8</ele>
        <time>2022-09-25T08:35:55Z</time>
      </trkpt>
      <trkpt lat="44.78139" lon="0.43032">
        <ele>91.2</ele>
        <time>2022-09-25T08:35:56Z</time>
      </trkpt>
      <trkpt lat="44.7814" lon="0.43039">
        <ele>90.9</ele>
        <time>2022-09-25T08:35:58Z</time>
      </trkpt>
      <trkpt lat="44.78148" lon="0.43046">
        <ele>91.2</ele>
        <time>2022-09-25T08:36:02Z</time>
      </trkpt>
      <trkpt lat="44.78149" lon="0.43047">
        <ele>91.3</ele>
        <time>2022-09-25T08:36:04Z</time>
      </trkpt>
      <trkpt lat="44.78156" lon="0.43038">
        <ele>91.3</ele>
        <time>2022-09-25T08:36:22Z</time>
      </trkpt>
      <trkpt lat="44.78158" lon="0.43038">
        <ele>91.3</ele>
        <time>2022-09-25T08:36:23Z</time>
      </trkpt>
      <trkpt lat="44.78162" lon="0.4304">
        <ele>91.7</ele>
        <time>2022-09-25T08:36:25Z</time>
      </trkpt>
      <trkpt lat="44.78167" lon="0.43045">
        <ele>91.7</ele>
        <time>2022-09-25T08:36:27Z</time>
      </trkpt>
      <trkpt lat="44.78178" lon="0.43053">
        <ele>91.5</ele>
        <time>2022-09-25T08:36:31Z</time>
      </trkpt>
      <trkpt lat="44.78184" lon="0.43056">
        <ele>91.5</ele>
        <time>2022-09-25T08:36:34Z</time>
      </trkpt>
      <trkpt lat="44.78186" lon="0.43058">
        <ele>91.7</ele>
        <time>2022-09-25T08:36:35Z</time>
      </trkpt>
      <trkpt lat="44.78198" lon="0.43062">
        <ele>91.8</ele>
        <time>2022-09-25T08:36:39Z</time>
      </trkpt>
      <trkpt lat="44.782" lon="0.43064">
        <ele>91.9</ele>
        <time>2022-09-25T08:36:40Z</time>
      </trkpt>
      <trkpt lat="44.78203" lon="0.43065">
        <ele>91.9</ele>
        <time>2022-09-25T08:36:41Z</time>
      </trkpt>
      <trkpt lat="44.78214" lon="0.43056">
        <ele>92</ele>
        <time>2022-09-25T08:36:45Z</time>
      </trkpt>
      <trkpt lat="44.78223" lon="0.43042">
        <ele>93.1</ele>
        <time>2022-09-25T08:36:49Z</time>
      </trkpt>
      <trkpt lat="44.78233" lon="0.43026">
        <ele>94.3</ele>
        <time>2022-09-25T08:36:54Z</time>
      </trkpt>
      <trkpt lat="44.78237" lon="0.43016">
        <ele>95.3</ele>
        <time>2022-09-25T08:36:58Z</time>
      </trkpt>
      <trkpt lat="44.78243" lon="0.43004">
        <ele>95.3</ele>
        <time>2022-09-25T08:37:02Z</time>
      </trkpt>
      <trkpt lat="44.78247" lon="0.42995">
        <ele>96.4</ele>
        <time>2022-09-25T08:37:05Z</time>
      </trkpt>
      <trkpt lat="44.7825" lon="0.42991">
        <ele>96.4</ele>
        <time>2022-09-25T08:37:06Z</time>
      </trkpt>
      <trkpt lat="44.78252" lon="0.42985">
        <ele>96.5</ele>
        <time>2022-09-25T08:37:08Z</time>
      </trkpt>
      <trkpt lat="44.78255" lon="0.42979">
        <ele>97.1</ele>
        <time>2022-09-25T08:37:10Z</time>
      </trkpt>
      <trkpt lat="44.78263" lon="0.42965">
        <ele>97.8</ele>
        <time>2022-09-25T08:37:14Z</time>
      </trkpt>
      <trkpt lat="44.78263" lon="0.4296">
        <ele>97.8</ele>
        <time>2022-09-25T08:37:15Z</time>
      </trkpt>
      <trkpt lat="44.7827" lon="0.42943">
        <ele>98.5</ele>
        <time>2022-09-25T08:37:18Z</time>
      </trkpt>
      <trkpt lat="44.78268" lon="0.42941">
        <ele>98.5</ele>
        <time>2022-09-25T08:37:22Z</time>
      </trkpt>
      <trkpt lat="44.78266" lon="0.42938">
        <ele>98.6</ele>
        <time>2022-09-25T08:37:23Z</time>
      </trkpt>
      <trkpt lat="44.78264" lon="0.42935">
        <ele>98.6</ele>
        <time>2022-09-25T08:37:24Z</time>
      </trkpt>
      <trkpt lat="44.78259" lon="0.42928">
        <ele>98.7</ele>
        <time>2022-09-25T08:37:27Z</time>
      </trkpt>
      <trkpt lat="44.78251" lon="0.42917">
        <ele>98.8</ele>
        <time>2022-09-25T08:37:31Z</time>
      </trkpt>
      <trkpt lat="44.78239" lon="0.42897">
        <ele>99.1</ele>
        <time>2022-09-25T08:37:37Z</time>
      </trkpt>
      <trkpt lat="44.78229" lon="0.42879">
        <ele>99.3</ele>
        <time>2022-09-25T08:37:42Z</time>
      </trkpt>
      <trkpt lat="44.78212" lon="0.42851">
        <ele>99.6</ele>
        <time>2022-09-25T08:37:49Z</time>
      </trkpt>
      <trkpt lat="44.78189" lon="0.42814">
        <ele>100.1</ele>
        <time>2022-09-25T08:37:58Z</time>
      </trkpt>
      <trkpt lat="44.78182" lon="0.42799">
        <ele>99.9</ele>
        <time>2022-09-25T08:38:01Z</time>
      </trkpt>
      <trkpt lat="44.78175" lon="0.42782">
        <ele>99.5</ele>
        <time>2022-09-25T08:38:04Z</time>
      </trkpt>
      <trkpt lat="44.78173" lon="0.42775">
        <ele>99.3</ele>
        <time>2022-09-25T08:38:05Z</time>
      </trkpt>
      <trkpt lat="44.78162" lon="0.42727">
        <ele>97.8</ele>
        <time>2022-09-25T08:38:11Z</time>
      </trkpt>
      <trkpt lat="44.7815" lon="0.42668">
        <ele>95.7</ele>
        <time>2022-09-25T08:38:18Z</time>
      </trkpt>
      <trkpt lat="44.78136" lon="0.42587">
        <ele>95.1</ele>
        <time>2022-09-25T08:38:27Z</time>
      </trkpt>
      <trkpt lat="44.78128" lon="0.42553">
        <ele>95.9</ele>
        <time>2022-09-25T08:38:32Z</time>
      </trkpt>
      <trkpt lat="44.78121" lon="0.42523">
        <ele>97.1</ele>
        <time>2022-09-25T08:38:38Z</time>
      </trkpt>
      <trkpt lat="44.78115" lon="0.42496">
        <ele>98.5</ele>
        <time>2022-09-25T08:38:45Z</time>
      </trkpt>
      <trkpt lat="44.7811" lon="0.42471">
        <ele>100</ele>
        <time>2022-09-25T08:38:52Z</time>
      </trkpt>
      <trkpt lat="44.78103" lon="0.4244">
        <ele>101.9</ele>
        <time>2022-09-25T08:39:01Z</time>
      </trkpt>
      <trkpt lat="44.78099" lon="0.4242">
        <ele>103.3</ele>
        <time>2022-09-25T08:39:07Z</time>
      </trkpt>
      <trkpt lat="44.78096" lon="0.42399">
        <ele>104.7</ele>
        <time>2022-09-25T08:39:13Z</time>
      </trkpt>
      <trkpt lat="44.78093" lon="0.42371">
        <ele>106.7</ele>
        <time>2022-09-25T08:39:22Z</time>
      </trkpt>
      <trkpt lat="44.78091" lon="0.42347">
        <ele>108.2</ele>
        <time>2022-09-25T08:39:30Z</time>
      </trkpt>
      <trkpt lat="44.78089" lon="0.42318">
        <ele>109.8</ele>
        <time>2022-09-25T08:39:39Z</time>
      </trkpt>
      <trkpt lat="44.78088" lon="0.42292">
        <ele>111</ele>
        <time>2022-09-25T08:39:47Z</time>
      </trkpt>
      <trkpt lat="44.7809" lon="0.42264">
        <ele>112.1</ele>
        <time>2022-09-25T08:39:56Z</time>
      </trkpt>
      <trkpt lat="44.78094" lon="0.42238">
        <ele>112.9</ele>
        <time>2022-09-25T08:40:04Z</time>
      </trkpt>
      <trkpt lat="44.78097" lon="0.42212">
        <ele>114</ele>
        <time>2022-09-25T08:40:12Z</time>
      </trkpt>
      <trkpt lat="44.78101" lon="0.42184">
        <ele>115.2</ele>
        <time>2022-09-25T08:40:21Z</time>
      </trkpt>
      <trkpt lat="44.78104" lon="0.42159">
        <ele>116.3</ele>
        <time>2022-09-25T08:40:29Z</time>
      </trkpt>
      <trkpt lat="44.78106" lon="0.4213">
        <ele>117.5</ele>
        <time>2022-09-25T08:40:38Z</time>
      </trkpt>
      <trkpt lat="44.78106" lon="0.42107">
        <ele>118.4</ele>
        <time>2022-09-25T08:40:45Z</time>
      </trkpt>
      <trkpt lat="44.78105" lon="0.42082">
        <ele>119.5</ele>
        <time>2022-09-25T08:40:53Z</time>
      </trkpt>
      <trkpt lat="44.78104" lon="0.42053">
        <ele>120.8</ele>
        <time>2022-09-25T08:41:02Z</time>
      </trkpt>
      <trkpt lat="44.78102" lon="0.42024">
        <ele>122.1</ele>
        <time>2022-09-25T08:41:11Z</time>
      </trkpt>
      <trkpt lat="44.78099" lon="0.41999">
        <ele>123.3</ele>
        <time>2022-09-25T08:41:19Z</time>
      </trkpt>
      <trkpt lat="44.78098" lon="0.41974">
        <ele>124.4</ele>
        <time>2022-09-25T08:41:27Z</time>
      </trkpt>
      <trkpt lat="44.78095" lon="0.41948">
        <ele>125.6</ele>
        <time>2022-09-25T08:41:35Z</time>
      </trkpt>
      <trkpt lat="44.78094" lon="0.41923">
        <ele>126.7</ele>
        <time>2022-09-25T08:41:43Z</time>
      </trkpt>
      <trkpt lat="44.78095" lon="0.41905">
        <ele>127.2</ele>
        <time>2022-09-25T08:41:49Z</time>
      </trkpt>
      <trkpt lat="44.78101" lon="0.41899">
        <ele>127.5</ele>
        <time>2022-09-25T08:41:51Z</time>
      </trkpt>
      <trkpt lat="44.78105" lon="0.41902">
        <ele>127.6</ele>
        <time>2022-09-25T08:41:53Z</time>
      </trkpt>
      <trkpt lat="44.78121" lon="0.41912">
        <ele>127.9</ele>
        <time>2022-09-25T08:42:00Z</time>
      </trkpt>
      <trkpt lat="44.78135" lon="0.41921">
        <ele>128.1</ele>
        <time>2022-09-25T08:42:06Z</time>
      </trkpt>
      <trkpt lat="44.78137" lon="0.41923">
        <ele>128.1</ele>
        <time>2022-09-25T08:42:07Z</time>
      </trkpt>
      <trkpt lat="44.78141" lon="0.41926">
        <ele>128.2</ele>
        <time>2022-09-25T08:42:10Z</time>
      </trkpt>
      <trkpt lat="44.78156" lon="0.41937">
        <ele>128.5</ele>
        <time>2022-09-25T08:42:16Z</time>
      </trkpt>
      <trkpt lat="44.78176" lon="0.41951">
        <ele>128.8</ele>
        <time>2022-09-25T08:42:24Z</time>
      </trkpt>
      <trkpt lat="44.78185" lon="0.41954">
        <ele>129</ele>
        <time>2022-09-25T08:42:28Z</time>
      </trkpt>
      <trkpt lat="44.78187" lon="0.41955">
        <ele>129</ele>
        <time>2022-09-25T08:42:29Z</time>
      </trkpt>
      <trkpt lat="44.78188" lon="0.41955">
        <ele>129.1</ele>
        <time>2022-09-25T08:42:30Z</time>
      </trkpt>
      <trkpt lat="44.78198" lon="0.41923">
        <ele>129.4</ele>
        <time>2022-09-25T08:42:34Z</time>
      </trkpt>
      <trkpt lat="44.78204" lon="0.41912">
        <ele>129.6</ele>
        <time>2022-09-25T08:42:40Z</time>
      </trkpt>
      <trkpt lat="44.78206" lon="0.41911">
        <ele>129.6</ele>
        <time>2022-09-25T08:42:41Z</time>
      </trkpt>
      <trkpt lat="44.78222" lon="0.41911">
        <ele>129.8</ele>
        <time>2022-09-25T08:42:48Z</time>
      </trkpt>
      <trkpt lat="44.78239" lon="0.4191">
        <ele>130</ele>
        <time>2022-09-25T08:42:55Z</time>
      </trkpt>
      <trkpt lat="44.78256" lon="0.4191">
        <ele>130.3</ele>
        <time>2022-09-25T08:43:01Z</time>
      </trkpt>
      <trkpt lat="44.78273" lon="0.41913">
        <ele>130.6</ele>
        <time>2022-09-25T08:43:06Z</time>
      </trkpt>
      <trkpt lat="44.7828" lon="0.41907">
        <ele>132.4</ele>
        <time>2022-09-25T08:43:11Z</time>
      </trkpt>
      <trkpt lat="44.78285" lon="0.41892">
        <ele>133.6</ele>
        <time>2022-09-25T08:43:18Z</time>
      </trkpt>
      <trkpt lat="44.78287" lon="0.41884">
        <ele>134.2</ele>
        <time>2022-09-25T08:43:22Z</time>
      </trkpt>
      <trkpt lat="44.78289" lon="0.4188">
        <ele>134.6</ele>
        <time>2022-09-25T08:43:24Z</time>
      </trkpt>
      <trkpt lat="44.78293" lon="0.41865">
        <ele>135.6</ele>
        <time>2022-09-25T08:43:31Z</time>
      </trkpt>
      <trkpt lat="44.783" lon="0.41847">
        <ele>136.4</ele>
        <time>2022-09-25T08:43:38Z</time>
      </trkpt>
      <trkpt lat="44.78314" lon="0.41836">
        <ele>137.3</ele>
        <time>2022-09-25T08:43:45Z</time>
      </trkpt>
      <trkpt lat="44.78326" lon="0.41825">
        <ele>138.1</ele>
        <time>2022-09-25T08:43:51Z</time>
      </trkpt>
      <trkpt lat="44.78345" lon="0.41808">
        <ele>139.2</ele>
        <time>2022-09-25T08:43:59Z</time>
      </trkpt>
      <trkpt lat="44.78366" lon="0.41789">
        <ele>140.4</ele>
        <time>2022-09-25T08:44:08Z</time>
      </trkpt>
      <trkpt lat="44.78383" lon="0.41774">
        <ele>141.4</ele>
        <time>2022-09-25T08:44:14Z</time>
      </trkpt>
      <trkpt lat="44.78404" lon="0.41755">
        <ele>142.5</ele>
        <time>2022-09-25T08:44:22Z</time>
      </trkpt>
      <trkpt lat="44.78428" lon="0.41741">
        <ele>143.8</ele>
        <time>2022-09-25T08:44:30Z</time>
      </trkpt>
      <trkpt lat="44.78452" lon="0.41727">
        <ele>144.6</ele>
        <time>2022-09-25T08:44:38Z</time>
      </trkpt>
      <trkpt lat="44.78476" lon="0.41713">
        <ele>144.9</ele>
        <time>2022-09-25T08:44:46Z</time>
      </trkpt>
      <trkpt lat="44.78498" lon="0.41704">
        <ele>145</ele>
        <time>2022-09-25T08:44:53Z</time>
      </trkpt>
      <trkpt lat="44.78522" lon="0.41706">
        <ele>145.8</ele>
        <time>2022-09-25T08:45:00Z</time>
      </trkpt>
      <trkpt lat="44.78549" lon="0.41715">
        <ele>146</ele>
        <time>2022-09-25T08:45:08Z</time>
      </trkpt>
      <trkpt lat="44.78572" lon="0.4173">
        <ele>146.7</ele>
        <time>2022-09-25T08:45:15Z</time>
      </trkpt>
      <trkpt lat="44.78596" lon="0.41745">
        <ele>147.3</ele>
        <time>2022-09-25T08:45:22Z</time>
      </trkpt>
      <trkpt lat="44.78602" lon="0.41749">
        <ele>146.7</ele>
        <time>2022-09-25T08:45:25Z</time>
      </trkpt>
      <trkpt lat="44.78602" lon="0.41749">
        <ele>146.2</ele>
        <time>2022-09-25T08:45:26Z</time>
      </trkpt>
      <trkpt lat="44.78612" lon="0.41724">
        <ele>145.3</ele>
        <time>2022-09-25T08:45:31Z</time>
      </trkpt>
      <trkpt lat="44.78618" lon="0.41693">
        <ele>145</ele>
        <time>2022-09-25T08:45:37Z</time>
      </trkpt>
      <trkpt lat="44.78616" lon="0.41688">
        <ele>144.5</ele>
        <time>2022-09-25T08:45:38Z</time>
      </trkpt>
      <trkpt lat="44.78611" lon="0.41676">
        <ele>144.2</ele>
        <time>2022-09-25T08:45:40Z</time>
      </trkpt>
      <trkpt lat="44.78596" lon="0.41668">
        <ele>143.6</ele>
        <time>2022-09-25T08:45:44Z</time>
      </trkpt>
      <trkpt lat="44.78591" lon="0.41661">
        <ele>143.5</ele>
        <time>2022-09-25T08:45:46Z</time>
      </trkpt>
      <trkpt lat="44.7859" lon="0.41649">
        <ele>143.3</ele>
        <time>2022-09-25T08:45:48Z</time>
      </trkpt>
      <trkpt lat="44.78592" lon="0.41636">
        <ele>143</ele>
        <time>2022-09-25T08:45:50Z</time>
      </trkpt>
      <trkpt lat="44.78599" lon="0.41577">
        <ele>142.2</ele>
        <time>2022-09-25T08:45:59Z</time>
      </trkpt>
      <trkpt lat="44.786" lon="0.41562">
        <ele>141.9</ele>
        <time>2022-09-25T08:46:01Z</time>
      </trkpt>
      <trkpt lat="44.78597" lon="0.41549">
        <ele>141.7</ele>
        <time>2022-09-25T08:46:03Z</time>
      </trkpt>
      <trkpt lat="44.78596" lon="0.41542">
        <ele>141.6</ele>
        <time>2022-09-25T08:46:04Z</time>
      </trkpt>
      <trkpt lat="44.78593" lon="0.41522">
        <ele>141.3</ele>
        <time>2022-09-25T08:46:07Z</time>
      </trkpt>
      <trkpt lat="44.78591" lon="0.41508">
        <ele>141</ele>
        <time>2022-09-25T08:46:09Z</time>
      </trkpt>
      <trkpt lat="44.7859" lon="0.41495">
        <ele>140.9</ele>
        <time>2022-09-25T08:46:11Z</time>
      </trkpt>
      <trkpt lat="44.78588" lon="0.4148">
        <ele>140.7</ele>
        <time>2022-09-25T08:46:13Z</time>
      </trkpt>
      <trkpt lat="44.78587" lon="0.41473">
        <ele>140.6</ele>
        <time>2022-09-25T08:46:14Z</time>
      </trkpt>
      <trkpt lat="44.78579" lon="0.41415">
        <ele>139.1</ele>
        <time>2022-09-25T08:46:22Z</time>
      </trkpt>
      <trkpt lat="44.7857" lon="0.41354">
        <ele>137.9</ele>
        <time>2022-09-25T08:46:30Z</time>
      </trkpt>
      <trkpt lat="44.78562" lon="0.41283">
        <ele>137.8</ele>
        <time>2022-09-25T08:46:39Z</time>
      </trkpt>
      <trkpt lat="44.78557" lon="0.41232">
        <ele>137.8</ele>
        <time>2022-09-25T08:46:46Z</time>
      </trkpt>
      <trkpt lat="44.78554" lon="0.41205">
        <ele>138.2</ele>
        <time>2022-09-25T08:46:50Z</time>
      </trkpt>
      <trkpt lat="44.78554" lon="0.41199">
        <ele>138.4</ele>
        <time>2022-09-25T08:46:52Z</time>
      </trkpt>
      <trkpt lat="44.78551" lon="0.41187">
        <ele>138.5</ele>
        <time>2022-09-25T08:46:54Z</time>
      </trkpt>
      <trkpt lat="44.78556" lon="0.41179">
        <ele>138.9</ele>
        <time>2022-09-25T08:46:55Z</time>
      </trkpt>
      <trkpt lat="44.78564" lon="0.41167">
        <ele>139.3</ele>
        <time>2022-09-25T08:46:59Z</time>
      </trkpt>
      <trkpt lat="44.78551" lon="0.41142">
        <ele>139.1</ele>
        <time>2022-09-25T08:47:03Z</time>
      </trkpt>
      <trkpt lat="44.78538" lon="0.41132">
        <ele>138.5</ele>
        <time>2022-09-25T08:47:07Z</time>
      </trkpt>
      <trkpt lat="44.78534" lon="0.4113">
        <ele>137.8</ele>
        <time>2022-09-25T08:47:08Z</time>
      </trkpt>
      <trkpt lat="44.78525" lon="0.41118">
        <ele>137.6</ele>
        <time>2022-09-25T08:47:11Z</time>
      </trkpt>
      <trkpt lat="44.78518" lon="0.41088">
        <ele>137.1</ele>
        <time>2022-09-25T08:47:17Z</time>
      </trkpt>
      <trkpt lat="44.78506" lon="0.4105">
        <ele>137.1</ele>
        <time>2022-09-25T08:47:25Z</time>
      </trkpt>
      <trkpt lat="44.78497" lon="0.41019">
        <ele>137.2</ele>
        <time>2022-09-25T08:47:32Z</time>
      </trkpt>
      <trkpt lat="44.78494" lon="0.40987">
        <ele>137.2</ele>
        <time>2022-09-25T08:47:39Z</time>
      </trkpt>
      <trkpt lat="44.78494" lon="0.40945">
        <ele>137.3</ele>
        <time>2022-09-25T08:47:48Z</time>
      </trkpt>
      <trkpt lat="44.78493" lon="0.40917">
        <ele>137.7</ele>
        <time>2022-09-25T08:47:54Z</time>
      </trkpt>
      <trkpt lat="44.7849" lon="0.40887">
        <ele>137.5</ele>
        <time>2022-09-25T08:48:00Z</time>
      </trkpt>
      <trkpt lat="44.78491" lon="0.40837">
        <ele>136.3</ele>
        <time>2022-09-25T08:48:10Z</time>
      </trkpt>
      <trkpt lat="44.78492" lon="0.40799">
        <ele>134.8</ele>
        <time>2022-09-25T08:48:17Z</time>
      </trkpt>
      <trkpt lat="44.78492" lon="0.40753">
        <ele>132.9</ele>
        <time>2022-09-25T08:48:24Z</time>
      </trkpt>
      <trkpt lat="44.78489" lon="0.4072">
        <ele>130.7</ele>
        <time>2022-09-25T08:48:28Z</time>
      </trkpt>
      <trkpt lat="44.78486" lon="0.40712">
        <ele>128.3</ele>
        <time>2022-09-25T08:48:29Z</time>
      </trkpt>
      <trkpt lat="44.78467" lon="0.40681">
        <ele>124.5</ele>
        <time>2022-09-25T08:48:34Z</time>
      </trkpt>
      <trkpt lat="44.78467" lon="0.40677">
        <ele>124.4</ele>
        <time>2022-09-25T08:48:35Z</time>
      </trkpt>
      <trkpt lat="44.78471" lon="0.40668">
        <ele>124.3</ele>
        <time>2022-09-25T08:48:37Z</time>
      </trkpt>
      <trkpt lat="44.78478" lon="0.40661">
        <ele>124.2</ele>
        <time>2022-09-25T08:48:39Z</time>
      </trkpt>
      <trkpt lat="44.78483" lon="0.40656">
        <ele>124.1</ele>
        <time>2022-09-25T08:48:40Z</time>
      </trkpt>
      <trkpt lat="44.78493" lon="0.40661">
        <ele>123.9</ele>
        <time>2022-09-25T08:48:42Z</time>
      </trkpt>
      <trkpt lat="44.78501" lon="0.40652">
        <ele>123.7</ele>
        <time>2022-09-25T08:48:44Z</time>
      </trkpt>
      <trkpt lat="44.78504" lon="0.40649">
        <ele>123.6</ele>
        <time>2022-09-25T08:48:45Z</time>
      </trkpt>
      <trkpt lat="44.78508" lon="0.40645">
        <ele>123.6</ele>
        <time>2022-09-25T08:48:46Z</time>
      </trkpt>
      <trkpt lat="44.78526" lon="0.40625">
        <ele>123.2</ele>
        <time>2022-09-25T08:48:51Z</time>
      </trkpt>
      <trkpt lat="44.78559" lon="0.40596">
        <ele>122.5</ele>
        <time>2022-09-25T08:48:58Z</time>
      </trkpt>
      <trkpt lat="44.78568" lon="0.4059">
        <ele>122.4</ele>
        <time>2022-09-25T08:49:00Z</time>
      </trkpt>
      <trkpt lat="44.78585" lon="0.40579">
        <ele>122</ele>
        <time>2022-09-25T08:49:04Z</time>
      </trkpt>
      <trkpt lat="44.7859" lon="0.40579">
        <ele>122</ele>
        <time>2022-09-25T08:49:05Z</time>
      </trkpt>
      <trkpt lat="44.786" lon="0.40579">
        <ele>121.8</ele>
        <time>2022-09-25T08:49:07Z</time>
      </trkpt>
      <trkpt lat="44.78605" lon="0.40579">
        <ele>122.4</ele>
        <time>2022-09-25T08:49:08Z</time>
      </trkpt>
      <trkpt lat="44.78608" lon="0.40579">
        <ele>123</ele>
        <time>2022-09-25T08:49:09Z</time>
      </trkpt>
      <trkpt lat="44.78609" lon="0.40543">
        <ele>122.9</ele>
        <time>2022-09-25T08:49:11Z</time>
      </trkpt>
      <trkpt lat="44.78607" lon="0.40508">
        <ele>123</ele>
        <time>2022-09-25T08:49:15Z</time>
      </trkpt>
      <trkpt lat="44.78605" lon="0.40444">
        <ele>121.2</ele>
        <time>2022-09-25T08:49:21Z</time>
      </trkpt>
      <trkpt lat="44.78599" lon="0.40395">
        <ele>119</ele>
        <time>2022-09-25T08:49:25Z</time>
      </trkpt>
      <trkpt lat="44.78592" lon="0.40373">
        <ele>117.9</ele>
        <time>2022-09-25T08:49:27Z</time>
      </trkpt>
      <trkpt lat="44.78589" lon="0.40365">
        <ele>118.4</ele>
        <time>2022-09-25T08:49:28Z</time>
      </trkpt>
      <trkpt lat="44.78588" lon="0.40357">
        <ele>118.2</ele>
        <time>2022-09-25T08:49:29Z</time>
      </trkpt>
      <trkpt lat="44.78583" lon="0.40345">
        <ele>118.5</ele>
        <time>2022-09-25T08:49:31Z</time>
      </trkpt>
      <trkpt lat="44.78602" lon="0.40305">
        <ele>117.5</ele>
        <time>2022-09-25T08:49:36Z</time>
      </trkpt>
      <trkpt lat="44.78622" lon="0.40264">
        <ele>116.6</ele>
        <time>2022-09-25T08:49:42Z</time>
      </trkpt>
      <trkpt lat="44.78628" lon="0.40253">
        <ele>116.3</ele>
        <time>2022-09-25T08:49:44Z</time>
      </trkpt>
      <trkpt lat="44.78634" lon="0.40244">
        <ele>116.1</ele>
        <time>2022-09-25T08:49:46Z</time>
      </trkpt>
      <trkpt lat="44.78638" lon="0.40238">
        <ele>116</ele>
        <time>2022-09-25T08:49:47Z</time>
      </trkpt>
      <trkpt lat="44.78641" lon="0.40232">
        <ele>115.9</ele>
        <time>2022-09-25T08:49:48Z</time>
      </trkpt>
      <trkpt lat="44.78653" lon="0.40213">
        <ele>115.6</ele>
        <time>2022-09-25T08:49:52Z</time>
      </trkpt>
      <trkpt lat="44.78655" lon="0.40209">
        <ele>115.6</ele>
        <time>2022-09-25T08:49:53Z</time>
      </trkpt>
      <trkpt lat="44.78665" lon="0.40192">
        <ele>115.1</ele>
        <time>2022-09-25T08:49:56Z</time>
      </trkpt>
      <trkpt lat="44.78686" lon="0.40159">
        <ele>114.7</ele>
        <time>2022-09-25T08:50:02Z</time>
      </trkpt>
      <trkpt lat="44.78714" lon="0.40121">
        <ele>114.3</ele>
        <time>2022-09-25T08:50:10Z</time>
      </trkpt>
      <trkpt lat="44.78731" lon="0.40107">
        <ele>114.3</ele>
        <time>2022-09-25T08:50:14Z</time>
      </trkpt>
      <trkpt lat="44.7874" lon="0.401">
        <ele>114.4</ele>
        <time>2022-09-25T08:50:16Z</time>
      </trkpt>
      <trkpt lat="44.78774" lon="0.40072">
        <ele>114.2</ele>
        <time>2022-09-25T08:50:24Z</time>
      </trkpt>
      <trkpt lat="44.78809" lon="0.40047">
        <ele>113.6</ele>
        <time>2022-09-25T08:50:32Z</time>
      </trkpt>
      <trkpt lat="44.78844" lon="0.40022">
        <ele>113.5</ele>
        <time>2022-09-25T08:50:40Z</time>
      </trkpt>
      <trkpt lat="44.7887" lon="0.39998">
        <ele>112.4</ele>
        <time>2022-09-25T08:50:46Z</time>
      </trkpt>
      <trkpt lat="44.78903" lon="0.39967">
        <ele>109.8</ele>
        <time>2022-09-25T08:50:52Z</time>
      </trkpt>
      <trkpt lat="44.78952" lon="0.39918">
        <ele>106.9</ele>
        <time>2022-09-25T08:51:01Z</time>
      </trkpt>
      <trkpt lat="44.78968" lon="0.39902">
        <ele>105.8</ele>
        <time>2022-09-25T08:51:04Z</time>
      </trkpt>
      <trkpt lat="44.78972" lon="0.39892">
        <ele>105.3</ele>
        <time>2022-09-25T08:51:05Z</time>
      </trkpt>
      <trkpt lat="44.78973" lon="0.39881">
        <ele>105</ele>
        <time>2022-09-25T08:51:06Z</time>
      </trkpt>
      <trkpt lat="44.78971" lon="0.39872">
        <ele>104.9</ele>
        <time>2022-09-25T08:51:07Z</time>
      </trkpt>
      <trkpt lat="44.78969" lon="0.39861">
        <ele>104.8</ele>
        <time>2022-09-25T08:51:08Z</time>
      </trkpt>
      <trkpt lat="44.78957" lon="0.39835">
        <ele>104.8</ele>
        <time>2022-09-25T08:51:11Z</time>
      </trkpt>
      <trkpt lat="44.78948" lon="0.39818">
        <ele>105.1</ele>
        <time>2022-09-25T08:51:13Z</time>
      </trkpt>
      <trkpt lat="44.78938" lon="0.39803">
        <ele>105.4</ele>
        <time>2022-09-25T08:51:15Z</time>
      </trkpt>
      <trkpt lat="44.78932" lon="0.39798">
        <ele>105.7</ele>
        <time>2022-09-25T08:51:16Z</time>
      </trkpt>
      <trkpt lat="44.78901" lon="0.3977">
        <ele>107.2</ele>
        <time>2022-09-25T08:51:22Z</time>
      </trkpt>
      <trkpt lat="44.78889" lon="0.3976">
        <ele>107.5</ele>
        <time>2022-09-25T08:51:25Z</time>
      </trkpt>
      <trkpt lat="44.78882" lon="0.39754">
        <ele>107.4</ele>
        <time>2022-09-25T08:51:27Z</time>
      </trkpt>
      <trkpt lat="44.78866" lon="0.3974">
        <ele>107.4</ele>
        <time>2022-09-25T08:51:34Z</time>
      </trkpt>
      <trkpt lat="44.78846" lon="0.39723">
        <ele>107.4</ele>
        <time>2022-09-25T08:51:38Z</time>
      </trkpt>
      <trkpt lat="44.78845" lon="0.39714">
        <ele>107.4</ele>
        <time>2022-09-25T08:51:41Z</time>
      </trkpt>
      <trkpt lat="44.78852" lon="0.39719">
        <ele>107.5</ele>
        <time>2022-09-25T08:51:44Z</time>
      </trkpt>
      <trkpt lat="44.78858" lon="0.39733">
        <ele>107.4</ele>
        <time>2022-09-25T08:51:47Z</time>
      </trkpt>
      <trkpt lat="44.78861" lon="0.39737">
        <ele>107.3</ele>
        <time>2022-09-25T08:51:48Z</time>
      </trkpt>
      <trkpt lat="44.78883" lon="0.39755">
        <ele>106.6</ele>
        <time>2022-09-25T08:51:53Z</time>
      </trkpt>
      <trkpt lat="44.78915" lon="0.39783">
        <ele>105.5</ele>
        <time>2022-09-25T08:51:59Z</time>
      </trkpt>
      <trkpt lat="44.78939" lon="0.39804">
        <ele>105</ele>
        <time>2022-09-25T08:52:04Z</time>
      </trkpt>
      <trkpt lat="44.78943" lon="0.39808">
        <ele>104.9</ele>
        <time>2022-09-25T08:52:05Z</time>
      </trkpt>
      <trkpt lat="44.7895" lon="0.39821">
        <ele>104.8</ele>
        <time>2022-09-25T08:52:07Z</time>
      </trkpt>
      <trkpt lat="44.78959" lon="0.3984">
        <ele>104.8</ele>
        <time>2022-09-25T08:52:10Z</time>
      </trkpt>
      <trkpt lat="44.78973" lon="0.39878">
        <ele>105</ele>
        <time>2022-09-25T08:52:16Z</time>
      </trkpt>
      <trkpt lat="44.78982" lon="0.39884">
        <ele>104.4</ele>
        <time>2022-09-25T08:52:18Z</time>
      </trkpt>
      <trkpt lat="44.78986" lon="0.39881">
        <ele>103.9</ele>
        <time>2022-09-25T08:52:19Z</time>
      </trkpt>
      <trkpt lat="44.79004" lon="0.39867">
        <ele>101.8</ele>
        <time>2022-09-25T08:52:22Z</time>
      </trkpt>
      <trkpt lat="44.7901" lon="0.39861">
        <ele>101</ele>
        <time>2022-09-25T08:52:23Z</time>
      </trkpt>
      <trkpt lat="44.79014" lon="0.39854">
        <ele>100.2</ele>
        <time>2022-09-25T08:52:24Z</time>
      </trkpt>
      <trkpt lat="44.79017" lon="0.39836">
        <ele>98.9</ele>
        <time>2022-09-25T08:52:26Z</time>
      </trkpt>
      <trkpt lat="44.79018" lon="0.39816">
        <ele>97.9</ele>
        <time>2022-09-25T08:52:28Z</time>
      </trkpt>
      <trkpt lat="44.79018" lon="0.39806">
        <ele>97.5</ele>
        <time>2022-09-25T08:52:29Z</time>
      </trkpt>
      <trkpt lat="44.79019" lon="0.39799">
        <ele>97.1</ele>
        <time>2022-09-25T08:52:30Z</time>
      </trkpt>
      <trkpt lat="44.79021" lon="0.39795">
        <ele>96.8</ele>
        <time>2022-09-25T08:52:31Z</time>
      </trkpt>
      <trkpt lat="44.7904" lon="0.39779">
        <ele>94.1</ele>
        <time>2022-09-25T08:52:35Z</time>
      </trkpt>
      <trkpt lat="44.79058" lon="0.39767">
        <ele>91.8</ele>
        <time>2022-09-25T08:52:38Z</time>
      </trkpt>
      <trkpt lat="44.79058" lon="0.39767">
        <ele>91.8</ele>
        <time>2022-09-25T08:52:40Z</time>
      </trkpt>
      <trkpt lat="44.7906" lon="0.39765">
        <ele>91.5</ele>
        <time>2022-09-25T08:53:08Z</time>
      </trkpt>
      <trkpt lat="44.79077" lon="0.39753">
        <ele>89.6</ele>
        <time>2022-09-25T08:53:12Z</time>
      </trkpt>
      <trkpt lat="44.79118" lon="0.39725">
        <ele>86.2</ele>
        <time>2022-09-25T08:53:18Z</time>
      </trkpt>
      <trkpt lat="44.79153" lon="0.39696">
        <ele>82.8</ele>
        <time>2022-09-25T08:53:23Z</time>
      </trkpt>
      <trkpt lat="44.79167" lon="0.39684">
        <ele>81.6</ele>
        <time>2022-09-25T08:53:25Z</time>
      </trkpt>
      <trkpt lat="44.79178" lon="0.39674">
        <ele>80.8</ele>
        <time>2022-09-25T08:53:27Z</time>
      </trkpt>
      <trkpt lat="44.79182" lon="0.39653">
        <ele>80.1</ele>
        <time>2022-09-25T08:53:30Z</time>
      </trkpt>
      <trkpt lat="44.79183" lon="0.39649">
        <ele>80.1</ele>
        <time>2022-09-25T08:53:31Z</time>
      </trkpt>
      <trkpt lat="44.79184" lon="0.39646">
        <ele>80.1</ele>
        <time>2022-09-25T08:53:33Z</time>
      </trkpt>
      <trkpt lat="44.7919" lon="0.3964">
        <ele>80.4</ele>
        <time>2022-09-25T08:53:48Z</time>
      </trkpt>
      <trkpt lat="44.79193" lon="0.39637">
        <ele>80.6</ele>
        <time>2022-09-25T08:53:50Z</time>
      </trkpt>
      <trkpt lat="44.79195" lon="0.39635">
        <ele>80.8</ele>
        <time>2022-09-25T08:53:53Z</time>
      </trkpt>
      <trkpt lat="44.79197" lon="0.39634">
        <ele>81</ele>
        <time>2022-09-25T08:53:55Z</time>
      </trkpt>
      <trkpt lat="44.79202" lon="0.3963">
        <ele>81.6</ele>
        <time>2022-09-25T08:53:58Z</time>
      </trkpt>
      <trkpt lat="44.79204" lon="0.39627">
        <ele>82</ele>
        <time>2022-09-25T08:54:00Z</time>
      </trkpt>
      <trkpt lat="44.79211" lon="0.39622">
        <ele>83.1</ele>
        <time>2022-09-25T08:54:04Z</time>
      </trkpt>
      <trkpt lat="44.79213" lon="0.39619">
        <ele>83.7</ele>
        <time>2022-09-25T08:54:06Z</time>
      </trkpt>
      <trkpt lat="44.79221" lon="0.39611">
        <ele>85.8</ele>
        <time>2022-09-25T08:54:12Z</time>
      </trkpt>
      <trkpt lat="44.79225" lon="0.39605">
        <ele>87.2</ele>
        <time>2022-09-25T08:54:16Z</time>
      </trkpt>
      <trkpt lat="44.79227" lon="0.39602">
        <ele>87.7</ele>
        <time>2022-09-25T08:54:18Z</time>
      </trkpt>
      <trkpt lat="44.79232" lon="0.39595">
        <ele>89.3</ele>
        <time>2022-09-25T08:54:24Z</time>
      </trkpt>
      <trkpt lat="44.79235" lon="0.39591">
        <ele>90</ele>
        <time>2022-09-25T08:54:27Z</time>
      </trkpt>
      <trkpt lat="44.79238" lon="0.39586">
        <ele>90.8</ele>
        <time>2022-09-25T08:54:30Z</time>
      </trkpt>
      <trkpt lat="44.79246" lon="0.39575">
        <ele>92.8</ele>
        <time>2022-09-25T08:54:39Z</time>
      </trkpt>
      <trkpt lat="44.79252" lon="0.39565">
        <ele>94.4</ele>
        <time>2022-09-25T08:54:46Z</time>
      </trkpt>
      <trkpt lat="44.79257" lon="0.39558">
        <ele>95.5</ele>
        <time>2022-09-25T08:54:52Z</time>
      </trkpt>
      <trkpt lat="44.79258" lon="0.39557">
        <ele>95.6</ele>
        <time>2022-09-25T08:54:53Z</time>
      </trkpt>
      <trkpt lat="44.79262" lon="0.3955">
        <ele>96.8</ele>
        <time>2022-09-25T08:54:59Z</time>
      </trkpt>
      <trkpt lat="44.79263" lon="0.39549">
        <ele>97</ele>
        <time>2022-09-25T08:55:00Z</time>
      </trkpt>
      <trkpt lat="44.79267" lon="0.39544">
        <ele>98</ele>
        <time>2022-09-25T08:55:05Z</time>
      </trkpt>
      <trkpt lat="44.79273" lon="0.39537">
        <ele>99.6</ele>
        <time>2022-09-25T08:55:12Z</time>
      </trkpt>
      <trkpt lat="44.79274" lon="0.39536">
        <ele>99.8</ele>
        <time>2022-09-25T08:55:15Z</time>
      </trkpt>
      <trkpt lat="44.79328" lon="0.39491">
        <ele>114</ele>
        <time>2022-09-25T08:56:23Z</time>
      </trkpt>
      <trkpt lat="44.7933" lon="0.39488">
        <ele>114.3</ele>
        <time>2022-09-25T08:56:25Z</time>
      </trkpt>
      <trkpt lat="44.79336" lon="0.39483">
        <ele>114.6</ele>
        <time>2022-09-25T08:56:31Z</time>
      </trkpt>
      <trkpt lat="44.79347" lon="0.39473">
        <ele>114.9</ele>
        <time>2022-09-25T08:56:38Z</time>
      </trkpt>
      <trkpt lat="44.79359" lon="0.39459">
        <ele>115.1</ele>
        <time>2022-09-25T08:56:45Z</time>
      </trkpt>
      <trkpt lat="44.79372" lon="0.39445">
        <ele>115.2</ele>
        <time>2022-09-25T08:56:52Z</time>
      </trkpt>
      <trkpt lat="44.79384" lon="0.39428">
        <ele>115.2</ele>
        <time>2022-09-25T08:56:59Z</time>
      </trkpt>
      <trkpt lat="44.79395" lon="0.39409">
        <ele>115.1</ele>
        <time>2022-09-25T08:57:06Z</time>
      </trkpt>
      <trkpt lat="44.79402" lon="0.39389">
        <ele>115.1</ele>
        <time>2022-09-25T08:57:12Z</time>
      </trkpt>
      <trkpt lat="44.79406" lon="0.39359">
        <ele>115.5</ele>
        <time>2022-09-25T08:57:20Z</time>
      </trkpt>
      <trkpt lat="44.79405" lon="0.39328">
        <ele>115.3</ele>
        <time>2022-09-25T08:57:25Z</time>
      </trkpt>
      <trkpt lat="44.79407" lon="0.3929">
        <ele>114.9</ele>
        <time>2022-09-25T08:57:32Z</time>
      </trkpt>
      <trkpt lat="44.79413" lon="0.3925">
        <ele>114.7</ele>
        <time>2022-09-25T08:57:39Z</time>
      </trkpt>
      <trkpt lat="44.79414" lon="0.39245">
        <ele>114.6</ele>
        <time>2022-09-25T08:57:40Z</time>
      </trkpt>
      <trkpt lat="44.79415" lon="0.39239">
        <ele>114.6</ele>
        <time>2022-09-25T08:57:41Z</time>
      </trkpt>
      <trkpt lat="44.79419" lon="0.39216">
        <ele>114.4</ele>
        <time>2022-09-25T08:57:45Z</time>
      </trkpt>
      <trkpt lat="44.7942" lon="0.3921">
        <ele>114.3</ele>
        <time>2022-09-25T08:57:46Z</time>
      </trkpt>
      <trkpt lat="44.79425" lon="0.39189">
        <ele>114.2</ele>
        <time>2022-09-25T08:57:50Z</time>
      </trkpt>
      <trkpt lat="44.79426" lon="0.3916">
        <ele>114.2</ele>
        <time>2022-09-25T08:57:55Z</time>
      </trkpt>
      <trkpt lat="44.79425" lon="0.39148">
        <ele>114.1</ele>
        <time>2022-09-25T08:57:57Z</time>
      </trkpt>
      <trkpt lat="44.79422" lon="0.39136">
        <ele>113.8</ele>
        <time>2022-09-25T08:57:59Z</time>
      </trkpt>
      <trkpt lat="44.79414" lon="0.39129">
        <ele>113.5</ele>
        <time>2022-09-25T08:58:01Z</time>
      </trkpt>
      <trkpt lat="44.79396" lon="0.39115">
        <ele>113.2</ele>
        <time>2022-09-25T08:58:05Z</time>
      </trkpt>
      <trkpt lat="44.79392" lon="0.3911">
        <ele>113.2</ele>
        <time>2022-09-25T08:58:06Z</time>
      </trkpt>
      <trkpt lat="44.79388" lon="0.39105">
        <ele>113.1</ele>
        <time>2022-09-25T08:58:07Z</time>
      </trkpt>
      <trkpt lat="44.79381" lon="0.39085">
        <ele>113</ele>
        <time>2022-09-25T08:58:10Z</time>
      </trkpt>
      <trkpt lat="44.79379" lon="0.39077">
        <ele>113</ele>
        <time>2022-09-25T08:58:13Z</time>
      </trkpt>
      <trkpt lat="44.79379" lon="0.39077">
        <ele>113</ele>
        <time>2022-09-25T08:58:15Z</time>
      </trkpt>
      <trkpt lat="44.79359" lon="0.39033">
        <ele>112.2</ele>
        <time>2022-09-25T08:58:19Z</time>
      </trkpt>
      <trkpt lat="44.79351" lon="0.39016">
        <ele>112.3</ele>
        <time>2022-09-25T08:58:22Z</time>
      </trkpt>
      <trkpt lat="44.79342" lon="0.38999">
        <ele>112.1</ele>
        <time>2022-09-25T08:58:25Z</time>
      </trkpt>
      <trkpt lat="44.79323" lon="0.38965">
        <ele>112.6</ele>
        <time>2022-09-25T08:58:31Z</time>
      </trkpt>
      <trkpt lat="44.79304" lon="0.38944">
        <ele>111.9</ele>
        <time>2022-09-25T08:58:36Z</time>
      </trkpt>
      <trkpt lat="44.79289" lon="0.38925">
        <ele>111.1</ele>
        <time>2022-09-25T08:58:40Z</time>
      </trkpt>
      <trkpt lat="44.79278" lon="0.38914">
        <ele>110.2</ele>
        <time>2022-09-25T08:58:43Z</time>
      </trkpt>
      <trkpt lat="44.7926" lon="0.38902">
        <ele>109.8</ele>
        <time>2022-09-25T08:58:46Z</time>
      </trkpt>
      <trkpt lat="44.79247" lon="0.38892">
        <ele>109.2</ele>
        <time>2022-09-25T08:58:48Z</time>
      </trkpt>
      <trkpt lat="44.79236" lon="0.38884">
        <ele>108.8</ele>
        <time>2022-09-25T08:58:50Z</time>
      </trkpt>
      <trkpt lat="44.79225" lon="0.38876">
        <ele>109.1</ele>
        <time>2022-09-25T08:58:52Z</time>
      </trkpt>
      <trkpt lat="44.79215" lon="0.38866">
        <ele>108.9</ele>
        <time>2022-09-25T08:58:54Z</time>
      </trkpt>
      <trkpt lat="44.79206" lon="0.38856">
        <ele>109.3</ele>
        <time>2022-09-25T08:58:56Z</time>
      </trkpt>
      <trkpt lat="44.792" lon="0.38846">
        <ele>109.5</ele>
        <time>2022-09-25T08:58:58Z</time>
      </trkpt>
      <trkpt lat="44.79193" lon="0.38832">
        <ele>109.4</ele>
        <time>2022-09-25T08:59:01Z</time>
      </trkpt>
      <trkpt lat="44.79187" lon="0.38818">
        <ele>109.3</ele>
        <time>2022-09-25T08:59:04Z</time>
      </trkpt>
      <trkpt lat="44.79173" lon="0.38788">
        <ele>109.1</ele>
        <time>2022-09-25T08:59:10Z</time>
      </trkpt>
      <trkpt lat="44.79163" lon="0.38766">
        <ele>109.2</ele>
        <time>2022-09-25T08:59:14Z</time>
      </trkpt>
      <trkpt lat="44.79158" lon="0.38754">
        <ele>109.2</ele>
        <time>2022-09-25T08:59:16Z</time>
      </trkpt>
      <trkpt lat="44.79154" lon="0.38742">
        <ele>108.9</ele>
        <time>2022-09-25T08:59:18Z</time>
      </trkpt>
      <trkpt lat="44.79152" lon="0.38736">
        <ele>108.8</ele>
        <time>2022-09-25T08:59:19Z</time>
      </trkpt>
      <trkpt lat="44.79147" lon="0.38718">
        <ele>108.4</ele>
        <time>2022-09-25T08:59:22Z</time>
      </trkpt>
      <trkpt lat="44.79147" lon="0.38705">
        <ele>107.8</ele>
        <time>2022-09-25T08:59:24Z</time>
      </trkpt>
      <trkpt lat="44.79148" lon="0.387">
        <ele>107.8</ele>
        <time>2022-09-25T08:59:25Z</time>
      </trkpt>
      <trkpt lat="44.7916" lon="0.3868">
        <ele>107.5</ele>
        <time>2022-09-25T08:59:30Z</time>
      </trkpt>
      <trkpt lat="44.79172" lon="0.38664">
        <ele>108.3</ele>
        <time>2022-09-25T08:59:35Z</time>
      </trkpt>
      <trkpt lat="44.79188" lon="0.38642">
        <ele>109.1</ele>
        <time>2022-09-25T08:59:41Z</time>
      </trkpt>
      <trkpt lat="44.79209" lon="0.38617">
        <ele>109.2</ele>
        <time>2022-09-25T08:59:48Z</time>
      </trkpt>
      <trkpt lat="44.79227" lon="0.38614">
        <ele>108.9</ele>
        <time>2022-09-25T08:59:52Z</time>
      </trkpt>
      <trkpt lat="44.79235" lon="0.38613">
        <ele>108.8</ele>
        <time>2022-09-25T08:59:54Z</time>
      </trkpt>
      <trkpt lat="44.79261" lon="0.38593">
        <ele>109.1</ele>
        <time>2022-09-25T09:00:01Z</time>
      </trkpt>
      <trkpt lat="44.79269" lon="0.38587">
        <ele>108.9</ele>
        <time>2022-09-25T09:00:03Z</time>
      </trkpt>
      <trkpt lat="44.79286" lon="0.38573">
        <ele>108.2</ele>
        <time>2022-09-25T09:00:07Z</time>
      </trkpt>
      <trkpt lat="44.79324" lon="0.38544">
        <ele>105.6</ele>
        <time>2022-09-25T09:00:15Z</time>
      </trkpt>
      <trkpt lat="44.79359" lon="0.38513">
        <ele>104.6</ele>
        <time>2022-09-25T09:00:23Z</time>
      </trkpt>
      <trkpt lat="44.79369" lon="0.38509">
        <ele>104.3</ele>
        <time>2022-09-25T09:00:25Z</time>
      </trkpt>
      <trkpt lat="44.79374" lon="0.38512">
        <ele>104.2</ele>
        <time>2022-09-25T09:00:26Z</time>
      </trkpt>
      <trkpt lat="44.79378" lon="0.38516">
        <ele>104.2</ele>
        <time>2022-09-25T09:00:27Z</time>
      </trkpt>
      <trkpt lat="44.79396" lon="0.38533">
        <ele>103.8</ele>
        <time>2022-09-25T09:00:31Z</time>
      </trkpt>
      <trkpt lat="44.79425" lon="0.38562">
        <ele>103.8</ele>
        <time>2022-09-25T09:00:38Z</time>
      </trkpt>
      <trkpt lat="44.79443" lon="0.38573">
        <ele>104.5</ele>
        <time>2022-09-25T09:00:43Z</time>
      </trkpt>
      <trkpt lat="44.79458" lon="0.38581">
        <ele>105.9</ele>
        <time>2022-09-25T09:00:48Z</time>
      </trkpt>
      <trkpt lat="44.79476" lon="0.38589">
        <ele>107.4</ele>
        <time>2022-09-25T09:00:54Z</time>
      </trkpt>
      <trkpt lat="44.79491" lon="0.3858">
        <ele>108</ele>
        <time>2022-09-25T09:00:59Z</time>
      </trkpt>
      <trkpt lat="44.795" lon="0.38571">
        <ele>108.4</ele>
        <time>2022-09-25T09:01:03Z</time>
      </trkpt>
      <trkpt lat="44.795" lon="0.3857">
        <ele>108.4</ele>
        <time>2022-09-25T09:01:06Z</time>
      </trkpt>
      <trkpt lat="44.79504" lon="0.38568">
        <ele>108.4</ele>
        <time>2022-09-25T09:05:08Z</time>
      </trkpt>
      <trkpt lat="44.79505" lon="0.38566">
        <ele>108.4</ele>
        <time>2022-09-25T09:05:09Z</time>
      </trkpt>
      <trkpt lat="44.79507" lon="0.38564">
        <ele>108.3</ele>
        <time>2022-09-25T09:05:10Z</time>
      </trkpt>
      <trkpt lat="44.79511" lon="0.38558">
        <ele>108.2</ele>
        <time>2022-09-25T09:05:12Z</time>
      </trkpt>
      <trkpt lat="44.79522" lon="0.38546">
        <ele>108</ele>
        <time>2022-09-25T09:05:16Z</time>
      </trkpt>
      <trkpt lat="44.79534" lon="0.38531">
        <ele>107.9</ele>
        <time>2022-09-25T09:05:20Z</time>
      </trkpt>
      <trkpt lat="44.79546" lon="0.38521">
        <ele>107.9</ele>
        <time>2022-09-25T09:05:22Z</time>
      </trkpt>
      <trkpt lat="44.7955" lon="0.38529">
        <ele>108.5</ele>
        <time>2022-09-25T09:05:24Z</time>
      </trkpt>
      <trkpt lat="44.79552" lon="0.38533">
        <ele>108.7</ele>
        <time>2022-09-25T09:05:25Z</time>
      </trkpt>
      <trkpt lat="44.79567" lon="0.38562">
        <ele>110.1</ele>
        <time>2022-09-25T09:05:32Z</time>
      </trkpt>
      <trkpt lat="44.79587" lon="0.38599">
        <ele>111.5</ele>
        <time>2022-09-25T09:05:41Z</time>
      </trkpt>
      <trkpt lat="44.79598" lon="0.38616">
        <ele>111.9</ele>
        <time>2022-09-25T09:05:45Z</time>
      </trkpt>
      <trkpt lat="44.79603" lon="0.38625">
        <ele>112.1</ele>
        <time>2022-09-25T09:05:47Z</time>
      </trkpt>
      <trkpt lat="44.79612" lon="0.38639">
        <ele>112.5</ele>
        <time>2022-09-25T09:05:50Z</time>
      </trkpt>
      <trkpt lat="44.79618" lon="0.38648">
        <ele>112.7</ele>
        <time>2022-09-25T09:05:52Z</time>
      </trkpt>
      <trkpt lat="44.79637" lon="0.38675">
        <ele>113.3</ele>
        <time>2022-09-25T09:05:58Z</time>
      </trkpt>
      <trkpt lat="44.7964" lon="0.3868">
        <ele>113.4</ele>
        <time>2022-09-25T09:05:59Z</time>
      </trkpt>
      <trkpt lat="44.79648" lon="0.38694">
        <ele>113.6</ele>
        <time>2022-09-25T09:06:02Z</time>
      </trkpt>
      <trkpt lat="44.79659" lon="0.38721">
        <ele>114</ele>
        <time>2022-09-25T09:06:07Z</time>
      </trkpt>
      <trkpt lat="44.79664" lon="0.38732">
        <ele>114.1</ele>
        <time>2022-09-25T09:06:09Z</time>
      </trkpt>
      <trkpt lat="44.7967" lon="0.38747">
        <ele>114.3</ele>
        <time>2022-09-25T09:06:12Z</time>
      </trkpt>
      <trkpt lat="44.79688" lon="0.38791">
        <ele>115</ele>
        <time>2022-09-25T09:06:20Z</time>
      </trkpt>
      <trkpt lat="44.79702" lon="0.38821">
        <ele>115.5</ele>
        <time>2022-09-25T09:06:26Z</time>
      </trkpt>
      <trkpt lat="44.79711" lon="0.38841">
        <ele>115.8</ele>
        <time>2022-09-25T09:06:30Z</time>
      </trkpt>
      <trkpt lat="44.79712" lon="0.38843">
        <ele>115.8</ele>
        <time>2022-09-25T09:06:31Z</time>
      </trkpt>
      <trkpt lat="44.797" lon="0.38845">
        <ele>115.8</ele>
        <time>2022-09-25T09:06:34Z</time>
      </trkpt>
      <trkpt lat="44.79676" lon="0.38832">
        <ele>115.7</ele>
        <time>2022-09-25T09:06:41Z</time>
      </trkpt>
      <trkpt lat="44.79651" lon="0.38819">
        <ele>115.4</ele>
        <time>2022-09-25T09:06:47Z</time>
      </trkpt>
      <trkpt lat="44.79617" lon="0.38802">
        <ele>114.4</ele>
        <time>2022-09-25T09:06:55Z</time>
      </trkpt>
      <trkpt lat="44.79574" lon="0.3878">
        <ele>113.3</ele>
        <time>2022-09-25T09:07:04Z</time>
      </trkpt>
      <trkpt lat="44.79559" lon="0.3877">
        <ele>112.9</ele>
        <time>2022-09-25T09:07:06Z</time>
      </trkpt>
      <trkpt lat="44.79554" lon="0.38779">
        <ele>112.9</ele>
        <time>2022-09-25T09:07:08Z</time>
      </trkpt>
      <trkpt lat="44.79542" lon="0.388">
        <ele>112.9</ele>
        <time>2022-09-25T09:07:12Z</time>
      </trkpt>
      <trkpt lat="44.7953" lon="0.38822">
        <ele>113</ele>
        <time>2022-09-25T09:07:16Z</time>
      </trkpt>
      <trkpt lat="44.79521" lon="0.38839">
        <ele>113</ele>
        <time>2022-09-25T09:07:19Z</time>
      </trkpt>
      <trkpt lat="44.79496" lon="0.38884">
        <ele>113</ele>
        <time>2022-09-25T09:07:27Z</time>
      </trkpt>
      <trkpt lat="44.79474" lon="0.38926">
        <ele>113</ele>
        <time>2022-09-25T09:07:34Z</time>
      </trkpt>
      <trkpt lat="44.79455" lon="0.38963">
        <ele>113.1</ele>
        <time>2022-09-25T09:07:40Z</time>
      </trkpt>
      <trkpt lat="44.79434" lon="0.39004">
        <ele>113.1</ele>
        <time>2022-09-25T09:07:47Z</time>
      </trkpt>
      <trkpt lat="44.79432" lon="0.39008">
        <ele>113.1</ele>
        <time>2022-09-25T09:07:48Z</time>
      </trkpt>
      <trkpt lat="44.7943" lon="0.39012">
        <ele>113.1</ele>
        <time>2022-09-25T09:07:49Z</time>
      </trkpt>
      <trkpt lat="44.7943" lon="0.39012">
        <ele>113.2</ele>
        <time>2022-09-25T09:07:50Z</time>
      </trkpt>
      <trkpt lat="44.7946" lon="0.39028">
        <ele>113.7</ele>
        <time>2022-09-25T09:07:55Z</time>
      </trkpt>
      <trkpt lat="44.79488" lon="0.39042">
        <ele>114.4</ele>
        <time>2022-09-25T09:08:03Z</time>
      </trkpt>
      <trkpt lat="44.79517" lon="0.39057">
        <ele>115.4</ele>
        <time>2022-09-25T09:08:11Z</time>
      </trkpt>
      <trkpt lat="44.79537" lon="0.39067">
        <ele>116.2</ele>
        <time>2022-09-25T09:08:17Z</time>
      </trkpt>
      <trkpt lat="44.79556" lon="0.39076">
        <ele>116.7</ele>
        <time>2022-09-25T09:08:23Z</time>
      </trkpt>
      <trkpt lat="44.79581" lon="0.39088">
        <ele>117.2</ele>
        <time>2022-09-25T09:08:31Z</time>
      </trkpt>
      <trkpt lat="44.79599" lon="0.39097">
        <ele>117.6</ele>
        <time>2022-09-25T09:08:37Z</time>
      </trkpt>
      <trkpt lat="44.79618" lon="0.39107">
        <ele>118</ele>
        <time>2022-09-25T09:08:43Z</time>
      </trkpt>
      <trkpt lat="44.79636" lon="0.39117">
        <ele>118.3</ele>
        <time>2022-09-25T09:08:49Z</time>
      </trkpt>
      <trkpt lat="44.79663" lon="0.39129">
        <ele>119</ele>
        <time>2022-09-25T09:08:55Z</time>
      </trkpt>
      <trkpt lat="44.79662" lon="0.39132">
        <ele>119</ele>
        <time>2022-09-25T09:08:56Z</time>
      </trkpt>
      <trkpt lat="44.79661" lon="0.39141">
        <ele>119.1</ele>
        <time>2022-09-25T09:08:58Z</time>
      </trkpt>
      <trkpt lat="44.79658" lon="0.39173">
        <ele>119.3</ele>
        <time>2022-09-25T09:09:04Z</time>
      </trkpt>
      <trkpt lat="44.79653" lon="0.39217">
        <ele>119.4</ele>
        <time>2022-09-25T09:09:12Z</time>
      </trkpt>
      <trkpt lat="44.79646" lon="0.39254">
        <ele>119.5</ele>
        <time>2022-09-25T09:09:19Z</time>
      </trkpt>
      <trkpt lat="44.79637" lon="0.39295">
        <ele>119.6</ele>
        <time>2022-09-25T09:09:27Z</time>
      </trkpt>
      <trkpt lat="44.79635" lon="0.393">
        <ele>119.5</ele>
        <time>2022-09-25T09:09:28Z</time>
      </trkpt>
      <trkpt lat="44.79626" lon="0.39328">
        <ele>119.5</ele>
        <time>2022-09-25T09:09:33Z</time>
      </trkpt>
      <trkpt lat="44.79616" lon="0.39362">
        <ele>119.5</ele>
        <time>2022-09-25T09:09:39Z</time>
      </trkpt>
      <trkpt lat="44.79612" lon="0.39375">
        <ele>119.5</ele>
        <time>2022-09-25T09:09:41Z</time>
      </trkpt>
      <trkpt lat="44.79597" lon="0.39418">
        <ele>119.6</ele>
        <time>2022-09-25T09:09:48Z</time>
      </trkpt>
      <trkpt lat="44.79584" lon="0.39455">
        <ele>119.4</ele>
        <time>2022-09-25T09:09:54Z</time>
      </trkpt>
      <trkpt lat="44.79579" lon="0.39468">
        <ele>119.2</ele>
        <time>2022-09-25T09:09:56Z</time>
      </trkpt>
      <trkpt lat="44.79584" lon="0.3948">
        <ele>119.8</ele>
        <time>2022-09-25T09:09:58Z</time>
      </trkpt>
      <trkpt lat="44.79593" lon="0.39485">
        <ele>120.7</ele>
        <time>2022-09-25T09:10:00Z</time>
      </trkpt>
      <trkpt lat="44.79597" lon="0.39488">
        <ele>121.2</ele>
        <time>2022-09-25T09:10:01Z</time>
      </trkpt>
      <trkpt lat="44.79599" lon="0.39494">
        <ele>121.3</ele>
        <time>2022-09-25T09:10:02Z</time>
      </trkpt>
      <trkpt lat="44.79601" lon="0.39508">
        <ele>120.8</ele>
        <time>2022-09-25T09:10:04Z</time>
      </trkpt>
      <trkpt lat="44.79608" lon="0.39561">
        <ele>119.2</ele>
        <time>2022-09-25T09:10:11Z</time>
      </trkpt>
      <trkpt lat="44.79613" lon="0.39615">
        <ele>118.7</ele>
        <time>2022-09-25T09:10:18Z</time>
      </trkpt>
      <trkpt lat="44.79613" lon="0.39623">
        <ele>118.6</ele>
        <time>2022-09-25T09:10:19Z</time>
      </trkpt>
      <trkpt lat="44.79615" lon="0.39668">
        <ele>117.9</ele>
        <time>2022-09-25T09:10:25Z</time>
      </trkpt>
      <trkpt lat="44.79612" lon="0.39722">
        <ele>117.6</ele>
        <time>2022-09-25T09:10:33Z</time>
      </trkpt>
      <trkpt lat="44.79612" lon="0.39736">
        <ele>117.5</ele>
        <time>2022-09-25T09:10:35Z</time>
      </trkpt>
      <trkpt lat="44.7961" lon="0.39762">
        <ele>117.4</ele>
        <time>2022-09-25T09:10:39Z</time>
      </trkpt>
      <trkpt lat="44.79605" lon="0.398">
        <ele>117.4</ele>
        <time>2022-09-25T09:10:45Z</time>
      </trkpt>
      <trkpt lat="44.79599" lon="0.39838">
        <ele>117.4</ele>
        <time>2022-09-25T09:10:52Z</time>
      </trkpt>
      <trkpt lat="44.79591" lon="0.39878">
        <ele>117.5</ele>
        <time>2022-09-25T09:11:00Z</time>
      </trkpt>
      <trkpt lat="44.79583" lon="0.39896">
        <ele>117.5</ele>
        <time>2022-09-25T09:11:04Z</time>
      </trkpt>
      <trkpt lat="44.79573" lon="0.39921">
        <ele>117.2</ele>
        <time>2022-09-25T09:11:09Z</time>
      </trkpt>
      <trkpt lat="44.79571" lon="0.39926">
        <ele>117.1</ele>
        <time>2022-09-25T09:11:10Z</time>
      </trkpt>
      <trkpt lat="44.7957" lon="0.39929">
        <ele>117</ele>
        <time>2022-09-25T09:11:11Z</time>
      </trkpt>
      <trkpt lat="44.7957" lon="0.3994">
        <ele>117.2</ele>
        <time>2022-09-25T09:11:13Z</time>
      </trkpt>
      <trkpt lat="44.79578" lon="0.39954">
        <ele>117.6</ele>
        <time>2022-09-25T09:11:17Z</time>
      </trkpt>
      <trkpt lat="44.79596" lon="0.39967">
        <ele>118</ele>
        <time>2022-09-25T09:11:22Z</time>
      </trkpt>
      <trkpt lat="44.79611" lon="0.39981">
        <ele>118.5</ele>
        <time>2022-09-25T09:11:27Z</time>
      </trkpt>
      <trkpt lat="44.79623" lon="0.4001">
        <ele>118.7</ele>
        <time>2022-09-25T09:11:33Z</time>
      </trkpt>
      <trkpt lat="44.79634" lon="0.40048">
        <ele>118.6</ele>
        <time>2022-09-25T09:11:40Z</time>
      </trkpt>
      <trkpt lat="44.79644" lon="0.40082">
        <ele>118.3</ele>
        <time>2022-09-25T09:11:46Z</time>
      </trkpt>
      <trkpt lat="44.79649" lon="0.401">
        <ele>118.1</ele>
        <time>2022-09-25T09:11:49Z</time>
      </trkpt>
      <trkpt lat="44.79653" lon="0.40119">
        <ele>117.9</ele>
        <time>2022-09-25T09:11:52Z</time>
      </trkpt>
      <trkpt lat="44.79662" lon="0.40141">
        <ele>117.5</ele>
        <time>2022-09-25T09:11:56Z</time>
      </trkpt>
      <trkpt lat="44.79665" lon="0.40145">
        <ele>117.4</ele>
        <time>2022-09-25T09:11:57Z</time>
      </trkpt>
      <trkpt lat="44.79669" lon="0.40149">
        <ele>117.2</ele>
        <time>2022-09-25T09:11:58Z</time>
      </trkpt>
      <trkpt lat="44.79679" lon="0.40155">
        <ele>116.9</ele>
        <time>2022-09-25T09:12:00Z</time>
      </trkpt>
      <trkpt lat="44.79686" lon="0.4016">
        <ele>116.9</ele>
        <time>2022-09-25T09:12:02Z</time>
      </trkpt>
      <trkpt lat="44.79684" lon="0.40167">
        <ele>117</ele>
        <time>2022-09-25T09:12:03Z</time>
      </trkpt>
      <trkpt lat="44.79687" lon="0.40174">
        <ele>116.4</ele>
        <time>2022-09-25T09:12:05Z</time>
      </trkpt>
      <trkpt lat="44.7969" lon="0.40175">
        <ele>116</ele>
        <time>2022-09-25T09:12:06Z</time>
      </trkpt>
      <trkpt lat="44.79695" lon="0.40176">
        <ele>115.6</ele>
        <time>2022-09-25T09:12:07Z</time>
      </trkpt>
      <trkpt lat="44.79705" lon="0.40179">
        <ele>114.5</ele>
        <time>2022-09-25T09:12:09Z</time>
      </trkpt>
      <trkpt lat="44.79739" lon="0.40187">
        <ele>111</ele>
        <time>2022-09-25T09:12:14Z</time>
      </trkpt>
      <trkpt lat="44.79762" lon="0.40193">
        <ele>108.4</ele>
        <time>2022-09-25T09:12:17Z</time>
      </trkpt>
      <trkpt lat="44.79767" lon="0.402">
        <ele>107.7</ele>
        <time>2022-09-25T09:12:18Z</time>
      </trkpt>
      <trkpt lat="44.79771" lon="0.4021">
        <ele>107.2</ele>
        <time>2022-09-25T09:12:19Z</time>
      </trkpt>
      <trkpt lat="44.79778" lon="0.40229">
        <ele>106</ele>
        <time>2022-09-25T09:12:21Z</time>
      </trkpt>
      <trkpt lat="44.7978" lon="0.40239">
        <ele>105.6</ele>
        <time>2022-09-25T09:12:22Z</time>
      </trkpt>
      <trkpt lat="44.79785" lon="0.40257">
        <ele>104.9</ele>
        <time>2022-09-25T09:12:24Z</time>
      </trkpt>
      <trkpt lat="44.79793" lon="0.40265">
        <ele>104.4</ele>
        <time>2022-09-25T09:12:26Z</time>
      </trkpt>
      <trkpt lat="44.79797" lon="0.40269">
        <ele>104.1</ele>
        <time>2022-09-25T09:12:27Z</time>
      </trkpt>
      <trkpt lat="44.79801" lon="0.40271">
        <ele>103.8</ele>
        <time>2022-09-25T09:12:28Z</time>
      </trkpt>
      <trkpt lat="44.79813" lon="0.40275">
        <ele>102.7</ele>
        <time>2022-09-25T09:12:30Z</time>
      </trkpt>
      <trkpt lat="44.79848" lon="0.40285">
        <ele>98.5</ele>
        <time>2022-09-25T09:12:35Z</time>
      </trkpt>
      <trkpt lat="44.79883" lon="0.40294">
        <ele>93.7</ele>
        <time>2022-09-25T09:12:39Z</time>
      </trkpt>
      <trkpt lat="44.79919" lon="0.40315">
        <ele>86.8</ele>
        <time>2022-09-25T09:12:43Z</time>
      </trkpt>
      <trkpt lat="44.79934" lon="0.40324">
        <ele>84.7</ele>
        <time>2022-09-25T09:12:45Z</time>
      </trkpt>
      <trkpt lat="44.7994" lon="0.4033">
        <ele>84</ele>
        <time>2022-09-25T09:12:46Z</time>
      </trkpt>
      <trkpt lat="44.79945" lon="0.40336">
        <ele>83.5</ele>
        <time>2022-09-25T09:12:47Z</time>
      </trkpt>
      <trkpt lat="44.79949" lon="0.40352">
        <ele>83.3</ele>
        <time>2022-09-25T09:12:49Z</time>
      </trkpt>
      <trkpt lat="44.79953" lon="0.40369">
        <ele>84.1</ele>
        <time>2022-09-25T09:12:52Z</time>
      </trkpt>
      <trkpt lat="44.79956" lon="0.40382">
        <ele>85.3</ele>
        <time>2022-09-25T09:12:56Z</time>
      </trkpt>
      <trkpt lat="44.7996" lon="0.40399">
        <ele>87</ele>
        <time>2022-09-25T09:13:02Z</time>
      </trkpt>
      <trkpt lat="44.79963" lon="0.40415">
        <ele>88.4</ele>
        <time>2022-09-25T09:13:08Z</time>
      </trkpt>
      <trkpt lat="44.79966" lon="0.40429">
        <ele>89.5</ele>
        <time>2022-09-25T09:13:13Z</time>
      </trkpt>
      <trkpt lat="44.79968" lon="0.40439">
        <ele>90.2</ele>
        <time>2022-09-25T09:13:17Z</time>
      </trkpt>
      <trkpt lat="44.79973" lon="0.40459">
        <ele>91.4</ele>
        <time>2022-09-25T09:13:23Z</time>
      </trkpt>
      <trkpt lat="44.79974" lon="0.40464">
        <ele>91.6</ele>
        <time>2022-09-25T09:13:25Z</time>
      </trkpt>
      <trkpt lat="44.79975" lon="0.4047">
        <ele>91.9</ele>
        <time>2022-09-25T09:13:27Z</time>
      </trkpt>
      <trkpt lat="44.79979" lon="0.40488">
        <ele>92.5</ele>
        <time>2022-09-25T09:13:33Z</time>
      </trkpt>
      <trkpt lat="44.79983" lon="0.40505">
        <ele>92.2</ele>
        <time>2022-09-25T09:13:39Z</time>
      </trkpt>
      <trkpt lat="44.79984" lon="0.40512">
        <ele>92.2</ele>
        <time>2022-09-25T09:13:43Z</time>
      </trkpt>
      <trkpt lat="44.79984" lon="0.40512">
        <ele>92.3</ele>
        <time>2022-09-25T09:13:49Z</time>
      </trkpt>
      <trkpt lat="44.79984" lon="0.40512">
        <ele>92.3</ele>
        <time>2022-09-25T09:13:54Z</time>
      </trkpt>
      <trkpt lat="44.79948" lon="0.40528">
        <ele>96.6</ele>
        <time>2022-09-25T09:13:59Z</time>
      </trkpt>
      <trkpt lat="44.79938" lon="0.4053">
        <ele>96.3</ele>
        <time>2022-09-25T09:14:04Z</time>
      </trkpt>
      <trkpt lat="44.79931" lon="0.40533">
        <ele>97.4</ele>
        <time>2022-09-25T09:14:08Z</time>
      </trkpt>
      <trkpt lat="44.79923" lon="0.40538">
        <ele>98.5</ele>
        <time>2022-09-25T09:14:13Z</time>
      </trkpt>
      <trkpt lat="44.79921" lon="0.40538">
        <ele>98.5</ele>
        <time>2022-09-25T09:14:14Z</time>
      </trkpt>
      <trkpt lat="44.79915" lon="0.40542">
        <ele>98.6</ele>
        <time>2022-09-25T09:14:17Z</time>
      </trkpt>
      <trkpt lat="44.79912" lon="0.40547">
        <ele>99.4</ele>
        <time>2022-09-25T09:14:19Z</time>
      </trkpt>
      <trkpt lat="44.79911" lon="0.40555">
        <ele>99.5</ele>
        <time>2022-09-25T09:14:21Z</time>
      </trkpt>
      <trkpt lat="44.79913" lon="0.40585">
        <ele>98.2</ele>
        <time>2022-09-25T09:14:26Z</time>
      </trkpt>
      <trkpt lat="44.79915" lon="0.40601">
        <ele>96.3</ele>
        <time>2022-09-25T09:14:28Z</time>
      </trkpt>
      <trkpt lat="44.79917" lon="0.4062">
        <ele>95.4</ele>
        <time>2022-09-25T09:14:30Z</time>
      </trkpt>
      <trkpt lat="44.79919" lon="0.40631">
        <ele>95.5</ele>
        <time>2022-09-25T09:14:31Z</time>
      </trkpt>
      <trkpt lat="44.79926" lon="0.40666">
        <ele>92.7</ele>
        <time>2022-09-25T09:14:34Z</time>
      </trkpt>
      <trkpt lat="44.79932" lon="0.40704">
        <ele>89.6</ele>
        <time>2022-09-25T09:14:38Z</time>
      </trkpt>
      <trkpt lat="44.79942" lon="0.4075">
        <ele>87.8</ele>
        <time>2022-09-25T09:14:43Z</time>
      </trkpt>
      <trkpt lat="44.7995" lon="0.4079">
        <ele>87.2</ele>
        <time>2022-09-25T09:14:48Z</time>
      </trkpt>
      <trkpt lat="44.7995" lon="0.408">
        <ele>87.1</ele>
        <time>2022-09-25T09:14:51Z</time>
      </trkpt>
      <trkpt lat="44.79944" lon="0.4081">
        <ele>87.2</ele>
        <time>2022-09-25T09:14:55Z</time>
      </trkpt>
      <trkpt lat="44.79926" lon="0.40826">
        <ele>87.4</ele>
        <time>2022-09-25T09:15:03Z</time>
      </trkpt>
      <trkpt lat="44.79909" lon="0.4084">
        <ele>88.1</ele>
        <time>2022-09-25T09:15:11Z</time>
      </trkpt>
      <trkpt lat="44.79897" lon="0.40852">
        <ele>88.5</ele>
        <time>2022-09-25T09:15:17Z</time>
      </trkpt>
      <trkpt lat="44.79884" lon="0.40865">
        <ele>89.3</ele>
        <time>2022-09-25T09:15:24Z</time>
      </trkpt>
      <trkpt lat="44.79868" lon="0.40882">
        <ele>90.2</ele>
        <time>2022-09-25T09:15:33Z</time>
      </trkpt>
      <trkpt lat="44.79854" lon="0.40896">
        <ele>91.6</ele>
        <time>2022-09-25T09:15:41Z</time>
      </trkpt>
      <trkpt lat="44.79842" lon="0.40909">
        <ele>93</ele>
        <time>2022-09-25T09:15:48Z</time>
      </trkpt>
      <trkpt lat="44.79841" lon="0.40916">
        <ele>93.1</ele>
        <time>2022-09-25T09:15:50Z</time>
      </trkpt>
      <trkpt lat="44.79843" lon="0.40922">
        <ele>93.1</ele>
        <time>2022-09-25T09:15:52Z</time>
      </trkpt>
      <trkpt lat="44.79852" lon="0.40931">
        <ele>94.1</ele>
        <time>2022-09-25T09:15:56Z</time>
      </trkpt>
      <trkpt lat="44.79869" lon="0.40947">
        <ele>94</ele>
        <time>2022-09-25T09:16:03Z</time>
      </trkpt>
      <trkpt lat="44.79877" lon="0.40958">
        <ele>94</ele>
        <time>2022-09-25T09:16:07Z</time>
      </trkpt>
      <trkpt lat="44.79877" lon="0.4096">
        <ele>94.9</ele>
        <time>2022-09-25T09:16:08Z</time>
      </trkpt>
      <trkpt lat="44.79875" lon="0.40965">
        <ele>94.9</ele>
        <time>2022-09-25T09:16:10Z</time>
      </trkpt>
      <trkpt lat="44.79873" lon="0.40967">
        <ele>95</ele>
        <time>2022-09-25T09:16:11Z</time>
      </trkpt>
      <trkpt lat="44.79868" lon="0.40971">
        <ele>95.1</ele>
        <time>2022-09-25T09:16:14Z</time>
      </trkpt>
      <trkpt lat="44.79857" lon="0.40981">
        <ele>96.3</ele>
        <time>2022-09-25T09:16:20Z</time>
      </trkpt>
      <trkpt lat="44.79851" lon="0.40993">
        <ele>97</ele>
        <time>2022-09-25T09:16:25Z</time>
      </trkpt>
      <trkpt lat="44.79845" lon="0.41009">
        <ele>97.1</ele>
        <time>2022-09-25T09:16:31Z</time>
      </trkpt>
      <trkpt lat="44.7984" lon="0.41022">
        <ele>97.8</ele>
        <time>2022-09-25T09:16:36Z</time>
      </trkpt>
      <trkpt lat="44.79833" lon="0.41046">
        <ele>98.3</ele>
        <time>2022-09-25T09:16:43Z</time>
      </trkpt>
      <trkpt lat="44.79827" lon="0.41071">
        <ele>98.4</ele>
        <time>2022-09-25T09:16:49Z</time>
      </trkpt>
      <trkpt lat="44.79818" lon="0.41088">
        <ele>98.5</ele>
        <time>2022-09-25T09:16:54Z</time>
      </trkpt>
      <trkpt lat="44.79808" lon="0.41094">
        <ele>98.6</ele>
        <time>2022-09-25T09:16:58Z</time>
      </trkpt>
      <trkpt lat="44.79792" lon="0.41109">
        <ele>98.9</ele>
        <time>2022-09-25T09:17:04Z</time>
      </trkpt>
      <trkpt lat="44.7979" lon="0.41112">
        <ele>99</ele>
        <time>2022-09-25T09:17:05Z</time>
      </trkpt>
      <trkpt lat="44.79776" lon="0.41139">
        <ele>99.6</ele>
        <time>2022-09-25T09:17:12Z</time>
      </trkpt>
      <trkpt lat="44.79763" lon="0.41164">
        <ele>100.1</ele>
        <time>2022-09-25T09:17:19Z</time>
      </trkpt>
      <trkpt lat="44.79746" lon="0.41196">
        <ele>100.8</ele>
        <time>2022-09-25T09:17:28Z</time>
      </trkpt>
      <trkpt lat="44.79735" lon="0.41217">
        <ele>101.3</ele>
        <time>2022-09-25T09:17:34Z</time>
      </trkpt>
      <trkpt lat="44.79736" lon="0.41229">
        <ele>101.2</ele>
        <time>2022-09-25T09:17:38Z</time>
      </trkpt>
      <trkpt lat="44.79745" lon="0.41237">
        <ele>100.6</ele>
        <time>2022-09-25T09:17:41Z</time>
      </trkpt>
      <trkpt lat="44.7976" lon="0.4125">
        <ele>99.7</ele>
        <time>2022-09-25T09:17:46Z</time>
      </trkpt>
      <trkpt lat="44.79764" lon="0.41252">
        <ele>99.5</ele>
        <time>2022-09-25T09:17:47Z</time>
      </trkpt>
      <trkpt lat="44.7977" lon="0.41257">
        <ele>99.2</ele>
        <time>2022-09-25T09:17:51Z</time>
      </trkpt>
      <trkpt lat="44.79773" lon="0.41308">
        <ele>99.4</ele>
        <time>2022-09-25T09:17:57Z</time>
      </trkpt>
      <trkpt lat="44.79776" lon="0.41325">
        <ele>99.9</ele>
        <time>2022-09-25T09:18:02Z</time>
      </trkpt>
      <trkpt lat="44.7978" lon="0.41359">
        <ele>101.1</ele>
        <time>2022-09-25T09:18:12Z</time>
      </trkpt>
      <trkpt lat="44.79781" lon="0.41385">
        <ele>102</ele>
        <time>2022-09-25T09:18:19Z</time>
      </trkpt>
      <trkpt lat="44.7978" lon="0.41413">
        <ele>103.9</ele>
        <time>2022-09-25T09:18:25Z</time>
      </trkpt>
      <trkpt lat="44.79772" lon="0.41445">
        <ele>105.6</ele>
        <time>2022-09-25T09:18:32Z</time>
      </trkpt>
      <trkpt lat="44.79767" lon="0.41465">
        <ele>106.5</ele>
        <time>2022-09-25T09:18:37Z</time>
      </trkpt>
      <trkpt lat="44.79764" lon="0.41469">
        <ele>106.7</ele>
        <time>2022-09-25T09:18:39Z</time>
      </trkpt>
      <trkpt lat="44.7976" lon="0.41469">
        <ele>106.9</ele>
        <time>2022-09-25T09:18:41Z</time>
      </trkpt>
      <trkpt lat="44.7975" lon="0.41466">
        <ele>107.9</ele>
        <time>2022-09-25T09:18:47Z</time>
      </trkpt>
      <trkpt lat="44.79736" lon="0.41463">
        <ele>108.6</ele>
        <time>2022-09-25T09:18:54Z</time>
      </trkpt>
      <trkpt lat="44.79725" lon="0.41459">
        <ele>109</ele>
        <time>2022-09-25T09:18:59Z</time>
      </trkpt>
      <trkpt lat="44.7972" lon="0.41464">
        <ele>109.1</ele>
        <time>2022-09-25T09:19:02Z</time>
      </trkpt>
      <trkpt lat="44.7972" lon="0.41467">
        <ele>109.3</ele>
        <time>2022-09-25T09:19:03Z</time>
      </trkpt>
      <trkpt lat="44.79716" lon="0.41482">
        <ele>110.5</ele>
        <time>2022-09-25T09:19:08Z</time>
      </trkpt>
      <trkpt lat="44.79714" lon="0.41483">
        <ele>110.7</ele>
        <time>2022-09-25T09:19:09Z</time>
      </trkpt>
      <trkpt lat="44.79704" lon="0.41501">
        <ele>112.1</ele>
        <time>2022-09-25T09:19:15Z</time>
      </trkpt>
      <trkpt lat="44.797" lon="0.41526">
        <ele>113.5</ele>
        <time>2022-09-25T09:19:21Z</time>
      </trkpt>
      <trkpt lat="44.797" lon="0.41555">
        <ele>113.9</ele>
        <time>2022-09-25T09:19:28Z</time>
      </trkpt>
      <trkpt lat="44.79708" lon="0.41582">
        <ele>112.2</ele>
        <time>2022-09-25T09:19:33Z</time>
      </trkpt>
      <trkpt lat="44.79716" lon="0.41608">
        <ele>111.5</ele>
        <time>2022-09-25T09:19:37Z</time>
      </trkpt>
      <trkpt lat="44.79717" lon="0.41614">
        <ele>111</ele>
        <time>2022-09-25T09:19:38Z</time>
      </trkpt>
      <trkpt lat="44.79715" lon="0.4162">
        <ele>111.2</ele>
        <time>2022-09-25T09:19:39Z</time>
      </trkpt>
      <trkpt lat="44.79712" lon="0.41623">
        <ele>111.3</ele>
        <time>2022-09-25T09:19:40Z</time>
      </trkpt>
      <trkpt lat="44.79703" lon="0.41624">
        <ele>112.6</ele>
        <time>2022-09-25T09:19:43Z</time>
      </trkpt>
      <trkpt lat="44.79695" lon="0.4163">
        <ele>112</ele>
        <time>2022-09-25T09:19:45Z</time>
      </trkpt>
      <trkpt lat="44.79695" lon="0.41633">
        <ele>111.8</ele>
        <time>2022-09-25T09:19:46Z</time>
      </trkpt>
      <trkpt lat="44.79694" lon="0.41658">
        <ele>110.4</ele>
        <time>2022-09-25T09:19:50Z</time>
      </trkpt>
      <trkpt lat="44.79693" lon="0.41665">
        <ele>110.1</ele>
        <time>2022-09-25T09:19:51Z</time>
      </trkpt>
      <trkpt lat="44.79689" lon="0.41717">
        <ele>108.5</ele>
        <time>2022-09-25T09:19:58Z</time>
      </trkpt>
      <trkpt lat="44.79685" lon="0.41762">
        <ele>104.5</ele>
        <time>2022-09-25T09:20:03Z</time>
      </trkpt>
      <trkpt lat="44.79689" lon="0.41781">
        <ele>102.3</ele>
        <time>2022-09-25T09:20:05Z</time>
      </trkpt>
      <trkpt lat="44.79693" lon="0.41791">
        <ele>100.9</ele>
        <time>2022-09-25T09:20:06Z</time>
      </trkpt>
      <trkpt lat="44.79702" lon="0.41813">
        <ele>98.2</ele>
        <time>2022-09-25T09:20:08Z</time>
      </trkpt>
      <trkpt lat="44.79707" lon="0.41825">
        <ele>97.3</ele>
        <time>2022-09-25T09:20:09Z</time>
      </trkpt>
      <trkpt lat="44.79716" lon="0.41853">
        <ele>97.3</ele>
        <time>2022-09-25T09:20:11Z</time>
      </trkpt>
      <trkpt lat="44.79718" lon="0.41866">
        <ele>98.1</ele>
        <time>2022-09-25T09:20:12Z</time>
      </trkpt>
      <trkpt lat="44.79719" lon="0.41877">
        <ele>98.7</ele>
        <time>2022-09-25T09:20:13Z</time>
      </trkpt>
      <trkpt lat="44.7972" lon="0.41894">
        <ele>99.1</ele>
        <time>2022-09-25T09:20:15Z</time>
      </trkpt>
      <trkpt lat="44.79722" lon="0.41965">
        <ele>99.2</ele>
        <time>2022-09-25T09:20:24Z</time>
      </trkpt>
      <trkpt lat="44.79724" lon="0.42016">
        <ele>100.1</ele>
        <time>2022-09-25T09:20:31Z</time>
      </trkpt>
      <trkpt lat="44.79725" lon="0.42028">
        <ele>100.5</ele>
        <time>2022-09-25T09:20:33Z</time>
      </trkpt>
      <trkpt lat="44.79727" lon="0.42051">
        <ele>101.5</ele>
        <time>2022-09-25T09:20:37Z</time>
      </trkpt>
      <trkpt lat="44.79729" lon="0.42079">
        <ele>103.1</ele>
        <time>2022-09-25T09:20:43Z</time>
      </trkpt>
      <trkpt lat="44.7973" lon="0.42098">
        <ele>104.2</ele>
        <time>2022-09-25T09:20:48Z</time>
      </trkpt>
      <trkpt lat="44.79732" lon="0.42125">
        <ele>105.7</ele>
        <time>2022-09-25T09:20:56Z</time>
      </trkpt>
      <trkpt lat="44.79734" lon="0.42152">
        <ele>106.7</ele>
        <time>2022-09-25T09:21:04Z</time>
      </trkpt>
      <trkpt lat="44.79736" lon="0.42176">
        <ele>107.8</ele>
        <time>2022-09-25T09:21:11Z</time>
      </trkpt>
      <trkpt lat="44.79737" lon="0.42192">
        <ele>108.3</ele>
        <time>2022-09-25T09:21:16Z</time>
      </trkpt>
      <trkpt lat="44.7975" lon="0.42193">
        <ele>108.2</ele>
        <time>2022-09-25T09:21:19Z</time>
      </trkpt>
      <trkpt lat="44.79761" lon="0.42191">
        <ele>107.9</ele>
        <time>2022-09-25T09:21:23Z</time>
      </trkpt>
      <trkpt lat="44.79778" lon="0.42186">
        <ele>107.4</ele>
        <time>2022-09-25T09:21:28Z</time>
      </trkpt>
      <trkpt lat="44.79803" lon="0.4218">
        <ele>105.3</ele>
        <time>2022-09-25T09:21:34Z</time>
      </trkpt>
      <trkpt lat="44.79813" lon="0.42178">
        <ele>104.1</ele>
        <time>2022-09-25T09:21:36Z</time>
      </trkpt>
      <trkpt lat="44.79822" lon="0.42176">
        <ele>103</ele>
        <time>2022-09-25T09:21:38Z</time>
      </trkpt>
      <trkpt lat="44.7983" lon="0.4219">
        <ele>101.1</ele>
        <time>2022-09-25T09:21:40Z</time>
      </trkpt>
      <trkpt lat="44.7983" lon="0.42217">
        <ele>99.3</ele>
        <time>2022-09-25T09:21:43Z</time>
      </trkpt>
      <trkpt lat="44.7983" lon="0.42225">
        <ele>98.9</ele>
        <time>2022-09-25T09:21:44Z</time>
      </trkpt>
      <trkpt lat="44.7983" lon="0.42236">
        <ele>98.6</ele>
        <time>2022-09-25T09:21:46Z</time>
      </trkpt>
      <trkpt lat="44.7983" lon="0.4226">
        <ele>97.9</ele>
        <time>2022-09-25T09:21:52Z</time>
      </trkpt>
      <trkpt lat="44.7983" lon="0.42265">
        <ele>97.8</ele>
        <time>2022-09-25T09:21:53Z</time>
      </trkpt>
      <trkpt lat="44.79833" lon="0.4228">
        <ele>97.5</ele>
        <time>2022-09-25T09:21:56Z</time>
      </trkpt>
      <trkpt lat="44.79835" lon="0.42285">
        <ele>97.4</ele>
        <time>2022-09-25T09:21:57Z</time>
      </trkpt>
      <trkpt lat="44.79843" lon="0.42299">
        <ele>97.2</ele>
        <time>2022-09-25T09:22:00Z</time>
      </trkpt>
      <trkpt lat="44.79852" lon="0.42315">
        <ele>97.2</ele>
        <time>2022-09-25T09:22:03Z</time>
      </trkpt>
      <trkpt lat="44.79855" lon="0.4232">
        <ele>97.2</ele>
        <time>2022-09-25T09:22:04Z</time>
      </trkpt>
      <trkpt lat="44.79866" lon="0.42342">
        <ele>97.3</ele>
        <time>2022-09-25T09:22:08Z</time>
      </trkpt>
      <trkpt lat="44.79875" lon="0.42356">
        <ele>97.1</ele>
        <time>2022-09-25T09:22:12Z</time>
      </trkpt>
      <trkpt lat="44.79878" lon="0.42357">
        <ele>97.1</ele>
        <time>2022-09-25T09:22:13Z</time>
      </trkpt>
      <trkpt lat="44.79891" lon="0.42359">
        <ele>96.7</ele>
        <time>2022-09-25T09:22:16Z</time>
      </trkpt>
      <trkpt lat="44.79905" lon="0.42358">
        <ele>96.1</ele>
        <time>2022-09-25T09:22:19Z</time>
      </trkpt>
      <trkpt lat="44.79917" lon="0.4236">
        <ele>95.5</ele>
        <time>2022-09-25T09:22:21Z</time>
      </trkpt>
      <trkpt lat="44.79922" lon="0.42363">
        <ele>95.1</ele>
        <time>2022-09-25T09:22:22Z</time>
      </trkpt>
      <trkpt lat="44.79939" lon="0.42372">
        <ele>94.3</ele>
        <time>2022-09-25T09:22:25Z</time>
      </trkpt>
      <trkpt lat="44.7997" lon="0.42389">
        <ele>94.7</ele>
        <time>2022-09-25T09:22:31Z</time>
      </trkpt>
      <trkpt lat="44.79987" lon="0.42399">
        <ele>95.7</ele>
        <time>2022-09-25T09:22:35Z</time>
      </trkpt>
      <trkpt lat="44.79993" lon="0.42405">
        <ele>96.3</ele>
        <time>2022-09-25T09:22:37Z</time>
      </trkpt>
      <trkpt lat="44.80013" lon="0.42428">
        <ele>99</ele>
        <time>2022-09-25T09:22:45Z</time>
      </trkpt>
      <trkpt lat="44.80033" lon="0.4245">
        <ele>100.1</ele>
        <time>2022-09-25T09:22:53Z</time>
      </trkpt>
      <trkpt lat="44.80048" lon="0.42467">
        <ele>98.5</ele>
        <time>2022-09-25T09:22:58Z</time>
      </trkpt>
      <trkpt lat="44.80068" lon="0.4249">
        <ele>95.3</ele>
        <time>2022-09-25T09:23:02Z</time>
      </trkpt>
      <trkpt lat="44.80097" lon="0.42522">
        <ele>90.9</ele>
        <time>2022-09-25T09:23:06Z</time>
      </trkpt>
      <trkpt lat="44.80134" lon="0.42564">
        <ele>87.4</ele>
        <time>2022-09-25T09:23:11Z</time>
      </trkpt>
      <trkpt lat="44.80139" lon="0.42571">
        <ele>87.1</ele>
        <time>2022-09-25T09:23:12Z</time>
      </trkpt>
      <trkpt lat="44.80141" lon="0.4259">
        <ele>86.6</ele>
        <time>2022-09-25T09:23:14Z</time>
      </trkpt>
      <trkpt lat="44.80147" lon="0.42635">
        <ele>85.1</ele>
        <time>2022-09-25T09:23:19Z</time>
      </trkpt>
      <trkpt lat="44.80149" lon="0.42644">
        <ele>84.9</ele>
        <time>2022-09-25T09:23:20Z</time>
      </trkpt>
      <trkpt lat="44.80153" lon="0.42651">
        <ele>84.9</ele>
        <time>2022-09-25T09:23:21Z</time>
      </trkpt>
      <trkpt lat="44.80162" lon="0.42661">
        <ele>85.1</ele>
        <time>2022-09-25T09:23:23Z</time>
      </trkpt>
      <trkpt lat="44.80159" lon="0.42673">
        <ele>85.3</ele>
        <time>2022-09-25T09:23:25Z</time>
      </trkpt>
      <trkpt lat="44.80147" lon="0.42688">
        <ele>85.4</ele>
        <time>2022-09-25T09:23:29Z</time>
      </trkpt>
      <trkpt lat="44.8014" lon="0.42698">
        <ele>85.4</ele>
        <time>2022-09-25T09:23:32Z</time>
      </trkpt>
      <trkpt lat="44.80139" lon="0.42703">
        <ele>85.4</ele>
        <time>2022-09-25T09:23:33Z</time>
      </trkpt>
      <trkpt lat="44.80141" lon="0.42709">
        <ele>85.4</ele>
        <time>2022-09-25T09:23:34Z</time>
      </trkpt>
      <trkpt lat="44.80143" lon="0.4271">
        <ele>85.4</ele>
        <time>2022-09-25T09:23:35Z</time>
      </trkpt>
      <trkpt lat="44.80144" lon="0.42711">
        <ele>85.4</ele>
        <time>2022-09-25T09:23:36Z</time>
      </trkpt>
      <trkpt lat="44.80151" lon="0.42713">
        <ele>85.4</ele>
        <time>2022-09-25T09:23:38Z</time>
      </trkpt>
      <trkpt lat="44.80172" lon="0.42716">
        <ele>85.6</ele>
        <time>2022-09-25T09:23:44Z</time>
      </trkpt>
      <trkpt lat="44.80183" lon="0.42719">
        <ele>86.4</ele>
        <time>2022-09-25T09:23:48Z</time>
      </trkpt>
      <trkpt lat="44.80204" lon="0.42734">
        <ele>89.1</ele>
        <time>2022-09-25T09:23:55Z</time>
      </trkpt>
      <trkpt lat="44.80216" lon="0.42748">
        <ele>91.1</ele>
        <time>2022-09-25T09:24:02Z</time>
      </trkpt>
      <trkpt lat="44.80225" lon="0.42759">
        <ele>92.7</ele>
        <time>2022-09-25T09:24:08Z</time>
      </trkpt>
      <trkpt lat="44.80236" lon="0.42772">
        <ele>94.3</ele>
        <time>2022-09-25T09:24:15Z</time>
      </trkpt>
      <trkpt lat="44.80246" lon="0.42784">
        <ele>95.6</ele>
        <time>2022-09-25T09:24:22Z</time>
      </trkpt>
      <trkpt lat="44.80256" lon="0.42796">
        <ele>96.7</ele>
        <time>2022-09-25T09:24:29Z</time>
      </trkpt>
      <trkpt lat="44.80266" lon="0.42807">
        <ele>97.3</ele>
        <time>2022-09-25T09:24:35Z</time>
      </trkpt>
      <trkpt lat="44.80275" lon="0.42819">
        <ele>97.7</ele>
        <time>2022-09-25T09:24:41Z</time>
      </trkpt>
      <trkpt lat="44.80285" lon="0.42834">
        <ele>98.1</ele>
        <time>2022-09-25T09:24:47Z</time>
      </trkpt>
      <trkpt lat="44.80296" lon="0.42847">
        <ele>98.5</ele>
        <time>2022-09-25T09:24:53Z</time>
      </trkpt>
      <trkpt lat="44.80312" lon="0.42865">
        <ele>99</ele>
        <time>2022-09-25T09:25:01Z</time>
      </trkpt>
      <trkpt lat="44.80323" lon="0.4288">
        <ele>99.1</ele>
        <time>2022-09-25T09:25:07Z</time>
      </trkpt>
      <trkpt lat="44.80336" lon="0.42904">
        <ele>99.3</ele>
        <time>2022-09-25T09:25:14Z</time>
      </trkpt>
      <trkpt lat="44.80352" lon="0.42923">
        <ele>99.4</ele>
        <time>2022-09-25T09:25:21Z</time>
      </trkpt>
      <trkpt lat="44.80374" lon="0.42948">
        <ele>99.5</ele>
        <time>2022-09-25T09:25:29Z</time>
      </trkpt>
      <trkpt lat="44.80391" lon="0.42966">
        <ele>99.5</ele>
        <time>2022-09-25T09:25:35Z</time>
      </trkpt>
      <trkpt lat="44.80404" lon="0.42985">
        <ele>99.2</ele>
        <time>2022-09-25T09:25:40Z</time>
      </trkpt>
      <trkpt lat="44.80422" lon="0.43011">
        <ele>98.8</ele>
        <time>2022-09-25T09:25:46Z</time>
      </trkpt>
      <trkpt lat="44.80422" lon="0.43024">
        <ele>98.8</ele>
        <time>2022-09-25T09:25:48Z</time>
      </trkpt>
      <trkpt lat="44.8042" lon="0.4303">
        <ele>98.8</ele>
        <time>2022-09-25T09:25:49Z</time>
      </trkpt>
      <trkpt lat="44.80415" lon="0.43077">
        <ele>98.5</ele>
        <time>2022-09-25T09:25:56Z</time>
      </trkpt>
      <trkpt lat="44.80417" lon="0.43096">
        <ele>98</ele>
        <time>2022-09-25T09:25:59Z</time>
      </trkpt>
      <trkpt lat="44.8042" lon="0.43102">
        <ele>97.7</ele>
        <time>2022-09-25T09:26:00Z</time>
      </trkpt>
      <trkpt lat="44.80424" lon="0.43109">
        <ele>97.3</ele>
        <time>2022-09-25T09:26:01Z</time>
      </trkpt>
      <trkpt lat="44.80433" lon="0.43127">
        <ele>96.5</ele>
        <time>2022-09-25T09:26:03Z</time>
      </trkpt>
      <trkpt lat="44.80445" lon="0.43143">
        <ele>96.8</ele>
        <time>2022-09-25T09:26:05Z</time>
      </trkpt>
      <trkpt lat="44.80448" lon="0.43148">
        <ele>97.2</ele>
        <time>2022-09-25T09:26:06Z</time>
      </trkpt>
      <trkpt lat="44.80456" lon="0.43154">
        <ele>97.9</ele>
        <time>2022-09-25T09:26:07Z</time>
      </trkpt>
      <trkpt lat="44.8046" lon="0.43138">
        <ele>97.4</ele>
        <time>2022-09-25T09:26:09Z</time>
      </trkpt>
      <trkpt lat="44.80472" lon="0.43101">
        <ele>96.5</ele>
        <time>2022-09-25T09:26:15Z</time>
      </trkpt>
      <trkpt lat="44.80484" lon="0.43053">
        <ele>95.6</ele>
        <time>2022-09-25T09:26:22Z</time>
      </trkpt>
      <trkpt lat="44.80495" lon="0.43003">
        <ele>94.8</ele>
        <time>2022-09-25T09:26:29Z</time>
      </trkpt>
      <trkpt lat="44.80498" lon="0.42999">
        <ele>94.8</ele>
        <time>2022-09-25T09:26:30Z</time>
      </trkpt>
      <trkpt lat="44.80504" lon="0.42995">
        <ele>94.8</ele>
        <time>2022-09-25T09:26:32Z</time>
      </trkpt>
      <trkpt lat="44.80509" lon="0.42998">
        <ele>94.7</ele>
        <time>2022-09-25T09:26:35Z</time>
      </trkpt>
      <trkpt lat="44.80517" lon="0.43015">
        <ele>95.2</ele>
        <time>2022-09-25T09:26:43Z</time>
      </trkpt>
      <trkpt lat="44.80524" lon="0.43029">
        <ele>97.1</ele>
        <time>2022-09-25T09:26:50Z</time>
      </trkpt>
      <trkpt lat="44.80532" lon="0.43044">
        <ele>98.5</ele>
        <time>2022-09-25T09:26:58Z</time>
      </trkpt>
      <trkpt lat="44.80538" lon="0.43054">
        <ele>102.2</ele>
        <time>2022-09-25T09:27:04Z</time>
      </trkpt>
      <trkpt lat="44.80541" lon="0.43055">
        <ele>102.2</ele>
        <time>2022-09-25T09:27:08Z</time>
      </trkpt>
      <trkpt lat="44.80541" lon="0.43055">
        <ele>102.1</ele>
        <time>2022-09-25T09:27:09Z</time>
      </trkpt>
      <trkpt lat="44.80553" lon="0.43065">
        <ele>104.7</ele>
        <time>2022-09-25T09:29:01Z</time>
      </trkpt>
      <trkpt lat="44.80555" lon="0.43067">
        <ele>104.7</ele>
        <time>2022-09-25T09:29:03Z</time>
      </trkpt>
      <trkpt lat="44.80563" lon="0.43075">
        <ele>109.7</ele>
        <time>2022-09-25T09:29:09Z</time>
      </trkpt>
      <trkpt lat="44.80571" lon="0.43082">
        <ele>109.7</ele>
        <time>2022-09-25T09:29:15Z</time>
      </trkpt>
      <trkpt lat="44.80576" lon="0.43086">
        <ele>112.3</ele>
        <time>2022-09-25T09:29:19Z</time>
      </trkpt>
      <trkpt lat="44.80578" lon="0.43087">
        <ele>114.1</ele>
        <time>2022-09-25T09:29:20Z</time>
      </trkpt>
      <trkpt lat="44.80584" lon="0.4309">
        <ele>117.2</ele>
        <time>2022-09-25T09:29:26Z</time>
      </trkpt>
      <trkpt lat="44.80586" lon="0.43088">
        <ele>117.2</ele>
        <time>2022-09-25T09:29:28Z</time>
      </trkpt>
      <trkpt lat="44.80589" lon="0.43085">
        <ele>115.3</ele>
        <time>2022-09-25T09:29:31Z</time>
      </trkpt>
      <trkpt lat="44.80592" lon="0.43084">
        <ele>115.2</ele>
        <time>2022-09-25T09:29:34Z</time>
      </trkpt>
      <trkpt lat="44.80595" lon="0.43082">
        <ele>115.1</ele>
        <time>2022-09-25T09:29:37Z</time>
      </trkpt>
      <trkpt lat="44.80596" lon="0.43081">
        <ele>117.9</ele>
        <time>2022-09-25T09:29:38Z</time>
      </trkpt>
      <trkpt lat="44.806" lon="0.43077">
        <ele>117.8</ele>
        <time>2022-09-25T09:29:43Z</time>
      </trkpt>
      <trkpt lat="44.80607" lon="0.4307">
        <ele>117.7</ele>
        <time>2022-09-25T09:29:51Z</time>
      </trkpt>
      <trkpt lat="44.80614" lon="0.43065">
        <ele>119.2</ele>
        <time>2022-09-25T09:29:58Z</time>
      </trkpt>
      <trkpt lat="44.80618" lon="0.43063">
        <ele>119.1</ele>
        <time>2022-09-25T09:30:02Z</time>
      </trkpt>
      <trkpt lat="44.80619" lon="0.43063">
        <ele>119</ele>
        <time>2022-09-25T09:30:03Z</time>
      </trkpt>
      <trkpt lat="44.8062" lon="0.43061">
        <ele>122.1</ele>
        <time>2022-09-25T09:30:04Z</time>
      </trkpt>
      <trkpt lat="44.80625" lon="0.43058">
        <ele>122.1</ele>
        <time>2022-09-25T09:30:08Z</time>
      </trkpt>
      <trkpt lat="44.8063" lon="0.43051">
        <ele>120.1</ele>
        <time>2022-09-25T09:30:13Z</time>
      </trkpt>
      <trkpt lat="44.80635" lon="0.43045">
        <ele>123.2</ele>
        <time>2022-09-25T09:30:18Z</time>
      </trkpt>
      <trkpt lat="44.80637" lon="0.43044">
        <ele>123.1</ele>
        <time>2022-09-25T09:30:20Z</time>
      </trkpt>
      <trkpt lat="44.80638" lon="0.43043">
        <ele>123.1</ele>
        <time>2022-09-25T09:30:21Z</time>
      </trkpt>
      <trkpt lat="44.80643" lon="0.43037">
        <ele>123</ele>
        <time>2022-09-25T09:30:26Z</time>
      </trkpt>
      <trkpt lat="44.80647" lon="0.43031">
        <ele>123.9</ele>
        <time>2022-09-25T09:30:31Z</time>
      </trkpt>
      <trkpt lat="44.80648" lon="0.4303">
        <ele>123.8</ele>
        <time>2022-09-25T09:30:32Z</time>
      </trkpt>
      <trkpt lat="44.80649" lon="0.43029">
        <ele>123.8</ele>
        <time>2022-09-25T09:30:34Z</time>
      </trkpt>
      <trkpt lat="44.80652" lon="0.43026">
        <ele>123.7</ele>
        <time>2022-09-25T09:30:36Z</time>
      </trkpt>
      <trkpt lat="44.80656" lon="0.43023">
        <ele>123.7</ele>
        <time>2022-09-25T09:30:40Z</time>
      </trkpt>
      <trkpt lat="44.80658" lon="0.43023">
        <ele>126.2</ele>
        <time>2022-09-25T09:30:41Z</time>
      </trkpt>
      <trkpt lat="44.80667" lon="0.43009">
        <ele>124.4</ele>
        <time>2022-09-25T09:30:47Z</time>
      </trkpt>
      <trkpt lat="44.80673" lon="0.42993">
        <ele>124.9</ele>
        <time>2022-09-25T09:30:51Z</time>
      </trkpt>
      <trkpt lat="44.80681" lon="0.42974">
        <ele>124.2</ele>
        <time>2022-09-25T09:30:54Z</time>
      </trkpt>
      <trkpt lat="44.80683" lon="0.42967">
        <ele>124.1</ele>
        <time>2022-09-25T09:30:55Z</time>
      </trkpt>
      <trkpt lat="44.80698" lon="0.42927">
        <ele>120.6</ele>
        <time>2022-09-25T09:31:01Z</time>
      </trkpt>
      <trkpt lat="44.80711" lon="0.42889">
        <ele>119.4</ele>
        <time>2022-09-25T09:31:07Z</time>
      </trkpt>
      <trkpt lat="44.80727" lon="0.42845">
        <ele>118.4</ele>
        <time>2022-09-25T09:31:15Z</time>
      </trkpt>
      <trkpt lat="44.80746" lon="0.42806">
        <ele>120.1</ele>
        <time>2022-09-25T09:31:22Z</time>
      </trkpt>
      <trkpt lat="44.80762" lon="0.42763">
        <ele>119.6</ele>
        <time>2022-09-25T09:31:28Z</time>
      </trkpt>
      <trkpt lat="44.80764" lon="0.42756">
        <ele>117.9</ele>
        <time>2022-09-25T09:31:29Z</time>
      </trkpt>
      <trkpt lat="44.80766" lon="0.42749">
        <ele>117.8</ele>
        <time>2022-09-25T09:31:30Z</time>
      </trkpt>
      <trkpt lat="44.80769" lon="0.42732">
        <ele>118.9</ele>
        <time>2022-09-25T09:31:32Z</time>
      </trkpt>
      <trkpt lat="44.80778" lon="0.42675">
        <ele>114.1</ele>
        <time>2022-09-25T09:31:39Z</time>
      </trkpt>
      <trkpt lat="44.80788" lon="0.42621">
        <ele>113.5</ele>
        <time>2022-09-25T09:31:47Z</time>
      </trkpt>
      <trkpt lat="44.808" lon="0.42565">
        <ele>111.4</ele>
        <time>2022-09-25T09:31:55Z</time>
      </trkpt>
      <trkpt lat="44.80814" lon="0.42512">
        <ele>109.3</ele>
        <time>2022-09-25T09:32:03Z</time>
      </trkpt>
      <trkpt lat="44.80817" lon="0.42494">
        <ele>108.5</ele>
        <time>2022-09-25T09:32:06Z</time>
      </trkpt>
      <trkpt lat="44.80814" lon="0.42488">
        <ele>107.6</ele>
        <time>2022-09-25T09:32:07Z</time>
      </trkpt>
      <trkpt lat="44.8081" lon="0.42483">
        <ele>106</ele>
        <time>2022-09-25T09:32:08Z</time>
      </trkpt>
      <trkpt lat="44.80799" lon="0.42477">
        <ele>104.9</ele>
        <time>2022-09-25T09:32:10Z</time>
      </trkpt>
      <trkpt lat="44.80791" lon="0.42465">
        <ele>103.5</ele>
        <time>2022-09-25T09:32:13Z</time>
      </trkpt>
      <trkpt lat="44.80797" lon="0.42451">
        <ele>102.3</ele>
        <time>2022-09-25T09:32:17Z</time>
      </trkpt>
      <trkpt lat="44.80805" lon="0.42422">
        <ele>103.1</ele>
        <time>2022-09-25T09:32:23Z</time>
      </trkpt>
      <trkpt lat="44.80821" lon="0.42398">
        <ele>103.9</ele>
        <time>2022-09-25T09:32:30Z</time>
      </trkpt>
      <trkpt lat="44.80836" lon="0.42375">
        <ele>104.8</ele>
        <time>2022-09-25T09:32:37Z</time>
      </trkpt>
      <trkpt lat="44.80848" lon="0.42354">
        <ele>105.8</ele>
        <time>2022-09-25T09:32:43Z</time>
      </trkpt>
      <trkpt lat="44.80853" lon="0.42337">
        <ele>106.8</ele>
        <time>2022-09-25T09:32:48Z</time>
      </trkpt>
      <trkpt lat="44.80858" lon="0.42317">
        <ele>107.8</ele>
        <time>2022-09-25T09:32:54Z</time>
      </trkpt>
      <trkpt lat="44.80863" lon="0.42292">
        <ele>108.9</ele>
        <time>2022-09-25T09:33:02Z</time>
      </trkpt>
      <trkpt lat="44.80868" lon="0.42262">
        <ele>110.3</ele>
        <time>2022-09-25T09:33:11Z</time>
      </trkpt>
      <trkpt lat="44.80871" lon="0.42238">
        <ele>111.4</ele>
        <time>2022-09-25T09:33:18Z</time>
      </trkpt>
      <trkpt lat="44.80875" lon="0.42212">
        <ele>112.8</ele>
        <time>2022-09-25T09:33:26Z</time>
      </trkpt>
      <trkpt lat="44.80879" lon="0.42191">
        <ele>114</ele>
        <time>2022-09-25T09:33:32Z</time>
      </trkpt>
      <trkpt lat="44.80877" lon="0.42165">
        <ele>116.1</ele>
        <time>2022-09-25T09:33:38Z</time>
      </trkpt>
      <trkpt lat="44.80877" lon="0.42137">
        <ele>118.2</ele>
        <time>2022-09-25T09:33:44Z</time>
      </trkpt>
      <trkpt lat="44.80877" lon="0.42133">
        <ele>118.3</ele>
        <time>2022-09-25T09:33:45Z</time>
      </trkpt>
      <trkpt lat="44.80876" lon="0.42127">
        <ele>118.4</ele>
        <time>2022-09-25T09:33:47Z</time>
      </trkpt>
      <trkpt lat="44.80875" lon="0.42106">
        <ele>119.1</ele>
        <time>2022-09-25T09:33:53Z</time>
      </trkpt>
      <trkpt lat="44.80873" lon="0.42083">
        <ele>120</ele>
        <time>2022-09-25T09:33:59Z</time>
      </trkpt>
      <trkpt lat="44.80871" lon="0.42064">
        <ele>120.7</ele>
        <time>2022-09-25T09:34:05Z</time>
      </trkpt>
      <trkpt lat="44.8087" lon="0.42036">
        <ele>120.3</ele>
        <time>2022-09-25T09:34:11Z</time>
      </trkpt>
      <trkpt lat="44.80869" lon="0.42003">
        <ele>119.4</ele>
        <time>2022-09-25T09:34:17Z</time>
      </trkpt>
      <trkpt lat="44.8087" lon="0.41997">
        <ele>119.4</ele>
        <time>2022-09-25T09:34:18Z</time>
      </trkpt>
      <trkpt lat="44.80873" lon="0.41974">
        <ele>119</ele>
        <time>2022-09-25T09:34:22Z</time>
      </trkpt>
      <trkpt lat="44.80876" lon="0.41956">
        <ele>118.7</ele>
        <time>2022-09-25T09:34:25Z</time>
      </trkpt>
      <trkpt lat="44.80881" lon="0.41943">
        <ele>118.5</ele>
        <time>2022-09-25T09:34:27Z</time>
      </trkpt>
      <trkpt lat="44.80886" lon="0.41934">
        <ele>118.3</ele>
        <time>2022-09-25T09:34:29Z</time>
      </trkpt>
      <trkpt lat="44.80889" lon="0.41929">
        <ele>118.3</ele>
        <time>2022-09-25T09:34:30Z</time>
      </trkpt>
      <trkpt lat="44.80905" lon="0.41903">
        <ele>118.4</ele>
        <time>2022-09-25T09:34:36Z</time>
      </trkpt>
      <trkpt lat="44.80919" lon="0.41893">
        <ele>118.7</ele>
        <time>2022-09-25T09:34:41Z</time>
      </trkpt>
      <trkpt lat="44.80931" lon="0.41883">
        <ele>119</ele>
        <time>2022-09-25T09:34:46Z</time>
      </trkpt>
      <trkpt lat="44.80936" lon="0.41879">
        <ele>119.2</ele>
        <time>2022-09-25T09:34:48Z</time>
      </trkpt>
      <trkpt lat="44.80939" lon="0.41877">
        <ele>119.3</ele>
        <time>2022-09-25T09:34:50Z</time>
      </trkpt>
      <trkpt lat="44.80948" lon="0.4187">
        <ele>119.7</ele>
        <time>2022-09-25T09:34:54Z</time>
      </trkpt>
      <trkpt lat="44.80967" lon="0.41864">
        <ele>120.6</ele>
        <time>2022-09-25T09:35:00Z</time>
      </trkpt>
      <trkpt lat="44.8097" lon="0.41864">
        <ele>120.7</ele>
        <time>2022-09-25T09:35:01Z</time>
      </trkpt>
      <trkpt lat="44.80982" lon="0.41862">
        <ele>120.8</ele>
        <time>2022-09-25T09:35:03Z</time>
      </trkpt>
      <trkpt lat="44.80982" lon="0.41853">
        <ele>120.1</ele>
        <time>2022-09-25T09:35:04Z</time>
      </trkpt>
      <trkpt lat="44.80982" lon="0.41836">
        <ele>118.8</ele>
        <time>2022-09-25T09:35:06Z</time>
      </trkpt>
      <trkpt lat="44.80982" lon="0.41817">
        <ele>116.9</ele>
        <time>2022-09-25T09:35:08Z</time>
      </trkpt>
      <trkpt lat="44.80982" lon="0.41795">
        <ele>114.1</ele>
        <time>2022-09-25T09:35:10Z</time>
      </trkpt>
      <trkpt lat="44.80982" lon="0.41777">
        <ele>111.8</ele>
        <time>2022-09-25T09:35:12Z</time>
      </trkpt>
      <trkpt lat="44.80982" lon="0.41771">
        <ele>110.9</ele>
        <time>2022-09-25T09:35:13Z</time>
      </trkpt>
      <trkpt lat="44.80982" lon="0.41764">
        <ele>109.9</ele>
        <time>2022-09-25T09:35:14Z</time>
      </trkpt>
      <trkpt lat="44.80982" lon="0.41755">
        <ele>108.5</ele>
        <time>2022-09-25T09:35:15Z</time>
      </trkpt>
      <trkpt lat="44.80983" lon="0.41731">
        <ele>105.1</ele>
        <time>2022-09-25T09:35:17Z</time>
      </trkpt>
      <trkpt lat="44.80984" lon="0.41717">
        <ele>103.5</ele>
        <time>2022-09-25T09:35:18Z</time>
      </trkpt>
      <trkpt lat="44.80985" lon="0.41703">
        <ele>102.1</ele>
        <time>2022-09-25T09:35:19Z</time>
      </trkpt>
      <trkpt lat="44.80987" lon="0.41672">
        <ele>99.2</ele>
        <time>2022-09-25T09:35:21Z</time>
      </trkpt>
      <trkpt lat="44.80989" lon="0.41646">
        <ele>96.8</ele>
        <time>2022-09-25T09:35:23Z</time>
      </trkpt>
      <trkpt lat="44.8099" lon="0.41633">
        <ele>95.9</ele>
        <time>2022-09-25T09:35:24Z</time>
      </trkpt>
      <trkpt lat="44.80997" lon="0.41574">
        <ele>92.8</ele>
        <time>2022-09-25T09:35:29Z</time>
      </trkpt>
      <trkpt lat="44.80999" lon="0.41555">
        <ele>92.2</ele>
        <time>2022-09-25T09:35:31Z</time>
      </trkpt>
      <trkpt lat="44.81001" lon="0.41539">
        <ele>91.7</ele>
        <time>2022-09-25T09:35:33Z</time>
      </trkpt>
      <trkpt lat="44.81002" lon="0.41531">
        <ele>91.5</ele>
        <time>2022-09-25T09:35:34Z</time>
      </trkpt>
      <trkpt lat="44.81005" lon="0.41503">
        <ele>90.8</ele>
        <time>2022-09-25T09:35:38Z</time>
      </trkpt>
      <trkpt lat="44.81006" lon="0.4149">
        <ele>90.5</ele>
        <time>2022-09-25T09:35:40Z</time>
      </trkpt>
      <trkpt lat="44.81008" lon="0.41478">
        <ele>90.3</ele>
        <time>2022-09-25T09:35:42Z</time>
      </trkpt>
      <trkpt lat="44.81009" lon="0.41472">
        <ele>90.3</ele>
        <time>2022-09-25T09:35:43Z</time>
      </trkpt>
      <trkpt lat="44.81009" lon="0.41461">
        <ele>90.3</ele>
        <time>2022-09-25T09:35:45Z</time>
      </trkpt>
      <trkpt lat="44.81008" lon="0.41454">
        <ele>90.3</ele>
        <time>2022-09-25T09:35:46Z</time>
      </trkpt>
      <trkpt lat="44.81002" lon="0.41413">
        <ele>90</ele>
        <time>2022-09-25T09:35:53Z</time>
      </trkpt>
      <trkpt lat="44.80996" lon="0.41372">
        <ele>90.3</ele>
        <time>2022-09-25T09:36:01Z</time>
      </trkpt>
      <trkpt lat="44.80992" lon="0.41345">
        <ele>90.5</ele>
        <time>2022-09-25T09:36:07Z</time>
      </trkpt>
      <trkpt lat="44.80988" lon="0.41323">
        <ele>90.8</ele>
        <time>2022-09-25T09:36:13Z</time>
      </trkpt>
      <trkpt lat="44.80983" lon="0.41292">
        <ele>89.7</ele>
        <time>2022-09-25T09:36:21Z</time>
      </trkpt>
      <trkpt lat="44.80978" lon="0.41262">
        <ele>88.6</ele>
        <time>2022-09-25T09:36:28Z</time>
      </trkpt>
      <trkpt lat="44.80974" lon="0.41237">
        <ele>87.7</ele>
        <time>2022-09-25T09:36:34Z</time>
      </trkpt>
      <trkpt lat="44.80969" lon="0.41207">
        <ele>86.6</ele>
        <time>2022-09-25T09:36:40Z</time>
      </trkpt>
      <trkpt lat="44.80968" lon="0.41202">
        <ele>86.4</ele>
        <time>2022-09-25T09:36:41Z</time>
      </trkpt>
      <trkpt lat="44.8096" lon="0.41158">
        <ele>84.7</ele>
        <time>2022-09-25T09:36:49Z</time>
      </trkpt>
      <trkpt lat="44.80951" lon="0.41105">
        <ele>82.7</ele>
        <time>2022-09-25T09:36:57Z</time>
      </trkpt>
      <trkpt lat="44.80946" lon="0.4107">
        <ele>81.4</ele>
        <time>2022-09-25T09:37:02Z</time>
      </trkpt>
      <trkpt lat="44.80944" lon="0.41062">
        <ele>81.1</ele>
        <time>2022-09-25T09:37:03Z</time>
      </trkpt>
      <trkpt lat="44.80945" lon="0.41052">
        <ele>80.8</ele>
        <time>2022-09-25T09:37:04Z</time>
      </trkpt>
      <trkpt lat="44.80946" lon="0.41046">
        <ele>81.2</ele>
        <time>2022-09-25T09:37:07Z</time>
      </trkpt>
      <trkpt lat="44.80941" lon="0.40958">
        <ele>68.9</ele>
        <time>2022-09-25T09:37:12Z</time>
      </trkpt>
      <trkpt lat="44.80941" lon="0.4092">
        <ele>65.3</ele>
        <time>2022-09-25T09:37:15Z</time>
      </trkpt>
      <trkpt lat="44.80939" lon="0.40911">
        <ele>65.7</ele>
        <time>2022-09-25T09:37:16Z</time>
      </trkpt>
      <trkpt lat="44.80936" lon="0.40904">
        <ele>64.8</ele>
        <time>2022-09-25T09:37:17Z</time>
      </trkpt>
      <trkpt lat="44.80927" lon="0.40886">
        <ele>63.2</ele>
        <time>2022-09-25T09:37:19Z</time>
      </trkpt>
      <trkpt lat="44.80924" lon="0.40863">
        <ele>62.1</ele>
        <time>2022-09-25T09:37:21Z</time>
      </trkpt>
      <trkpt lat="44.80922" lon="0.40839">
        <ele>61</ele>
        <time>2022-09-25T09:37:23Z</time>
      </trkpt>
      <trkpt lat="44.8092" lon="0.4077">
        <ele>56.3</ele>
        <time>2022-09-25T09:37:28Z</time>
      </trkpt>
      <trkpt lat="44.80917" lon="0.40725">
        <ele>53.1</ele>
        <time>2022-09-25T09:37:31Z</time>
      </trkpt>
      <trkpt lat="44.80918" lon="0.4071">
        <ele>52.3</ele>
        <time>2022-09-25T09:37:32Z</time>
      </trkpt>
      <trkpt lat="44.8092" lon="0.40696">
        <ele>51.4</ele>
        <time>2022-09-25T09:37:33Z</time>
      </trkpt>
      <trkpt lat="44.80928" lon="0.40657">
        <ele>49.9</ele>
        <time>2022-09-25T09:37:36Z</time>
      </trkpt>
      <trkpt lat="44.80944" lon="0.40587">
        <ele>47.4</ele>
        <time>2022-09-25T09:37:42Z</time>
      </trkpt>
      <trkpt lat="44.80951" lon="0.40557">
        <ele>49</ele>
        <time>2022-09-25T09:37:45Z</time>
      </trkpt>
      <trkpt lat="44.80954" lon="0.40549">
        <ele>49.4</ele>
        <time>2022-09-25T09:37:46Z</time>
      </trkpt>
      <trkpt lat="44.80956" lon="0.40542">
        <ele>49.9</ele>
        <time>2022-09-25T09:37:47Z</time>
      </trkpt>
      <trkpt lat="44.80956" lon="0.40528">
        <ele>50.4</ele>
        <time>2022-09-25T09:37:49Z</time>
      </trkpt>
      <trkpt lat="44.80957" lon="0.40521">
        <ele>50.7</ele>
        <time>2022-09-25T09:37:50Z</time>
      </trkpt>
      <trkpt lat="44.80958" lon="0.40499">
        <ele>51.3</ele>
        <time>2022-09-25T09:37:53Z</time>
      </trkpt>
      <trkpt lat="44.80958" lon="0.40481">
        <ele>52</ele>
        <time>2022-09-25T09:37:56Z</time>
      </trkpt>
      <trkpt lat="44.80958" lon="0.40464">
        <ele>52.7</ele>
        <time>2022-09-25T09:37:59Z</time>
      </trkpt>
      <trkpt lat="44.80959" lon="0.40421">
        <ele>53.5</ele>
        <time>2022-09-25T09:38:08Z</time>
      </trkpt>
      <trkpt lat="44.8096" lon="0.40389">
        <ele>53.7</ele>
        <time>2022-09-25T09:38:15Z</time>
      </trkpt>
      <trkpt lat="44.80961" lon="0.40353">
        <ele>53.8</ele>
        <time>2022-09-25T09:38:22Z</time>
      </trkpt>
      <trkpt lat="44.80961" lon="0.40347">
        <ele>54.2</ele>
        <time>2022-09-25T09:38:23Z</time>
      </trkpt>
      <trkpt lat="44.80961" lon="0.40316">
        <ele>53.7</ele>
        <time>2022-09-25T09:38:28Z</time>
      </trkpt>
      <trkpt lat="44.80963" lon="0.40269">
        <ele>52.1</ele>
        <time>2022-09-25T09:38:35Z</time>
      </trkpt>
      <trkpt lat="44.80964" lon="0.40206">
        <ele>51.5</ele>
        <time>2022-09-25T09:38:44Z</time>
      </trkpt>
      <trkpt lat="44.80966" lon="0.40151">
        <ele>50.8</ele>
        <time>2022-09-25T09:38:51Z</time>
      </trkpt>
      <trkpt lat="44.80967" lon="0.40084">
        <ele>50.1</ele>
        <time>2022-09-25T09:38:59Z</time>
      </trkpt>
      <trkpt lat="44.80965" lon="0.40049">
        <ele>49.7</ele>
        <time>2022-09-25T09:39:04Z</time>
      </trkpt>
      <trkpt lat="44.80967" lon="0.4004">
        <ele>49.7</ele>
        <time>2022-09-25T09:39:06Z</time>
      </trkpt>
      <trkpt lat="44.80974" lon="0.40028">
        <ele>49.6</ele>
        <time>2022-09-25T09:39:07Z</time>
      </trkpt>
      <trkpt lat="44.80978" lon="0.4003">
        <ele>49.6</ele>
        <time>2022-09-25T09:39:08Z</time>
      </trkpt>
      <trkpt lat="44.80988" lon="0.40033">
        <ele>49.6</ele>
        <time>2022-09-25T09:39:10Z</time>
      </trkpt>
      <trkpt lat="44.8103" lon="0.40044">
        <ele>49.5</ele>
        <time>2022-09-25T09:39:18Z</time>
      </trkpt>
      <trkpt lat="44.81074" lon="0.40057">
        <ele>49.4</ele>
        <time>2022-09-25T09:39:26Z</time>
      </trkpt>
      <trkpt lat="44.81108" lon="0.40066">
        <ele>49.3</ele>
        <time>2022-09-25T09:39:32Z</time>
      </trkpt>
      <trkpt lat="44.8116" lon="0.40079">
        <ele>49.1</ele>
        <time>2022-09-25T09:39:41Z</time>
      </trkpt>
      <trkpt lat="44.81207" lon="0.40089">
        <ele>49</ele>
        <time>2022-09-25T09:39:49Z</time>
      </trkpt>
      <trkpt lat="44.81252" lon="0.40099">
        <ele>48.9</ele>
        <time>2022-09-25T09:39:56Z</time>
      </trkpt>
      <trkpt lat="44.81276" lon="0.40102">
        <ele>48.8</ele>
        <time>2022-09-25T09:40:00Z</time>
      </trkpt>
      <trkpt lat="44.81291" lon="0.40104">
        <ele>48.8</ele>
        <time>2022-09-25T09:40:06Z</time>
      </trkpt>
      <trkpt lat="44.81348" lon="0.40122">
        <ele>48.5</ele>
        <time>2022-09-25T09:40:09Z</time>
      </trkpt>
      <trkpt lat="44.8138" lon="0.40129">
        <ele>48.5</ele>
        <time>2022-09-25T09:40:14Z</time>
      </trkpt>
      <trkpt lat="44.81387" lon="0.40142">
        <ele>48.4</ele>
        <time>2022-09-25T09:40:16Z</time>
      </trkpt>
      <trkpt lat="44.81391" lon="0.40155">
        <ele>48.1</ele>
        <time>2022-09-25T09:40:18Z</time>
      </trkpt>
      <trkpt lat="44.81395" lon="0.40157">
        <ele>48.1</ele>
        <time>2022-09-25T09:40:19Z</time>
      </trkpt>
      <trkpt lat="44.81403" lon="0.40155">
        <ele>47.9</ele>
        <time>2022-09-25T09:40:21Z</time>
      </trkpt>
      <trkpt lat="44.81408" lon="0.40151">
        <ele>48.1</ele>
        <time>2022-09-25T09:40:22Z</time>
      </trkpt>
      <trkpt lat="44.81417" lon="0.40144">
        <ele>48</ele>
        <time>2022-09-25T09:40:24Z</time>
      </trkpt>
      <trkpt lat="44.81433" lon="0.40138">
        <ele>47.9</ele>
        <time>2022-09-25T09:40:27Z</time>
      </trkpt>
      <trkpt lat="44.81444" lon="0.40133">
        <ele>48.2</ele>
        <time>2022-09-25T09:40:29Z</time>
      </trkpt>
      <trkpt lat="44.81459" lon="0.40126">
        <ele>48.2</ele>
        <time>2022-09-25T09:40:32Z</time>
      </trkpt>
      <trkpt lat="44.8148" lon="0.40117">
        <ele>48.6</ele>
        <time>2022-09-25T09:40:36Z</time>
      </trkpt>
      <trkpt lat="44.81491" lon="0.40115">
        <ele>48.5</ele>
        <time>2022-09-25T09:40:38Z</time>
      </trkpt>
      <trkpt lat="44.81508" lon="0.40111">
        <ele>48.5</ele>
        <time>2022-09-25T09:40:41Z</time>
      </trkpt>
      <trkpt lat="44.81519" lon="0.40108">
        <ele>48.4</ele>
        <time>2022-09-25T09:40:43Z</time>
      </trkpt>
      <trkpt lat="44.81542" lon="0.40107">
        <ele>48.2</ele>
        <time>2022-09-25T09:40:47Z</time>
      </trkpt>
      <trkpt lat="44.81547" lon="0.40106">
        <ele>48.1</ele>
        <time>2022-09-25T09:40:48Z</time>
      </trkpt>
      <trkpt lat="44.81572" lon="0.40095">
        <ele>48.3</ele>
        <time>2022-09-25T09:40:53Z</time>
      </trkpt>
      <trkpt lat="44.81592" lon="0.40086">
        <ele>47.9</ele>
        <time>2022-09-25T09:40:57Z</time>
      </trkpt>
      <trkpt lat="44.81597" lon="0.40084">
        <ele>47.6</ele>
        <time>2022-09-25T09:40:58Z</time>
      </trkpt>
      <trkpt lat="44.81613" lon="0.40078">
        <ele>48</ele>
        <time>2022-09-25T09:41:01Z</time>
      </trkpt>
      <trkpt lat="44.81628" lon="0.40071">
        <ele>47.6</ele>
        <time>2022-09-25T09:41:04Z</time>
      </trkpt>
      <trkpt lat="44.81639" lon="0.40066">
        <ele>47.3</ele>
        <time>2022-09-25T09:41:06Z</time>
      </trkpt>
      <trkpt lat="44.81659" lon="0.40056">
        <ele>47.5</ele>
        <time>2022-09-25T09:41:10Z</time>
      </trkpt>
      <trkpt lat="44.81674" lon="0.40048">
        <ele>47.9</ele>
        <time>2022-09-25T09:41:13Z</time>
      </trkpt>
      <trkpt lat="44.81677" lon="0.40042">
        <ele>47.8</ele>
        <time>2022-09-25T09:41:14Z</time>
      </trkpt>
      <trkpt lat="44.81678" lon="0.40035">
        <ele>47.8</ele>
        <time>2022-09-25T09:41:15Z</time>
      </trkpt>
      <trkpt lat="44.81678" lon="0.40021">
        <ele>48.6</ele>
        <time>2022-09-25T09:41:17Z</time>
      </trkpt>
      <trkpt lat="44.81674" lon="0.39987">
        <ele>49.7</ele>
        <time>2022-09-25T09:41:23Z</time>
      </trkpt>
      <trkpt lat="44.81673" lon="0.39968">
        <ele>50.1</ele>
        <time>2022-09-25T09:41:27Z</time>
      </trkpt>
      <trkpt lat="44.81672" lon="0.3995">
        <ele>50.2</ele>
        <time>2022-09-25T09:41:31Z</time>
      </trkpt>
      <trkpt lat="44.81671" lon="0.39932">
        <ele>50.1</ele>
        <time>2022-09-25T09:41:35Z</time>
      </trkpt>
      <trkpt lat="44.8167" lon="0.39904">
        <ele>49.5</ele>
        <time>2022-09-25T09:41:41Z</time>
      </trkpt>
      <trkpt lat="44.81671" lon="0.39888">
        <ele>49.1</ele>
        <time>2022-09-25T09:41:45Z</time>
      </trkpt>
      <trkpt lat="44.81673" lon="0.39884">
        <ele>49</ele>
        <time>2022-09-25T09:41:46Z</time>
      </trkpt>
      <trkpt lat="44.81678" lon="0.39882">
        <ele>49</ele>
        <time>2022-09-25T09:41:48Z</time>
      </trkpt>
      <trkpt lat="44.8168" lon="0.39884">
        <ele>48.1</ele>
        <time>2022-09-25T09:41:49Z</time>
      </trkpt>
      <trkpt lat="44.817" lon="0.39896">
        <ele>47.7</ele>
        <time>2022-09-25T09:41:55Z</time>
      </trkpt>
      <trkpt lat="44.81729" lon="0.39916">
        <ele>45.9</ele>
        <time>2022-09-25T09:42:03Z</time>
      </trkpt>
      <trkpt lat="44.81749" lon="0.39925">
        <ele>45.6</ele>
        <time>2022-09-25T09:42:08Z</time>
      </trkpt>
      <trkpt lat="44.81758" lon="0.39928">
        <ele>45.3</ele>
        <time>2022-09-25T09:42:10Z</time>
      </trkpt>
      <trkpt lat="44.81793" lon="0.39938">
        <ele>44.8</ele>
        <time>2022-09-25T09:42:17Z</time>
      </trkpt>
      <trkpt lat="44.81839" lon="0.3995">
        <ele>44.3</ele>
        <time>2022-09-25T09:42:26Z</time>
      </trkpt>
      <trkpt lat="44.8188" lon="0.39958">
        <ele>43.8</ele>
        <time>2022-09-25T09:42:34Z</time>
      </trkpt>
      <trkpt lat="44.81884" lon="0.39958">
        <ele>43.8</ele>
        <time>2022-09-25T09:42:35Z</time>
      </trkpt>
      <trkpt lat="44.81893" lon="0.39957">
        <ele>43.6</ele>
        <time>2022-09-25T09:42:38Z</time>
      </trkpt>
      <trkpt lat="44.81918" lon="0.39963">
        <ele>43.4</ele>
        <time>2022-09-25T09:42:43Z</time>
      </trkpt>
      <trkpt lat="44.8196" lon="0.39972">
        <ele>42.3</ele>
        <time>2022-09-25T09:42:50Z</time>
      </trkpt>
      <trkpt lat="44.82017" lon="0.3998">
        <ele>41.3</ele>
        <time>2022-09-25T09:42:59Z</time>
      </trkpt>
      <trkpt lat="44.8203" lon="0.39981">
        <ele>41.1</ele>
        <time>2022-09-25T09:43:01Z</time>
      </trkpt>
      <trkpt lat="44.82082" lon="0.39985">
        <ele>40.4</ele>
        <time>2022-09-25T09:43:09Z</time>
      </trkpt>
      <trkpt lat="44.82141" lon="0.39991">
        <ele>39.7</ele>
        <time>2022-09-25T09:43:18Z</time>
      </trkpt>
      <trkpt lat="44.82194" lon="0.39998">
        <ele>39.3</ele>
        <time>2022-09-25T09:43:26Z</time>
      </trkpt>
      <trkpt lat="44.82232" lon="0.40008">
        <ele>39.2</ele>
        <time>2022-09-25T09:43:32Z</time>
      </trkpt>
      <trkpt lat="44.82238" lon="0.4001">
        <ele>39.1</ele>
        <time>2022-09-25T09:43:33Z</time>
      </trkpt>
      <trkpt lat="44.82255" lon="0.40018">
        <ele>39.1</ele>
        <time>2022-09-25T09:43:36Z</time>
      </trkpt>
      <trkpt lat="44.82303" lon="0.40041">
        <ele>38.7</ele>
        <time>2022-09-25T09:43:44Z</time>
      </trkpt>
      <trkpt lat="44.8234" lon="0.40055">
        <ele>39</ele>
        <time>2022-09-25T09:43:50Z</time>
      </trkpt>
      <trkpt lat="44.82394" lon="0.40077">
        <ele>39.5</ele>
        <time>2022-09-25T09:43:59Z</time>
      </trkpt>
      <trkpt lat="44.82436" lon="0.40095">
        <ele>40</ele>
        <time>2022-09-25T09:44:06Z</time>
      </trkpt>
      <trkpt lat="44.82461" lon="0.40105">
        <ele>40.2</ele>
        <time>2022-09-25T09:44:11Z</time>
      </trkpt>
      <trkpt lat="44.82465" lon="0.40107">
        <ele>40.3</ele>
        <time>2022-09-25T09:44:12Z</time>
      </trkpt>
      <trkpt lat="44.82502" lon="0.4012">
        <ele>40.4</ele>
        <time>2022-09-25T09:44:20Z</time>
      </trkpt>
      <trkpt lat="44.82535" lon="0.40132">
        <ele>40.6</ele>
        <time>2022-09-25T09:44:27Z</time>
      </trkpt>
      <trkpt lat="44.82545" lon="0.40135">
        <ele>40.6</ele>
        <time>2022-09-25T09:44:29Z</time>
      </trkpt>
      <trkpt lat="44.82561" lon="0.4014">
        <ele>40.7</ele>
        <time>2022-09-25T09:44:32Z</time>
      </trkpt>
      <trkpt lat="44.8261" lon="0.40157">
        <ele>40.6</ele>
        <time>2022-09-25T09:44:41Z</time>
      </trkpt>
      <trkpt lat="44.82645" lon="0.40169">
        <ele>40</ele>
        <time>2022-09-25T09:44:47Z</time>
      </trkpt>
      <trkpt lat="44.82653" lon="0.40174">
        <ele>39.5</ele>
        <time>2022-09-25T09:44:49Z</time>
      </trkpt>
      <trkpt lat="44.82657" lon="0.40176">
        <ele>39.3</ele>
        <time>2022-09-25T09:44:50Z</time>
      </trkpt>
      <trkpt lat="44.82657" lon="0.40194">
        <ele>39.2</ele>
        <time>2022-09-25T09:44:53Z</time>
      </trkpt>
      <trkpt lat="44.82657" lon="0.40201">
        <ele>39.2</ele>
        <time>2022-09-25T09:44:54Z</time>
      </trkpt>
      <trkpt lat="44.82657" lon="0.40208">
        <ele>39.2</ele>
        <time>2022-09-25T09:44:55Z</time>
      </trkpt>
      <trkpt lat="44.82655" lon="0.40232">
        <ele>39</ele>
        <time>2022-09-25T09:44:58Z</time>
      </trkpt>
      <trkpt lat="44.82653" lon="0.40288">
        <ele>38.9</ele>
        <time>2022-09-25T09:45:05Z</time>
      </trkpt>
      <trkpt lat="44.8265" lon="0.40358">
        <ele>38.8</ele>
        <time>2022-09-25T09:45:14Z</time>
      </trkpt>
      <trkpt lat="44.82647" lon="0.40423">
        <ele>38.4</ele>
        <time>2022-09-25T09:45:22Z</time>
      </trkpt>
      <trkpt lat="44.82647" lon="0.40455">
        <ele>38.2</ele>
        <time>2022-09-25T09:45:26Z</time>
      </trkpt>
      <trkpt lat="44.82647" lon="0.40462">
        <ele>38.2</ele>
        <time>2022-09-25T09:45:27Z</time>
      </trkpt>
      <trkpt lat="44.82647" lon="0.40467">
        <ele>38.2</ele>
        <time>2022-09-25T09:45:28Z</time>
      </trkpt>
      <trkpt lat="44.82647" lon="0.40473">
        <ele>38.2</ele>
        <time>2022-09-25T09:45:30Z</time>
      </trkpt>
      <trkpt lat="44.82661" lon="0.40478">
        <ele>37.8</ele>
        <time>2022-09-25T09:45:34Z</time>
      </trkpt>
      <trkpt lat="44.82665" lon="0.4048">
        <ele>37.7</ele>
        <time>2022-09-25T09:45:35Z</time>
      </trkpt>
      <trkpt lat="44.82674" lon="0.40485">
        <ele>37.5</ele>
        <time>2022-09-25T09:45:37Z</time>
      </trkpt>
      <trkpt lat="44.82682" lon="0.40491">
        <ele>37.4</ele>
        <time>2022-09-25T09:45:39Z</time>
      </trkpt>
      <trkpt lat="44.82685" lon="0.40494">
        <ele>37.3</ele>
        <time>2022-09-25T09:45:40Z</time>
      </trkpt>
      <trkpt lat="44.82707" lon="0.40511">
        <ele>37</ele>
        <time>2022-09-25T09:45:46Z</time>
      </trkpt>
      <trkpt lat="44.82706" lon="0.40523">
        <ele>36.9</ele>
        <time>2022-09-25T09:45:48Z</time>
      </trkpt>
      <trkpt lat="44.82704" lon="0.40524">
        <ele>36.9</ele>
        <time>2022-09-25T09:45:49Z</time>
      </trkpt>
      <trkpt lat="44.82695" lon="0.40525">
        <ele>36.8</ele>
        <time>2022-09-25T09:45:54Z</time>
      </trkpt>
      <trkpt lat="44.82693" lon="0.40525">
        <ele>36.8</ele>
        <time>2022-09-25T09:45:57Z</time>
      </trkpt>
    </trkseg>
  </trk>
</gpx>